<?xml version="1.0" encoding="UTF-8" standalone="no" ?>
<gpx xmlns="http://www.topografix.com/GPX/1/1" xmlns:xsi="http://www.w3.org/2001/XMLSchema-instance" xsi:schemaLocation="http://www.topografix.com/GPX/1/1 http://www.topografix.com/GPX/1/1/gpx.xsd" version="1.1" creator="VisuGPX - https://www.visugpx.com">
  <metadata>
    <name>RoadTrip Moto Ecosse Juin 2021 - V3</name>
  </metadata>
  <trk>
    <name><![CDATA[J8-Applecross-Ullapool_Durness-Skail]]></name>
    <extensions>
      <line xmlns="http://www.topografix.com/GPX/gpx_style/0/2">
        <color>FF00FF</color>
        <width>4</width>
      </line>
    </extensions>
    <trkseg>
      <trkpt lat="57.45253" lon="-5.79901">
        <ele>19.18</ele>
        <time>2021-04-06T09:11:37Z</time>
      </trkpt>
      <trkpt lat="57.45219" lon="-5.79895">
        <ele>18.99</ele>
        <time>2021-04-06T09:11:52Z</time>
      </trkpt>
      <trkpt lat="57.45155" lon="-5.79869">
        <ele>15.58</ele>
        <time>2021-04-06T09:12:07Z</time>
      </trkpt>
      <trkpt lat="57.45067" lon="-5.79843">
        <ele>13.8</ele>
        <time>2021-04-06T09:12:21Z</time>
      </trkpt>
      <trkpt lat="57.45035" lon="-5.79848">
        <ele>14.23</ele>
        <time>2021-04-06T09:12:36Z</time>
      </trkpt>
      <trkpt lat="57.44965" lon="-5.7991">
        <ele>14.23</ele>
        <time>2021-04-06T09:12:51Z</time>
      </trkpt>
      <trkpt lat="57.44828" lon="-5.80062">
        <ele>10.59</ele>
        <time>2021-04-06T09:13:05Z</time>
      </trkpt>
      <trkpt lat="57.44806" lon="-5.80088">
        <ele>9.03</ele>
        <time>2021-04-06T09:13:20Z</time>
      </trkpt>
      <trkpt lat="57.4479" lon="-5.80113">
        <ele>10.11</ele>
        <time>2021-04-06T09:13:35Z</time>
      </trkpt>
      <trkpt lat="57.44767" lon="-5.80153">
        <ele>10.25</ele>
        <time>2021-04-06T09:13:49Z</time>
      </trkpt>
      <trkpt lat="57.44717" lon="-5.80274">
        <ele>11.61</ele>
        <time>2021-04-06T09:14:04Z</time>
      </trkpt>
      <trkpt lat="57.44699" lon="-5.80346">
        <ele>11.23</ele>
        <time>2021-04-06T09:14:19Z</time>
      </trkpt>
      <trkpt lat="57.44691" lon="-5.80403">
        <ele>9.63</ele>
        <time>2021-04-06T09:14:33Z</time>
      </trkpt>
      <trkpt lat="57.44681" lon="-5.80499">
        <ele>7.02</ele>
        <time>2021-04-06T09:14:48Z</time>
      </trkpt>
      <trkpt lat="57.44664" lon="-5.80559">
        <ele>8.1</ele>
        <time>2021-04-06T09:15:02Z</time>
      </trkpt>
      <trkpt lat="57.44646" lon="-5.80596">
        <ele>8.76</ele>
        <time>2021-04-06T09:15:17Z</time>
      </trkpt>
      <trkpt lat="57.44574" lon="-5.80715">
        <ele>8.98</ele>
        <time>2021-04-06T09:15:32Z</time>
      </trkpt>
      <trkpt lat="57.4451" lon="-5.80813">
        <ele>6.74</ele>
        <time>2021-04-06T09:15:46Z</time>
      </trkpt>
      <trkpt lat="57.44363" lon="-5.81001">
        <ele>4.96</ele>
        <time>2021-04-06T09:16:01Z</time>
      </trkpt>
      <trkpt lat="57.4433" lon="-5.81047">
        <ele>3</ele>
        <time>2021-04-06T09:16:16Z</time>
      </trkpt>
      <trkpt lat="57.44352" lon="-5.81111">
        <ele>3.68</ele>
        <time>2021-04-06T09:16:18Z</time>
      </trkpt>
      <trkpt lat="57.44362" lon="-5.81147">
        <ele>4</ele>
        <time>2021-04-06T09:16:21Z</time>
      </trkpt>
      <trkpt lat="57.44374" lon="-5.81207">
        <ele>4.46</ele>
        <time>2021-04-06T09:16:24Z</time>
      </trkpt>
      <trkpt lat="57.44382" lon="-5.81258">
        <ele>4.77</ele>
        <time>2021-04-06T09:16:27Z</time>
      </trkpt>
      <trkpt lat="57.44386" lon="-5.81295">
        <ele>4.96</ele>
        <time>2021-04-06T09:16:29Z</time>
      </trkpt>
      <trkpt lat="57.44392" lon="-5.8139">
        <ele>4.13</ele>
        <time>2021-04-06T09:16:32Z</time>
      </trkpt>
      <trkpt lat="57.44412" lon="-5.8177">
        <ele>12.77</ele>
        <time>2021-04-06T09:16:35Z</time>
      </trkpt>
      <trkpt lat="57.4442" lon="-5.81869">
        <ele>15.06</ele>
        <time>2021-04-06T09:16:38Z</time>
      </trkpt>
      <trkpt lat="57.44423" lon="-5.81926">
        <ele>16.37</ele>
        <time>2021-04-06T09:16:40Z</time>
      </trkpt>
      <trkpt lat="57.44423" lon="-5.82009">
        <ele>17.82</ele>
        <time>2021-04-06T09:16:43Z</time>
      </trkpt>
      <trkpt lat="57.44418" lon="-5.82081">
        <ele>22.03</ele>
        <time>2021-04-06T09:16:46Z</time>
      </trkpt>
      <trkpt lat="57.44409" lon="-5.8217">
        <ele>25.24</ele>
        <time>2021-04-06T09:16:49Z</time>
      </trkpt>
      <trkpt lat="57.44396" lon="-5.82236">
        <ele>23.4</ele>
        <time>2021-04-06T09:16:52Z</time>
      </trkpt>
      <trkpt lat="57.44331" lon="-5.82488">
        <ele>24.53</ele>
        <time>2021-04-06T09:16:54Z</time>
      </trkpt>
      <trkpt lat="57.44318" lon="-5.82544">
        <ele>26.76</ele>
        <time>2021-04-06T09:16:57Z</time>
      </trkpt>
      <trkpt lat="57.44307" lon="-5.82599">
        <ele>31.06</ele>
        <time>2021-04-06T09:17:00Z</time>
      </trkpt>
      <trkpt lat="57.44224" lon="-5.83083">
        <ele>30.75</ele>
        <time>2021-04-06T09:17:03Z</time>
      </trkpt>
      <trkpt lat="57.44215" lon="-5.83163">
        <ele>30.98</ele>
        <time>2021-04-06T09:17:05Z</time>
      </trkpt>
      <trkpt lat="57.44212" lon="-5.83197">
        <ele>31.17</ele>
        <time>2021-04-06T09:17:08Z</time>
      </trkpt>
      <trkpt lat="57.44211" lon="-5.83236">
        <ele>32.07</ele>
        <time>2021-04-06T09:17:11Z</time>
      </trkpt>
      <trkpt lat="57.44215" lon="-5.83384">
        <ele>37.61</ele>
        <time>2021-04-06T09:17:14Z</time>
      </trkpt>
      <trkpt lat="57.44214" lon="-5.83437">
        <ele>36.25</ele>
        <time>2021-04-06T09:17:16Z</time>
      </trkpt>
      <trkpt lat="57.4421" lon="-5.83477">
        <ele>34.04</ele>
        <time>2021-04-06T09:17:19Z</time>
      </trkpt>
      <trkpt lat="57.44204" lon="-5.83513">
        <ele>32.75</ele>
        <time>2021-04-06T09:17:22Z</time>
      </trkpt>
      <trkpt lat="57.44174" lon="-5.83632">
        <ele>29.63</ele>
        <time>2021-04-06T09:17:25Z</time>
      </trkpt>
      <trkpt lat="57.44163" lon="-5.83686">
        <ele>30.36</ele>
        <time>2021-04-06T09:17:27Z</time>
      </trkpt>
      <trkpt lat="57.44156" lon="-5.83737">
        <ele>31.27</ele>
        <time>2021-04-06T09:17:30Z</time>
      </trkpt>
      <trkpt lat="57.44155" lon="-5.83783">
        <ele>32.49</ele>
        <time>2021-04-06T09:17:33Z</time>
      </trkpt>
      <trkpt lat="57.44156" lon="-5.83942">
        <ele>33.47</ele>
        <time>2021-04-06T09:17:36Z</time>
      </trkpt>
      <trkpt lat="57.44155" lon="-5.84001">
        <ele>31.81</ele>
        <time>2021-04-06T09:17:39Z</time>
      </trkpt>
      <trkpt lat="57.4415" lon="-5.84063">
        <ele>27.79</ele>
        <time>2021-04-06T09:17:41Z</time>
      </trkpt>
      <trkpt lat="57.44133" lon="-5.84191">
        <ele>25.42</ele>
        <time>2021-04-06T09:17:44Z</time>
      </trkpt>
      <trkpt lat="57.44131" lon="-5.84235">
        <ele>24.1</ele>
        <time>2021-04-06T09:17:47Z</time>
      </trkpt>
      <trkpt lat="57.44131" lon="-5.84273">
        <ele>23.06</ele>
        <time>2021-04-06T09:17:50Z</time>
      </trkpt>
      <trkpt lat="57.44135" lon="-5.84315">
        <ele>24.45</ele>
        <time>2021-04-06T09:17:52Z</time>
      </trkpt>
      <trkpt lat="57.44145" lon="-5.84378">
        <ele>28.76</ele>
        <time>2021-04-06T09:17:55Z</time>
      </trkpt>
      <trkpt lat="57.4419" lon="-5.84596">
        <ele>29.47</ele>
        <time>2021-04-06T09:17:58Z</time>
      </trkpt>
      <trkpt lat="57.44199" lon="-5.84655">
        <ele>24.52</ele>
        <time>2021-04-06T09:18:01Z</time>
      </trkpt>
      <trkpt lat="57.44205" lon="-5.8472">
        <ele>21.91</ele>
        <time>2021-04-06T09:18:03Z</time>
      </trkpt>
      <trkpt lat="57.44208" lon="-5.84779">
        <ele>20.28</ele>
        <time>2021-04-06T09:18:06Z</time>
      </trkpt>
      <trkpt lat="57.44212" lon="-5.84959">
        <ele>26.08</ele>
        <time>2021-04-06T09:18:09Z</time>
      </trkpt>
      <trkpt lat="57.44216" lon="-5.85031">
        <ele>27.59</ele>
        <time>2021-04-06T09:18:12Z</time>
      </trkpt>
      <trkpt lat="57.44221" lon="-5.85076">
        <ele>27.24</ele>
        <time>2021-04-06T09:18:14Z</time>
      </trkpt>
      <trkpt lat="57.44229" lon="-5.85126">
        <ele>25.83</ele>
        <time>2021-04-06T09:18:17Z</time>
      </trkpt>
      <trkpt lat="57.44242" lon="-5.85182">
        <ele>25.25</ele>
        <time>2021-04-06T09:18:20Z</time>
      </trkpt>
      <trkpt lat="57.44262" lon="-5.85242">
        <ele>25.85</ele>
        <time>2021-04-06T09:18:23Z</time>
      </trkpt>
      <trkpt lat="57.44262" lon="-5.85242">
        <ele>25.85</ele>
        <time>2021-04-06T09:18:23Z</time>
      </trkpt>
      <trkpt lat="57.44309" lon="-5.85362">
        <ele>25.94</ele>
        <time>2021-04-06T09:18:27Z</time>
      </trkpt>
      <trkpt lat="57.44333" lon="-5.85415">
        <ele>24.15</ele>
        <time>2021-04-06T09:18:31Z</time>
      </trkpt>
      <trkpt lat="57.44353" lon="-5.85448">
        <ele>23.48</ele>
        <time>2021-04-06T09:18:36Z</time>
      </trkpt>
      <trkpt lat="57.44388" lon="-5.85495">
        <ele>23.75</ele>
        <time>2021-04-06T09:18:40Z</time>
      </trkpt>
      <trkpt lat="57.44512" lon="-5.8563">
        <ele>21.17</ele>
        <time>2021-04-06T09:18:44Z</time>
      </trkpt>
      <trkpt lat="57.44557" lon="-5.85667">
        <ele>20.25</ele>
        <time>2021-04-06T09:18:49Z</time>
      </trkpt>
      <trkpt lat="57.44591" lon="-5.8569">
        <ele>21.23</ele>
        <time>2021-04-06T09:18:53Z</time>
      </trkpt>
      <trkpt lat="57.44714" lon="-5.85742">
        <ele>28.46</ele>
        <time>2021-04-06T09:18:57Z</time>
      </trkpt>
      <trkpt lat="57.44744" lon="-5.8576">
        <ele>27.16</ele>
        <time>2021-04-06T09:19:02Z</time>
      </trkpt>
      <trkpt lat="57.44773" lon="-5.85783">
        <ele>26.36</ele>
        <time>2021-04-06T09:19:06Z</time>
      </trkpt>
      <trkpt lat="57.44856" lon="-5.85875">
        <ele>25.76</ele>
        <time>2021-04-06T09:19:10Z</time>
      </trkpt>
      <trkpt lat="57.44894" lon="-5.85909">
        <ele>24.14</ele>
        <time>2021-04-06T09:19:15Z</time>
      </trkpt>
      <trkpt lat="57.4493" lon="-5.85937">
        <ele>23.55</ele>
        <time>2021-04-06T09:19:19Z</time>
      </trkpt>
      <trkpt lat="57.44958" lon="-5.8595">
        <ele>24.24</ele>
        <time>2021-04-06T09:19:23Z</time>
      </trkpt>
      <trkpt lat="57.45265" lon="-5.86032">
        <ele>27.85</ele>
        <time>2021-04-06T09:19:28Z</time>
      </trkpt>
      <trkpt lat="57.45331" lon="-5.86056">
        <ele>29.69</ele>
        <time>2021-04-06T09:19:32Z</time>
      </trkpt>
      <trkpt lat="57.45514" lon="-5.86129">
        <ele>24.81</ele>
        <time>2021-04-06T09:19:36Z</time>
      </trkpt>
      <trkpt lat="57.45554" lon="-5.86139">
        <ele>22.92</ele>
        <time>2021-04-06T09:19:41Z</time>
      </trkpt>
      <trkpt lat="57.45592" lon="-5.8614">
        <ele>23.48</ele>
        <time>2021-04-06T09:19:45Z</time>
      </trkpt>
      <trkpt lat="57.45665" lon="-5.86127">
        <ele>27</ele>
        <time>2021-04-06T09:19:49Z</time>
      </trkpt>
      <trkpt lat="57.45823" lon="-5.8608">
        <ele>26.35</ele>
        <time>2021-04-06T09:19:54Z</time>
      </trkpt>
      <trkpt lat="57.45866" lon="-5.86071">
        <ele>27.12</ele>
        <time>2021-04-06T09:19:58Z</time>
      </trkpt>
      <trkpt lat="57.45909" lon="-5.86066">
        <ele>28.68</ele>
        <time>2021-04-06T09:20:02Z</time>
      </trkpt>
      <trkpt lat="57.45958" lon="-5.86067">
        <ele>29.31</ele>
        <time>2021-04-06T09:20:07Z</time>
      </trkpt>
      <trkpt lat="57.46014" lon="-5.86072">
        <ele>28.33</ele>
        <time>2021-04-06T09:20:11Z</time>
      </trkpt>
      <trkpt lat="57.46081" lon="-5.86082">
        <ele>27.24</ele>
        <time>2021-04-06T09:20:15Z</time>
      </trkpt>
      <trkpt lat="57.46136" lon="-5.86098">
        <ele>25.82</ele>
        <time>2021-04-06T09:20:20Z</time>
      </trkpt>
      <trkpt lat="57.46363" lon="-5.86198">
        <ele>14.89</ele>
        <time>2021-04-06T09:20:24Z</time>
      </trkpt>
      <trkpt lat="57.46411" lon="-5.8621">
        <ele>18.29</ele>
        <time>2021-04-06T09:20:28Z</time>
      </trkpt>
      <trkpt lat="57.46463" lon="-5.86215">
        <ele>21.14</ele>
        <time>2021-04-06T09:20:33Z</time>
      </trkpt>
      <trkpt lat="57.46534" lon="-5.86206">
        <ele>26.32</ele>
        <time>2021-04-06T09:20:37Z</time>
      </trkpt>
      <trkpt lat="57.46711" lon="-5.86158">
        <ele>47.24</ele>
        <time>2021-04-06T09:20:41Z</time>
      </trkpt>
      <trkpt lat="57.46759" lon="-5.86139">
        <ele>55.9</ele>
        <time>2021-04-06T09:20:46Z</time>
      </trkpt>
      <trkpt lat="57.46837" lon="-5.86103">
        <ele>65.3</ele>
        <time>2021-04-06T09:20:50Z</time>
      </trkpt>
      <trkpt lat="57.4694" lon="-5.86069">
        <ele>70.98</ele>
        <time>2021-04-06T09:20:54Z</time>
      </trkpt>
      <trkpt lat="57.47047" lon="-5.86023">
        <ele>60.31</ele>
        <time>2021-04-06T09:20:58Z</time>
      </trkpt>
      <trkpt lat="57.47079" lon="-5.86016">
        <ele>56.07</ele>
        <time>2021-04-06T09:21:03Z</time>
      </trkpt>
      <trkpt lat="57.47116" lon="-5.86024">
        <ele>54.44</ele>
        <time>2021-04-06T09:21:07Z</time>
      </trkpt>
      <trkpt lat="57.47138" lon="-5.86039">
        <ele>54.33</ele>
        <time>2021-04-06T09:21:11Z</time>
      </trkpt>
      <trkpt lat="57.47174" lon="-5.86076">
        <ele>53.73</ele>
        <time>2021-04-06T09:21:16Z</time>
      </trkpt>
      <trkpt lat="57.47254" lon="-5.86194">
        <ele>45.76</ele>
        <time>2021-04-06T09:21:20Z</time>
      </trkpt>
      <trkpt lat="57.47333" lon="-5.86296">
        <ele>38.57</ele>
        <time>2021-04-06T09:21:24Z</time>
      </trkpt>
      <trkpt lat="57.47368" lon="-5.86318">
        <ele>36.99</ele>
        <time>2021-04-06T09:21:29Z</time>
      </trkpt>
      <trkpt lat="57.47614" lon="-5.86402">
        <ele>28.03</ele>
        <time>2021-04-06T09:21:33Z</time>
      </trkpt>
      <trkpt lat="57.47654" lon="-5.86412">
        <ele>28.65</ele>
        <time>2021-04-06T09:21:37Z</time>
      </trkpt>
      <trkpt lat="57.47654" lon="-5.86412">
        <ele>28.65</ele>
        <time>2021-04-06T09:21:37Z</time>
      </trkpt>
      <trkpt lat="57.47688" lon="-5.86409">
        <ele>29.66</ele>
        <time>2021-04-06T09:21:42Z</time>
      </trkpt>
      <trkpt lat="57.47875" lon="-5.86348">
        <ele>42.79</ele>
        <time>2021-04-06T09:21:46Z</time>
      </trkpt>
      <trkpt lat="57.47954" lon="-5.86328">
        <ele>48.52</ele>
        <time>2021-04-06T09:21:51Z</time>
      </trkpt>
      <trkpt lat="57.48009" lon="-5.86321">
        <ele>51.08</ele>
        <time>2021-04-06T09:21:55Z</time>
      </trkpt>
      <trkpt lat="57.48063" lon="-5.86318">
        <ele>53.29</ele>
        <time>2021-04-06T09:22:00Z</time>
      </trkpt>
      <trkpt lat="57.48132" lon="-5.86329">
        <ele>52.89</ele>
        <time>2021-04-06T09:22:04Z</time>
      </trkpt>
      <trkpt lat="57.48265" lon="-5.86377">
        <ele>54.55</ele>
        <time>2021-04-06T09:22:09Z</time>
      </trkpt>
      <trkpt lat="57.48298" lon="-5.86382">
        <ele>55.72</ele>
        <time>2021-04-06T09:22:13Z</time>
      </trkpt>
      <trkpt lat="57.48337" lon="-5.86381">
        <ele>57.72</ele>
        <time>2021-04-06T09:22:18Z</time>
      </trkpt>
      <trkpt lat="57.48377" lon="-5.86373">
        <ele>57.99</ele>
        <time>2021-04-06T09:22:22Z</time>
      </trkpt>
      <trkpt lat="57.48409" lon="-5.86363">
        <ele>58.76</ele>
        <time>2021-04-06T09:22:27Z</time>
      </trkpt>
      <trkpt lat="57.48443" lon="-5.86348">
        <ele>59.01</ele>
        <time>2021-04-06T09:22:31Z</time>
      </trkpt>
      <trkpt lat="57.48514" lon="-5.86306">
        <ele>56.98</ele>
        <time>2021-04-06T09:22:36Z</time>
      </trkpt>
      <trkpt lat="57.48908" lon="-5.86098">
        <ele>68.75</ele>
        <time>2021-04-06T09:22:40Z</time>
      </trkpt>
      <trkpt lat="57.48954" lon="-5.86084">
        <ele>66.63</ele>
        <time>2021-04-06T09:22:45Z</time>
      </trkpt>
      <trkpt lat="57.48982" lon="-5.86082">
        <ele>66.24</ele>
        <time>2021-04-06T09:22:49Z</time>
      </trkpt>
      <trkpt lat="57.49309" lon="-5.86118">
        <ele>55.53</ele>
        <time>2021-04-06T09:22:54Z</time>
      </trkpt>
      <trkpt lat="57.49367" lon="-5.86117">
        <ele>55.79</ele>
        <time>2021-04-06T09:22:58Z</time>
      </trkpt>
      <trkpt lat="57.49938" lon="-5.85983">
        <ele>51.08</ele>
        <time>2021-04-06T09:23:03Z</time>
      </trkpt>
      <trkpt lat="57.49975" lon="-5.85977">
        <ele>52.57</ele>
        <time>2021-04-06T09:23:07Z</time>
      </trkpt>
      <trkpt lat="57.5002" lon="-5.85979">
        <ele>53.08</ele>
        <time>2021-04-06T09:23:12Z</time>
      </trkpt>
      <trkpt lat="57.50118" lon="-5.85992">
        <ele>51.05</ele>
        <time>2021-04-06T09:23:16Z</time>
      </trkpt>
      <trkpt lat="57.50206" lon="-5.85997">
        <ele>52.69</ele>
        <time>2021-04-06T09:23:21Z</time>
      </trkpt>
      <trkpt lat="57.50401" lon="-5.85989">
        <ele>57.22</ele>
        <time>2021-04-06T09:23:25Z</time>
      </trkpt>
      <trkpt lat="57.50859" lon="-5.85955">
        <ele>50.31</ele>
        <time>2021-04-06T09:23:30Z</time>
      </trkpt>
      <trkpt lat="57.50962" lon="-5.85938">
        <ele>47.83</ele>
        <time>2021-04-06T09:23:34Z</time>
      </trkpt>
      <trkpt lat="57.51419" lon="-5.85809">
        <ele>39.68</ele>
        <time>2021-04-06T09:23:39Z</time>
      </trkpt>
      <trkpt lat="57.51592" lon="-5.85764">
        <ele>36.19</ele>
        <time>2021-04-06T09:23:43Z</time>
      </trkpt>
      <trkpt lat="57.51614" lon="-5.85754">
        <ele>35.67</ele>
        <time>2021-04-06T09:23:48Z</time>
      </trkpt>
      <trkpt lat="57.51647" lon="-5.85734">
        <ele>34.58</ele>
        <time>2021-04-06T09:23:52Z</time>
      </trkpt>
      <trkpt lat="57.51681" lon="-5.85705">
        <ele>32.94</ele>
        <time>2021-04-06T09:23:57Z</time>
      </trkpt>
      <trkpt lat="57.51728" lon="-5.8566">
        <ele>30.59</ele>
        <time>2021-04-06T09:24:01Z</time>
      </trkpt>
      <trkpt lat="57.51768" lon="-5.85615">
        <ele>28.58</ele>
        <time>2021-04-06T09:24:06Z</time>
      </trkpt>
      <trkpt lat="57.51813" lon="-5.85573">
        <ele>25.8</ele>
        <time>2021-04-06T09:24:10Z</time>
      </trkpt>
      <trkpt lat="57.51854" lon="-5.85549">
        <ele>24.27</ele>
        <time>2021-04-06T09:24:15Z</time>
      </trkpt>
      <trkpt lat="57.51864" lon="-5.85539">
        <ele>24</ele>
        <time>2021-04-06T09:24:19Z</time>
      </trkpt>
      <trkpt lat="57.51885" lon="-5.85499">
        <ele>24.86</ele>
        <time>2021-04-06T09:24:24Z</time>
      </trkpt>
      <trkpt lat="57.51897" lon="-5.85466">
        <ele>25.24</ele>
        <time>2021-04-06T09:24:28Z</time>
      </trkpt>
      <trkpt lat="57.51918" lon="-5.85387">
        <ele>27.02</ele>
        <time>2021-04-06T09:24:33Z</time>
      </trkpt>
      <trkpt lat="57.51935" lon="-5.85344">
        <ele>27.96</ele>
        <time>2021-04-06T09:24:37Z</time>
      </trkpt>
      <trkpt lat="57.51957" lon="-5.8531">
        <ele>29.94</ele>
        <time>2021-04-06T09:24:42Z</time>
      </trkpt>
      <trkpt lat="57.52028" lon="-5.85236">
        <ele>35.03</ele>
        <time>2021-04-06T09:24:46Z</time>
      </trkpt>
      <trkpt lat="57.52058" lon="-5.85211">
        <ele>36.13</ele>
        <time>2021-04-06T09:24:51Z</time>
      </trkpt>
      <trkpt lat="57.52088" lon="-5.85195">
        <ele>36.97</ele>
        <time>2021-04-06T09:24:55Z</time>
      </trkpt>
      <trkpt lat="57.52149" lon="-5.85171">
        <ele>40.34</ele>
        <time>2021-04-06T09:24:59Z</time>
      </trkpt>
      <trkpt lat="57.52173" lon="-5.85165">
        <ele>41.2</ele>
        <time>2021-04-06T09:25:04Z</time>
      </trkpt>
      <trkpt lat="57.52224" lon="-5.85177">
        <ele>40.09</ele>
        <time>2021-04-06T09:25:08Z</time>
      </trkpt>
      <trkpt lat="57.52255" lon="-5.85169">
        <ele>41.26</ele>
        <time>2021-04-06T09:25:13Z</time>
      </trkpt>
      <trkpt lat="57.52286" lon="-5.85149">
        <ele>42.26</ele>
        <time>2021-04-06T09:25:17Z</time>
      </trkpt>
      <trkpt lat="57.52316" lon="-5.85136">
        <ele>41.95</ele>
        <time>2021-04-06T09:25:22Z</time>
      </trkpt>
      <trkpt lat="57.52417" lon="-5.85112">
        <ele>43.73</ele>
        <time>2021-04-06T09:25:26Z</time>
      </trkpt>
      <trkpt lat="57.52444" lon="-5.8511">
        <ele>45.18</ele>
        <time>2021-04-06T09:25:31Z</time>
      </trkpt>
      <trkpt lat="57.52462" lon="-5.85112">
        <ele>44.85</ele>
        <time>2021-04-06T09:25:35Z</time>
      </trkpt>
      <trkpt lat="57.52517" lon="-5.85127">
        <ele>43.44</ele>
        <time>2021-04-06T09:25:40Z</time>
      </trkpt>
      <trkpt lat="57.52549" lon="-5.85126">
        <ele>43.79</ele>
        <time>2021-04-06T09:25:44Z</time>
      </trkpt>
      <trkpt lat="57.5259" lon="-5.85119">
        <ele>45.01</ele>
        <time>2021-04-06T09:25:49Z</time>
      </trkpt>
      <trkpt lat="57.52627" lon="-5.85121">
        <ele>43.39</ele>
        <time>2021-04-06T09:25:53Z</time>
      </trkpt>
      <trkpt lat="57.52661" lon="-5.85118">
        <ele>43.59</ele>
        <time>2021-04-06T09:25:58Z</time>
      </trkpt>
      <trkpt lat="57.52722" lon="-5.85134">
        <ele>42.05</ele>
        <time>2021-04-06T09:26:02Z</time>
      </trkpt>
      <trkpt lat="57.52788" lon="-5.85169">
        <ele>40.27</ele>
        <time>2021-04-06T09:26:07Z</time>
      </trkpt>
      <trkpt lat="57.52831" lon="-5.85181">
        <ele>38.47</ele>
        <time>2021-04-06T09:26:11Z</time>
      </trkpt>
      <trkpt lat="57.5292" lon="-5.85174">
        <ele>40</ele>
        <time>2021-04-06T09:26:16Z</time>
      </trkpt>
      <trkpt lat="57.53017" lon="-5.85188">
        <ele>40.49</ele>
        <time>2021-04-06T09:26:20Z</time>
      </trkpt>
      <trkpt lat="57.53078" lon="-5.85176">
        <ele>41.56</ele>
        <time>2021-04-06T09:26:25Z</time>
      </trkpt>
      <trkpt lat="57.53111" lon="-5.85165">
        <ele>42.19</ele>
        <time>2021-04-06T09:26:29Z</time>
      </trkpt>
      <trkpt lat="57.53178" lon="-5.85135">
        <ele>45.19</ele>
        <time>2021-04-06T09:26:34Z</time>
      </trkpt>
      <trkpt lat="57.53223" lon="-5.85104">
        <ele>47.76</ele>
        <time>2021-04-06T09:26:38Z</time>
      </trkpt>
      <trkpt lat="57.53253" lon="-5.85088">
        <ele>48.27</ele>
        <time>2021-04-06T09:26:43Z</time>
      </trkpt>
      <trkpt lat="57.53278" lon="-5.8508">
        <ele>47.51</ele>
        <time>2021-04-06T09:26:47Z</time>
      </trkpt>
      <trkpt lat="57.53358" lon="-5.85084">
        <ele>46.82</ele>
        <time>2021-04-06T09:26:52Z</time>
      </trkpt>
      <trkpt lat="57.53473" lon="-5.85104">
        <ele>45.53</ele>
        <time>2021-04-06T09:26:56Z</time>
      </trkpt>
      <trkpt lat="57.53508" lon="-5.85106">
        <ele>46.37</ele>
        <time>2021-04-06T09:27:01Z</time>
      </trkpt>
      <trkpt lat="57.53557" lon="-5.85102">
        <ele>46.28</ele>
        <time>2021-04-06T09:27:05Z</time>
      </trkpt>
      <trkpt lat="57.53672" lon="-5.85074">
        <ele>43.05</ele>
        <time>2021-04-06T09:27:10Z</time>
      </trkpt>
      <trkpt lat="57.53703" lon="-5.85061">
        <ele>41.68</ele>
        <time>2021-04-06T09:27:14Z</time>
      </trkpt>
      <trkpt lat="57.53703" lon="-5.85061">
        <ele>41.68</ele>
        <time>2021-04-06T09:27:14Z</time>
      </trkpt>
      <trkpt lat="57.53876" lon="-5.84955">
        <ele>42.57</ele>
        <time>2021-04-06T09:27:17Z</time>
      </trkpt>
      <trkpt lat="57.53895" lon="-5.8494">
        <ele>42.59</ele>
        <time>2021-04-06T09:27:20Z</time>
      </trkpt>
      <trkpt lat="57.53976" lon="-5.84889">
        <ele>53.79</ele>
        <time>2021-04-06T09:27:23Z</time>
      </trkpt>
      <trkpt lat="57.54023" lon="-5.84835">
        <ele>55.22</ele>
        <time>2021-04-06T09:27:27Z</time>
      </trkpt>
      <trkpt lat="57.54049" lon="-5.8482">
        <ele>57.08</ele>
        <time>2021-04-06T09:27:30Z</time>
      </trkpt>
      <trkpt lat="57.54065" lon="-5.84818">
        <ele>58.67</ele>
        <time>2021-04-06T09:27:33Z</time>
      </trkpt>
      <trkpt lat="57.54115" lon="-5.84828">
        <ele>63.07</ele>
        <time>2021-04-06T09:27:36Z</time>
      </trkpt>
      <trkpt lat="57.54158" lon="-5.84823">
        <ele>66.14</ele>
        <time>2021-04-06T09:27:39Z</time>
      </trkpt>
      <trkpt lat="57.54184" lon="-5.84812">
        <ele>66.71</ele>
        <time>2021-04-06T09:27:42Z</time>
      </trkpt>
      <trkpt lat="57.54194" lon="-5.84804">
        <ele>67.23</ele>
        <time>2021-04-06T09:27:45Z</time>
      </trkpt>
      <trkpt lat="57.54221" lon="-5.84753">
        <ele>72.9</ele>
        <time>2021-04-06T09:27:48Z</time>
      </trkpt>
      <trkpt lat="57.54243" lon="-5.84696">
        <ele>73.47</ele>
        <time>2021-04-06T09:27:51Z</time>
      </trkpt>
      <trkpt lat="57.54263" lon="-5.84632">
        <ele>74.23</ele>
        <time>2021-04-06T09:27:54Z</time>
      </trkpt>
      <trkpt lat="57.54353" lon="-5.84261">
        <ele>70.3</ele>
        <time>2021-04-06T09:27:57Z</time>
      </trkpt>
      <trkpt lat="57.54366" lon="-5.84226">
        <ele>69.53</ele>
        <time>2021-04-06T09:28:00Z</time>
      </trkpt>
      <trkpt lat="57.54381" lon="-5.84209">
        <ele>67.9</ele>
        <time>2021-04-06T09:28:03Z</time>
      </trkpt>
      <trkpt lat="57.5443" lon="-5.84172">
        <ele>62.04</ele>
        <time>2021-04-06T09:28:07Z</time>
      </trkpt>
      <trkpt lat="57.54493" lon="-5.84131">
        <ele>55.08</ele>
        <time>2021-04-06T09:28:10Z</time>
      </trkpt>
      <trkpt lat="57.54558" lon="-5.84099">
        <ele>49.92</ele>
        <time>2021-04-06T09:28:13Z</time>
      </trkpt>
      <trkpt lat="57.54673" lon="-5.8405">
        <ele>43</ele>
        <time>2021-04-06T09:28:16Z</time>
      </trkpt>
      <trkpt lat="57.54703" lon="-5.84041">
        <ele>43</ele>
        <time>2021-04-06T09:28:19Z</time>
      </trkpt>
      <trkpt lat="57.54769" lon="-5.84049">
        <ele>43.07</ele>
        <time>2021-04-06T09:28:22Z</time>
      </trkpt>
      <trkpt lat="57.54895" lon="-5.8408">
        <ele>39.13</ele>
        <time>2021-04-06T09:28:25Z</time>
      </trkpt>
      <trkpt lat="57.5497" lon="-5.84112">
        <ele>38.06</ele>
        <time>2021-04-06T09:28:28Z</time>
      </trkpt>
      <trkpt lat="57.55087" lon="-5.84191">
        <ele>30.4</ele>
        <time>2021-04-06T09:28:31Z</time>
      </trkpt>
      <trkpt lat="57.55111" lon="-5.84202">
        <ele>27</ele>
        <time>2021-04-06T09:28:34Z</time>
      </trkpt>
      <trkpt lat="57.55126" lon="-5.84199">
        <ele>25.95</ele>
        <time>2021-04-06T09:28:37Z</time>
      </trkpt>
      <trkpt lat="57.55142" lon="-5.84181">
        <ele>24.38</ele>
        <time>2021-04-06T09:28:40Z</time>
      </trkpt>
      <trkpt lat="57.552" lon="-5.8399">
        <ele>19.42</ele>
        <time>2021-04-06T09:28:43Z</time>
      </trkpt>
      <trkpt lat="57.55209" lon="-5.83958">
        <ele>17.96</ele>
        <time>2021-04-06T09:28:47Z</time>
      </trkpt>
      <trkpt lat="57.55225" lon="-5.83869">
        <ele>13.91</ele>
        <time>2021-04-06T09:28:50Z</time>
      </trkpt>
      <trkpt lat="57.55225" lon="-5.83803">
        <ele>14.99</ele>
        <time>2021-04-06T09:28:53Z</time>
      </trkpt>
      <trkpt lat="57.5521" lon="-5.8364">
        <ele>19.42</ele>
        <time>2021-04-06T09:28:56Z</time>
      </trkpt>
      <trkpt lat="57.55217" lon="-5.83586">
        <ele>20.93</ele>
        <time>2021-04-06T09:28:59Z</time>
      </trkpt>
      <trkpt lat="57.55228" lon="-5.83547">
        <ele>21.78</ele>
        <time>2021-04-06T09:29:02Z</time>
      </trkpt>
      <trkpt lat="57.55245" lon="-5.83518">
        <ele>21.53</ele>
        <time>2021-04-06T09:29:05Z</time>
      </trkpt>
      <trkpt lat="57.5526" lon="-5.835">
        <ele>22.72</ele>
        <time>2021-04-06T09:29:08Z</time>
      </trkpt>
      <trkpt lat="57.55284" lon="-5.83477">
        <ele>25.5</ele>
        <time>2021-04-06T09:29:11Z</time>
      </trkpt>
      <trkpt lat="57.55332" lon="-5.83436">
        <ele>32.91</ele>
        <time>2021-04-06T09:29:14Z</time>
      </trkpt>
      <trkpt lat="57.55391" lon="-5.83402">
        <ele>33.84</ele>
        <time>2021-04-06T09:29:17Z</time>
      </trkpt>
      <trkpt lat="57.55424" lon="-5.83377">
        <ele>31.89</ele>
        <time>2021-04-06T09:29:20Z</time>
      </trkpt>
      <trkpt lat="57.55459" lon="-5.83342">
        <ele>29.97</ele>
        <time>2021-04-06T09:29:23Z</time>
      </trkpt>
      <trkpt lat="57.55482" lon="-5.83304">
        <ele>28.9</ele>
        <time>2021-04-06T09:29:27Z</time>
      </trkpt>
      <trkpt lat="57.55495" lon="-5.83278">
        <ele>27.01</ele>
        <time>2021-04-06T09:29:30Z</time>
      </trkpt>
      <trkpt lat="57.55509" lon="-5.83235">
        <ele>26.12</ele>
        <time>2021-04-06T09:29:33Z</time>
      </trkpt>
      <trkpt lat="57.55529" lon="-5.83196">
        <ele>24.96</ele>
        <time>2021-04-06T09:29:36Z</time>
      </trkpt>
      <trkpt lat="57.55542" lon="-5.83185">
        <ele>24.49</ele>
        <time>2021-04-06T09:29:39Z</time>
      </trkpt>
      <trkpt lat="57.55586" lon="-5.83165">
        <ele>23</ele>
        <time>2021-04-06T09:29:42Z</time>
      </trkpt>
      <trkpt lat="57.55647" lon="-5.83123">
        <ele>22.59</ele>
        <time>2021-04-06T09:29:45Z</time>
      </trkpt>
      <trkpt lat="57.55711" lon="-5.83049">
        <ele>26.07</ele>
        <time>2021-04-06T09:29:48Z</time>
      </trkpt>
      <trkpt lat="57.55854" lon="-5.82934">
        <ele>41.5</ele>
        <time>2021-04-06T09:29:51Z</time>
      </trkpt>
      <trkpt lat="57.55906" lon="-5.82885">
        <ele>41.94</ele>
        <time>2021-04-06T09:29:54Z</time>
      </trkpt>
      <trkpt lat="57.56051" lon="-5.82779">
        <ele>44.28</ele>
        <time>2021-04-06T09:29:57Z</time>
      </trkpt>
      <trkpt lat="57.56153" lon="-5.82722">
        <ele>50</ele>
        <time>2021-04-06T09:30:00Z</time>
      </trkpt>
      <trkpt lat="57.56176" lon="-5.82706">
        <ele>52.04</ele>
        <time>2021-04-06T09:30:03Z</time>
      </trkpt>
      <trkpt lat="57.56188" lon="-5.82689">
        <ele>53.48</ele>
        <time>2021-04-06T09:30:07Z</time>
      </trkpt>
      <trkpt lat="57.56195" lon="-5.82664">
        <ele>55</ele>
        <time>2021-04-06T09:30:10Z</time>
      </trkpt>
      <trkpt lat="57.56201" lon="-5.82611">
        <ele>55.55</ele>
        <time>2021-04-06T09:30:13Z</time>
      </trkpt>
      <trkpt lat="57.56202" lon="-5.82556">
        <ele>54.44</ele>
        <time>2021-04-06T09:30:16Z</time>
      </trkpt>
      <trkpt lat="57.56202" lon="-5.82484">
        <ele>51.78</ele>
        <time>2021-04-06T09:30:19Z</time>
      </trkpt>
      <trkpt lat="57.56207" lon="-5.82459">
        <ele>50.39</ele>
        <time>2021-04-06T09:30:22Z</time>
      </trkpt>
      <trkpt lat="57.56214" lon="-5.82437">
        <ele>49.21</ele>
        <time>2021-04-06T09:30:25Z</time>
      </trkpt>
      <trkpt lat="57.56226" lon="-5.82425">
        <ele>48.86</ele>
        <time>2021-04-06T09:30:28Z</time>
      </trkpt>
      <trkpt lat="57.56309" lon="-5.82403">
        <ele>46.62</ele>
        <time>2021-04-06T09:30:31Z</time>
      </trkpt>
      <trkpt lat="57.5635" lon="-5.82384">
        <ele>48.2</ele>
        <time>2021-04-06T09:30:34Z</time>
      </trkpt>
      <trkpt lat="57.56394" lon="-5.82358">
        <ele>49</ele>
        <time>2021-04-06T09:30:37Z</time>
      </trkpt>
      <trkpt lat="57.56446" lon="-5.82304">
        <ele>47.97</ele>
        <time>2021-04-06T09:30:40Z</time>
      </trkpt>
      <trkpt lat="57.56461" lon="-5.8228">
        <ele>46.79</ele>
        <time>2021-04-06T09:30:43Z</time>
      </trkpt>
      <trkpt lat="57.56485" lon="-5.82237">
        <ele>47.2</ele>
        <time>2021-04-06T09:30:46Z</time>
      </trkpt>
      <trkpt lat="57.56499" lon="-5.82219">
        <ele>48.09</ele>
        <time>2021-04-06T09:30:50Z</time>
      </trkpt>
      <trkpt lat="57.56525" lon="-5.82208">
        <ele>49.01</ele>
        <time>2021-04-06T09:30:53Z</time>
      </trkpt>
      <trkpt lat="57.56608" lon="-5.82182">
        <ele>47.94</ele>
        <time>2021-04-06T09:30:56Z</time>
      </trkpt>
      <trkpt lat="57.5665" lon="-5.82179">
        <ele>47.91</ele>
        <time>2021-04-06T09:30:59Z</time>
      </trkpt>
      <trkpt lat="57.56732" lon="-5.8218">
        <ele>44.15</ele>
        <time>2021-04-06T09:31:02Z</time>
      </trkpt>
      <trkpt lat="57.56761" lon="-5.82178">
        <ele>43.17</ele>
        <time>2021-04-06T09:31:05Z</time>
      </trkpt>
      <trkpt lat="57.56812" lon="-5.82167">
        <ele>42</ele>
        <time>2021-04-06T09:31:08Z</time>
      </trkpt>
      <trkpt lat="57.56867" lon="-5.82163">
        <ele>41</ele>
        <time>2021-04-06T09:31:11Z</time>
      </trkpt>
      <trkpt lat="57.56877" lon="-5.82158">
        <ele>41</ele>
        <time>2021-04-06T09:31:14Z</time>
      </trkpt>
      <trkpt lat="57.56888" lon="-5.82145">
        <ele>41</ele>
        <time>2021-04-06T09:31:17Z</time>
      </trkpt>
      <trkpt lat="57.56935" lon="-5.82056">
        <ele>41.26</ele>
        <time>2021-04-06T09:31:20Z</time>
      </trkpt>
      <trkpt lat="57.56961" lon="-5.82029">
        <ele>42.6</ele>
        <time>2021-04-06T09:31:23Z</time>
      </trkpt>
      <trkpt lat="57.56998" lon="-5.82">
        <ele>42.99</ele>
        <time>2021-04-06T09:31:26Z</time>
      </trkpt>
      <trkpt lat="57.57128" lon="-5.81937">
        <ele>37.74</ele>
        <time>2021-04-06T09:31:30Z</time>
      </trkpt>
      <trkpt lat="57.57185" lon="-5.81893">
        <ele>37.48</ele>
        <time>2021-04-06T09:31:33Z</time>
      </trkpt>
      <trkpt lat="57.57214" lon="-5.81875">
        <ele>37.48</ele>
        <time>2021-04-06T09:31:36Z</time>
      </trkpt>
      <trkpt lat="57.57259" lon="-5.81854">
        <ele>35.8</ele>
        <time>2021-04-06T09:31:39Z</time>
      </trkpt>
      <trkpt lat="57.57293" lon="-5.81828">
        <ele>31.31</ele>
        <time>2021-04-06T09:31:42Z</time>
      </trkpt>
      <trkpt lat="57.57376" lon="-5.8172">
        <ele>25.46</ele>
        <time>2021-04-06T09:31:45Z</time>
      </trkpt>
      <trkpt lat="57.57399" lon="-5.81703">
        <ele>23.66</ele>
        <time>2021-04-06T09:31:48Z</time>
      </trkpt>
      <trkpt lat="57.57462" lon="-5.81669">
        <ele>19.58</ele>
        <time>2021-04-06T09:31:51Z</time>
      </trkpt>
      <trkpt lat="57.5748" lon="-5.81652">
        <ele>19.94</ele>
        <time>2021-04-06T09:31:54Z</time>
      </trkpt>
      <trkpt lat="57.57505" lon="-5.8162">
        <ele>20.78</ele>
        <time>2021-04-06T09:31:57Z</time>
      </trkpt>
      <trkpt lat="57.57589" lon="-5.81501">
        <ele>25.75</ele>
        <time>2021-04-06T09:32:00Z</time>
      </trkpt>
      <trkpt lat="57.57629" lon="-5.8146">
        <ele>29.23</ele>
        <time>2021-04-06T09:32:03Z</time>
      </trkpt>
      <trkpt lat="57.57647" lon="-5.81436">
        <ele>31.67</ele>
        <time>2021-04-06T09:32:06Z</time>
      </trkpt>
      <trkpt lat="57.5766" lon="-5.81411">
        <ele>35.11</ele>
        <time>2021-04-06T09:32:10Z</time>
      </trkpt>
      <trkpt lat="57.57671" lon="-5.81375">
        <ele>39.79</ele>
        <time>2021-04-06T09:32:13Z</time>
      </trkpt>
      <trkpt lat="57.57686" lon="-5.81333">
        <ele>43.16</ele>
        <time>2021-04-06T09:32:16Z</time>
      </trkpt>
      <trkpt lat="57.57716" lon="-5.81258">
        <ele>43.08</ele>
        <time>2021-04-06T09:32:19Z</time>
      </trkpt>
      <trkpt lat="57.57716" lon="-5.81258">
        <ele>43.08</ele>
        <time>2021-04-06T09:32:19Z</time>
      </trkpt>
      <trkpt lat="57.57751" lon="-5.8113">
        <ele>38.97</ele>
        <time>2021-04-06T09:32:22Z</time>
      </trkpt>
      <trkpt lat="57.5778" lon="-5.80986">
        <ele>37.84</ele>
        <time>2021-04-06T09:32:25Z</time>
      </trkpt>
      <trkpt lat="57.57784" lon="-5.80944">
        <ele>37.28</ele>
        <time>2021-04-06T09:32:29Z</time>
      </trkpt>
      <trkpt lat="57.57783" lon="-5.80875">
        <ele>37.9</ele>
        <time>2021-04-06T09:32:32Z</time>
      </trkpt>
      <trkpt lat="57.57771" lon="-5.80795">
        <ele>41.07</ele>
        <time>2021-04-06T09:32:35Z</time>
      </trkpt>
      <trkpt lat="57.57761" lon="-5.8076">
        <ele>42.67</ele>
        <time>2021-04-06T09:32:38Z</time>
      </trkpt>
      <trkpt lat="57.57739" lon="-5.80735">
        <ele>43.23</ele>
        <time>2021-04-06T09:32:42Z</time>
      </trkpt>
      <trkpt lat="57.57713" lon="-5.8071">
        <ele>40.97</ele>
        <time>2021-04-06T09:32:45Z</time>
      </trkpt>
      <trkpt lat="57.57655" lon="-5.80665">
        <ele>38.2</ele>
        <time>2021-04-06T09:32:48Z</time>
      </trkpt>
      <trkpt lat="57.57636" lon="-5.80644">
        <ele>38.47</ele>
        <time>2021-04-06T09:32:51Z</time>
      </trkpt>
      <trkpt lat="57.57618" lon="-5.80607">
        <ele>35.63</ele>
        <time>2021-04-06T09:32:54Z</time>
      </trkpt>
      <trkpt lat="57.57472" lon="-5.80179">
        <ele>40.01</ele>
        <time>2021-04-06T09:32:58Z</time>
      </trkpt>
      <trkpt lat="57.57461" lon="-5.80155">
        <ele>41.49</ele>
        <time>2021-04-06T09:33:01Z</time>
      </trkpt>
      <trkpt lat="57.57445" lon="-5.80133">
        <ele>42.71</ele>
        <time>2021-04-06T09:33:04Z</time>
      </trkpt>
      <trkpt lat="57.57397" lon="-5.80085">
        <ele>43.55</ele>
        <time>2021-04-06T09:33:07Z</time>
      </trkpt>
      <trkpt lat="57.57337" lon="-5.80037">
        <ele>45.48</ele>
        <time>2021-04-06T09:33:11Z</time>
      </trkpt>
      <trkpt lat="57.57276" lon="-5.79976">
        <ele>40.74</ele>
        <time>2021-04-06T09:33:14Z</time>
      </trkpt>
      <trkpt lat="57.57238" lon="-5.7995">
        <ele>39.49</ele>
        <time>2021-04-06T09:33:17Z</time>
      </trkpt>
      <trkpt lat="57.57218" lon="-5.79927">
        <ele>37.82</ele>
        <time>2021-04-06T09:33:20Z</time>
      </trkpt>
      <trkpt lat="57.57201" lon="-5.79894">
        <ele>36.11</ele>
        <time>2021-04-06T09:33:24Z</time>
      </trkpt>
      <trkpt lat="57.57193" lon="-5.79859">
        <ele>37.25</ele>
        <time>2021-04-06T09:33:27Z</time>
      </trkpt>
      <trkpt lat="57.57191" lon="-5.79812">
        <ele>41.6</ele>
        <time>2021-04-06T09:33:30Z</time>
      </trkpt>
      <trkpt lat="57.57195" lon="-5.79781">
        <ele>44.53</ele>
        <time>2021-04-06T09:33:33Z</time>
      </trkpt>
      <trkpt lat="57.57204" lon="-5.79752">
        <ele>45.53</ele>
        <time>2021-04-06T09:33:37Z</time>
      </trkpt>
      <trkpt lat="57.57215" lon="-5.79731">
        <ele>44.92</ele>
        <time>2021-04-06T09:33:40Z</time>
      </trkpt>
      <trkpt lat="57.57231" lon="-5.79713">
        <ele>43.25</ele>
        <time>2021-04-06T09:33:43Z</time>
      </trkpt>
      <trkpt lat="57.57268" lon="-5.79701">
        <ele>38.21</ele>
        <time>2021-04-06T09:33:46Z</time>
      </trkpt>
      <trkpt lat="57.57294" lon="-5.7969">
        <ele>35.4</ele>
        <time>2021-04-06T09:33:50Z</time>
      </trkpt>
      <trkpt lat="57.57309" lon="-5.79677">
        <ele>34.5</ele>
        <time>2021-04-06T09:33:53Z</time>
      </trkpt>
      <trkpt lat="57.57321" lon="-5.79657">
        <ele>34.77</ele>
        <time>2021-04-06T09:33:56Z</time>
      </trkpt>
      <trkpt lat="57.57331" lon="-5.7963">
        <ele>35.4</ele>
        <time>2021-04-06T09:33:59Z</time>
      </trkpt>
      <trkpt lat="57.57337" lon="-5.79598">
        <ele>35.74</ele>
        <time>2021-04-06T09:34:03Z</time>
      </trkpt>
      <trkpt lat="57.5734" lon="-5.79567">
        <ele>36.11</ele>
        <time>2021-04-06T09:34:06Z</time>
      </trkpt>
      <trkpt lat="57.57339" lon="-5.79537">
        <ele>35.92</ele>
        <time>2021-04-06T09:34:09Z</time>
      </trkpt>
      <trkpt lat="57.57329" lon="-5.79505">
        <ele>34.62</ele>
        <time>2021-04-06T09:34:12Z</time>
      </trkpt>
      <trkpt lat="57.57311" lon="-5.79463">
        <ele>31.85</ele>
        <time>2021-04-06T09:34:16Z</time>
      </trkpt>
      <trkpt lat="57.57283" lon="-5.79413">
        <ele>27.14</ele>
        <time>2021-04-06T09:34:19Z</time>
      </trkpt>
      <trkpt lat="57.57202" lon="-5.79284">
        <ele>17.23</ele>
        <time>2021-04-06T09:34:22Z</time>
      </trkpt>
      <trkpt lat="57.5717" lon="-5.79219">
        <ele>18.1</ele>
        <time>2021-04-06T09:34:25Z</time>
      </trkpt>
      <trkpt lat="57.57141" lon="-5.79148">
        <ele>22.98</ele>
        <time>2021-04-06T09:34:29Z</time>
      </trkpt>
      <trkpt lat="57.57126" lon="-5.791">
        <ele>24.95</ele>
        <time>2021-04-06T09:34:32Z</time>
      </trkpt>
      <trkpt lat="57.57069" lon="-5.78951">
        <ele>26.76</ele>
        <time>2021-04-06T09:34:35Z</time>
      </trkpt>
      <trkpt lat="57.57046" lon="-5.78906">
        <ele>27.53</ele>
        <time>2021-04-06T09:34:38Z</time>
      </trkpt>
      <trkpt lat="57.5702" lon="-5.78875">
        <ele>28.43</ele>
        <time>2021-04-06T09:34:42Z</time>
      </trkpt>
      <trkpt lat="57.56989" lon="-5.78848">
        <ele>30.57</ele>
        <time>2021-04-06T09:34:45Z</time>
      </trkpt>
      <trkpt lat="57.56958" lon="-5.78832">
        <ele>34.92</ele>
        <time>2021-04-06T09:34:48Z</time>
      </trkpt>
      <trkpt lat="57.56907" lon="-5.78824">
        <ele>39.92</ele>
        <time>2021-04-06T09:34:51Z</time>
      </trkpt>
      <trkpt lat="57.56886" lon="-5.78831">
        <ele>40.57</ele>
        <time>2021-04-06T09:34:54Z</time>
      </trkpt>
      <trkpt lat="57.56843" lon="-5.78861">
        <ele>45.62</ele>
        <time>2021-04-06T09:34:58Z</time>
      </trkpt>
      <trkpt lat="57.5681" lon="-5.7887">
        <ele>47.61</ele>
        <time>2021-04-06T09:35:01Z</time>
      </trkpt>
      <trkpt lat="57.56751" lon="-5.78864">
        <ele>45.34</ele>
        <time>2021-04-06T09:35:04Z</time>
      </trkpt>
      <trkpt lat="57.56727" lon="-5.78855">
        <ele>46.03</ele>
        <time>2021-04-06T09:35:07Z</time>
      </trkpt>
      <trkpt lat="57.56705" lon="-5.78844">
        <ele>45.72</ele>
        <time>2021-04-06T09:35:11Z</time>
      </trkpt>
      <trkpt lat="57.56681" lon="-5.7882">
        <ele>46.63</ele>
        <time>2021-04-06T09:35:14Z</time>
      </trkpt>
      <trkpt lat="57.56654" lon="-5.78782">
        <ele>49.17</ele>
        <time>2021-04-06T09:35:17Z</time>
      </trkpt>
      <trkpt lat="57.5663" lon="-5.78742">
        <ele>50.85</ele>
        <time>2021-04-06T09:35:20Z</time>
      </trkpt>
      <trkpt lat="57.56573" lon="-5.7864">
        <ele>51.41</ele>
        <time>2021-04-06T09:35:24Z</time>
      </trkpt>
      <trkpt lat="57.5655" lon="-5.78608">
        <ele>50.28</ele>
        <time>2021-04-06T09:35:27Z</time>
      </trkpt>
      <trkpt lat="57.56483" lon="-5.78546">
        <ele>47.71</ele>
        <time>2021-04-06T09:35:30Z</time>
      </trkpt>
      <trkpt lat="57.56457" lon="-5.78513">
        <ele>45.17</ele>
        <time>2021-04-06T09:35:33Z</time>
      </trkpt>
      <trkpt lat="57.56372" lon="-5.78373">
        <ele>38.65</ele>
        <time>2021-04-06T09:35:37Z</time>
      </trkpt>
      <trkpt lat="57.562" lon="-5.78085">
        <ele>40.99</ele>
        <time>2021-04-06T09:35:40Z</time>
      </trkpt>
      <trkpt lat="57.55972" lon="-5.77653">
        <ele>33.51</ele>
        <time>2021-04-06T09:35:43Z</time>
      </trkpt>
      <trkpt lat="57.55866" lon="-5.77433">
        <ele>31.98</ele>
        <time>2021-04-06T09:35:46Z</time>
      </trkpt>
      <trkpt lat="57.55847" lon="-5.774">
        <ele>32.29</ele>
        <time>2021-04-06T09:35:50Z</time>
      </trkpt>
      <trkpt lat="57.55733" lon="-5.7722">
        <ele>30.62</ele>
        <time>2021-04-06T09:35:53Z</time>
      </trkpt>
      <trkpt lat="57.55694" lon="-5.77132">
        <ele>30.98</ele>
        <time>2021-04-06T09:35:56Z</time>
      </trkpt>
      <trkpt lat="57.55679" lon="-5.77074">
        <ele>31.34</ele>
        <time>2021-04-06T09:35:59Z</time>
      </trkpt>
      <trkpt lat="57.55674" lon="-5.77044">
        <ele>32.74</ele>
        <time>2021-04-06T09:36:03Z</time>
      </trkpt>
      <trkpt lat="57.55672" lon="-5.77013">
        <ele>34.81</ele>
        <time>2021-04-06T09:36:06Z</time>
      </trkpt>
      <trkpt lat="57.55673" lon="-5.76955">
        <ele>39.22</ele>
        <time>2021-04-06T09:36:09Z</time>
      </trkpt>
      <trkpt lat="57.55677" lon="-5.76909">
        <ele>42.58</ele>
        <time>2021-04-06T09:36:12Z</time>
      </trkpt>
      <trkpt lat="57.55688" lon="-5.76869">
        <ele>46.18</ele>
        <time>2021-04-06T09:36:16Z</time>
      </trkpt>
      <trkpt lat="57.55702" lon="-5.76837">
        <ele>48.38</ele>
        <time>2021-04-06T09:36:19Z</time>
      </trkpt>
      <trkpt lat="57.55719" lon="-5.76809">
        <ele>50.13</ele>
        <time>2021-04-06T09:36:22Z</time>
      </trkpt>
      <trkpt lat="57.55904" lon="-5.76537">
        <ele>31.11</ele>
        <time>2021-04-06T09:36:25Z</time>
      </trkpt>
      <trkpt lat="57.5592" lon="-5.76505">
        <ele>29.23</ele>
        <time>2021-04-06T09:36:29Z</time>
      </trkpt>
      <trkpt lat="57.55932" lon="-5.76454">
        <ele>28.85</ele>
        <time>2021-04-06T09:36:32Z</time>
      </trkpt>
      <trkpt lat="57.55942" lon="-5.76402">
        <ele>26.08</ele>
        <time>2021-04-06T09:36:35Z</time>
      </trkpt>
      <trkpt lat="57.55941" lon="-5.76348">
        <ele>24.28</ele>
        <time>2021-04-06T09:36:38Z</time>
      </trkpt>
      <trkpt lat="57.55938" lon="-5.76318">
        <ele>23.7</ele>
        <time>2021-04-06T09:36:42Z</time>
      </trkpt>
      <trkpt lat="57.5593" lon="-5.76282">
        <ele>21.9</ele>
        <time>2021-04-06T09:36:45Z</time>
      </trkpt>
      <trkpt lat="57.55918" lon="-5.76252">
        <ele>20.08</ele>
        <time>2021-04-06T09:36:48Z</time>
      </trkpt>
      <trkpt lat="57.55892" lon="-5.76197">
        <ele>14.69</ele>
        <time>2021-04-06T09:36:51Z</time>
      </trkpt>
      <trkpt lat="57.55892" lon="-5.76197">
        <ele>14.69</ele>
        <time>2021-04-06T09:36:51Z</time>
      </trkpt>
      <trkpt lat="57.55821" lon="-5.76082">
        <ele>13.18</ele>
        <time>2021-04-06T09:36:54Z</time>
      </trkpt>
      <trkpt lat="57.55804" lon="-5.76061">
        <ele>11.98</ele>
        <time>2021-04-06T09:36:56Z</time>
      </trkpt>
      <trkpt lat="57.55777" lon="-5.76037">
        <ele>13.11</ele>
        <time>2021-04-06T09:36:59Z</time>
      </trkpt>
      <trkpt lat="57.55717" lon="-5.76005">
        <ele>17.58</ele>
        <time>2021-04-06T09:37:01Z</time>
      </trkpt>
      <trkpt lat="57.55659" lon="-5.75979">
        <ele>27.05</ele>
        <time>2021-04-06T09:37:03Z</time>
      </trkpt>
      <trkpt lat="57.55644" lon="-5.75967">
        <ele>29.69</ele>
        <time>2021-04-06T09:37:06Z</time>
      </trkpt>
      <trkpt lat="57.55632" lon="-5.7595">
        <ele>32.34</ele>
        <time>2021-04-06T09:37:08Z</time>
      </trkpt>
      <trkpt lat="57.55619" lon="-5.75911">
        <ele>36.4</ele>
        <time>2021-04-06T09:37:11Z</time>
      </trkpt>
      <trkpt lat="57.55613" lon="-5.75876">
        <ele>37.51</ele>
        <time>2021-04-06T09:37:13Z</time>
      </trkpt>
      <trkpt lat="57.55607" lon="-5.75818">
        <ele>39.49</ele>
        <time>2021-04-06T09:37:16Z</time>
      </trkpt>
      <trkpt lat="57.55579" lon="-5.75706">
        <ele>47.03</ele>
        <time>2021-04-06T09:37:18Z</time>
      </trkpt>
      <trkpt lat="57.55558" lon="-5.75638">
        <ele>49.19</ele>
        <time>2021-04-06T09:37:21Z</time>
      </trkpt>
      <trkpt lat="57.55534" lon="-5.75591">
        <ele>52.68</ele>
        <time>2021-04-06T09:37:23Z</time>
      </trkpt>
      <trkpt lat="57.55512" lon="-5.75564">
        <ele>53.73</ele>
        <time>2021-04-06T09:37:25Z</time>
      </trkpt>
      <trkpt lat="57.55486" lon="-5.75545">
        <ele>53.13</ele>
        <time>2021-04-06T09:37:28Z</time>
      </trkpt>
      <trkpt lat="57.5546" lon="-5.75535">
        <ele>52.07</ele>
        <time>2021-04-06T09:37:30Z</time>
      </trkpt>
      <trkpt lat="57.55436" lon="-5.75532">
        <ele>51.55</ele>
        <time>2021-04-06T09:37:33Z</time>
      </trkpt>
      <trkpt lat="57.55416" lon="-5.75533">
        <ele>51.73</ele>
        <time>2021-04-06T09:37:35Z</time>
      </trkpt>
      <trkpt lat="57.55376" lon="-5.75546">
        <ele>51.63</ele>
        <time>2021-04-06T09:37:38Z</time>
      </trkpt>
      <trkpt lat="57.55291" lon="-5.75585">
        <ele>48.01</ele>
        <time>2021-04-06T09:37:40Z</time>
      </trkpt>
      <trkpt lat="57.55267" lon="-5.75598">
        <ele>46.09</ele>
        <time>2021-04-06T09:37:43Z</time>
      </trkpt>
      <trkpt lat="57.55192" lon="-5.7565">
        <ele>37.78</ele>
        <time>2021-04-06T09:37:45Z</time>
      </trkpt>
      <trkpt lat="57.55154" lon="-5.75671">
        <ele>35.19</ele>
        <time>2021-04-06T09:37:47Z</time>
      </trkpt>
      <trkpt lat="57.55132" lon="-5.75675">
        <ele>33.54</ele>
        <time>2021-04-06T09:37:50Z</time>
      </trkpt>
      <trkpt lat="57.55111" lon="-5.75676">
        <ele>31.27</ele>
        <time>2021-04-06T09:37:52Z</time>
      </trkpt>
      <trkpt lat="57.55089" lon="-5.75673">
        <ele>29.06</ele>
        <time>2021-04-06T09:37:55Z</time>
      </trkpt>
      <trkpt lat="57.55066" lon="-5.75663">
        <ele>26.43</ele>
        <time>2021-04-06T09:37:57Z</time>
      </trkpt>
      <trkpt lat="57.55044" lon="-5.75644">
        <ele>24.39</ele>
        <time>2021-04-06T09:38:00Z</time>
      </trkpt>
      <trkpt lat="57.55007" lon="-5.75589">
        <ele>20.26</ele>
        <time>2021-04-06T09:38:02Z</time>
      </trkpt>
      <trkpt lat="57.54978" lon="-5.75532">
        <ele>18.81</ele>
        <time>2021-04-06T09:38:05Z</time>
      </trkpt>
      <trkpt lat="57.54945" lon="-5.75456">
        <ele>19.38</ele>
        <time>2021-04-06T09:38:07Z</time>
      </trkpt>
      <trkpt lat="57.54895" lon="-5.75312">
        <ele>25.32</ele>
        <time>2021-04-06T09:38:09Z</time>
      </trkpt>
      <trkpt lat="57.54856" lon="-5.75232">
        <ele>26.9</ele>
        <time>2021-04-06T09:38:12Z</time>
      </trkpt>
      <trkpt lat="57.54836" lon="-5.75196">
        <ele>26.92</ele>
        <time>2021-04-06T09:38:14Z</time>
      </trkpt>
      <trkpt lat="57.54818" lon="-5.7517">
        <ele>26.97</ele>
        <time>2021-04-06T09:38:17Z</time>
      </trkpt>
      <trkpt lat="57.54794" lon="-5.75143">
        <ele>27.66</ele>
        <time>2021-04-06T09:38:19Z</time>
      </trkpt>
      <trkpt lat="57.54768" lon="-5.7512">
        <ele>27.26</ele>
        <time>2021-04-06T09:38:22Z</time>
      </trkpt>
      <trkpt lat="57.54704" lon="-5.7507">
        <ele>29.61</ele>
        <time>2021-04-06T09:38:24Z</time>
      </trkpt>
      <trkpt lat="57.54672" lon="-5.75038">
        <ele>30.19</ele>
        <time>2021-04-06T09:38:27Z</time>
      </trkpt>
      <trkpt lat="57.54634" lon="-5.7499">
        <ele>29.7</ele>
        <time>2021-04-06T09:38:29Z</time>
      </trkpt>
      <trkpt lat="57.54611" lon="-5.74954">
        <ele>30.35</ele>
        <time>2021-04-06T09:38:31Z</time>
      </trkpt>
      <trkpt lat="57.54597" lon="-5.74923">
        <ele>31.1</ele>
        <time>2021-04-06T09:38:34Z</time>
      </trkpt>
      <trkpt lat="57.54591" lon="-5.74893">
        <ele>31.59</ele>
        <time>2021-04-06T09:38:36Z</time>
      </trkpt>
      <trkpt lat="57.54586" lon="-5.74838">
        <ele>30.75</ele>
        <time>2021-04-06T09:38:39Z</time>
      </trkpt>
      <trkpt lat="57.54582" lon="-5.74773">
        <ele>30.14</ele>
        <time>2021-04-06T09:38:41Z</time>
      </trkpt>
      <trkpt lat="57.54577" lon="-5.74721">
        <ele>31.09</ele>
        <time>2021-04-06T09:38:44Z</time>
      </trkpt>
      <trkpt lat="57.54565" lon="-5.7468">
        <ele>31.58</ele>
        <time>2021-04-06T09:38:46Z</time>
      </trkpt>
      <trkpt lat="57.54553" lon="-5.74657">
        <ele>31.96</ele>
        <time>2021-04-06T09:38:49Z</time>
      </trkpt>
      <trkpt lat="57.54537" lon="-5.74636">
        <ele>31.88</ele>
        <time>2021-04-06T09:38:51Z</time>
      </trkpt>
      <trkpt lat="57.54486" lon="-5.74542">
        <ele>27.11</ele>
        <time>2021-04-06T09:38:53Z</time>
      </trkpt>
      <trkpt lat="57.54463" lon="-5.74514">
        <ele>28.17</ele>
        <time>2021-04-06T09:38:56Z</time>
      </trkpt>
      <trkpt lat="57.54454" lon="-5.74494">
        <ele>27.54</ele>
        <time>2021-04-06T09:38:58Z</time>
      </trkpt>
      <trkpt lat="57.5444" lon="-5.74452">
        <ele>23.69</ele>
        <time>2021-04-06T09:39:01Z</time>
      </trkpt>
      <trkpt lat="57.54423" lon="-5.74406">
        <ele>21.62</ele>
        <time>2021-04-06T09:39:03Z</time>
      </trkpt>
      <trkpt lat="57.54386" lon="-5.74349">
        <ele>25.96</ele>
        <time>2021-04-06T09:39:06Z</time>
      </trkpt>
      <trkpt lat="57.5435" lon="-5.74297">
        <ele>27.58</ele>
        <time>2021-04-06T09:39:08Z</time>
      </trkpt>
      <trkpt lat="57.54334" lon="-5.7429">
        <ele>28.73</ele>
        <time>2021-04-06T09:39:11Z</time>
      </trkpt>
      <trkpt lat="57.54284" lon="-5.7428">
        <ele>37.14</ele>
        <time>2021-04-06T09:39:13Z</time>
      </trkpt>
      <trkpt lat="57.54198" lon="-5.74237">
        <ele>41.66</ele>
        <time>2021-04-06T09:39:15Z</time>
      </trkpt>
      <trkpt lat="57.54102" lon="-5.74193">
        <ele>50.85</ele>
        <time>2021-04-06T09:39:18Z</time>
      </trkpt>
      <trkpt lat="57.54045" lon="-5.74175">
        <ele>54.42</ele>
        <time>2021-04-06T09:39:20Z</time>
      </trkpt>
      <trkpt lat="57.54014" lon="-5.74177">
        <ele>56.98</ele>
        <time>2021-04-06T09:39:23Z</time>
      </trkpt>
      <trkpt lat="57.53982" lon="-5.74189">
        <ele>59.85</ele>
        <time>2021-04-06T09:39:25Z</time>
      </trkpt>
      <trkpt lat="57.53951" lon="-5.74209">
        <ele>62.94</ele>
        <time>2021-04-06T09:39:28Z</time>
      </trkpt>
      <trkpt lat="57.53931" lon="-5.74229">
        <ele>64.71</ele>
        <time>2021-04-06T09:39:30Z</time>
      </trkpt>
      <trkpt lat="57.53903" lon="-5.74247">
        <ele>66.24</ele>
        <time>2021-04-06T09:39:33Z</time>
      </trkpt>
      <trkpt lat="57.5388" lon="-5.74249">
        <ele>66.28</ele>
        <time>2021-04-06T09:39:35Z</time>
      </trkpt>
      <trkpt lat="57.53863" lon="-5.74238">
        <ele>66.06</ele>
        <time>2021-04-06T09:39:37Z</time>
      </trkpt>
      <trkpt lat="57.53835" lon="-5.74206">
        <ele>65</ele>
        <time>2021-04-06T09:39:40Z</time>
      </trkpt>
      <trkpt lat="57.53701" lon="-5.74127">
        <ele>69.57</ele>
        <time>2021-04-06T09:39:42Z</time>
      </trkpt>
      <trkpt lat="57.53683" lon="-5.74111">
        <ele>70.84</ele>
        <time>2021-04-06T09:39:45Z</time>
      </trkpt>
      <trkpt lat="57.5366" lon="-5.74081">
        <ele>73.58</ele>
        <time>2021-04-06T09:39:47Z</time>
      </trkpt>
      <trkpt lat="57.53617" lon="-5.74006">
        <ele>79.72</ele>
        <time>2021-04-06T09:39:50Z</time>
      </trkpt>
      <trkpt lat="57.5356" lon="-5.73938">
        <ele>83.72</ele>
        <time>2021-04-06T09:39:52Z</time>
      </trkpt>
      <trkpt lat="57.53545" lon="-5.73916">
        <ele>84.73</ele>
        <time>2021-04-06T09:39:54Z</time>
      </trkpt>
      <trkpt lat="57.53538" lon="-5.73899">
        <ele>85.88</ele>
        <time>2021-04-06T09:39:57Z</time>
      </trkpt>
      <trkpt lat="57.53525" lon="-5.73831">
        <ele>86.89</ele>
        <time>2021-04-06T09:39:59Z</time>
      </trkpt>
      <trkpt lat="57.53513" lon="-5.73803">
        <ele>86.37</ele>
        <time>2021-04-06T09:40:02Z</time>
      </trkpt>
      <trkpt lat="57.53499" lon="-5.73786">
        <ele>85.28</ele>
        <time>2021-04-06T09:40:04Z</time>
      </trkpt>
      <trkpt lat="57.5348" lon="-5.73776">
        <ele>85</ele>
        <time>2021-04-06T09:40:07Z</time>
      </trkpt>
      <trkpt lat="57.5346" lon="-5.73773">
        <ele>85.43</ele>
        <time>2021-04-06T09:40:09Z</time>
      </trkpt>
      <trkpt lat="57.53428" lon="-5.73761">
        <ele>86.6</ele>
        <time>2021-04-06T09:40:12Z</time>
      </trkpt>
      <trkpt lat="57.53414" lon="-5.73751">
        <ele>87.1</ele>
        <time>2021-04-06T09:40:14Z</time>
      </trkpt>
      <trkpt lat="57.53403" lon="-5.73735">
        <ele>86.94</ele>
        <time>2021-04-06T09:40:16Z</time>
      </trkpt>
      <trkpt lat="57.53389" lon="-5.73703">
        <ele>87</ele>
        <time>2021-04-06T09:40:19Z</time>
      </trkpt>
      <trkpt lat="57.53364" lon="-5.73639">
        <ele>89.22</ele>
        <time>2021-04-06T09:40:21Z</time>
      </trkpt>
      <trkpt lat="57.53339" lon="-5.73585">
        <ele>90.83</ele>
        <time>2021-04-06T09:40:24Z</time>
      </trkpt>
      <trkpt lat="57.53339" lon="-5.73585">
        <ele>90.83</ele>
        <time>2021-04-06T09:40:24Z</time>
      </trkpt>
      <trkpt lat="57.5333" lon="-5.73562">
        <ele>90.97</ele>
        <time>2021-04-06T09:40:26Z</time>
      </trkpt>
      <trkpt lat="57.53309" lon="-5.73481">
        <ele>92.44</ele>
        <time>2021-04-06T09:40:28Z</time>
      </trkpt>
      <trkpt lat="57.53302" lon="-5.73412">
        <ele>93.32</ele>
        <time>2021-04-06T09:40:30Z</time>
      </trkpt>
      <trkpt lat="57.53303" lon="-5.73342">
        <ele>92.03</ele>
        <time>2021-04-06T09:40:33Z</time>
      </trkpt>
      <trkpt lat="57.53306" lon="-5.73313">
        <ele>92.13</ele>
        <time>2021-04-06T09:40:35Z</time>
      </trkpt>
      <trkpt lat="57.53313" lon="-5.73288">
        <ele>92.8</ele>
        <time>2021-04-06T09:40:37Z</time>
      </trkpt>
      <trkpt lat="57.53328" lon="-5.73244">
        <ele>93.86</ele>
        <time>2021-04-06T09:40:39Z</time>
      </trkpt>
      <trkpt lat="57.53344" lon="-5.7321">
        <ele>95.72</ele>
        <time>2021-04-06T09:40:42Z</time>
      </trkpt>
      <trkpt lat="57.53363" lon="-5.73179">
        <ele>97.17</ele>
        <time>2021-04-06T09:40:44Z</time>
      </trkpt>
      <trkpt lat="57.53383" lon="-5.73154">
        <ele>98.83</ele>
        <time>2021-04-06T09:40:46Z</time>
      </trkpt>
      <trkpt lat="57.53439" lon="-5.73096">
        <ele>101.98</ele>
        <time>2021-04-06T09:40:48Z</time>
      </trkpt>
      <trkpt lat="57.53475" lon="-5.73077">
        <ele>102.65</ele>
        <time>2021-04-06T09:40:50Z</time>
      </trkpt>
      <trkpt lat="57.53515" lon="-5.73067">
        <ele>103</ele>
        <time>2021-04-06T09:40:53Z</time>
      </trkpt>
      <trkpt lat="57.53555" lon="-5.73064">
        <ele>102.92</ele>
        <time>2021-04-06T09:40:55Z</time>
      </trkpt>
      <trkpt lat="57.5359" lon="-5.73074">
        <ele>104.91</ele>
        <time>2021-04-06T09:40:57Z</time>
      </trkpt>
      <trkpt lat="57.53621" lon="-5.7307">
        <ele>105.08</ele>
        <time>2021-04-06T09:40:59Z</time>
      </trkpt>
      <trkpt lat="57.53645" lon="-5.73055">
        <ele>103.43</ele>
        <time>2021-04-06T09:41:02Z</time>
      </trkpt>
      <trkpt lat="57.53667" lon="-5.73034">
        <ele>104.24</ele>
        <time>2021-04-06T09:41:04Z</time>
      </trkpt>
      <trkpt lat="57.53687" lon="-5.73005">
        <ele>104.65</ele>
        <time>2021-04-06T09:41:06Z</time>
      </trkpt>
      <trkpt lat="57.53695" lon="-5.72984">
        <ele>104.49</ele>
        <time>2021-04-06T09:41:08Z</time>
      </trkpt>
      <trkpt lat="57.53708" lon="-5.72934">
        <ele>103.1</ele>
        <time>2021-04-06T09:41:10Z</time>
      </trkpt>
      <trkpt lat="57.53722" lon="-5.72838">
        <ele>102.02</ele>
        <time>2021-04-06T09:41:13Z</time>
      </trkpt>
      <trkpt lat="57.53731" lon="-5.72804">
        <ele>105.9</ele>
        <time>2021-04-06T09:41:15Z</time>
      </trkpt>
      <trkpt lat="57.53741" lon="-5.72786">
        <ele>107.67</ele>
        <time>2021-04-06T09:41:17Z</time>
      </trkpt>
      <trkpt lat="57.53833" lon="-5.72686">
        <ele>122.93</ele>
        <time>2021-04-06T09:41:19Z</time>
      </trkpt>
      <trkpt lat="57.53861" lon="-5.72642">
        <ele>127.71</ele>
        <time>2021-04-06T09:41:21Z</time>
      </trkpt>
      <trkpt lat="57.53875" lon="-5.72623">
        <ele>129.46</ele>
        <time>2021-04-06T09:41:24Z</time>
      </trkpt>
      <trkpt lat="57.53891" lon="-5.72611">
        <ele>130.16</ele>
        <time>2021-04-06T09:41:26Z</time>
      </trkpt>
      <trkpt lat="57.5397" lon="-5.72575">
        <ele>135.63</ele>
        <time>2021-04-06T09:41:28Z</time>
      </trkpt>
      <trkpt lat="57.54018" lon="-5.72541">
        <ele>138.17</ele>
        <time>2021-04-06T09:41:30Z</time>
      </trkpt>
      <trkpt lat="57.54038" lon="-5.72538">
        <ele>137.44</ele>
        <time>2021-04-06T09:41:33Z</time>
      </trkpt>
      <trkpt lat="57.54058" lon="-5.72543">
        <ele>135.73</ele>
        <time>2021-04-06T09:41:35Z</time>
      </trkpt>
      <trkpt lat="57.54092" lon="-5.72532">
        <ele>132.3</ele>
        <time>2021-04-06T09:41:37Z</time>
      </trkpt>
      <trkpt lat="57.54102" lon="-5.72525">
        <ele>129.89</ele>
        <time>2021-04-06T09:41:39Z</time>
      </trkpt>
      <trkpt lat="57.54123" lon="-5.72475">
        <ele>122.17</ele>
        <time>2021-04-06T09:41:41Z</time>
      </trkpt>
      <trkpt lat="57.54143" lon="-5.72419">
        <ele>113.62</ele>
        <time>2021-04-06T09:41:44Z</time>
      </trkpt>
      <trkpt lat="57.54149" lon="-5.72396">
        <ele>111.04</ele>
        <time>2021-04-06T09:41:46Z</time>
      </trkpt>
      <trkpt lat="57.54152" lon="-5.72346">
        <ele>109.6</ele>
        <time>2021-04-06T09:41:48Z</time>
      </trkpt>
      <trkpt lat="57.54154" lon="-5.72329">
        <ele>108.24</ele>
        <time>2021-04-06T09:41:50Z</time>
      </trkpt>
      <trkpt lat="57.54169" lon="-5.72267">
        <ele>102.2</ele>
        <time>2021-04-06T09:41:53Z</time>
      </trkpt>
      <trkpt lat="57.54175" lon="-5.72222">
        <ele>101.73</ele>
        <time>2021-04-06T09:41:55Z</time>
      </trkpt>
      <trkpt lat="57.54179" lon="-5.72158">
        <ele>97.71</ele>
        <time>2021-04-06T09:41:57Z</time>
      </trkpt>
      <trkpt lat="57.54177" lon="-5.72088">
        <ele>92.89</ele>
        <time>2021-04-06T09:41:59Z</time>
      </trkpt>
      <trkpt lat="57.54172" lon="-5.72055">
        <ele>91.79</ele>
        <time>2021-04-06T09:42:01Z</time>
      </trkpt>
      <trkpt lat="57.54158" lon="-5.72025">
        <ele>90.56</ele>
        <time>2021-04-06T09:42:04Z</time>
      </trkpt>
      <trkpt lat="57.54141" lon="-5.71995">
        <ele>87.76</ele>
        <time>2021-04-06T09:42:06Z</time>
      </trkpt>
      <trkpt lat="57.54119" lon="-5.71975">
        <ele>87.52</ele>
        <time>2021-04-06T09:42:08Z</time>
      </trkpt>
      <trkpt lat="57.54058" lon="-5.71945">
        <ele>88.69</ele>
        <time>2021-04-06T09:42:10Z</time>
      </trkpt>
      <trkpt lat="57.54039" lon="-5.71927">
        <ele>86.74</ele>
        <time>2021-04-06T09:42:13Z</time>
      </trkpt>
      <trkpt lat="57.54023" lon="-5.719">
        <ele>82.97</ele>
        <time>2021-04-06T09:42:15Z</time>
      </trkpt>
      <trkpt lat="57.54004" lon="-5.71881">
        <ele>81.5</ele>
        <time>2021-04-06T09:42:17Z</time>
      </trkpt>
      <trkpt lat="57.5395" lon="-5.71857">
        <ele>84.52</ele>
        <time>2021-04-06T09:42:19Z</time>
      </trkpt>
      <trkpt lat="57.53922" lon="-5.71822">
        <ele>82.03</ele>
        <time>2021-04-06T09:42:21Z</time>
      </trkpt>
      <trkpt lat="57.53897" lon="-5.71782">
        <ele>79.78</ele>
        <time>2021-04-06T09:42:24Z</time>
      </trkpt>
      <trkpt lat="57.53867" lon="-5.71698">
        <ele>73.14</ele>
        <time>2021-04-06T09:42:26Z</time>
      </trkpt>
      <trkpt lat="57.53847" lon="-5.71656">
        <ele>67.27</ele>
        <time>2021-04-06T09:42:28Z</time>
      </trkpt>
      <trkpt lat="57.53829" lon="-5.71629">
        <ele>63.34</ele>
        <time>2021-04-06T09:42:30Z</time>
      </trkpt>
      <trkpt lat="57.53785" lon="-5.7159">
        <ele>63.46</ele>
        <time>2021-04-06T09:42:32Z</time>
      </trkpt>
      <trkpt lat="57.53714" lon="-5.7152">
        <ele>55.28</ele>
        <time>2021-04-06T09:42:35Z</time>
      </trkpt>
      <trkpt lat="57.53666" lon="-5.71457">
        <ele>48.83</ele>
        <time>2021-04-06T09:42:37Z</time>
      </trkpt>
      <trkpt lat="57.53643" lon="-5.71421">
        <ele>46.23</ele>
        <time>2021-04-06T09:42:39Z</time>
      </trkpt>
      <trkpt lat="57.53593" lon="-5.71323">
        <ele>39.94</ele>
        <time>2021-04-06T09:42:41Z</time>
      </trkpt>
      <trkpt lat="57.53595" lon="-5.71287">
        <ele>39.1</ele>
        <time>2021-04-06T09:42:44Z</time>
      </trkpt>
      <trkpt lat="57.53603" lon="-5.7127">
        <ele>38.42</ele>
        <time>2021-04-06T09:42:46Z</time>
      </trkpt>
      <trkpt lat="57.53614" lon="-5.71262">
        <ele>37.91</ele>
        <time>2021-04-06T09:42:48Z</time>
      </trkpt>
      <trkpt lat="57.53667" lon="-5.71246">
        <ele>35.42</ele>
        <time>2021-04-06T09:42:50Z</time>
      </trkpt>
      <trkpt lat="57.53697" lon="-5.71228">
        <ele>34.38</ele>
        <time>2021-04-06T09:42:52Z</time>
      </trkpt>
      <trkpt lat="57.53714" lon="-5.71221">
        <ele>33.02</ele>
        <time>2021-04-06T09:42:55Z</time>
      </trkpt>
      <trkpt lat="57.53772" lon="-5.71221">
        <ele>26.61</ele>
        <time>2021-04-06T09:42:57Z</time>
      </trkpt>
      <trkpt lat="57.5379" lon="-5.71217">
        <ele>25.28</ele>
        <time>2021-04-06T09:42:59Z</time>
      </trkpt>
      <trkpt lat="57.53807" lon="-5.71205">
        <ele>24.52</ele>
        <time>2021-04-06T09:43:01Z</time>
      </trkpt>
      <trkpt lat="57.53838" lon="-5.71165">
        <ele>23.9</ele>
        <time>2021-04-06T09:43:04Z</time>
      </trkpt>
      <trkpt lat="57.5389" lon="-5.71112">
        <ele>21.96</ele>
        <time>2021-04-06T09:43:06Z</time>
      </trkpt>
      <trkpt lat="57.5393" lon="-5.71083">
        <ele>21.54</ele>
        <time>2021-04-06T09:43:08Z</time>
      </trkpt>
      <trkpt lat="57.5397" lon="-5.71058">
        <ele>19.25</ele>
        <time>2021-04-06T09:43:10Z</time>
      </trkpt>
      <trkpt lat="57.53996" lon="-5.71031">
        <ele>18.14</ele>
        <time>2021-04-06T09:43:12Z</time>
      </trkpt>
      <trkpt lat="57.54001" lon="-5.71014">
        <ele>17.4</ele>
        <time>2021-04-06T09:43:15Z</time>
      </trkpt>
      <trkpt lat="57.54002" lon="-5.7099">
        <ele>16.39</ele>
        <time>2021-04-06T09:43:17Z</time>
      </trkpt>
      <trkpt lat="57.54" lon="-5.70977">
        <ele>16.19</ele>
        <time>2021-04-06T09:43:19Z</time>
      </trkpt>
      <trkpt lat="57.53982" lon="-5.70935">
        <ele>15.93</ele>
        <time>2021-04-06T09:43:21Z</time>
      </trkpt>
      <trkpt lat="57.53941" lon="-5.70763">
        <ele>14.82</ele>
        <time>2021-04-06T09:43:23Z</time>
      </trkpt>
      <trkpt lat="57.53941" lon="-5.70763">
        <ele>14.82</ele>
        <time>2021-04-06T09:43:23Z</time>
      </trkpt>
      <trkpt lat="57.5393" lon="-5.70737">
        <ele>14.55</ele>
        <time>2021-04-06T09:43:26Z</time>
      </trkpt>
      <trkpt lat="57.53912" lon="-5.70711">
        <ele>15.95</ele>
        <time>2021-04-06T09:43:28Z</time>
      </trkpt>
      <trkpt lat="57.53835" lon="-5.70631">
        <ele>23.26</ele>
        <time>2021-04-06T09:43:31Z</time>
      </trkpt>
      <trkpt lat="57.53697" lon="-5.70447">
        <ele>23.29</ele>
        <time>2021-04-06T09:43:33Z</time>
      </trkpt>
      <trkpt lat="57.53686" lon="-5.70426">
        <ele>24.07</ele>
        <time>2021-04-06T09:43:36Z</time>
      </trkpt>
      <trkpt lat="57.53657" lon="-5.70314">
        <ele>25.8</ele>
        <time>2021-04-06T09:43:38Z</time>
      </trkpt>
      <trkpt lat="57.5364" lon="-5.70265">
        <ele>26.04</ele>
        <time>2021-04-06T09:43:40Z</time>
      </trkpt>
      <trkpt lat="57.53616" lon="-5.70213">
        <ele>25.54</ele>
        <time>2021-04-06T09:43:43Z</time>
      </trkpt>
      <trkpt lat="57.53579" lon="-5.70142">
        <ele>24.01</ele>
        <time>2021-04-06T09:43:45Z</time>
      </trkpt>
      <trkpt lat="57.53549" lon="-5.70098">
        <ele>19.34</ele>
        <time>2021-04-06T09:43:48Z</time>
      </trkpt>
      <trkpt lat="57.53528" lon="-5.70083">
        <ele>18</ele>
        <time>2021-04-06T09:43:50Z</time>
      </trkpt>
      <trkpt lat="57.53505" lon="-5.70072">
        <ele>16.27</ele>
        <time>2021-04-06T09:43:52Z</time>
      </trkpt>
      <trkpt lat="57.53474" lon="-5.70071">
        <ele>16.82</ele>
        <time>2021-04-06T09:43:55Z</time>
      </trkpt>
      <trkpt lat="57.53449" lon="-5.7008">
        <ele>18.56</ele>
        <time>2021-04-06T09:43:57Z</time>
      </trkpt>
      <trkpt lat="57.53407" lon="-5.70117">
        <ele>20.08</ele>
        <time>2021-04-06T09:44:00Z</time>
      </trkpt>
      <trkpt lat="57.53387" lon="-5.70126">
        <ele>20.08</ele>
        <time>2021-04-06T09:44:02Z</time>
      </trkpt>
      <trkpt lat="57.53362" lon="-5.70125">
        <ele>20.51</ele>
        <time>2021-04-06T09:44:04Z</time>
      </trkpt>
      <trkpt lat="57.53336" lon="-5.7012">
        <ele>20.33</ele>
        <time>2021-04-06T09:44:07Z</time>
      </trkpt>
      <trkpt lat="57.53231" lon="-5.70064">
        <ele>25.32</ele>
        <time>2021-04-06T09:44:09Z</time>
      </trkpt>
      <trkpt lat="57.53213" lon="-5.70048">
        <ele>26.47</ele>
        <time>2021-04-06T09:44:12Z</time>
      </trkpt>
      <trkpt lat="57.53193" lon="-5.70018">
        <ele>25.9</ele>
        <time>2021-04-06T09:44:14Z</time>
      </trkpt>
      <trkpt lat="57.53176" lon="-5.69984">
        <ele>23.03</ele>
        <time>2021-04-06T09:44:16Z</time>
      </trkpt>
      <trkpt lat="57.53159" lon="-5.69962">
        <ele>20.65</ele>
        <time>2021-04-06T09:44:19Z</time>
      </trkpt>
      <trkpt lat="57.53134" lon="-5.69941">
        <ele>18.78</ele>
        <time>2021-04-06T09:44:21Z</time>
      </trkpt>
      <trkpt lat="57.53107" lon="-5.69929">
        <ele>19.16</ele>
        <time>2021-04-06T09:44:24Z</time>
      </trkpt>
      <trkpt lat="57.53079" lon="-5.69906">
        <ele>18.17</ele>
        <time>2021-04-06T09:44:26Z</time>
      </trkpt>
      <trkpt lat="57.53056" lon="-5.69877">
        <ele>16.33</ele>
        <time>2021-04-06T09:44:28Z</time>
      </trkpt>
      <trkpt lat="57.53024" lon="-5.69843">
        <ele>14.08</ele>
        <time>2021-04-06T09:44:31Z</time>
      </trkpt>
      <trkpt lat="57.52982" lon="-5.69821">
        <ele>14.03</ele>
        <time>2021-04-06T09:44:33Z</time>
      </trkpt>
      <trkpt lat="57.5296" lon="-5.69778">
        <ele>16.62</ele>
        <time>2021-04-06T09:44:36Z</time>
      </trkpt>
      <trkpt lat="57.5296" lon="-5.69763">
        <ele>18.98</ele>
        <time>2021-04-06T09:44:38Z</time>
      </trkpt>
      <trkpt lat="57.52966" lon="-5.69737">
        <ele>21.16</ele>
        <time>2021-04-06T09:44:40Z</time>
      </trkpt>
      <trkpt lat="57.52979" lon="-5.69705">
        <ele>21.05</ele>
        <time>2021-04-06T09:44:43Z</time>
      </trkpt>
      <trkpt lat="57.53004" lon="-5.6967">
        <ele>16.47</ele>
        <time>2021-04-06T09:44:45Z</time>
      </trkpt>
      <trkpt lat="57.53011" lon="-5.69648">
        <ele>17</ele>
        <time>2021-04-06T09:44:48Z</time>
      </trkpt>
      <trkpt lat="57.53011" lon="-5.69627">
        <ele>19.78</ele>
        <time>2021-04-06T09:44:50Z</time>
      </trkpt>
      <trkpt lat="57.53005" lon="-5.69561">
        <ele>28.31</ele>
        <time>2021-04-06T09:44:52Z</time>
      </trkpt>
      <trkpt lat="57.52991" lon="-5.6948">
        <ele>37.02</ele>
        <time>2021-04-06T09:44:55Z</time>
      </trkpt>
      <trkpt lat="57.52985" lon="-5.69435">
        <ele>39.96</ele>
        <time>2021-04-06T09:44:57Z</time>
      </trkpt>
      <trkpt lat="57.52984" lon="-5.694">
        <ele>41.5</ele>
        <time>2021-04-06T09:45:00Z</time>
      </trkpt>
      <trkpt lat="57.52986" lon="-5.69357">
        <ele>41.64</ele>
        <time>2021-04-06T09:45:02Z</time>
      </trkpt>
      <trkpt lat="57.52983" lon="-5.69327">
        <ele>42.43</ele>
        <time>2021-04-06T09:45:04Z</time>
      </trkpt>
      <trkpt lat="57.52977" lon="-5.69298">
        <ele>44.03</ele>
        <time>2021-04-06T09:45:07Z</time>
      </trkpt>
      <trkpt lat="57.52954" lon="-5.69243">
        <ele>47.54</ele>
        <time>2021-04-06T09:45:09Z</time>
      </trkpt>
      <trkpt lat="57.52929" lon="-5.6919">
        <ele>47.57</ele>
        <time>2021-04-06T09:45:12Z</time>
      </trkpt>
      <trkpt lat="57.52911" lon="-5.69163">
        <ele>47.47</ele>
        <time>2021-04-06T09:45:14Z</time>
      </trkpt>
      <trkpt lat="57.52897" lon="-5.69149">
        <ele>48.19</ele>
        <time>2021-04-06T09:45:16Z</time>
      </trkpt>
      <trkpt lat="57.52873" lon="-5.69138">
        <ele>52.37</ele>
        <time>2021-04-06T09:45:19Z</time>
      </trkpt>
      <trkpt lat="57.52807" lon="-5.69122">
        <ele>60.48</ele>
        <time>2021-04-06T09:45:21Z</time>
      </trkpt>
      <trkpt lat="57.52778" lon="-5.69124">
        <ele>63.14</ele>
        <time>2021-04-06T09:45:24Z</time>
      </trkpt>
      <trkpt lat="57.52732" lon="-5.69151">
        <ele>67.91</ele>
        <time>2021-04-06T09:45:26Z</time>
      </trkpt>
      <trkpt lat="57.52711" lon="-5.69161">
        <ele>68.44</ele>
        <time>2021-04-06T09:45:28Z</time>
      </trkpt>
      <trkpt lat="57.52696" lon="-5.69162">
        <ele>67.64</ele>
        <time>2021-04-06T09:45:31Z</time>
      </trkpt>
      <trkpt lat="57.52682" lon="-5.6915">
        <ele>65.58</ele>
        <time>2021-04-06T09:45:33Z</time>
      </trkpt>
      <trkpt lat="57.52675" lon="-5.69136">
        <ele>63.98</ele>
        <time>2021-04-06T09:45:36Z</time>
      </trkpt>
      <trkpt lat="57.52673" lon="-5.69115">
        <ele>61.44</ele>
        <time>2021-04-06T09:45:38Z</time>
      </trkpt>
      <trkpt lat="57.52675" lon="-5.69091">
        <ele>61.5</ele>
        <time>2021-04-06T09:45:40Z</time>
      </trkpt>
      <trkpt lat="57.52688" lon="-5.69061">
        <ele>60.77</ele>
        <time>2021-04-06T09:45:43Z</time>
      </trkpt>
      <trkpt lat="57.52709" lon="-5.68998">
        <ele>58.35</ele>
        <time>2021-04-06T09:45:45Z</time>
      </trkpt>
      <trkpt lat="57.52712" lon="-5.68977">
        <ele>56.49</ele>
        <time>2021-04-06T09:45:48Z</time>
      </trkpt>
      <trkpt lat="57.52711" lon="-5.68954">
        <ele>55.39</ele>
        <time>2021-04-06T09:45:50Z</time>
      </trkpt>
      <trkpt lat="57.52704" lon="-5.68934">
        <ele>55.19</ele>
        <time>2021-04-06T09:45:52Z</time>
      </trkpt>
      <trkpt lat="57.52695" lon="-5.68926">
        <ele>56.95</ele>
        <time>2021-04-06T09:45:55Z</time>
      </trkpt>
      <trkpt lat="57.52658" lon="-5.68912">
        <ele>59.54</ele>
        <time>2021-04-06T09:45:57Z</time>
      </trkpt>
      <trkpt lat="57.52645" lon="-5.68904">
        <ele>58.6</ele>
        <time>2021-04-06T09:46:00Z</time>
      </trkpt>
      <trkpt lat="57.52633" lon="-5.68887">
        <ele>56.93</ele>
        <time>2021-04-06T09:46:02Z</time>
      </trkpt>
      <trkpt lat="57.52615" lon="-5.68828">
        <ele>53.97</ele>
        <time>2021-04-06T09:46:04Z</time>
      </trkpt>
      <trkpt lat="57.52611" lon="-5.6877">
        <ele>53.79</ele>
        <time>2021-04-06T09:46:07Z</time>
      </trkpt>
      <trkpt lat="57.52598" lon="-5.68716">
        <ele>52.58</ele>
        <time>2021-04-06T09:46:09Z</time>
      </trkpt>
      <trkpt lat="57.52567" lon="-5.68642">
        <ele>47.25</ele>
        <time>2021-04-06T09:46:12Z</time>
      </trkpt>
      <trkpt lat="57.5253" lon="-5.68574">
        <ele>46.74</ele>
        <time>2021-04-06T09:46:14Z</time>
      </trkpt>
      <trkpt lat="57.52523" lon="-5.68541">
        <ele>43.28</ele>
        <time>2021-04-06T09:46:17Z</time>
      </trkpt>
      <trkpt lat="57.52519" lon="-5.68496">
        <ele>37.76</ele>
        <time>2021-04-06T09:46:19Z</time>
      </trkpt>
      <trkpt lat="57.52519" lon="-5.68389">
        <ele>30.33</ele>
        <time>2021-04-06T09:46:21Z</time>
      </trkpt>
      <trkpt lat="57.52512" lon="-5.68309">
        <ele>31.72</ele>
        <time>2021-04-06T09:46:24Z</time>
      </trkpt>
      <trkpt lat="57.52467" lon="-5.68069">
        <ele>38.18</ele>
        <time>2021-04-06T09:46:26Z</time>
      </trkpt>
      <trkpt lat="57.52455" lon="-5.68037">
        <ele>37.8</ele>
        <time>2021-04-06T09:46:29Z</time>
      </trkpt>
      <trkpt lat="57.52445" lon="-5.68022">
        <ele>38.52</ele>
        <time>2021-04-06T09:46:31Z</time>
      </trkpt>
      <trkpt lat="57.52405" lon="-5.68">
        <ele>38.4</ele>
        <time>2021-04-06T09:46:33Z</time>
      </trkpt>
      <trkpt lat="57.5239" lon="-5.67986">
        <ele>37.95</ele>
        <time>2021-04-06T09:46:36Z</time>
      </trkpt>
      <trkpt lat="57.52373" lon="-5.67954">
        <ele>37.5</ele>
        <time>2021-04-06T09:46:38Z</time>
      </trkpt>
      <trkpt lat="57.52318" lon="-5.67831">
        <ele>35.62</ele>
        <time>2021-04-06T09:46:41Z</time>
      </trkpt>
      <trkpt lat="57.52284" lon="-5.67772">
        <ele>33.74</ele>
        <time>2021-04-06T09:46:43Z</time>
      </trkpt>
      <trkpt lat="57.52243" lon="-5.67678">
        <ele>35.61</ele>
        <time>2021-04-06T09:46:45Z</time>
      </trkpt>
      <trkpt lat="57.52212" lon="-5.67572">
        <ele>37.09</ele>
        <time>2021-04-06T09:46:48Z</time>
      </trkpt>
      <trkpt lat="57.52167" lon="-5.67452">
        <ele>35.88</ele>
        <time>2021-04-06T09:46:50Z</time>
      </trkpt>
      <trkpt lat="57.52123" lon="-5.67352">
        <ele>38.48</ele>
        <time>2021-04-06T09:46:53Z</time>
      </trkpt>
      <trkpt lat="57.52087" lon="-5.67279">
        <ele>41.18</ele>
        <time>2021-04-06T09:46:55Z</time>
      </trkpt>
      <trkpt lat="57.52038" lon="-5.6717">
        <ele>50.65</ele>
        <time>2021-04-06T09:46:57Z</time>
      </trkpt>
      <trkpt lat="57.5202" lon="-5.67142">
        <ele>53.12</ele>
        <time>2021-04-06T09:47:00Z</time>
      </trkpt>
      <trkpt lat="57.51995" lon="-5.67118">
        <ele>55.89</ele>
        <time>2021-04-06T09:47:02Z</time>
      </trkpt>
      <trkpt lat="57.51969" lon="-5.67106">
        <ele>58.1</ele>
        <time>2021-04-06T09:47:05Z</time>
      </trkpt>
      <trkpt lat="57.51954" lon="-5.67106">
        <ele>58.65</ele>
        <time>2021-04-06T09:47:07Z</time>
      </trkpt>
      <trkpt lat="57.51932" lon="-5.67114">
        <ele>59.19</ele>
        <time>2021-04-06T09:47:09Z</time>
      </trkpt>
      <trkpt lat="57.51908" lon="-5.67116">
        <ele>59.17</ele>
        <time>2021-04-06T09:47:12Z</time>
      </trkpt>
      <trkpt lat="57.5184" lon="-5.671">
        <ele>59.44</ele>
        <time>2021-04-06T09:47:14Z</time>
      </trkpt>
      <trkpt lat="57.51809" lon="-5.67077">
        <ele>57.71</ele>
        <time>2021-04-06T09:47:17Z</time>
      </trkpt>
      <trkpt lat="57.51779" lon="-5.67041">
        <ele>52.56</ele>
        <time>2021-04-06T09:47:19Z</time>
      </trkpt>
      <trkpt lat="57.51751" lon="-5.67022">
        <ele>48.57</ele>
        <time>2021-04-06T09:47:21Z</time>
      </trkpt>
      <trkpt lat="57.51653" lon="-5.66965">
        <ele>36.62</ele>
        <time>2021-04-06T09:47:24Z</time>
      </trkpt>
      <trkpt lat="57.51629" lon="-5.66934">
        <ele>34.54</ele>
        <time>2021-04-06T09:47:26Z</time>
      </trkpt>
      <trkpt lat="57.51596" lon="-5.66864">
        <ele>32.75</ele>
        <time>2021-04-06T09:47:29Z</time>
      </trkpt>
      <trkpt lat="57.5157" lon="-5.66757">
        <ele>34.41</ele>
        <time>2021-04-06T09:47:31Z</time>
      </trkpt>
      <trkpt lat="57.51561" lon="-5.66692">
        <ele>34.86</ele>
        <time>2021-04-06T09:47:33Z</time>
      </trkpt>
      <trkpt lat="57.51539" lon="-5.66645">
        <ele>36.18</ele>
        <time>2021-04-06T09:47:36Z</time>
      </trkpt>
      <trkpt lat="57.51418" lon="-5.66422">
        <ele>36.36</ele>
        <time>2021-04-06T09:47:38Z</time>
      </trkpt>
      <trkpt lat="57.51404" lon="-5.66401">
        <ele>34.87</ele>
        <time>2021-04-06T09:47:41Z</time>
      </trkpt>
      <trkpt lat="57.51393" lon="-5.66399">
        <ele>34.72</ele>
        <time>2021-04-06T09:47:43Z</time>
      </trkpt>
      <trkpt lat="57.51361" lon="-5.664">
        <ele>33.8</ele>
        <time>2021-04-06T09:47:45Z</time>
      </trkpt>
      <trkpt lat="57.51348" lon="-5.66391">
        <ele>34.05</ele>
        <time>2021-04-06T09:47:48Z</time>
      </trkpt>
      <trkpt lat="57.5134" lon="-5.66375">
        <ele>34.53</ele>
        <time>2021-04-06T09:47:50Z</time>
      </trkpt>
      <trkpt lat="57.51334" lon="-5.66349">
        <ele>34.95</ele>
        <time>2021-04-06T09:47:53Z</time>
      </trkpt>
      <trkpt lat="57.51333" lon="-5.66284">
        <ele>38.67</ele>
        <time>2021-04-06T09:47:55Z</time>
      </trkpt>
      <trkpt lat="57.51335" lon="-5.66198">
        <ele>39.76</ele>
        <time>2021-04-06T09:47:57Z</time>
      </trkpt>
      <trkpt lat="57.51346" lon="-5.66068">
        <ele>42.33</ele>
        <time>2021-04-06T09:48:00Z</time>
      </trkpt>
      <trkpt lat="57.51352" lon="-5.65949">
        <ele>47.64</ele>
        <time>2021-04-06T09:48:02Z</time>
      </trkpt>
      <trkpt lat="57.51351" lon="-5.65904">
        <ele>48.55</ele>
        <time>2021-04-06T09:48:05Z</time>
      </trkpt>
      <trkpt lat="57.51343" lon="-5.65855">
        <ele>49.28</ele>
        <time>2021-04-06T09:48:07Z</time>
      </trkpt>
      <trkpt lat="57.51333" lon="-5.65824">
        <ele>49.4</ele>
        <time>2021-04-06T09:48:09Z</time>
      </trkpt>
      <trkpt lat="57.51298" lon="-5.65738">
        <ele>48.28</ele>
        <time>2021-04-06T09:48:12Z</time>
      </trkpt>
      <trkpt lat="57.51277" lon="-5.65668">
        <ele>48.41</ele>
        <time>2021-04-06T09:48:14Z</time>
      </trkpt>
      <trkpt lat="57.51255" lon="-5.65616">
        <ele>48.46</ele>
        <time>2021-04-06T09:48:17Z</time>
      </trkpt>
      <trkpt lat="57.51218" lon="-5.65555">
        <ele>46.71</ele>
        <time>2021-04-06T09:48:19Z</time>
      </trkpt>
      <trkpt lat="57.51197" lon="-5.6553">
        <ele>46.17</ele>
        <time>2021-04-06T09:48:21Z</time>
      </trkpt>
      <trkpt lat="57.51139" lon="-5.65475">
        <ele>45.37</ele>
        <time>2021-04-06T09:48:24Z</time>
      </trkpt>
      <trkpt lat="57.51121" lon="-5.65449">
        <ele>44.6</ele>
        <time>2021-04-06T09:48:26Z</time>
      </trkpt>
      <trkpt lat="57.51114" lon="-5.65436">
        <ele>44.63</ele>
        <time>2021-04-06T09:48:29Z</time>
      </trkpt>
      <trkpt lat="57.51077" lon="-5.65339">
        <ele>42.18</ele>
        <time>2021-04-06T09:48:31Z</time>
      </trkpt>
      <trkpt lat="57.51029" lon="-5.65259">
        <ele>50.78</ele>
        <time>2021-04-06T09:48:33Z</time>
      </trkpt>
      <trkpt lat="57.50985" lon="-5.65212">
        <ele>51.84</ele>
        <time>2021-04-06T09:48:36Z</time>
      </trkpt>
      <trkpt lat="57.50966" lon="-5.65181">
        <ele>50.63</ele>
        <time>2021-04-06T09:48:38Z</time>
      </trkpt>
      <trkpt lat="57.50932" lon="-5.651">
        <ele>43.3</ele>
        <time>2021-04-06T09:48:41Z</time>
      </trkpt>
      <trkpt lat="57.50923" lon="-5.65085">
        <ele>40.89</ele>
        <time>2021-04-06T09:48:43Z</time>
      </trkpt>
      <trkpt lat="57.50903" lon="-5.65063">
        <ele>38.63</ele>
        <time>2021-04-06T09:48:45Z</time>
      </trkpt>
      <trkpt lat="57.50844" lon="-5.65041">
        <ele>37.86</ele>
        <time>2021-04-06T09:48:48Z</time>
      </trkpt>
      <trkpt lat="57.50835" lon="-5.65032">
        <ele>37.49</ele>
        <time>2021-04-06T09:48:50Z</time>
      </trkpt>
      <trkpt lat="57.50828" lon="-5.65017">
        <ele>35.79</ele>
        <time>2021-04-06T09:48:53Z</time>
      </trkpt>
      <trkpt lat="57.50824" lon="-5.6499">
        <ele>32.33</ele>
        <time>2021-04-06T09:48:55Z</time>
      </trkpt>
      <trkpt lat="57.50825" lon="-5.64954">
        <ele>27.79</ele>
        <time>2021-04-06T09:48:58Z</time>
      </trkpt>
      <trkpt lat="57.50817" lon="-5.6491">
        <ele>23.56</ele>
        <time>2021-04-06T09:49:00Z</time>
      </trkpt>
      <trkpt lat="57.50784" lon="-5.64815">
        <ele>22.96</ele>
        <time>2021-04-06T09:49:02Z</time>
      </trkpt>
      <trkpt lat="57.50784" lon="-5.64815">
        <ele>22.96</ele>
        <time>2021-04-06T09:49:02Z</time>
      </trkpt>
      <trkpt lat="57.50786" lon="-5.64788">
        <ele>21.7</ele>
        <time>2021-04-06T09:49:04Z</time>
      </trkpt>
      <trkpt lat="57.50796" lon="-5.64764">
        <ele>20.73</ele>
        <time>2021-04-06T09:49:06Z</time>
      </trkpt>
      <trkpt lat="57.50805" lon="-5.64755">
        <ele>20.07</ele>
        <time>2021-04-06T09:49:07Z</time>
      </trkpt>
      <trkpt lat="57.50838" lon="-5.64739">
        <ele>19.27</ele>
        <time>2021-04-06T09:49:09Z</time>
      </trkpt>
      <trkpt lat="57.50885" lon="-5.64676">
        <ele>21.55</ele>
        <time>2021-04-06T09:49:11Z</time>
      </trkpt>
      <trkpt lat="57.50899" lon="-5.64643">
        <ele>21.62</ele>
        <time>2021-04-06T09:49:12Z</time>
      </trkpt>
      <trkpt lat="57.5093" lon="-5.64547">
        <ele>20.52</ele>
        <time>2021-04-06T09:49:14Z</time>
      </trkpt>
      <trkpt lat="57.50961" lon="-5.64433">
        <ele>19.8</ele>
        <time>2021-04-06T09:49:15Z</time>
      </trkpt>
      <trkpt lat="57.50964" lon="-5.64412">
        <ele>19.47</ele>
        <time>2021-04-06T09:49:17Z</time>
      </trkpt>
      <trkpt lat="57.50962" lon="-5.64396">
        <ele>19</ele>
        <time>2021-04-06T09:49:19Z</time>
      </trkpt>
      <trkpt lat="57.50927" lon="-5.64287">
        <ele>17.96</ele>
        <time>2021-04-06T09:49:20Z</time>
      </trkpt>
      <trkpt lat="57.50922" lon="-5.64252">
        <ele>17.22</ele>
        <time>2021-04-06T09:49:22Z</time>
      </trkpt>
      <trkpt lat="57.50927" lon="-5.64213">
        <ele>14.52</ele>
        <time>2021-04-06T09:49:24Z</time>
      </trkpt>
      <trkpt lat="57.50938" lon="-5.64195">
        <ele>12.91</ele>
        <time>2021-04-06T09:49:25Z</time>
      </trkpt>
      <trkpt lat="57.50952" lon="-5.64192">
        <ele>11.1</ele>
        <time>2021-04-06T09:49:27Z</time>
      </trkpt>
      <trkpt lat="57.50963" lon="-5.64199">
        <ele>10.03</ele>
        <time>2021-04-06T09:49:29Z</time>
      </trkpt>
      <trkpt lat="57.50972" lon="-5.6421">
        <ele>9</ele>
        <time>2021-04-06T09:49:30Z</time>
      </trkpt>
      <trkpt lat="57.50984" lon="-5.64242">
        <ele>10.13</ele>
        <time>2021-04-06T09:49:32Z</time>
      </trkpt>
      <trkpt lat="57.50989" lon="-5.64274">
        <ele>10.94</ele>
        <time>2021-04-06T09:49:33Z</time>
      </trkpt>
      <trkpt lat="57.50994" lon="-5.64301">
        <ele>12.66</ele>
        <time>2021-04-06T09:49:35Z</time>
      </trkpt>
      <trkpt lat="57.51006" lon="-5.64332">
        <ele>14.36</ele>
        <time>2021-04-06T09:49:37Z</time>
      </trkpt>
      <trkpt lat="57.51023" lon="-5.64355">
        <ele>15.79</ele>
        <time>2021-04-06T09:49:38Z</time>
      </trkpt>
      <trkpt lat="57.51046" lon="-5.64376">
        <ele>17.92</ele>
        <time>2021-04-06T09:49:40Z</time>
      </trkpt>
      <trkpt lat="57.5106" lon="-5.64371">
        <ele>19.4</ele>
        <time>2021-04-06T09:49:42Z</time>
      </trkpt>
      <trkpt lat="57.51071" lon="-5.64359">
        <ele>20.78</ele>
        <time>2021-04-06T09:49:43Z</time>
      </trkpt>
      <trkpt lat="57.5108" lon="-5.64328">
        <ele>22.65</ele>
        <time>2021-04-06T09:49:45Z</time>
      </trkpt>
      <trkpt lat="57.51088" lon="-5.64258">
        <ele>23.55</ele>
        <time>2021-04-06T09:49:47Z</time>
      </trkpt>
      <trkpt lat="57.51105" lon="-5.64332">
        <ele>24.57</ele>
        <time>2021-04-06T09:49:50Z</time>
      </trkpt>
      <trkpt lat="57.51123" lon="-5.64375">
        <ele>24.36</ele>
        <time>2021-04-06T09:49:53Z</time>
      </trkpt>
      <trkpt lat="57.51146" lon="-5.64401">
        <ele>24.25</ele>
        <time>2021-04-06T09:49:56Z</time>
      </trkpt>
      <trkpt lat="57.51176" lon="-5.64421">
        <ele>22.99</ele>
        <time>2021-04-06T09:49:59Z</time>
      </trkpt>
      <trkpt lat="57.51409" lon="-5.64518">
        <ele>18.6</ele>
        <time>2021-04-06T09:50:02Z</time>
      </trkpt>
      <trkpt lat="57.51438" lon="-5.64546">
        <ele>16.18</ele>
        <time>2021-04-06T09:50:05Z</time>
      </trkpt>
      <trkpt lat="57.51507" lon="-5.64651">
        <ele>13.4</ele>
        <time>2021-04-06T09:50:08Z</time>
      </trkpt>
      <trkpt lat="57.51542" lon="-5.64687">
        <ele>15.35</ele>
        <time>2021-04-06T09:50:12Z</time>
      </trkpt>
      <trkpt lat="57.51621" lon="-5.64735">
        <ele>16.35</ele>
        <time>2021-04-06T09:50:15Z</time>
      </trkpt>
      <trkpt lat="57.51704" lon="-5.64803">
        <ele>10.5</ele>
        <time>2021-04-06T09:50:18Z</time>
      </trkpt>
      <trkpt lat="57.51778" lon="-5.64833">
        <ele>10.02</ele>
        <time>2021-04-06T09:50:21Z</time>
      </trkpt>
      <trkpt lat="57.51882" lon="-5.64857">
        <ele>10.98</ele>
        <time>2021-04-06T09:50:24Z</time>
      </trkpt>
      <trkpt lat="57.51905" lon="-5.64858">
        <ele>13.43</ele>
        <time>2021-04-06T09:50:27Z</time>
      </trkpt>
      <trkpt lat="57.5193" lon="-5.64854">
        <ele>16.93</ele>
        <time>2021-04-06T09:50:30Z</time>
      </trkpt>
      <trkpt lat="57.51952" lon="-5.64838">
        <ele>21.6</ele>
        <time>2021-04-06T09:50:34Z</time>
      </trkpt>
      <trkpt lat="57.5198" lon="-5.64808">
        <ele>24.27</ele>
        <time>2021-04-06T09:50:37Z</time>
      </trkpt>
      <trkpt lat="57.52004" lon="-5.64764">
        <ele>24.6</ele>
        <time>2021-04-06T09:50:40Z</time>
      </trkpt>
      <trkpt lat="57.52029" lon="-5.64702">
        <ele>25.62</ele>
        <time>2021-04-06T09:50:43Z</time>
      </trkpt>
      <trkpt lat="57.52062" lon="-5.64614">
        <ele>26.44</ele>
        <time>2021-04-06T09:50:46Z</time>
      </trkpt>
      <trkpt lat="57.52081" lon="-5.64578">
        <ele>25.42</ele>
        <time>2021-04-06T09:50:49Z</time>
      </trkpt>
      <trkpt lat="57.52099" lon="-5.64554">
        <ele>25.56</ele>
        <time>2021-04-06T09:50:52Z</time>
      </trkpt>
      <trkpt lat="57.52122" lon="-5.64534">
        <ele>26.98</ele>
        <time>2021-04-06T09:50:55Z</time>
      </trkpt>
      <trkpt lat="57.52145" lon="-5.64525">
        <ele>28.03</ele>
        <time>2021-04-06T09:50:59Z</time>
      </trkpt>
      <trkpt lat="57.52163" lon="-5.64523">
        <ele>27.6</ele>
        <time>2021-04-06T09:51:02Z</time>
      </trkpt>
      <trkpt lat="57.52185" lon="-5.64529">
        <ele>27.53</ele>
        <time>2021-04-06T09:51:05Z</time>
      </trkpt>
      <trkpt lat="57.52225" lon="-5.64549">
        <ele>25.85</ele>
        <time>2021-04-06T09:51:08Z</time>
      </trkpt>
      <trkpt lat="57.52298" lon="-5.64592">
        <ele>23.61</ele>
        <time>2021-04-06T09:51:11Z</time>
      </trkpt>
      <trkpt lat="57.52324" lon="-5.64598">
        <ele>22.93</ele>
        <time>2021-04-06T09:51:14Z</time>
      </trkpt>
      <trkpt lat="57.52346" lon="-5.64597">
        <ele>22.75</ele>
        <time>2021-04-06T09:51:17Z</time>
      </trkpt>
      <trkpt lat="57.52374" lon="-5.6459">
        <ele>21.94</ele>
        <time>2021-04-06T09:51:20Z</time>
      </trkpt>
      <trkpt lat="57.52397" lon="-5.64575">
        <ele>21.28</ele>
        <time>2021-04-06T09:51:24Z</time>
      </trkpt>
      <trkpt lat="57.52427" lon="-5.64542">
        <ele>22</ele>
        <time>2021-04-06T09:51:27Z</time>
      </trkpt>
      <trkpt lat="57.52534" lon="-5.64382">
        <ele>28.67</ele>
        <time>2021-04-06T09:51:30Z</time>
      </trkpt>
      <trkpt lat="57.52556" lon="-5.64326">
        <ele>29.34</ele>
        <time>2021-04-06T09:51:33Z</time>
      </trkpt>
      <trkpt lat="57.52556" lon="-5.64326">
        <ele>29.34</ele>
        <time>2021-04-06T09:51:33Z</time>
      </trkpt>
      <trkpt lat="57.52578" lon="-5.64225">
        <ele>31.55</ele>
        <time>2021-04-06T09:51:36Z</time>
      </trkpt>
      <trkpt lat="57.52604" lon="-5.64002">
        <ele>35.26</ele>
        <time>2021-04-06T09:51:39Z</time>
      </trkpt>
      <trkpt lat="57.52606" lon="-5.63936">
        <ele>34.61</ele>
        <time>2021-04-06T09:51:43Z</time>
      </trkpt>
      <trkpt lat="57.52597" lon="-5.63849">
        <ele>33.78</ele>
        <time>2021-04-06T09:51:46Z</time>
      </trkpt>
      <trkpt lat="57.52578" lon="-5.63783">
        <ele>32.87</ele>
        <time>2021-04-06T09:51:49Z</time>
      </trkpt>
      <trkpt lat="57.52547" lon="-5.63684">
        <ele>26.93</ele>
        <time>2021-04-06T09:51:52Z</time>
      </trkpt>
      <trkpt lat="57.52457" lon="-5.63457">
        <ele>24.25</ele>
        <time>2021-04-06T09:51:56Z</time>
      </trkpt>
      <trkpt lat="57.52435" lon="-5.6342">
        <ele>23.16</ele>
        <time>2021-04-06T09:51:59Z</time>
      </trkpt>
      <trkpt lat="57.52412" lon="-5.634">
        <ele>21.26</ele>
        <time>2021-04-06T09:52:02Z</time>
      </trkpt>
      <trkpt lat="57.52355" lon="-5.6339">
        <ele>20.91</ele>
        <time>2021-04-06T09:52:05Z</time>
      </trkpt>
      <trkpt lat="57.523" lon="-5.63393">
        <ele>16.98</ele>
        <time>2021-04-06T09:52:08Z</time>
      </trkpt>
      <trkpt lat="57.5227" lon="-5.63381">
        <ele>15.27</ele>
        <time>2021-04-06T09:52:12Z</time>
      </trkpt>
      <trkpt lat="57.52243" lon="-5.63354">
        <ele>17.82</ele>
        <time>2021-04-06T09:52:15Z</time>
      </trkpt>
      <trkpt lat="57.52215" lon="-5.63294">
        <ele>24.11</ele>
        <time>2021-04-06T09:52:18Z</time>
      </trkpt>
      <trkpt lat="57.52195" lon="-5.63201">
        <ele>25.26</ele>
        <time>2021-04-06T09:52:21Z</time>
      </trkpt>
      <trkpt lat="57.52181" lon="-5.63084">
        <ele>25.99</ele>
        <time>2021-04-06T09:52:25Z</time>
      </trkpt>
      <trkpt lat="57.5218" lon="-5.62982">
        <ele>24.24</ele>
        <time>2021-04-06T09:52:28Z</time>
      </trkpt>
      <trkpt lat="57.52184" lon="-5.62738">
        <ele>17.26</ele>
        <time>2021-04-06T09:52:31Z</time>
      </trkpt>
      <trkpt lat="57.52175" lon="-5.62646">
        <ele>16.36</ele>
        <time>2021-04-06T09:52:34Z</time>
      </trkpt>
      <trkpt lat="57.52166" lon="-5.62564">
        <ele>14.73</ele>
        <time>2021-04-06T09:52:38Z</time>
      </trkpt>
      <trkpt lat="57.52149" lon="-5.62444">
        <ele>13.75</ele>
        <time>2021-04-06T09:52:41Z</time>
      </trkpt>
      <trkpt lat="57.52134" lon="-5.62375">
        <ele>14.89</ele>
        <time>2021-04-06T09:52:44Z</time>
      </trkpt>
      <trkpt lat="57.52082" lon="-5.62211">
        <ele>18.99</ele>
        <time>2021-04-06T09:52:47Z</time>
      </trkpt>
      <trkpt lat="57.52067" lon="-5.62132">
        <ele>18.43</ele>
        <time>2021-04-06T09:52:50Z</time>
      </trkpt>
      <trkpt lat="57.52063" lon="-5.62091">
        <ele>17.27</ele>
        <time>2021-04-06T09:52:54Z</time>
      </trkpt>
      <trkpt lat="57.52066" lon="-5.6204">
        <ele>13.75</ele>
        <time>2021-04-06T09:52:57Z</time>
      </trkpt>
      <trkpt lat="57.52076" lon="-5.61986">
        <ele>11.72</ele>
        <time>2021-04-06T09:53:00Z</time>
      </trkpt>
      <trkpt lat="57.52089" lon="-5.61953">
        <ele>12.24</ele>
        <time>2021-04-06T09:53:03Z</time>
      </trkpt>
      <trkpt lat="57.52122" lon="-5.61896">
        <ele>14.76</ele>
        <time>2021-04-06T09:53:07Z</time>
      </trkpt>
      <trkpt lat="57.52155" lon="-5.61843">
        <ele>14.92</ele>
        <time>2021-04-06T09:53:10Z</time>
      </trkpt>
      <trkpt lat="57.522" lon="-5.6179">
        <ele>15.86</ele>
        <time>2021-04-06T09:53:13Z</time>
      </trkpt>
      <trkpt lat="57.52316" lon="-5.61715">
        <ele>22.57</ele>
        <time>2021-04-06T09:53:16Z</time>
      </trkpt>
      <trkpt lat="57.52427" lon="-5.61605">
        <ele>29.5</ele>
        <time>2021-04-06T09:53:20Z</time>
      </trkpt>
      <trkpt lat="57.52541" lon="-5.61525">
        <ele>30.37</ele>
        <time>2021-04-06T09:53:23Z</time>
      </trkpt>
      <trkpt lat="57.52678" lon="-5.6137">
        <ele>31.89</ele>
        <time>2021-04-06T09:53:26Z</time>
      </trkpt>
      <trkpt lat="57.52849" lon="-5.61231">
        <ele>36.47</ele>
        <time>2021-04-06T09:53:29Z</time>
      </trkpt>
      <trkpt lat="57.52885" lon="-5.61185">
        <ele>37.45</ele>
        <time>2021-04-06T09:53:33Z</time>
      </trkpt>
      <trkpt lat="57.52965" lon="-5.61038">
        <ele>39.1</ele>
        <time>2021-04-06T09:53:36Z</time>
      </trkpt>
      <trkpt lat="57.52992" lon="-5.61">
        <ele>39.2</ele>
        <time>2021-04-06T09:53:39Z</time>
      </trkpt>
      <trkpt lat="57.53045" lon="-5.60952">
        <ele>37.96</ele>
        <time>2021-04-06T09:53:42Z</time>
      </trkpt>
      <trkpt lat="57.53102" lon="-5.60905">
        <ele>38.03</ele>
        <time>2021-04-06T09:53:45Z</time>
      </trkpt>
      <trkpt lat="57.53126" lon="-5.60873">
        <ele>38.76</ele>
        <time>2021-04-06T09:53:49Z</time>
      </trkpt>
      <trkpt lat="57.53149" lon="-5.60811">
        <ele>39.77</ele>
        <time>2021-04-06T09:53:52Z</time>
      </trkpt>
      <trkpt lat="57.53156" lon="-5.6076">
        <ele>39.7</ele>
        <time>2021-04-06T09:53:55Z</time>
      </trkpt>
      <trkpt lat="57.53156" lon="-5.60689">
        <ele>38.06</ele>
        <time>2021-04-06T09:53:58Z</time>
      </trkpt>
      <trkpt lat="57.53147" lon="-5.60645">
        <ele>37.94</ele>
        <time>2021-04-06T09:54:02Z</time>
      </trkpt>
      <trkpt lat="57.53123" lon="-5.60586">
        <ele>39.33</ele>
        <time>2021-04-06T09:54:05Z</time>
      </trkpt>
      <trkpt lat="57.53101" lon="-5.60553">
        <ele>39.06</ele>
        <time>2021-04-06T09:54:08Z</time>
      </trkpt>
      <trkpt lat="57.53031" lon="-5.60468">
        <ele>35.5</ele>
        <time>2021-04-06T09:54:11Z</time>
      </trkpt>
      <trkpt lat="57.52963" lon="-5.60313">
        <ele>30.31</ele>
        <time>2021-04-06T09:54:15Z</time>
      </trkpt>
      <trkpt lat="57.52938" lon="-5.60268">
        <ele>28.78</ele>
        <time>2021-04-06T09:54:18Z</time>
      </trkpt>
      <trkpt lat="57.52813" lon="-5.60112">
        <ele>20.04</ele>
        <time>2021-04-06T09:54:21Z</time>
      </trkpt>
      <trkpt lat="57.52788" lon="-5.6007">
        <ele>17.74</ele>
        <time>2021-04-06T09:54:24Z</time>
      </trkpt>
      <trkpt lat="57.52775" lon="-5.60035">
        <ele>15.14</ele>
        <time>2021-04-06T09:54:27Z</time>
      </trkpt>
      <trkpt lat="57.52763" lon="-5.59982">
        <ele>11.83</ele>
        <time>2021-04-06T09:54:31Z</time>
      </trkpt>
      <trkpt lat="57.52758" lon="-5.59908">
        <ele>9.7</ele>
        <time>2021-04-06T09:54:34Z</time>
      </trkpt>
      <trkpt lat="57.52759" lon="-5.59651">
        <ele>11.31</ele>
        <time>2021-04-06T09:54:37Z</time>
      </trkpt>
      <trkpt lat="57.52754" lon="-5.59573">
        <ele>12.67</ele>
        <time>2021-04-06T09:54:40Z</time>
      </trkpt>
      <trkpt lat="57.52743" lon="-5.59512">
        <ele>15.5</ele>
        <time>2021-04-06T09:54:44Z</time>
      </trkpt>
      <trkpt lat="57.52731" lon="-5.59464">
        <ele>16.79</ele>
        <time>2021-04-06T09:54:47Z</time>
      </trkpt>
      <trkpt lat="57.52633" lon="-5.59158">
        <ele>18.79</ele>
        <time>2021-04-06T09:54:50Z</time>
      </trkpt>
      <trkpt lat="57.52608" lon="-5.59067">
        <ele>20.02</ele>
        <time>2021-04-06T09:54:53Z</time>
      </trkpt>
      <trkpt lat="57.52599" lon="-5.59001">
        <ele>22.57</ele>
        <time>2021-04-06T09:54:57Z</time>
      </trkpt>
      <trkpt lat="57.526" lon="-5.5893">
        <ele>25.92</ele>
        <time>2021-04-06T09:55:00Z</time>
      </trkpt>
      <trkpt lat="57.52638" lon="-5.58665">
        <ele>37</ele>
        <time>2021-04-06T09:55:03Z</time>
      </trkpt>
      <trkpt lat="57.52634" lon="-5.58409">
        <ele>45.29</ele>
        <time>2021-04-06T09:55:06Z</time>
      </trkpt>
      <trkpt lat="57.52635" lon="-5.58326">
        <ele>46.62</ele>
        <time>2021-04-06T09:55:10Z</time>
      </trkpt>
      <trkpt lat="57.52647" lon="-5.58255">
        <ele>47</ele>
        <time>2021-04-06T09:55:13Z</time>
      </trkpt>
      <trkpt lat="57.52683" lon="-5.58079">
        <ele>48.02</ele>
        <time>2021-04-06T09:55:16Z</time>
      </trkpt>
      <trkpt lat="57.5269" lon="-5.58026">
        <ele>48.56</ele>
        <time>2021-04-06T09:55:19Z</time>
      </trkpt>
      <trkpt lat="57.52709" lon="-5.5769">
        <ele>59.93</ele>
        <time>2021-04-06T09:55:22Z</time>
      </trkpt>
      <trkpt lat="57.52705" lon="-5.57558">
        <ele>65.03</ele>
        <time>2021-04-06T09:55:26Z</time>
      </trkpt>
      <trkpt lat="57.52691" lon="-5.5741">
        <ele>67.25</ele>
        <time>2021-04-06T09:55:29Z</time>
      </trkpt>
      <trkpt lat="57.5269" lon="-5.57267">
        <ele>69.51</ele>
        <time>2021-04-06T09:55:32Z</time>
      </trkpt>
      <trkpt lat="57.52684" lon="-5.57128">
        <ele>80.9</ele>
        <time>2021-04-06T09:55:35Z</time>
      </trkpt>
      <trkpt lat="57.52673" lon="-5.56995">
        <ele>87.75</ele>
        <time>2021-04-06T09:55:39Z</time>
      </trkpt>
      <trkpt lat="57.52677" lon="-5.56927">
        <ele>90.71</ele>
        <time>2021-04-06T09:55:42Z</time>
      </trkpt>
      <trkpt lat="57.52699" lon="-5.56833">
        <ele>97.03</ele>
        <time>2021-04-06T09:55:45Z</time>
      </trkpt>
      <trkpt lat="57.5275" lon="-5.56679">
        <ele>103.56</ele>
        <time>2021-04-06T09:55:48Z</time>
      </trkpt>
      <trkpt lat="57.52762" lon="-5.56622">
        <ele>101.6</ele>
        <time>2021-04-06T09:55:52Z</time>
      </trkpt>
      <trkpt lat="57.52766" lon="-5.56565">
        <ele>100.65</ele>
        <time>2021-04-06T09:55:55Z</time>
      </trkpt>
      <trkpt lat="57.52765" lon="-5.56516">
        <ele>101.67</ele>
        <time>2021-04-06T09:55:58Z</time>
      </trkpt>
      <trkpt lat="57.52761" lon="-5.56464">
        <ele>102.96</ele>
        <time>2021-04-06T09:56:01Z</time>
      </trkpt>
      <trkpt lat="57.5274" lon="-5.56306">
        <ele>104.73</ele>
        <time>2021-04-06T09:56:04Z</time>
      </trkpt>
      <trkpt lat="57.52725" lon="-5.56165">
        <ele>105.66</ele>
        <time>2021-04-06T09:56:08Z</time>
      </trkpt>
      <trkpt lat="57.52723" lon="-5.56088">
        <ele>105.79</ele>
        <time>2021-04-06T09:56:11Z</time>
      </trkpt>
      <trkpt lat="57.52725" lon="-5.56054">
        <ele>104.63</ele>
        <time>2021-04-06T09:56:14Z</time>
      </trkpt>
      <trkpt lat="57.52729" lon="-5.56011">
        <ele>104.64</ele>
        <time>2021-04-06T09:56:17Z</time>
      </trkpt>
      <trkpt lat="57.52735" lon="-5.5597">
        <ele>106.35</ele>
        <time>2021-04-06T09:56:21Z</time>
      </trkpt>
      <trkpt lat="57.52745" lon="-5.55921">
        <ele>108.89</ele>
        <time>2021-04-06T09:56:24Z</time>
      </trkpt>
      <trkpt lat="57.52774" lon="-5.55793">
        <ele>114.29</ele>
        <time>2021-04-06T09:56:27Z</time>
      </trkpt>
      <trkpt lat="57.52782" lon="-5.55752">
        <ele>115.5</ele>
        <time>2021-04-06T09:56:30Z</time>
      </trkpt>
      <trkpt lat="57.52791" lon="-5.55669">
        <ele>116.58</ele>
        <time>2021-04-06T09:56:34Z</time>
      </trkpt>
      <trkpt lat="57.52799" lon="-5.55488">
        <ele>116.56</ele>
        <time>2021-04-06T09:56:37Z</time>
      </trkpt>
      <trkpt lat="57.52806" lon="-5.55432">
        <ele>114.03</ele>
        <time>2021-04-06T09:56:40Z</time>
      </trkpt>
      <trkpt lat="57.5281" lon="-5.55406">
        <ele>113.75</ele>
        <time>2021-04-06T09:56:43Z</time>
      </trkpt>
      <trkpt lat="57.52818" lon="-5.55376">
        <ele>112.99</ele>
        <time>2021-04-06T09:56:47Z</time>
      </trkpt>
      <trkpt lat="57.52859" lon="-5.55252">
        <ele>105.54</ele>
        <time>2021-04-06T09:56:50Z</time>
      </trkpt>
      <trkpt lat="57.52873" lon="-5.55191">
        <ele>104.83</ele>
        <time>2021-04-06T09:56:53Z</time>
      </trkpt>
      <trkpt lat="57.52881" lon="-5.55125">
        <ele>106.8</ele>
        <time>2021-04-06T09:56:56Z</time>
      </trkpt>
      <trkpt lat="57.52883" lon="-5.55076">
        <ele>108.47</ele>
        <time>2021-04-06T09:56:59Z</time>
      </trkpt>
      <trkpt lat="57.52877" lon="-5.55022">
        <ele>109</ele>
        <time>2021-04-06T09:57:03Z</time>
      </trkpt>
      <trkpt lat="57.52872" lon="-5.54992">
        <ele>108.92</ele>
        <time>2021-04-06T09:57:06Z</time>
      </trkpt>
      <trkpt lat="57.52864" lon="-5.54958">
        <ele>108.63</ele>
        <time>2021-04-06T09:57:09Z</time>
      </trkpt>
      <trkpt lat="57.52848" lon="-5.54907">
        <ele>107.5</ele>
        <time>2021-04-06T09:57:12Z</time>
      </trkpt>
      <trkpt lat="57.52775" lon="-5.54711">
        <ele>102.58</ele>
        <time>2021-04-06T09:57:16Z</time>
      </trkpt>
      <trkpt lat="57.52765" lon="-5.54648">
        <ele>99.58</ele>
        <time>2021-04-06T09:57:19Z</time>
      </trkpt>
      <trkpt lat="57.52761" lon="-5.54587">
        <ele>95.68</ele>
        <time>2021-04-06T09:57:22Z</time>
      </trkpt>
      <trkpt lat="57.52764" lon="-5.54526">
        <ele>91.38</ele>
        <time>2021-04-06T09:57:25Z</time>
      </trkpt>
      <trkpt lat="57.52781" lon="-5.54397">
        <ele>84.13</ele>
        <time>2021-04-06T09:57:29Z</time>
      </trkpt>
      <trkpt lat="57.52784" lon="-5.5435">
        <ele>81.58</ele>
        <time>2021-04-06T09:57:32Z</time>
      </trkpt>
      <trkpt lat="57.52784" lon="-5.54301">
        <ele>79.51</ele>
        <time>2021-04-06T09:57:35Z</time>
      </trkpt>
      <trkpt lat="57.52762" lon="-5.54049">
        <ele>73.71</ele>
        <time>2021-04-06T09:57:38Z</time>
      </trkpt>
      <trkpt lat="57.5276" lon="-5.54002">
        <ele>70.9</ele>
        <time>2021-04-06T09:57:41Z</time>
      </trkpt>
      <trkpt lat="57.52769" lon="-5.53656">
        <ele>55.46</ele>
        <time>2021-04-06T09:57:45Z</time>
      </trkpt>
      <trkpt lat="57.52774" lon="-5.53499">
        <ele>54.72</ele>
        <time>2021-04-06T09:57:48Z</time>
      </trkpt>
      <trkpt lat="57.52787" lon="-5.53366">
        <ele>51.99</ele>
        <time>2021-04-06T09:57:51Z</time>
      </trkpt>
      <trkpt lat="57.52806" lon="-5.53232">
        <ele>45.26</ele>
        <time>2021-04-06T09:57:54Z</time>
      </trkpt>
      <trkpt lat="57.52807" lon="-5.5318">
        <ele>42.62</ele>
        <time>2021-04-06T09:57:58Z</time>
      </trkpt>
      <trkpt lat="57.52803" lon="-5.5313">
        <ele>42.28</ele>
        <time>2021-04-06T09:58:01Z</time>
      </trkpt>
      <trkpt lat="57.5279" lon="-5.53083">
        <ele>43.89</ele>
        <time>2021-04-06T09:58:04Z</time>
      </trkpt>
      <trkpt lat="57.52732" lon="-5.52966">
        <ele>39.21</ele>
        <time>2021-04-06T09:58:07Z</time>
      </trkpt>
      <trkpt lat="57.52714" lon="-5.52905">
        <ele>31.45</ele>
        <time>2021-04-06T09:58:11Z</time>
      </trkpt>
      <trkpt lat="57.52706" lon="-5.52855">
        <ele>28.94</ele>
        <time>2021-04-06T09:58:14Z</time>
      </trkpt>
      <trkpt lat="57.52706" lon="-5.52797">
        <ele>28.65</ele>
        <time>2021-04-06T09:58:17Z</time>
      </trkpt>
      <trkpt lat="57.52706" lon="-5.52797">
        <ele>28.65</ele>
        <time>2021-04-06T09:58:17Z</time>
      </trkpt>
      <trkpt lat="57.52713" lon="-5.52737">
        <ele>28.12</ele>
        <time>2021-04-06T09:58:20Z</time>
      </trkpt>
      <trkpt lat="57.52732" lon="-5.52685">
        <ele>25.63</ele>
        <time>2021-04-06T09:58:24Z</time>
      </trkpt>
      <trkpt lat="57.52757" lon="-5.52643">
        <ele>22.64</ele>
        <time>2021-04-06T09:58:27Z</time>
      </trkpt>
      <trkpt lat="57.52808" lon="-5.52584">
        <ele>16.68</ele>
        <time>2021-04-06T09:58:31Z</time>
      </trkpt>
      <trkpt lat="57.52885" lon="-5.5252">
        <ele>12.73</ele>
        <time>2021-04-06T09:58:34Z</time>
      </trkpt>
      <trkpt lat="57.52919" lon="-5.52486">
        <ele>14.95</ele>
        <time>2021-04-06T09:58:37Z</time>
      </trkpt>
      <trkpt lat="57.5294" lon="-5.52455">
        <ele>17.26</ele>
        <time>2021-04-06T09:58:41Z</time>
      </trkpt>
      <trkpt lat="57.52967" lon="-5.52397">
        <ele>16.37</ele>
        <time>2021-04-06T09:58:44Z</time>
      </trkpt>
      <trkpt lat="57.53071" lon="-5.52046">
        <ele>21.32</ele>
        <time>2021-04-06T09:58:47Z</time>
      </trkpt>
      <trkpt lat="57.53099" lon="-5.5196">
        <ele>15.13</ele>
        <time>2021-04-06T09:58:51Z</time>
      </trkpt>
      <trkpt lat="57.53122" lon="-5.51911">
        <ele>6.84</ele>
        <time>2021-04-06T09:58:54Z</time>
      </trkpt>
      <trkpt lat="57.53187" lon="-5.51797">
        <ele>4.87</ele>
        <time>2021-04-06T09:58:57Z</time>
      </trkpt>
      <trkpt lat="57.53205" lon="-5.51752">
        <ele>5.22</ele>
        <time>2021-04-06T09:59:01Z</time>
      </trkpt>
      <trkpt lat="57.53219" lon="-5.517">
        <ele>5.1</ele>
        <time>2021-04-06T09:59:04Z</time>
      </trkpt>
      <trkpt lat="57.53256" lon="-5.51527">
        <ele>3.81</ele>
        <time>2021-04-06T09:59:07Z</time>
      </trkpt>
      <trkpt lat="57.5327" lon="-5.51491">
        <ele>4.61</ele>
        <time>2021-04-06T09:59:11Z</time>
      </trkpt>
      <trkpt lat="57.53315" lon="-5.51393">
        <ele>6.16</ele>
        <time>2021-04-06T09:59:14Z</time>
      </trkpt>
      <trkpt lat="57.53349" lon="-5.51315">
        <ele>5.16</ele>
        <time>2021-04-06T09:59:18Z</time>
      </trkpt>
      <trkpt lat="57.53364" lon="-5.51263">
        <ele>5</ele>
        <time>2021-04-06T09:59:21Z</time>
      </trkpt>
      <trkpt lat="57.53371" lon="-5.51201">
        <ele>5.66</ele>
        <time>2021-04-06T09:59:24Z</time>
      </trkpt>
      <trkpt lat="57.53372" lon="-5.5116">
        <ele>6.24</ele>
        <time>2021-04-06T09:59:28Z</time>
      </trkpt>
      <trkpt lat="57.53363" lon="-5.51049">
        <ele>9.02</ele>
        <time>2021-04-06T09:59:31Z</time>
      </trkpt>
      <trkpt lat="57.53352" lon="-5.50939">
        <ele>15.04</ele>
        <time>2021-04-06T09:59:34Z</time>
      </trkpt>
      <trkpt lat="57.5335" lon="-5.50884">
        <ele>15.19</ele>
        <time>2021-04-06T09:59:38Z</time>
      </trkpt>
      <trkpt lat="57.53354" lon="-5.50839">
        <ele>14.79</ele>
        <time>2021-04-06T09:59:41Z</time>
      </trkpt>
      <trkpt lat="57.53364" lon="-5.50783">
        <ele>13.6</ele>
        <time>2021-04-06T09:59:44Z</time>
      </trkpt>
      <trkpt lat="57.53383" lon="-5.5074">
        <ele>10.59</ele>
        <time>2021-04-06T09:59:48Z</time>
      </trkpt>
      <trkpt lat="57.53403" lon="-5.50708">
        <ele>9.23</ele>
        <time>2021-04-06T09:59:51Z</time>
      </trkpt>
      <trkpt lat="57.53415" lon="-5.50694">
        <ele>9.07</ele>
        <time>2021-04-06T09:59:55Z</time>
      </trkpt>
      <trkpt lat="57.53446" lon="-5.50673">
        <ele>10.52</ele>
        <time>2021-04-06T09:59:58Z</time>
      </trkpt>
      <trkpt lat="57.53537" lon="-5.50649">
        <ele>10.41</ele>
        <time>2021-04-06T10:00:01Z</time>
      </trkpt>
      <trkpt lat="57.53558" lon="-5.50637">
        <ele>11.04</ele>
        <time>2021-04-06T10:00:05Z</time>
      </trkpt>
      <trkpt lat="57.53661" lon="-5.50541">
        <ele>7.2</ele>
        <time>2021-04-06T10:00:08Z</time>
      </trkpt>
      <trkpt lat="57.53695" lon="-5.50524">
        <ele>8</ele>
        <time>2021-04-06T10:00:11Z</time>
      </trkpt>
      <trkpt lat="57.53835" lon="-5.50482">
        <ele>9.04</ele>
        <time>2021-04-06T10:00:15Z</time>
      </trkpt>
      <trkpt lat="57.54156" lon="-5.5035">
        <ele>9.63</ele>
        <time>2021-04-06T10:00:18Z</time>
      </trkpt>
      <trkpt lat="57.54195" lon="-5.50331">
        <ele>10</ele>
        <time>2021-04-06T10:00:21Z</time>
      </trkpt>
      <trkpt lat="57.54218" lon="-5.50315">
        <ele>10</ele>
        <time>2021-04-06T10:00:25Z</time>
      </trkpt>
      <trkpt lat="57.54235" lon="-5.50295">
        <ele>10.37</ele>
        <time>2021-04-06T10:00:28Z</time>
      </trkpt>
      <trkpt lat="57.54253" lon="-5.50266">
        <ele>11.18</ele>
        <time>2021-04-06T10:00:31Z</time>
      </trkpt>
      <trkpt lat="57.54262" lon="-5.5024">
        <ele>12.09</ele>
        <time>2021-04-06T10:00:35Z</time>
      </trkpt>
      <trkpt lat="57.54271" lon="-5.50211">
        <ele>12.74</ele>
        <time>2021-04-06T10:00:38Z</time>
      </trkpt>
      <trkpt lat="57.54276" lon="-5.50174">
        <ele>12.93</ele>
        <time>2021-04-06T10:00:42Z</time>
      </trkpt>
      <trkpt lat="57.54279" lon="-5.50124">
        <ele>13</ele>
        <time>2021-04-06T10:00:45Z</time>
      </trkpt>
      <trkpt lat="57.54278" lon="-5.50106">
        <ele>13</ele>
        <time>2021-04-06T10:00:48Z</time>
      </trkpt>
      <trkpt lat="57.54278" lon="-5.50106">
        <ele>13</ele>
        <time>2021-04-06T10:00:48Z</time>
      </trkpt>
      <trkpt lat="57.54278" lon="-5.50106">
        <ele>13</ele>
        <time>2021-04-06T10:00:48Z</time>
      </trkpt>
      <trkpt lat="57.54296" lon="-5.50111">
        <ele>13</ele>
        <time>2021-04-06T10:00:51Z</time>
      </trkpt>
      <trkpt lat="57.54309" lon="-5.50148">
        <ele>13</ele>
        <time>2021-04-06T10:00:54Z</time>
      </trkpt>
      <trkpt lat="57.54348" lon="-5.50247">
        <ele>14.52</ele>
        <time>2021-04-06T10:00:57Z</time>
      </trkpt>
      <trkpt lat="57.54376" lon="-5.50335">
        <ele>15.07</ele>
        <time>2021-04-06T10:01:00Z</time>
      </trkpt>
      <trkpt lat="57.54382" lon="-5.50358">
        <ele>15.49</ele>
        <time>2021-04-06T10:01:03Z</time>
      </trkpt>
      <trkpt lat="57.54386" lon="-5.50409">
        <ele>16.49</ele>
        <time>2021-04-06T10:01:05Z</time>
      </trkpt>
      <trkpt lat="57.54382" lon="-5.50464">
        <ele>16.48</ele>
        <time>2021-04-06T10:01:08Z</time>
      </trkpt>
      <trkpt lat="57.54376" lon="-5.50503">
        <ele>16.15</ele>
        <time>2021-04-06T10:01:11Z</time>
      </trkpt>
      <trkpt lat="57.54371" lon="-5.50583">
        <ele>16.69</ele>
        <time>2021-04-06T10:01:14Z</time>
      </trkpt>
      <trkpt lat="57.54369" lon="-5.50675">
        <ele>16.56</ele>
        <time>2021-04-06T10:01:17Z</time>
      </trkpt>
      <trkpt lat="57.54369" lon="-5.50736">
        <ele>16.58</ele>
        <time>2021-04-06T10:01:20Z</time>
      </trkpt>
      <trkpt lat="57.54371" lon="-5.50764">
        <ele>16.7</ele>
        <time>2021-04-06T10:01:23Z</time>
      </trkpt>
      <trkpt lat="57.5438" lon="-5.50816">
        <ele>18</ele>
        <time>2021-04-06T10:01:25Z</time>
      </trkpt>
      <trkpt lat="57.5439" lon="-5.50862">
        <ele>18.11</ele>
        <time>2021-04-06T10:01:28Z</time>
      </trkpt>
      <trkpt lat="57.54406" lon="-5.50916">
        <ele>18.3</ele>
        <time>2021-04-06T10:01:31Z</time>
      </trkpt>
      <trkpt lat="57.54422" lon="-5.50957">
        <ele>18.91</ele>
        <time>2021-04-06T10:01:34Z</time>
      </trkpt>
      <trkpt lat="57.54442" lon="-5.51003">
        <ele>19.62</ele>
        <time>2021-04-06T10:01:37Z</time>
      </trkpt>
      <trkpt lat="57.54491" lon="-5.51099">
        <ele>19.48</ele>
        <time>2021-04-06T10:01:40Z</time>
      </trkpt>
      <trkpt lat="57.5452" lon="-5.51144">
        <ele>20.24</ele>
        <time>2021-04-06T10:01:42Z</time>
      </trkpt>
      <trkpt lat="57.54575" lon="-5.5121">
        <ele>18.65</ele>
        <time>2021-04-06T10:01:45Z</time>
      </trkpt>
      <trkpt lat="57.54688" lon="-5.51336">
        <ele>18.82</ele>
        <time>2021-04-06T10:01:48Z</time>
      </trkpt>
      <trkpt lat="57.5478" lon="-5.51417">
        <ele>13.98</ele>
        <time>2021-04-06T10:01:51Z</time>
      </trkpt>
      <trkpt lat="57.54827" lon="-5.51463">
        <ele>11.65</ele>
        <time>2021-04-06T10:01:54Z</time>
      </trkpt>
      <trkpt lat="57.54926" lon="-5.51581">
        <ele>10.18</ele>
        <time>2021-04-06T10:01:57Z</time>
      </trkpt>
      <trkpt lat="57.54943" lon="-5.51609">
        <ele>9.12</ele>
        <time>2021-04-06T10:02:00Z</time>
      </trkpt>
      <trkpt lat="57.54955" lon="-5.5164">
        <ele>7.7</ele>
        <time>2021-04-06T10:02:02Z</time>
      </trkpt>
      <trkpt lat="57.54964" lon="-5.51675">
        <ele>6.39</ele>
        <time>2021-04-06T10:02:05Z</time>
      </trkpt>
      <trkpt lat="57.5497" lon="-5.51717">
        <ele>5.11</ele>
        <time>2021-04-06T10:02:08Z</time>
      </trkpt>
      <trkpt lat="57.54979" lon="-5.51802">
        <ele>5.48</ele>
        <time>2021-04-06T10:02:11Z</time>
      </trkpt>
      <trkpt lat="57.54998" lon="-5.51941">
        <ele>6.76</ele>
        <time>2021-04-06T10:02:14Z</time>
      </trkpt>
      <trkpt lat="57.55008" lon="-5.52035">
        <ele>6.58</ele>
        <time>2021-04-06T10:02:17Z</time>
      </trkpt>
      <trkpt lat="57.55009" lon="-5.52049">
        <ele>6.67</ele>
        <time>2021-04-06T10:02:20Z</time>
      </trkpt>
      <trkpt lat="57.55007" lon="-5.52141">
        <ele>5.01</ele>
        <time>2021-04-06T10:02:22Z</time>
      </trkpt>
      <trkpt lat="57.55016" lon="-5.52221">
        <ele>5.72</ele>
        <time>2021-04-06T10:02:25Z</time>
      </trkpt>
      <trkpt lat="57.55028" lon="-5.52276">
        <ele>5.99</ele>
        <time>2021-04-06T10:02:28Z</time>
      </trkpt>
      <trkpt lat="57.55047" lon="-5.52332">
        <ele>8.57</ele>
        <time>2021-04-06T10:02:31Z</time>
      </trkpt>
      <trkpt lat="57.55051" lon="-5.52356">
        <ele>7.64</ele>
        <time>2021-04-06T10:02:34Z</time>
      </trkpt>
      <trkpt lat="57.55052" lon="-5.52402">
        <ele>6.12</ele>
        <time>2021-04-06T10:02:37Z</time>
      </trkpt>
      <trkpt lat="57.55056" lon="-5.52432">
        <ele>5.61</ele>
        <time>2021-04-06T10:02:40Z</time>
      </trkpt>
      <trkpt lat="57.5507" lon="-5.52497">
        <ele>6.72</ele>
        <time>2021-04-06T10:02:42Z</time>
      </trkpt>
      <trkpt lat="57.55081" lon="-5.52556">
        <ele>5.72</ele>
        <time>2021-04-06T10:02:45Z</time>
      </trkpt>
      <trkpt lat="57.55085" lon="-5.52591">
        <ele>5.5</ele>
        <time>2021-04-06T10:02:48Z</time>
      </trkpt>
      <trkpt lat="57.55085" lon="-5.52631">
        <ele>6.16</ele>
        <time>2021-04-06T10:02:51Z</time>
      </trkpt>
      <trkpt lat="57.55076" lon="-5.5276">
        <ele>7.13</ele>
        <time>2021-04-06T10:02:54Z</time>
      </trkpt>
      <trkpt lat="57.55061" lon="-5.52843">
        <ele>6.02</ele>
        <time>2021-04-06T10:02:57Z</time>
      </trkpt>
      <trkpt lat="57.55057" lon="-5.5288">
        <ele>5.26</ele>
        <time>2021-04-06T10:03:00Z</time>
      </trkpt>
      <trkpt lat="57.55058" lon="-5.52925">
        <ele>4.37</ele>
        <time>2021-04-06T10:03:02Z</time>
      </trkpt>
      <trkpt lat="57.55066" lon="-5.52971">
        <ele>5.09</ele>
        <time>2021-04-06T10:03:05Z</time>
      </trkpt>
      <trkpt lat="57.55086" lon="-5.53042">
        <ele>5.81</ele>
        <time>2021-04-06T10:03:08Z</time>
      </trkpt>
      <trkpt lat="57.55106" lon="-5.53098">
        <ele>5.49</ele>
        <time>2021-04-06T10:03:11Z</time>
      </trkpt>
      <trkpt lat="57.55136" lon="-5.5315">
        <ele>4.93</ele>
        <time>2021-04-06T10:03:14Z</time>
      </trkpt>
      <trkpt lat="57.55157" lon="-5.53164">
        <ele>5.59</ele>
        <time>2021-04-06T10:03:17Z</time>
      </trkpt>
      <trkpt lat="57.55202" lon="-5.53202">
        <ele>6.47</ele>
        <time>2021-04-06T10:03:20Z</time>
      </trkpt>
      <trkpt lat="57.55221" lon="-5.53225">
        <ele>6.65</ele>
        <time>2021-04-06T10:03:22Z</time>
      </trkpt>
      <trkpt lat="57.55237" lon="-5.53254">
        <ele>7.41</ele>
        <time>2021-04-06T10:03:25Z</time>
      </trkpt>
      <trkpt lat="57.55255" lon="-5.53304">
        <ele>7.47</ele>
        <time>2021-04-06T10:03:28Z</time>
      </trkpt>
      <trkpt lat="57.55266" lon="-5.53341">
        <ele>8.17</ele>
        <time>2021-04-06T10:03:31Z</time>
      </trkpt>
      <trkpt lat="57.55271" lon="-5.53369">
        <ele>8.23</ele>
        <time>2021-04-06T10:03:34Z</time>
      </trkpt>
      <trkpt lat="57.55273" lon="-5.53397">
        <ele>7.82</ele>
        <time>2021-04-06T10:03:37Z</time>
      </trkpt>
      <trkpt lat="57.55273" lon="-5.53425">
        <ele>7.18</ele>
        <time>2021-04-06T10:03:39Z</time>
      </trkpt>
      <trkpt lat="57.55265" lon="-5.5347">
        <ele>5.61</ele>
        <time>2021-04-06T10:03:42Z</time>
      </trkpt>
      <trkpt lat="57.55262" lon="-5.53494">
        <ele>5.18</ele>
        <time>2021-04-06T10:03:45Z</time>
      </trkpt>
      <trkpt lat="57.55261" lon="-5.53523">
        <ele>5.3</ele>
        <time>2021-04-06T10:03:48Z</time>
      </trkpt>
      <trkpt lat="57.55262" lon="-5.53562">
        <ele>5.31</ele>
        <time>2021-04-06T10:03:51Z</time>
      </trkpt>
      <trkpt lat="57.55269" lon="-5.53597">
        <ele>5.07</ele>
        <time>2021-04-06T10:03:54Z</time>
      </trkpt>
      <trkpt lat="57.55278" lon="-5.53621">
        <ele>5.26</ele>
        <time>2021-04-06T10:03:57Z</time>
      </trkpt>
      <trkpt lat="57.55307" lon="-5.5366">
        <ele>10.77</ele>
        <time>2021-04-06T10:03:59Z</time>
      </trkpt>
      <trkpt lat="57.55319" lon="-5.53686">
        <ele>11.8</ele>
        <time>2021-04-06T10:04:02Z</time>
      </trkpt>
      <trkpt lat="57.55326" lon="-5.53726">
        <ele>11.59</ele>
        <time>2021-04-06T10:04:05Z</time>
      </trkpt>
      <trkpt lat="57.5533" lon="-5.53765">
        <ele>10.99</ele>
        <time>2021-04-06T10:04:08Z</time>
      </trkpt>
      <trkpt lat="57.55341" lon="-5.53911">
        <ele>8.59</ele>
        <time>2021-04-06T10:04:11Z</time>
      </trkpt>
      <trkpt lat="57.55346" lon="-5.5394">
        <ele>10.24</ele>
        <time>2021-04-06T10:04:14Z</time>
      </trkpt>
      <trkpt lat="57.55364" lon="-5.53983">
        <ele>14.7</ele>
        <time>2021-04-06T10:04:17Z</time>
      </trkpt>
      <trkpt lat="57.55373" lon="-5.54018">
        <ele>17.55</ele>
        <time>2021-04-06T10:04:19Z</time>
      </trkpt>
      <trkpt lat="57.55374" lon="-5.54071">
        <ele>20</ele>
        <time>2021-04-06T10:04:22Z</time>
      </trkpt>
      <trkpt lat="57.5537" lon="-5.54116">
        <ele>19.32</ele>
        <time>2021-04-06T10:04:25Z</time>
      </trkpt>
      <trkpt lat="57.55372" lon="-5.54165">
        <ele>20.12</ele>
        <time>2021-04-06T10:04:28Z</time>
      </trkpt>
      <trkpt lat="57.55377" lon="-5.54197">
        <ele>19.53</ele>
        <time>2021-04-06T10:04:31Z</time>
      </trkpt>
      <trkpt lat="57.55399" lon="-5.54266">
        <ele>23.42</ele>
        <time>2021-04-06T10:04:34Z</time>
      </trkpt>
      <trkpt lat="57.55418" lon="-5.54358">
        <ele>25.65</ele>
        <time>2021-04-06T10:04:37Z</time>
      </trkpt>
      <trkpt lat="57.55419" lon="-5.54392">
        <ele>26.38</ele>
        <time>2021-04-06T10:04:39Z</time>
      </trkpt>
      <trkpt lat="57.55416" lon="-5.54483">
        <ele>26.78</ele>
        <time>2021-04-06T10:04:42Z</time>
      </trkpt>
      <trkpt lat="57.55418" lon="-5.54524">
        <ele>26.63</ele>
        <time>2021-04-06T10:04:45Z</time>
      </trkpt>
      <trkpt lat="57.55424" lon="-5.54553">
        <ele>28.8</ele>
        <time>2021-04-06T10:04:48Z</time>
      </trkpt>
      <trkpt lat="57.55432" lon="-5.5458">
        <ele>30.74</ele>
        <time>2021-04-06T10:04:51Z</time>
      </trkpt>
      <trkpt lat="57.55439" lon="-5.54589">
        <ele>33.05</ele>
        <time>2021-04-06T10:04:54Z</time>
      </trkpt>
      <trkpt lat="57.55447" lon="-5.54594">
        <ele>36.01</ele>
        <time>2021-04-06T10:04:57Z</time>
      </trkpt>
      <trkpt lat="57.55453" lon="-5.54587">
        <ele>38.64</ele>
        <time>2021-04-06T10:04:59Z</time>
      </trkpt>
      <trkpt lat="57.55456" lon="-5.54573">
        <ele>40.25</ele>
        <time>2021-04-06T10:05:02Z</time>
      </trkpt>
      <trkpt lat="57.55457" lon="-5.54553">
        <ele>41.46</ele>
        <time>2021-04-06T10:05:05Z</time>
      </trkpt>
      <trkpt lat="57.55456" lon="-5.54461">
        <ele>46.99</ele>
        <time>2021-04-06T10:05:08Z</time>
      </trkpt>
      <trkpt lat="57.5546" lon="-5.54442">
        <ele>50.09</ele>
        <time>2021-04-06T10:05:11Z</time>
      </trkpt>
      <trkpt lat="57.55464" lon="-5.54437">
        <ele>52.07</ele>
        <time>2021-04-06T10:05:14Z</time>
      </trkpt>
      <trkpt lat="57.55471" lon="-5.54438">
        <ele>56.72</ele>
        <time>2021-04-06T10:05:16Z</time>
      </trkpt>
      <trkpt lat="57.55478" lon="-5.54454">
        <ele>58.51</ele>
        <time>2021-04-06T10:05:19Z</time>
      </trkpt>
      <trkpt lat="57.55507" lon="-5.54553">
        <ele>60.87</ele>
        <time>2021-04-06T10:05:22Z</time>
      </trkpt>
      <trkpt lat="57.55519" lon="-5.54615">
        <ele>63.63</ele>
        <time>2021-04-06T10:05:25Z</time>
      </trkpt>
      <trkpt lat="57.5553" lon="-5.54715">
        <ele>66.63</ele>
        <time>2021-04-06T10:05:28Z</time>
      </trkpt>
      <trkpt lat="57.55543" lon="-5.5476">
        <ele>70.87</ele>
        <time>2021-04-06T10:05:31Z</time>
      </trkpt>
      <trkpt lat="57.55557" lon="-5.54778">
        <ele>76.63</ele>
        <time>2021-04-06T10:05:34Z</time>
      </trkpt>
      <trkpt lat="57.55569" lon="-5.54801">
        <ele>82.05</ele>
        <time>2021-04-06T10:05:36Z</time>
      </trkpt>
      <trkpt lat="57.55569" lon="-5.54828">
        <ele>81.86</ele>
        <time>2021-04-06T10:05:39Z</time>
      </trkpt>
      <trkpt lat="57.55561" lon="-5.54887">
        <ele>79.28</ele>
        <time>2021-04-06T10:05:42Z</time>
      </trkpt>
      <trkpt lat="57.55556" lon="-5.54962">
        <ele>77.61</ele>
        <time>2021-04-06T10:05:45Z</time>
      </trkpt>
      <trkpt lat="57.5555" lon="-5.55204">
        <ele>74.59</ele>
        <time>2021-04-06T10:05:48Z</time>
      </trkpt>
      <trkpt lat="57.55556" lon="-5.55252">
        <ele>77.35</ele>
        <time>2021-04-06T10:05:51Z</time>
      </trkpt>
      <trkpt lat="57.55548" lon="-5.55283">
        <ele>75.78</ele>
        <time>2021-04-06T10:05:54Z</time>
      </trkpt>
      <trkpt lat="57.5553" lon="-5.55314">
        <ele>72.5</ele>
        <time>2021-04-06T10:05:56Z</time>
      </trkpt>
      <trkpt lat="57.55522" lon="-5.55335">
        <ele>69.43</ele>
        <time>2021-04-06T10:05:59Z</time>
      </trkpt>
      <trkpt lat="57.55521" lon="-5.55355">
        <ele>67.78</ele>
        <time>2021-04-06T10:06:02Z</time>
      </trkpt>
      <trkpt lat="57.55534" lon="-5.55409">
        <ele>70.12</ele>
        <time>2021-04-06T10:06:05Z</time>
      </trkpt>
      <trkpt lat="57.55532" lon="-5.55441">
        <ele>67.81</ele>
        <time>2021-04-06T10:06:08Z</time>
      </trkpt>
      <trkpt lat="57.55524" lon="-5.55482">
        <ele>62.4</ele>
        <time>2021-04-06T10:06:11Z</time>
      </trkpt>
      <trkpt lat="57.55524" lon="-5.55515">
        <ele>59.97</ele>
        <time>2021-04-06T10:06:14Z</time>
      </trkpt>
      <trkpt lat="57.55546" lon="-5.55586">
        <ele>62.21</ele>
        <time>2021-04-06T10:06:16Z</time>
      </trkpt>
      <trkpt lat="57.55544" lon="-5.55671">
        <ele>56.18</ele>
        <time>2021-04-06T10:06:19Z</time>
      </trkpt>
      <trkpt lat="57.5555" lon="-5.55873">
        <ele>46.42</ele>
        <time>2021-04-06T10:06:22Z</time>
      </trkpt>
      <trkpt lat="57.55557" lon="-5.55929">
        <ele>44.47</ele>
        <time>2021-04-06T10:06:25Z</time>
      </trkpt>
      <trkpt lat="57.55577" lon="-5.55981">
        <ele>45.64</ele>
        <time>2021-04-06T10:06:28Z</time>
      </trkpt>
      <trkpt lat="57.55615" lon="-5.56029">
        <ele>49.66</ele>
        <time>2021-04-06T10:06:31Z</time>
      </trkpt>
      <trkpt lat="57.55659" lon="-5.56065">
        <ele>50.44</ele>
        <time>2021-04-06T10:06:34Z</time>
      </trkpt>
      <trkpt lat="57.55693" lon="-5.5608">
        <ele>51.13</ele>
        <time>2021-04-06T10:06:36Z</time>
      </trkpt>
      <trkpt lat="57.55724" lon="-5.56088">
        <ele>51.71</ele>
        <time>2021-04-06T10:06:39Z</time>
      </trkpt>
      <trkpt lat="57.55742" lon="-5.56103">
        <ele>51.27</ele>
        <time>2021-04-06T10:06:42Z</time>
      </trkpt>
      <trkpt lat="57.55759" lon="-5.56122">
        <ele>50.24</ele>
        <time>2021-04-06T10:06:45Z</time>
      </trkpt>
      <trkpt lat="57.55773" lon="-5.56127">
        <ele>49.84</ele>
        <time>2021-04-06T10:06:48Z</time>
      </trkpt>
      <trkpt lat="57.55803" lon="-5.56114">
        <ele>52.64</ele>
        <time>2021-04-06T10:06:51Z</time>
      </trkpt>
      <trkpt lat="57.55819" lon="-5.56123">
        <ele>53.75</ele>
        <time>2021-04-06T10:06:53Z</time>
      </trkpt>
      <trkpt lat="57.55829" lon="-5.56151">
        <ele>53.8</ele>
        <time>2021-04-06T10:06:56Z</time>
      </trkpt>
      <trkpt lat="57.55834" lon="-5.56191">
        <ele>52.31</ele>
        <time>2021-04-06T10:06:59Z</time>
      </trkpt>
      <trkpt lat="57.55836" lon="-5.5623">
        <ele>49.49</ele>
        <time>2021-04-06T10:07:02Z</time>
      </trkpt>
      <trkpt lat="57.55843" lon="-5.56262">
        <ele>47.27</ele>
        <time>2021-04-06T10:07:05Z</time>
      </trkpt>
      <trkpt lat="57.5586" lon="-5.56309">
        <ele>45.51</ele>
        <time>2021-04-06T10:07:08Z</time>
      </trkpt>
      <trkpt lat="57.55863" lon="-5.56329">
        <ele>43.53</ele>
        <time>2021-04-06T10:07:11Z</time>
      </trkpt>
      <trkpt lat="57.55863" lon="-5.56366">
        <ele>42.13</ele>
        <time>2021-04-06T10:07:13Z</time>
      </trkpt>
      <trkpt lat="57.55869" lon="-5.56433">
        <ele>43.72</ele>
        <time>2021-04-06T10:07:16Z</time>
      </trkpt>
      <trkpt lat="57.55874" lon="-5.56604">
        <ele>49.67</ele>
        <time>2021-04-06T10:07:19Z</time>
      </trkpt>
      <trkpt lat="57.5588" lon="-5.56702">
        <ele>52.13</ele>
        <time>2021-04-06T10:07:22Z</time>
      </trkpt>
      <trkpt lat="57.55896" lon="-5.56786">
        <ele>56.96</ele>
        <time>2021-04-06T10:07:25Z</time>
      </trkpt>
      <trkpt lat="57.55896" lon="-5.56859">
        <ele>57.96</ele>
        <time>2021-04-06T10:07:28Z</time>
      </trkpt>
      <trkpt lat="57.55884" lon="-5.56963">
        <ele>61.17</ele>
        <time>2021-04-06T10:07:31Z</time>
      </trkpt>
      <trkpt lat="57.55884" lon="-5.57017">
        <ele>63.65</ele>
        <time>2021-04-06T10:07:33Z</time>
      </trkpt>
      <trkpt lat="57.55892" lon="-5.57059">
        <ele>66.51</ele>
        <time>2021-04-06T10:07:36Z</time>
      </trkpt>
      <trkpt lat="57.55911" lon="-5.57123">
        <ele>70.69</ele>
        <time>2021-04-06T10:07:39Z</time>
      </trkpt>
      <trkpt lat="57.55913" lon="-5.57176">
        <ele>72.15</ele>
        <time>2021-04-06T10:07:42Z</time>
      </trkpt>
      <trkpt lat="57.55907" lon="-5.57223">
        <ele>73.23</ele>
        <time>2021-04-06T10:07:45Z</time>
      </trkpt>
      <trkpt lat="57.559" lon="-5.57259">
        <ele>72.91</ele>
        <time>2021-04-06T10:07:48Z</time>
      </trkpt>
      <trkpt lat="57.55912" lon="-5.57399">
        <ele>75.69</ele>
        <time>2021-04-06T10:07:51Z</time>
      </trkpt>
      <trkpt lat="57.55913" lon="-5.57553">
        <ele>74.59</ele>
        <time>2021-04-06T10:07:53Z</time>
      </trkpt>
      <trkpt lat="57.55931" lon="-5.57691">
        <ele>73.76</ele>
        <time>2021-04-06T10:07:56Z</time>
      </trkpt>
      <trkpt lat="57.55946" lon="-5.57821">
        <ele>77.49</ele>
        <time>2021-04-06T10:07:59Z</time>
      </trkpt>
      <trkpt lat="57.55957" lon="-5.57923">
        <ele>82.61</ele>
        <time>2021-04-06T10:08:02Z</time>
      </trkpt>
      <trkpt lat="57.55956" lon="-5.57976">
        <ele>83.66</ele>
        <time>2021-04-06T10:08:05Z</time>
      </trkpt>
      <trkpt lat="57.55951" lon="-5.58028">
        <ele>85.49</ele>
        <time>2021-04-06T10:08:08Z</time>
      </trkpt>
      <trkpt lat="57.55939" lon="-5.58406">
        <ele>90.78</ele>
        <time>2021-04-06T10:08:11Z</time>
      </trkpt>
      <trkpt lat="57.5594" lon="-5.58514">
        <ele>90.84</ele>
        <time>2021-04-06T10:08:13Z</time>
      </trkpt>
      <trkpt lat="57.55943" lon="-5.58562">
        <ele>91.31</ele>
        <time>2021-04-06T10:08:16Z</time>
      </trkpt>
      <trkpt lat="57.55953" lon="-5.58653">
        <ele>92.38</ele>
        <time>2021-04-06T10:08:19Z</time>
      </trkpt>
      <trkpt lat="57.55952" lon="-5.58727">
        <ele>91.96</ele>
        <time>2021-04-06T10:08:22Z</time>
      </trkpt>
      <trkpt lat="57.55943" lon="-5.58937">
        <ele>93.34</ele>
        <time>2021-04-06T10:08:25Z</time>
      </trkpt>
      <trkpt lat="57.55936" lon="-5.58988">
        <ele>93.75</ele>
        <time>2021-04-06T10:08:28Z</time>
      </trkpt>
      <trkpt lat="57.55933" lon="-5.59057">
        <ele>93.51</ele>
        <time>2021-04-06T10:08:30Z</time>
      </trkpt>
      <trkpt lat="57.55935" lon="-5.59136">
        <ele>91.94</ele>
        <time>2021-04-06T10:08:33Z</time>
      </trkpt>
      <trkpt lat="57.55928" lon="-5.59213">
        <ele>89.54</ele>
        <time>2021-04-06T10:08:36Z</time>
      </trkpt>
      <trkpt lat="57.55932" lon="-5.59262">
        <ele>89.13</ele>
        <time>2021-04-06T10:08:39Z</time>
      </trkpt>
      <trkpt lat="57.55947" lon="-5.5937">
        <ele>92.39</ele>
        <time>2021-04-06T10:08:42Z</time>
      </trkpt>
      <trkpt lat="57.5595" lon="-5.59421">
        <ele>90.23</ele>
        <time>2021-04-06T10:08:45Z</time>
      </trkpt>
      <trkpt lat="57.55964" lon="-5.5947">
        <ele>92.5</ele>
        <time>2021-04-06T10:08:48Z</time>
      </trkpt>
      <trkpt lat="57.55966" lon="-5.59515">
        <ele>92.24</ele>
        <time>2021-04-06T10:08:50Z</time>
      </trkpt>
      <trkpt lat="57.55963" lon="-5.59536">
        <ele>90.58</ele>
        <time>2021-04-06T10:08:53Z</time>
      </trkpt>
      <trkpt lat="57.55966" lon="-5.59581">
        <ele>91.28</ele>
        <time>2021-04-06T10:08:56Z</time>
      </trkpt>
      <trkpt lat="57.55963" lon="-5.59621">
        <ele>91.1</ele>
        <time>2021-04-06T10:08:59Z</time>
      </trkpt>
      <trkpt lat="57.55947" lon="-5.59749">
        <ele>94.61</ele>
        <time>2021-04-06T10:09:02Z</time>
      </trkpt>
      <trkpt lat="57.55946" lon="-5.59774">
        <ele>94.56</ele>
        <time>2021-04-06T10:09:05Z</time>
      </trkpt>
      <trkpt lat="57.55954" lon="-5.59837">
        <ele>98.69</ele>
        <time>2021-04-06T10:09:08Z</time>
      </trkpt>
      <trkpt lat="57.55955" lon="-5.59922">
        <ele>98.39</ele>
        <time>2021-04-06T10:09:10Z</time>
      </trkpt>
      <trkpt lat="57.55975" lon="-5.60079">
        <ele>102.5</ele>
        <time>2021-04-06T10:09:13Z</time>
      </trkpt>
      <trkpt lat="57.55992" lon="-5.60262">
        <ele>106.08</ele>
        <time>2021-04-06T10:09:16Z</time>
      </trkpt>
      <trkpt lat="57.55992" lon="-5.60307">
        <ele>108.4</ele>
        <time>2021-04-06T10:09:19Z</time>
      </trkpt>
      <trkpt lat="57.55977" lon="-5.60374">
        <ele>107.93</ele>
        <time>2021-04-06T10:09:22Z</time>
      </trkpt>
      <trkpt lat="57.55965" lon="-5.60442">
        <ele>105.95</ele>
        <time>2021-04-06T10:09:25Z</time>
      </trkpt>
      <trkpt lat="57.55954" lon="-5.60535">
        <ele>104.66</ele>
        <time>2021-04-06T10:09:28Z</time>
      </trkpt>
      <trkpt lat="57.55941" lon="-5.60623">
        <ele>101.02</ele>
        <time>2021-04-06T10:09:30Z</time>
      </trkpt>
      <trkpt lat="57.55951" lon="-5.60788">
        <ele>99.29</ele>
        <time>2021-04-06T10:09:33Z</time>
      </trkpt>
      <trkpt lat="57.55959" lon="-5.60988">
        <ele>95.08</ele>
        <time>2021-04-06T10:09:36Z</time>
      </trkpt>
      <trkpt lat="57.55959" lon="-5.61053">
        <ele>95.08</ele>
        <time>2021-04-06T10:09:39Z</time>
      </trkpt>
      <trkpt lat="57.55952" lon="-5.61129">
        <ele>94.14</ele>
        <time>2021-04-06T10:09:42Z</time>
      </trkpt>
      <trkpt lat="57.55915" lon="-5.61342">
        <ele>92</ele>
        <time>2021-04-06T10:09:45Z</time>
      </trkpt>
      <trkpt lat="57.5591" lon="-5.61393">
        <ele>91.89</ele>
        <time>2021-04-06T10:09:48Z</time>
      </trkpt>
      <trkpt lat="57.55904" lon="-5.61602">
        <ele>82.82</ele>
        <time>2021-04-06T10:09:50Z</time>
      </trkpt>
      <trkpt lat="57.55908" lon="-5.61636">
        <ele>80.06</ele>
        <time>2021-04-06T10:09:53Z</time>
      </trkpt>
      <trkpt lat="57.55931" lon="-5.61713">
        <ele>78.05</ele>
        <time>2021-04-06T10:09:56Z</time>
      </trkpt>
      <trkpt lat="57.55953" lon="-5.61825">
        <ele>80.36</ele>
        <time>2021-04-06T10:09:59Z</time>
      </trkpt>
      <trkpt lat="57.55954" lon="-5.61855">
        <ele>79.6</ele>
        <time>2021-04-06T10:10:02Z</time>
      </trkpt>
      <trkpt lat="57.55945" lon="-5.6192">
        <ele>74.12</ele>
        <time>2021-04-06T10:10:05Z</time>
      </trkpt>
      <trkpt lat="57.55971" lon="-5.62009">
        <ele>76.11</ele>
        <time>2021-04-06T10:10:07Z</time>
      </trkpt>
      <trkpt lat="57.55989" lon="-5.6213">
        <ele>80.27</ele>
        <time>2021-04-06T10:10:10Z</time>
      </trkpt>
      <trkpt lat="57.55995" lon="-5.62183">
        <ele>80.8</ele>
        <time>2021-04-06T10:10:13Z</time>
      </trkpt>
      <trkpt lat="57.55992" lon="-5.62227">
        <ele>80.67</ele>
        <time>2021-04-06T10:10:16Z</time>
      </trkpt>
      <trkpt lat="57.55985" lon="-5.6227">
        <ele>79.89</ele>
        <time>2021-04-06T10:10:19Z</time>
      </trkpt>
      <trkpt lat="57.55958" lon="-5.62357">
        <ele>79.45</ele>
        <time>2021-04-06T10:10:22Z</time>
      </trkpt>
      <trkpt lat="57.5594" lon="-5.62374">
        <ele>80.43</ele>
        <time>2021-04-06T10:10:25Z</time>
      </trkpt>
      <trkpt lat="57.55934" lon="-5.62396">
        <ele>81.6</ele>
        <time>2021-04-06T10:10:27Z</time>
      </trkpt>
      <trkpt lat="57.55934" lon="-5.62396">
        <ele>81.6</ele>
        <time>2021-04-06T10:10:27Z</time>
      </trkpt>
      <trkpt lat="57.55982" lon="-5.62481">
        <ele>83.63</ele>
        <time>2021-04-06T10:10:30Z</time>
      </trkpt>
      <trkpt lat="57.56007" lon="-5.62538">
        <ele>84.03</ele>
        <time>2021-04-06T10:10:32Z</time>
      </trkpt>
      <trkpt lat="57.56019" lon="-5.62598">
        <ele>87.06</ele>
        <time>2021-04-06T10:10:35Z</time>
      </trkpt>
      <trkpt lat="57.56029" lon="-5.62639">
        <ele>88.9</ele>
        <time>2021-04-06T10:10:37Z</time>
      </trkpt>
      <trkpt lat="57.56038" lon="-5.62695">
        <ele>89</ele>
        <time>2021-04-06T10:10:39Z</time>
      </trkpt>
      <trkpt lat="57.56052" lon="-5.62756">
        <ele>87.31</ele>
        <time>2021-04-06T10:10:42Z</time>
      </trkpt>
      <trkpt lat="57.56072" lon="-5.62812">
        <ele>90.12</ele>
        <time>2021-04-06T10:10:44Z</time>
      </trkpt>
      <trkpt lat="57.56097" lon="-5.6287">
        <ele>95.83</ele>
        <time>2021-04-06T10:10:46Z</time>
      </trkpt>
      <trkpt lat="57.56109" lon="-5.62884">
        <ele>97.64</ele>
        <time>2021-04-06T10:10:49Z</time>
      </trkpt>
      <trkpt lat="57.56124" lon="-5.62883">
        <ele>99.57</ele>
        <time>2021-04-06T10:10:51Z</time>
      </trkpt>
      <trkpt lat="57.5615" lon="-5.62866">
        <ele>102.82</ele>
        <time>2021-04-06T10:10:53Z</time>
      </trkpt>
      <trkpt lat="57.56191" lon="-5.62835">
        <ele>108.37</ele>
        <time>2021-04-06T10:10:56Z</time>
      </trkpt>
      <trkpt lat="57.56221" lon="-5.6283">
        <ele>114.42</ele>
        <time>2021-04-06T10:10:58Z</time>
      </trkpt>
      <trkpt lat="57.56303" lon="-5.62843">
        <ele>127.5</ele>
        <time>2021-04-06T10:11:00Z</time>
      </trkpt>
      <trkpt lat="57.5634" lon="-5.62847">
        <ele>130.55</ele>
        <time>2021-04-06T10:11:03Z</time>
      </trkpt>
      <trkpt lat="57.56382" lon="-5.62871">
        <ele>137</ele>
        <time>2021-04-06T10:11:05Z</time>
      </trkpt>
      <trkpt lat="57.56436" lon="-5.62907">
        <ele>146.31</ele>
        <time>2021-04-06T10:11:07Z</time>
      </trkpt>
      <trkpt lat="57.56472" lon="-5.62951">
        <ele>152.45</ele>
        <time>2021-04-06T10:11:10Z</time>
      </trkpt>
      <trkpt lat="57.56492" lon="-5.62999">
        <ele>155.25</ele>
        <time>2021-04-06T10:11:12Z</time>
      </trkpt>
      <trkpt lat="57.56504" lon="-5.63039">
        <ele>157.33</ele>
        <time>2021-04-06T10:11:14Z</time>
      </trkpt>
      <trkpt lat="57.56508" lon="-5.63084">
        <ele>161.07</ele>
        <time>2021-04-06T10:11:17Z</time>
      </trkpt>
      <trkpt lat="57.5651" lon="-5.63125">
        <ele>163.68</ele>
        <time>2021-04-06T10:11:19Z</time>
      </trkpt>
      <trkpt lat="57.56504" lon="-5.63162">
        <ele>165.12</ele>
        <time>2021-04-06T10:11:21Z</time>
      </trkpt>
      <trkpt lat="57.56508" lon="-5.63201">
        <ele>166.79</ele>
        <time>2021-04-06T10:11:24Z</time>
      </trkpt>
      <trkpt lat="57.56525" lon="-5.63228">
        <ele>169.14</ele>
        <time>2021-04-06T10:11:26Z</time>
      </trkpt>
      <trkpt lat="57.56549" lon="-5.63254">
        <ele>171.88</ele>
        <time>2021-04-06T10:11:28Z</time>
      </trkpt>
      <trkpt lat="57.56552" lon="-5.63277">
        <ele>172.85</ele>
        <time>2021-04-06T10:11:31Z</time>
      </trkpt>
      <trkpt lat="57.56544" lon="-5.63303">
        <ele>176.26</ele>
        <time>2021-04-06T10:11:33Z</time>
      </trkpt>
      <trkpt lat="57.56502" lon="-5.63376">
        <ele>180.62</ele>
        <time>2021-04-06T10:11:35Z</time>
      </trkpt>
      <trkpt lat="57.56488" lon="-5.63419">
        <ele>182.94</ele>
        <time>2021-04-06T10:11:38Z</time>
      </trkpt>
      <trkpt lat="57.56469" lon="-5.63511">
        <ele>183.38</ele>
        <time>2021-04-06T10:11:40Z</time>
      </trkpt>
      <trkpt lat="57.56468" lon="-5.63536">
        <ele>184.07</ele>
        <time>2021-04-06T10:11:42Z</time>
      </trkpt>
      <trkpt lat="57.56477" lon="-5.63539">
        <ele>186.71</ele>
        <time>2021-04-06T10:11:45Z</time>
      </trkpt>
      <trkpt lat="57.56489" lon="-5.63527">
        <ele>189.68</ele>
        <time>2021-04-06T10:11:47Z</time>
      </trkpt>
      <trkpt lat="57.5652" lon="-5.63509">
        <ele>196.02</ele>
        <time>2021-04-06T10:11:49Z</time>
      </trkpt>
      <trkpt lat="57.56546" lon="-5.63499">
        <ele>202.74</ele>
        <time>2021-04-06T10:11:52Z</time>
      </trkpt>
      <trkpt lat="57.56624" lon="-5.6348">
        <ele>216.52</ele>
        <time>2021-04-06T10:11:54Z</time>
      </trkpt>
      <trkpt lat="57.56635" lon="-5.63487">
        <ele>219.37</ele>
        <time>2021-04-06T10:11:56Z</time>
      </trkpt>
      <trkpt lat="57.56692" lon="-5.63543">
        <ele>226.67</ele>
        <time>2021-04-06T10:11:59Z</time>
      </trkpt>
      <trkpt lat="57.56707" lon="-5.63548">
        <ele>227.1</ele>
        <time>2021-04-06T10:12:01Z</time>
      </trkpt>
      <trkpt lat="57.56736" lon="-5.63546">
        <ele>229.55</ele>
        <time>2021-04-06T10:12:03Z</time>
      </trkpt>
      <trkpt lat="57.56751" lon="-5.63558">
        <ele>232.32</ele>
        <time>2021-04-06T10:12:06Z</time>
      </trkpt>
      <trkpt lat="57.56812" lon="-5.6369">
        <ele>241.28</ele>
        <time>2021-04-06T10:12:08Z</time>
      </trkpt>
      <trkpt lat="57.56844" lon="-5.63751">
        <ele>245</ele>
        <time>2021-04-06T10:12:10Z</time>
      </trkpt>
      <trkpt lat="57.56868" lon="-5.63806">
        <ele>246.47</ele>
        <time>2021-04-06T10:12:13Z</time>
      </trkpt>
      <trkpt lat="57.56895" lon="-5.63872">
        <ele>249.72</ele>
        <time>2021-04-06T10:12:15Z</time>
      </trkpt>
      <trkpt lat="57.5691" lon="-5.63889">
        <ele>248.92</ele>
        <time>2021-04-06T10:12:18Z</time>
      </trkpt>
      <trkpt lat="57.56938" lon="-5.63927">
        <ele>248.97</ele>
        <time>2021-04-06T10:12:20Z</time>
      </trkpt>
      <trkpt lat="57.56958" lon="-5.63947">
        <ele>248.79</ele>
        <time>2021-04-06T10:12:22Z</time>
      </trkpt>
      <trkpt lat="57.56994" lon="-5.63961">
        <ele>250.1</ele>
        <time>2021-04-06T10:12:25Z</time>
      </trkpt>
      <trkpt lat="57.57041" lon="-5.63971">
        <ele>251.05</ele>
        <time>2021-04-06T10:12:27Z</time>
      </trkpt>
      <trkpt lat="57.57057" lon="-5.63978">
        <ele>250.58</ele>
        <time>2021-04-06T10:12:29Z</time>
      </trkpt>
      <trkpt lat="57.57105" lon="-5.64017">
        <ele>246.93</ele>
        <time>2021-04-06T10:12:32Z</time>
      </trkpt>
      <trkpt lat="57.57129" lon="-5.6403">
        <ele>245.18</ele>
        <time>2021-04-06T10:12:34Z</time>
      </trkpt>
      <trkpt lat="57.57146" lon="-5.64028">
        <ele>244.27</ele>
        <time>2021-04-06T10:12:36Z</time>
      </trkpt>
      <trkpt lat="57.57179" lon="-5.64011">
        <ele>244.12</ele>
        <time>2021-04-06T10:12:39Z</time>
      </trkpt>
      <trkpt lat="57.57231" lon="-5.63977">
        <ele>247.29</ele>
        <time>2021-04-06T10:12:41Z</time>
      </trkpt>
      <trkpt lat="57.57251" lon="-5.63975">
        <ele>247.53</ele>
        <time>2021-04-06T10:12:43Z</time>
      </trkpt>
      <trkpt lat="57.57303" lon="-5.64013">
        <ele>244.28</ele>
        <time>2021-04-06T10:12:46Z</time>
      </trkpt>
      <trkpt lat="57.57325" lon="-5.64024">
        <ele>244.02</ele>
        <time>2021-04-06T10:12:48Z</time>
      </trkpt>
      <trkpt lat="57.57355" lon="-5.64031">
        <ele>247.26</ele>
        <time>2021-04-06T10:12:50Z</time>
      </trkpt>
      <trkpt lat="57.57411" lon="-5.64076">
        <ele>240.69</ele>
        <time>2021-04-06T10:12:53Z</time>
      </trkpt>
      <trkpt lat="57.57451" lon="-5.64098">
        <ele>238.31</ele>
        <time>2021-04-06T10:12:55Z</time>
      </trkpt>
      <trkpt lat="57.57473" lon="-5.64106">
        <ele>237.62</ele>
        <time>2021-04-06T10:12:57Z</time>
      </trkpt>
      <trkpt lat="57.57617" lon="-5.64249">
        <ele>206.64</ele>
        <time>2021-04-06T10:13:00Z</time>
      </trkpt>
      <trkpt lat="57.57648" lon="-5.64266">
        <ele>198.76</ele>
        <time>2021-04-06T10:13:02Z</time>
      </trkpt>
      <trkpt lat="57.57666" lon="-5.64257">
        <ele>199.27</ele>
        <time>2021-04-06T10:13:04Z</time>
      </trkpt>
      <trkpt lat="57.57683" lon="-5.64242">
        <ele>200.15</ele>
        <time>2021-04-06T10:13:07Z</time>
      </trkpt>
      <trkpt lat="57.57698" lon="-5.64222">
        <ele>202.36</ele>
        <time>2021-04-06T10:13:09Z</time>
      </trkpt>
      <trkpt lat="57.57713" lon="-5.64185">
        <ele>204.65</ele>
        <time>2021-04-06T10:13:11Z</time>
      </trkpt>
      <trkpt lat="57.57726" lon="-5.64169">
        <ele>203.94</ele>
        <time>2021-04-06T10:13:14Z</time>
      </trkpt>
      <trkpt lat="57.57744" lon="-5.64169">
        <ele>200.79</ele>
        <time>2021-04-06T10:13:16Z</time>
      </trkpt>
      <trkpt lat="57.5782" lon="-5.64261">
        <ele>193.82</ele>
        <time>2021-04-06T10:13:18Z</time>
      </trkpt>
      <trkpt lat="57.57827" lon="-5.64276">
        <ele>193.73</ele>
        <time>2021-04-06T10:13:21Z</time>
      </trkpt>
      <trkpt lat="57.57827" lon="-5.64276">
        <ele>193.73</ele>
        <time>2021-04-06T10:13:21Z</time>
      </trkpt>
      <trkpt lat="57.57819" lon="-5.64323">
        <ele>186.63</ele>
        <time>2021-04-06T10:13:23Z</time>
      </trkpt>
      <trkpt lat="57.5782" lon="-5.64367">
        <ele>182.89</ele>
        <time>2021-04-06T10:13:26Z</time>
      </trkpt>
      <trkpt lat="57.57826" lon="-5.6444">
        <ele>182.65</ele>
        <time>2021-04-06T10:13:28Z</time>
      </trkpt>
      <trkpt lat="57.57823" lon="-5.64476">
        <ele>181.03</ele>
        <time>2021-04-06T10:13:31Z</time>
      </trkpt>
      <trkpt lat="57.5781" lon="-5.64539">
        <ele>174.72</ele>
        <time>2021-04-06T10:13:34Z</time>
      </trkpt>
      <trkpt lat="57.5781" lon="-5.64562">
        <ele>173.77</ele>
        <time>2021-04-06T10:13:36Z</time>
      </trkpt>
      <trkpt lat="57.5787" lon="-5.64676">
        <ele>173.02</ele>
        <time>2021-04-06T10:13:39Z</time>
      </trkpt>
      <trkpt lat="57.57888" lon="-5.64714">
        <ele>172.68</ele>
        <time>2021-04-06T10:13:41Z</time>
      </trkpt>
      <trkpt lat="57.57892" lon="-5.64743">
        <ele>171.85</ele>
        <time>2021-04-06T10:13:44Z</time>
      </trkpt>
      <trkpt lat="57.57891" lon="-5.64779">
        <ele>171.55</ele>
        <time>2021-04-06T10:13:46Z</time>
      </trkpt>
      <trkpt lat="57.57888" lon="-5.64819">
        <ele>173.7</ele>
        <time>2021-04-06T10:13:49Z</time>
      </trkpt>
      <trkpt lat="57.57871" lon="-5.64863">
        <ele>173.97</ele>
        <time>2021-04-06T10:13:52Z</time>
      </trkpt>
      <trkpt lat="57.57861" lon="-5.64898">
        <ele>174.88</ele>
        <time>2021-04-06T10:13:54Z</time>
      </trkpt>
      <trkpt lat="57.57855" lon="-5.6496">
        <ele>178.65</ele>
        <time>2021-04-06T10:13:57Z</time>
      </trkpt>
      <trkpt lat="57.5784" lon="-5.64974">
        <ele>176.66</ele>
        <time>2021-04-06T10:13:59Z</time>
      </trkpt>
      <trkpt lat="57.57822" lon="-5.64976">
        <ele>174.22</ele>
        <time>2021-04-06T10:14:02Z</time>
      </trkpt>
      <trkpt lat="57.57803" lon="-5.64972">
        <ele>171.5</ele>
        <time>2021-04-06T10:14:04Z</time>
      </trkpt>
      <trkpt lat="57.57787" lon="-5.64985">
        <ele>170.19</ele>
        <time>2021-04-06T10:14:07Z</time>
      </trkpt>
      <trkpt lat="57.57774" lon="-5.65019">
        <ele>170.32</ele>
        <time>2021-04-06T10:14:09Z</time>
      </trkpt>
      <trkpt lat="57.57766" lon="-5.65056">
        <ele>169.46</ele>
        <time>2021-04-06T10:14:12Z</time>
      </trkpt>
      <trkpt lat="57.57764" lon="-5.65097">
        <ele>168.98</ele>
        <time>2021-04-06T10:14:15Z</time>
      </trkpt>
      <trkpt lat="57.57769" lon="-5.65157">
        <ele>168.63</ele>
        <time>2021-04-06T10:14:17Z</time>
      </trkpt>
      <trkpt lat="57.57768" lon="-5.65186">
        <ele>167.73</ele>
        <time>2021-04-06T10:14:20Z</time>
      </trkpt>
      <trkpt lat="57.57762" lon="-5.65232">
        <ele>166.33</ele>
        <time>2021-04-06T10:14:22Z</time>
      </trkpt>
      <trkpt lat="57.57701" lon="-5.65618">
        <ele>156.1</ele>
        <time>2021-04-06T10:14:25Z</time>
      </trkpt>
      <trkpt lat="57.57699" lon="-5.65664">
        <ele>155.62</ele>
        <time>2021-04-06T10:14:27Z</time>
      </trkpt>
      <trkpt lat="57.57702" lon="-5.65715">
        <ele>155.43</ele>
        <time>2021-04-06T10:14:30Z</time>
      </trkpt>
      <trkpt lat="57.57754" lon="-5.66053">
        <ele>157.66</ele>
        <time>2021-04-06T10:14:33Z</time>
      </trkpt>
      <trkpt lat="57.57794" lon="-5.66266">
        <ele>153.72</ele>
        <time>2021-04-06T10:14:35Z</time>
      </trkpt>
      <trkpt lat="57.57814" lon="-5.66354">
        <ele>153.36</ele>
        <time>2021-04-06T10:14:38Z</time>
      </trkpt>
      <trkpt lat="57.57823" lon="-5.66404">
        <ele>153.94</ele>
        <time>2021-04-06T10:14:40Z</time>
      </trkpt>
      <trkpt lat="57.57832" lon="-5.66571">
        <ele>150.58</ele>
        <time>2021-04-06T10:14:43Z</time>
      </trkpt>
      <trkpt lat="57.57836" lon="-5.66615">
        <ele>149.11</ele>
        <time>2021-04-06T10:14:45Z</time>
      </trkpt>
      <trkpt lat="57.5791" lon="-5.66784">
        <ele>143.14</ele>
        <time>2021-04-06T10:14:48Z</time>
      </trkpt>
      <trkpt lat="57.57932" lon="-5.66815">
        <ele>142.2</ele>
        <time>2021-04-06T10:14:51Z</time>
      </trkpt>
      <trkpt lat="57.5796" lon="-5.66848">
        <ele>141.78</ele>
        <time>2021-04-06T10:14:53Z</time>
      </trkpt>
      <trkpt lat="57.57969" lon="-5.66872">
        <ele>141.88</ele>
        <time>2021-04-06T10:14:56Z</time>
      </trkpt>
      <trkpt lat="57.57975" lon="-5.669">
        <ele>141.61</ele>
        <time>2021-04-06T10:14:58Z</time>
      </trkpt>
      <trkpt lat="57.57984" lon="-5.66978">
        <ele>140</ele>
        <time>2021-04-06T10:15:01Z</time>
      </trkpt>
      <trkpt lat="57.57995" lon="-5.67024">
        <ele>139.3</ele>
        <time>2021-04-06T10:15:03Z</time>
      </trkpt>
      <trkpt lat="57.58044" lon="-5.67151">
        <ele>137.82</ele>
        <time>2021-04-06T10:15:06Z</time>
      </trkpt>
      <trkpt lat="57.58061" lon="-5.67182">
        <ele>137.53</ele>
        <time>2021-04-06T10:15:09Z</time>
      </trkpt>
      <trkpt lat="57.58065" lon="-5.67219">
        <ele>138.26</ele>
        <time>2021-04-06T10:15:11Z</time>
      </trkpt>
      <trkpt lat="57.58061" lon="-5.67258">
        <ele>138.59</ele>
        <time>2021-04-06T10:15:14Z</time>
      </trkpt>
      <trkpt lat="57.58065" lon="-5.67303">
        <ele>138.65</ele>
        <time>2021-04-06T10:15:16Z</time>
      </trkpt>
      <trkpt lat="57.58064" lon="-5.67325">
        <ele>138.7</ele>
        <time>2021-04-06T10:15:19Z</time>
      </trkpt>
      <trkpt lat="57.58072" lon="-5.67354">
        <ele>138.54</ele>
        <time>2021-04-06T10:15:21Z</time>
      </trkpt>
      <trkpt lat="57.58089" lon="-5.67385">
        <ele>139.37</ele>
        <time>2021-04-06T10:15:24Z</time>
      </trkpt>
      <trkpt lat="57.5813" lon="-5.67449">
        <ele>143.5</ele>
        <time>2021-04-06T10:15:26Z</time>
      </trkpt>
      <trkpt lat="57.58155" lon="-5.67501">
        <ele>146.22</ele>
        <time>2021-04-06T10:15:29Z</time>
      </trkpt>
      <trkpt lat="57.58181" lon="-5.67544">
        <ele>148.53</ele>
        <time>2021-04-06T10:15:32Z</time>
      </trkpt>
      <trkpt lat="57.58185" lon="-5.67572">
        <ele>149.28</ele>
        <time>2021-04-06T10:15:34Z</time>
      </trkpt>
      <trkpt lat="57.58177" lon="-5.67627">
        <ele>150.77</ele>
        <time>2021-04-06T10:15:37Z</time>
      </trkpt>
      <trkpt lat="57.58134" lon="-5.67867">
        <ele>154.64</ele>
        <time>2021-04-06T10:15:39Z</time>
      </trkpt>
      <trkpt lat="57.58133" lon="-5.67894">
        <ele>154.43</ele>
        <time>2021-04-06T10:15:42Z</time>
      </trkpt>
      <trkpt lat="57.58155" lon="-5.67981">
        <ele>154.53</ele>
        <time>2021-04-06T10:15:44Z</time>
      </trkpt>
      <trkpt lat="57.58166" lon="-5.68017">
        <ele>154.29</ele>
        <time>2021-04-06T10:15:47Z</time>
      </trkpt>
      <trkpt lat="57.5817" lon="-5.68048">
        <ele>153.81</ele>
        <time>2021-04-06T10:15:50Z</time>
      </trkpt>
      <trkpt lat="57.58167" lon="-5.68116">
        <ele>149.63</ele>
        <time>2021-04-06T10:15:52Z</time>
      </trkpt>
      <trkpt lat="57.58154" lon="-5.68181">
        <ele>139.87</ele>
        <time>2021-04-06T10:15:55Z</time>
      </trkpt>
      <trkpt lat="57.5815" lon="-5.68259">
        <ele>131.48</ele>
        <time>2021-04-06T10:15:57Z</time>
      </trkpt>
      <trkpt lat="57.5814" lon="-5.68373">
        <ele>117.53</ele>
        <time>2021-04-06T10:16:00Z</time>
      </trkpt>
      <trkpt lat="57.58137" lon="-5.68395">
        <ele>114.55</ele>
        <time>2021-04-06T10:16:02Z</time>
      </trkpt>
      <trkpt lat="57.58131" lon="-5.6847">
        <ele>106.28</ele>
        <time>2021-04-06T10:16:05Z</time>
      </trkpt>
      <trkpt lat="57.58146" lon="-5.68576">
        <ele>104.62</ele>
        <time>2021-04-06T10:16:08Z</time>
      </trkpt>
      <trkpt lat="57.58152" lon="-5.68644">
        <ele>101.79</ele>
        <time>2021-04-06T10:16:10Z</time>
      </trkpt>
      <trkpt lat="57.58162" lon="-5.68706">
        <ele>100.4</ele>
        <time>2021-04-06T10:16:13Z</time>
      </trkpt>
      <trkpt lat="57.58172" lon="-5.68753">
        <ele>101.66</ele>
        <time>2021-04-06T10:16:15Z</time>
      </trkpt>
      <trkpt lat="57.58173" lon="-5.68776">
        <ele>102.11</ele>
        <time>2021-04-06T10:16:18Z</time>
      </trkpt>
      <trkpt lat="57.58168" lon="-5.68792">
        <ele>99.08</ele>
        <time>2021-04-06T10:16:20Z</time>
      </trkpt>
      <trkpt lat="57.58168" lon="-5.68792">
        <ele>99.08</ele>
        <time>2021-04-06T10:16:20Z</time>
      </trkpt>
      <trkpt lat="57.58173" lon="-5.68776">
        <ele>102.11</ele>
        <time>2021-04-06T10:16:23Z</time>
      </trkpt>
      <trkpt lat="57.58172" lon="-5.68753">
        <ele>101.66</ele>
        <time>2021-04-06T10:16:26Z</time>
      </trkpt>
      <trkpt lat="57.58162" lon="-5.68706">
        <ele>100.4</ele>
        <time>2021-04-06T10:16:28Z</time>
      </trkpt>
      <trkpt lat="57.58152" lon="-5.68644">
        <ele>101.79</ele>
        <time>2021-04-06T10:16:31Z</time>
      </trkpt>
      <trkpt lat="57.58146" lon="-5.68576">
        <ele>104.62</ele>
        <time>2021-04-06T10:16:33Z</time>
      </trkpt>
      <trkpt lat="57.58131" lon="-5.6847">
        <ele>106.28</ele>
        <time>2021-04-06T10:16:36Z</time>
      </trkpt>
      <trkpt lat="57.58137" lon="-5.68395">
        <ele>114.55</ele>
        <time>2021-04-06T10:16:38Z</time>
      </trkpt>
      <trkpt lat="57.5814" lon="-5.68373">
        <ele>117.53</ele>
        <time>2021-04-06T10:16:41Z</time>
      </trkpt>
      <trkpt lat="57.5815" lon="-5.68259">
        <ele>131.48</ele>
        <time>2021-04-06T10:16:43Z</time>
      </trkpt>
      <trkpt lat="57.58154" lon="-5.68181">
        <ele>139.87</ele>
        <time>2021-04-06T10:16:46Z</time>
      </trkpt>
      <trkpt lat="57.58167" lon="-5.68116">
        <ele>149.63</ele>
        <time>2021-04-06T10:16:49Z</time>
      </trkpt>
      <trkpt lat="57.5817" lon="-5.68048">
        <ele>153.81</ele>
        <time>2021-04-06T10:16:51Z</time>
      </trkpt>
      <trkpt lat="57.58166" lon="-5.68017">
        <ele>154.29</ele>
        <time>2021-04-06T10:16:54Z</time>
      </trkpt>
      <trkpt lat="57.58155" lon="-5.67981">
        <ele>154.53</ele>
        <time>2021-04-06T10:16:56Z</time>
      </trkpt>
      <trkpt lat="57.58133" lon="-5.67894">
        <ele>154.43</ele>
        <time>2021-04-06T10:16:59Z</time>
      </trkpt>
      <trkpt lat="57.58134" lon="-5.67867">
        <ele>154.64</ele>
        <time>2021-04-06T10:17:01Z</time>
      </trkpt>
      <trkpt lat="57.58177" lon="-5.67627">
        <ele>150.77</ele>
        <time>2021-04-06T10:17:04Z</time>
      </trkpt>
      <trkpt lat="57.58185" lon="-5.67572">
        <ele>149.28</ele>
        <time>2021-04-06T10:17:07Z</time>
      </trkpt>
      <trkpt lat="57.58181" lon="-5.67544">
        <ele>148.53</ele>
        <time>2021-04-06T10:17:09Z</time>
      </trkpt>
      <trkpt lat="57.58155" lon="-5.67501">
        <ele>146.22</ele>
        <time>2021-04-06T10:17:12Z</time>
      </trkpt>
      <trkpt lat="57.5813" lon="-5.67449">
        <ele>143.5</ele>
        <time>2021-04-06T10:17:14Z</time>
      </trkpt>
      <trkpt lat="57.58089" lon="-5.67385">
        <ele>139.37</ele>
        <time>2021-04-06T10:17:17Z</time>
      </trkpt>
      <trkpt lat="57.58072" lon="-5.67354">
        <ele>138.54</ele>
        <time>2021-04-06T10:17:19Z</time>
      </trkpt>
      <trkpt lat="57.58064" lon="-5.67325">
        <ele>138.7</ele>
        <time>2021-04-06T10:17:22Z</time>
      </trkpt>
      <trkpt lat="57.58065" lon="-5.67303">
        <ele>138.65</ele>
        <time>2021-04-06T10:17:25Z</time>
      </trkpt>
      <trkpt lat="57.58061" lon="-5.67258">
        <ele>138.59</ele>
        <time>2021-04-06T10:17:27Z</time>
      </trkpt>
      <trkpt lat="57.58065" lon="-5.67219">
        <ele>138.26</ele>
        <time>2021-04-06T10:17:30Z</time>
      </trkpt>
      <trkpt lat="57.58061" lon="-5.67182">
        <ele>137.53</ele>
        <time>2021-04-06T10:17:32Z</time>
      </trkpt>
      <trkpt lat="57.58044" lon="-5.67151">
        <ele>137.82</ele>
        <time>2021-04-06T10:17:35Z</time>
      </trkpt>
      <trkpt lat="57.57995" lon="-5.67024">
        <ele>139.3</ele>
        <time>2021-04-06T10:17:37Z</time>
      </trkpt>
      <trkpt lat="57.57984" lon="-5.66978">
        <ele>140</ele>
        <time>2021-04-06T10:17:40Z</time>
      </trkpt>
      <trkpt lat="57.57975" lon="-5.669">
        <ele>141.61</ele>
        <time>2021-04-06T10:17:42Z</time>
      </trkpt>
      <trkpt lat="57.57969" lon="-5.66872">
        <ele>141.88</ele>
        <time>2021-04-06T10:17:45Z</time>
      </trkpt>
      <trkpt lat="57.5796" lon="-5.66848">
        <ele>141.78</ele>
        <time>2021-04-06T10:17:48Z</time>
      </trkpt>
      <trkpt lat="57.57932" lon="-5.66815">
        <ele>142.2</ele>
        <time>2021-04-06T10:17:50Z</time>
      </trkpt>
      <trkpt lat="57.5791" lon="-5.66784">
        <ele>143.14</ele>
        <time>2021-04-06T10:17:53Z</time>
      </trkpt>
      <trkpt lat="57.57836" lon="-5.66615">
        <ele>149.11</ele>
        <time>2021-04-06T10:17:55Z</time>
      </trkpt>
      <trkpt lat="57.57832" lon="-5.66571">
        <ele>150.58</ele>
        <time>2021-04-06T10:17:58Z</time>
      </trkpt>
      <trkpt lat="57.57823" lon="-5.66404">
        <ele>153.94</ele>
        <time>2021-04-06T10:18:00Z</time>
      </trkpt>
      <trkpt lat="57.57814" lon="-5.66354">
        <ele>153.36</ele>
        <time>2021-04-06T10:18:03Z</time>
      </trkpt>
      <trkpt lat="57.57794" lon="-5.66266">
        <ele>153.72</ele>
        <time>2021-04-06T10:18:06Z</time>
      </trkpt>
      <trkpt lat="57.57754" lon="-5.66053">
        <ele>157.66</ele>
        <time>2021-04-06T10:18:08Z</time>
      </trkpt>
      <trkpt lat="57.57702" lon="-5.65715">
        <ele>155.43</ele>
        <time>2021-04-06T10:18:11Z</time>
      </trkpt>
      <trkpt lat="57.57699" lon="-5.65664">
        <ele>155.62</ele>
        <time>2021-04-06T10:18:13Z</time>
      </trkpt>
      <trkpt lat="57.57701" lon="-5.65618">
        <ele>156.1</ele>
        <time>2021-04-06T10:18:16Z</time>
      </trkpt>
      <trkpt lat="57.57762" lon="-5.65232">
        <ele>166.33</ele>
        <time>2021-04-06T10:18:18Z</time>
      </trkpt>
      <trkpt lat="57.57768" lon="-5.65186">
        <ele>167.73</ele>
        <time>2021-04-06T10:18:21Z</time>
      </trkpt>
      <trkpt lat="57.57769" lon="-5.65157">
        <ele>168.63</ele>
        <time>2021-04-06T10:18:24Z</time>
      </trkpt>
      <trkpt lat="57.57764" lon="-5.65097">
        <ele>168.98</ele>
        <time>2021-04-06T10:18:26Z</time>
      </trkpt>
      <trkpt lat="57.57766" lon="-5.65056">
        <ele>169.46</ele>
        <time>2021-04-06T10:18:29Z</time>
      </trkpt>
      <trkpt lat="57.57774" lon="-5.65019">
        <ele>170.32</ele>
        <time>2021-04-06T10:18:31Z</time>
      </trkpt>
      <trkpt lat="57.57787" lon="-5.64985">
        <ele>170.19</ele>
        <time>2021-04-06T10:18:34Z</time>
      </trkpt>
      <trkpt lat="57.57803" lon="-5.64972">
        <ele>171.5</ele>
        <time>2021-04-06T10:18:36Z</time>
      </trkpt>
      <trkpt lat="57.57822" lon="-5.64976">
        <ele>174.22</ele>
        <time>2021-04-06T10:18:39Z</time>
      </trkpt>
      <trkpt lat="57.5784" lon="-5.64974">
        <ele>176.66</ele>
        <time>2021-04-06T10:18:42Z</time>
      </trkpt>
      <trkpt lat="57.57855" lon="-5.6496">
        <ele>178.65</ele>
        <time>2021-04-06T10:18:44Z</time>
      </trkpt>
      <trkpt lat="57.57861" lon="-5.64898">
        <ele>174.88</ele>
        <time>2021-04-06T10:18:47Z</time>
      </trkpt>
      <trkpt lat="57.57871" lon="-5.64863">
        <ele>173.97</ele>
        <time>2021-04-06T10:18:49Z</time>
      </trkpt>
      <trkpt lat="57.57888" lon="-5.64819">
        <ele>173.7</ele>
        <time>2021-04-06T10:18:52Z</time>
      </trkpt>
      <trkpt lat="57.57891" lon="-5.64779">
        <ele>171.55</ele>
        <time>2021-04-06T10:18:54Z</time>
      </trkpt>
      <trkpt lat="57.57892" lon="-5.64743">
        <ele>171.85</ele>
        <time>2021-04-06T10:18:57Z</time>
      </trkpt>
      <trkpt lat="57.57888" lon="-5.64714">
        <ele>172.68</ele>
        <time>2021-04-06T10:18:59Z</time>
      </trkpt>
      <trkpt lat="57.5787" lon="-5.64676">
        <ele>173.02</ele>
        <time>2021-04-06T10:19:02Z</time>
      </trkpt>
      <trkpt lat="57.5781" lon="-5.64562">
        <ele>173.77</ele>
        <time>2021-04-06T10:19:05Z</time>
      </trkpt>
      <trkpt lat="57.5781" lon="-5.64539">
        <ele>174.72</ele>
        <time>2021-04-06T10:19:07Z</time>
      </trkpt>
      <trkpt lat="57.57823" lon="-5.64476">
        <ele>181.03</ele>
        <time>2021-04-06T10:19:10Z</time>
      </trkpt>
      <trkpt lat="57.57826" lon="-5.6444">
        <ele>182.65</ele>
        <time>2021-04-06T10:19:12Z</time>
      </trkpt>
      <trkpt lat="57.5782" lon="-5.64367">
        <ele>182.89</ele>
        <time>2021-04-06T10:19:15Z</time>
      </trkpt>
      <trkpt lat="57.57819" lon="-5.64323">
        <ele>186.63</ele>
        <time>2021-04-06T10:19:17Z</time>
      </trkpt>
      <trkpt lat="57.57827" lon="-5.64276">
        <ele>193.73</ele>
        <time>2021-04-06T10:19:20Z</time>
      </trkpt>
      <trkpt lat="57.57827" lon="-5.64276">
        <ele>193.73</ele>
        <time>2021-04-06T10:19:20Z</time>
      </trkpt>
      <trkpt lat="57.5782" lon="-5.64261">
        <ele>193.82</ele>
        <time>2021-04-06T10:19:22Z</time>
      </trkpt>
      <trkpt lat="57.57744" lon="-5.64169">
        <ele>200.79</ele>
        <time>2021-04-06T10:19:25Z</time>
      </trkpt>
      <trkpt lat="57.57726" lon="-5.64169">
        <ele>203.94</ele>
        <time>2021-04-06T10:19:27Z</time>
      </trkpt>
      <trkpt lat="57.57713" lon="-5.64185">
        <ele>204.65</ele>
        <time>2021-04-06T10:19:29Z</time>
      </trkpt>
      <trkpt lat="57.57698" lon="-5.64222">
        <ele>202.36</ele>
        <time>2021-04-06T10:19:32Z</time>
      </trkpt>
      <trkpt lat="57.57683" lon="-5.64242">
        <ele>200.15</ele>
        <time>2021-04-06T10:19:34Z</time>
      </trkpt>
      <trkpt lat="57.57666" lon="-5.64257">
        <ele>199.27</ele>
        <time>2021-04-06T10:19:36Z</time>
      </trkpt>
      <trkpt lat="57.57648" lon="-5.64266">
        <ele>198.76</ele>
        <time>2021-04-06T10:19:39Z</time>
      </trkpt>
      <trkpt lat="57.57617" lon="-5.64249">
        <ele>206.64</ele>
        <time>2021-04-06T10:19:41Z</time>
      </trkpt>
      <trkpt lat="57.57473" lon="-5.64106">
        <ele>237.62</ele>
        <time>2021-04-06T10:19:43Z</time>
      </trkpt>
      <trkpt lat="57.57451" lon="-5.64098">
        <ele>238.31</ele>
        <time>2021-04-06T10:19:46Z</time>
      </trkpt>
      <trkpt lat="57.57411" lon="-5.64076">
        <ele>240.69</ele>
        <time>2021-04-06T10:19:48Z</time>
      </trkpt>
      <trkpt lat="57.57355" lon="-5.64031">
        <ele>247.26</ele>
        <time>2021-04-06T10:19:50Z</time>
      </trkpt>
      <trkpt lat="57.57325" lon="-5.64024">
        <ele>244.02</ele>
        <time>2021-04-06T10:19:53Z</time>
      </trkpt>
      <trkpt lat="57.57303" lon="-5.64013">
        <ele>244.28</ele>
        <time>2021-04-06T10:19:55Z</time>
      </trkpt>
      <trkpt lat="57.57251" lon="-5.63975">
        <ele>247.53</ele>
        <time>2021-04-06T10:19:57Z</time>
      </trkpt>
      <trkpt lat="57.57231" lon="-5.63977">
        <ele>247.29</ele>
        <time>2021-04-06T10:20:00Z</time>
      </trkpt>
      <trkpt lat="57.57179" lon="-5.64011">
        <ele>244.12</ele>
        <time>2021-04-06T10:20:02Z</time>
      </trkpt>
      <trkpt lat="57.57146" lon="-5.64028">
        <ele>244.27</ele>
        <time>2021-04-06T10:20:04Z</time>
      </trkpt>
      <trkpt lat="57.57129" lon="-5.6403">
        <ele>245.18</ele>
        <time>2021-04-06T10:20:07Z</time>
      </trkpt>
      <trkpt lat="57.57105" lon="-5.64017">
        <ele>246.93</ele>
        <time>2021-04-06T10:20:09Z</time>
      </trkpt>
      <trkpt lat="57.57057" lon="-5.63978">
        <ele>250.58</ele>
        <time>2021-04-06T10:20:12Z</time>
      </trkpt>
      <trkpt lat="57.57041" lon="-5.63971">
        <ele>251.05</ele>
        <time>2021-04-06T10:20:14Z</time>
      </trkpt>
      <trkpt lat="57.56994" lon="-5.63961">
        <ele>250.1</ele>
        <time>2021-04-06T10:20:16Z</time>
      </trkpt>
      <trkpt lat="57.56958" lon="-5.63947">
        <ele>248.79</ele>
        <time>2021-04-06T10:20:19Z</time>
      </trkpt>
      <trkpt lat="57.56938" lon="-5.63927">
        <ele>248.97</ele>
        <time>2021-04-06T10:20:21Z</time>
      </trkpt>
      <trkpt lat="57.5691" lon="-5.63889">
        <ele>248.92</ele>
        <time>2021-04-06T10:20:23Z</time>
      </trkpt>
      <trkpt lat="57.56895" lon="-5.63872">
        <ele>249.72</ele>
        <time>2021-04-06T10:20:26Z</time>
      </trkpt>
      <trkpt lat="57.56868" lon="-5.63806">
        <ele>246.47</ele>
        <time>2021-04-06T10:20:28Z</time>
      </trkpt>
      <trkpt lat="57.56844" lon="-5.63751">
        <ele>245</ele>
        <time>2021-04-06T10:20:30Z</time>
      </trkpt>
      <trkpt lat="57.56812" lon="-5.6369">
        <ele>241.28</ele>
        <time>2021-04-06T10:20:33Z</time>
      </trkpt>
      <trkpt lat="57.56751" lon="-5.63558">
        <ele>232.32</ele>
        <time>2021-04-06T10:20:35Z</time>
      </trkpt>
      <trkpt lat="57.56736" lon="-5.63546">
        <ele>229.55</ele>
        <time>2021-04-06T10:20:37Z</time>
      </trkpt>
      <trkpt lat="57.56707" lon="-5.63548">
        <ele>227.1</ele>
        <time>2021-04-06T10:20:40Z</time>
      </trkpt>
      <trkpt lat="57.56692" lon="-5.63543">
        <ele>226.67</ele>
        <time>2021-04-06T10:20:42Z</time>
      </trkpt>
      <trkpt lat="57.56635" lon="-5.63487">
        <ele>219.37</ele>
        <time>2021-04-06T10:20:44Z</time>
      </trkpt>
      <trkpt lat="57.56624" lon="-5.6348">
        <ele>216.52</ele>
        <time>2021-04-06T10:20:47Z</time>
      </trkpt>
      <trkpt lat="57.56546" lon="-5.63499">
        <ele>202.74</ele>
        <time>2021-04-06T10:20:49Z</time>
      </trkpt>
      <trkpt lat="57.5652" lon="-5.63509">
        <ele>196.02</ele>
        <time>2021-04-06T10:20:51Z</time>
      </trkpt>
      <trkpt lat="57.56489" lon="-5.63527">
        <ele>189.68</ele>
        <time>2021-04-06T10:20:54Z</time>
      </trkpt>
      <trkpt lat="57.56477" lon="-5.63539">
        <ele>186.71</ele>
        <time>2021-04-06T10:20:56Z</time>
      </trkpt>
      <trkpt lat="57.56468" lon="-5.63536">
        <ele>184.07</ele>
        <time>2021-04-06T10:20:58Z</time>
      </trkpt>
      <trkpt lat="57.56469" lon="-5.63511">
        <ele>183.38</ele>
        <time>2021-04-06T10:21:01Z</time>
      </trkpt>
      <trkpt lat="57.56488" lon="-5.63419">
        <ele>182.94</ele>
        <time>2021-04-06T10:21:03Z</time>
      </trkpt>
      <trkpt lat="57.56502" lon="-5.63376">
        <ele>180.62</ele>
        <time>2021-04-06T10:21:05Z</time>
      </trkpt>
      <trkpt lat="57.56544" lon="-5.63303">
        <ele>176.26</ele>
        <time>2021-04-06T10:21:08Z</time>
      </trkpt>
      <trkpt lat="57.56552" lon="-5.63277">
        <ele>172.85</ele>
        <time>2021-04-06T10:21:10Z</time>
      </trkpt>
      <trkpt lat="57.56549" lon="-5.63254">
        <ele>171.88</ele>
        <time>2021-04-06T10:21:12Z</time>
      </trkpt>
      <trkpt lat="57.56525" lon="-5.63228">
        <ele>169.14</ele>
        <time>2021-04-06T10:21:15Z</time>
      </trkpt>
      <trkpt lat="57.56508" lon="-5.63201">
        <ele>166.79</ele>
        <time>2021-04-06T10:21:17Z</time>
      </trkpt>
      <trkpt lat="57.56504" lon="-5.63162">
        <ele>165.12</ele>
        <time>2021-04-06T10:21:19Z</time>
      </trkpt>
      <trkpt lat="57.5651" lon="-5.63125">
        <ele>163.68</ele>
        <time>2021-04-06T10:21:22Z</time>
      </trkpt>
      <trkpt lat="57.56508" lon="-5.63084">
        <ele>161.07</ele>
        <time>2021-04-06T10:21:24Z</time>
      </trkpt>
      <trkpt lat="57.56504" lon="-5.63039">
        <ele>157.33</ele>
        <time>2021-04-06T10:21:26Z</time>
      </trkpt>
      <trkpt lat="57.56492" lon="-5.62999">
        <ele>155.25</ele>
        <time>2021-04-06T10:21:29Z</time>
      </trkpt>
      <trkpt lat="57.56472" lon="-5.62951">
        <ele>152.45</ele>
        <time>2021-04-06T10:21:31Z</time>
      </trkpt>
      <trkpt lat="57.56436" lon="-5.62907">
        <ele>146.31</ele>
        <time>2021-04-06T10:21:33Z</time>
      </trkpt>
      <trkpt lat="57.56382" lon="-5.62871">
        <ele>137</ele>
        <time>2021-04-06T10:21:36Z</time>
      </trkpt>
      <trkpt lat="57.5634" lon="-5.62847">
        <ele>130.55</ele>
        <time>2021-04-06T10:21:38Z</time>
      </trkpt>
      <trkpt lat="57.56303" lon="-5.62843">
        <ele>127.5</ele>
        <time>2021-04-06T10:21:40Z</time>
      </trkpt>
      <trkpt lat="57.56221" lon="-5.6283">
        <ele>114.42</ele>
        <time>2021-04-06T10:21:43Z</time>
      </trkpt>
      <trkpt lat="57.56191" lon="-5.62835">
        <ele>108.37</ele>
        <time>2021-04-06T10:21:45Z</time>
      </trkpt>
      <trkpt lat="57.5615" lon="-5.62866">
        <ele>102.82</ele>
        <time>2021-04-06T10:21:47Z</time>
      </trkpt>
      <trkpt lat="57.56124" lon="-5.62883">
        <ele>99.57</ele>
        <time>2021-04-06T10:21:50Z</time>
      </trkpt>
      <trkpt lat="57.56109" lon="-5.62884">
        <ele>97.64</ele>
        <time>2021-04-06T10:21:52Z</time>
      </trkpt>
      <trkpt lat="57.56097" lon="-5.6287">
        <ele>95.83</ele>
        <time>2021-04-06T10:21:55Z</time>
      </trkpt>
      <trkpt lat="57.56072" lon="-5.62812">
        <ele>90.12</ele>
        <time>2021-04-06T10:21:57Z</time>
      </trkpt>
      <trkpt lat="57.56052" lon="-5.62756">
        <ele>87.31</ele>
        <time>2021-04-06T10:21:59Z</time>
      </trkpt>
      <trkpt lat="57.56038" lon="-5.62695">
        <ele>89</ele>
        <time>2021-04-06T10:22:02Z</time>
      </trkpt>
      <trkpt lat="57.56029" lon="-5.62639">
        <ele>88.9</ele>
        <time>2021-04-06T10:22:04Z</time>
      </trkpt>
      <trkpt lat="57.56019" lon="-5.62598">
        <ele>87.06</ele>
        <time>2021-04-06T10:22:06Z</time>
      </trkpt>
      <trkpt lat="57.56007" lon="-5.62538">
        <ele>84.03</ele>
        <time>2021-04-06T10:22:09Z</time>
      </trkpt>
      <trkpt lat="57.55982" lon="-5.62481">
        <ele>83.63</ele>
        <time>2021-04-06T10:22:11Z</time>
      </trkpt>
      <trkpt lat="57.55934" lon="-5.62396">
        <ele>81.6</ele>
        <time>2021-04-06T10:22:13Z</time>
      </trkpt>
      <trkpt lat="57.55934" lon="-5.62396">
        <ele>81.6</ele>
        <time>2021-04-06T10:22:13Z</time>
      </trkpt>
      <trkpt lat="57.5594" lon="-5.62374">
        <ele>80.43</ele>
        <time>2021-04-06T10:22:16Z</time>
      </trkpt>
      <trkpt lat="57.55958" lon="-5.62357">
        <ele>79.45</ele>
        <time>2021-04-06T10:22:19Z</time>
      </trkpt>
      <trkpt lat="57.55985" lon="-5.6227">
        <ele>79.89</ele>
        <time>2021-04-06T10:22:22Z</time>
      </trkpt>
      <trkpt lat="57.55992" lon="-5.62227">
        <ele>80.67</ele>
        <time>2021-04-06T10:22:25Z</time>
      </trkpt>
      <trkpt lat="57.55995" lon="-5.62183">
        <ele>80.8</ele>
        <time>2021-04-06T10:22:28Z</time>
      </trkpt>
      <trkpt lat="57.55989" lon="-5.6213">
        <ele>80.27</ele>
        <time>2021-04-06T10:22:30Z</time>
      </trkpt>
      <trkpt lat="57.55971" lon="-5.62009">
        <ele>76.11</ele>
        <time>2021-04-06T10:22:33Z</time>
      </trkpt>
      <trkpt lat="57.55945" lon="-5.6192">
        <ele>74.12</ele>
        <time>2021-04-06T10:22:36Z</time>
      </trkpt>
      <trkpt lat="57.55954" lon="-5.61855">
        <ele>79.6</ele>
        <time>2021-04-06T10:22:39Z</time>
      </trkpt>
      <trkpt lat="57.55953" lon="-5.61825">
        <ele>80.36</ele>
        <time>2021-04-06T10:22:42Z</time>
      </trkpt>
      <trkpt lat="57.55931" lon="-5.61713">
        <ele>78.05</ele>
        <time>2021-04-06T10:22:45Z</time>
      </trkpt>
      <trkpt lat="57.55908" lon="-5.61636">
        <ele>80.06</ele>
        <time>2021-04-06T10:22:47Z</time>
      </trkpt>
      <trkpt lat="57.55904" lon="-5.61602">
        <ele>82.82</ele>
        <time>2021-04-06T10:22:50Z</time>
      </trkpt>
      <trkpt lat="57.5591" lon="-5.61393">
        <ele>91.89</ele>
        <time>2021-04-06T10:22:53Z</time>
      </trkpt>
      <trkpt lat="57.55915" lon="-5.61342">
        <ele>92</ele>
        <time>2021-04-06T10:22:56Z</time>
      </trkpt>
      <trkpt lat="57.55952" lon="-5.61129">
        <ele>94.14</ele>
        <time>2021-04-06T10:22:59Z</time>
      </trkpt>
      <trkpt lat="57.55959" lon="-5.61053">
        <ele>95.08</ele>
        <time>2021-04-06T10:23:02Z</time>
      </trkpt>
      <trkpt lat="57.55959" lon="-5.60988">
        <ele>95.08</ele>
        <time>2021-04-06T10:23:05Z</time>
      </trkpt>
      <trkpt lat="57.55951" lon="-5.60788">
        <ele>99.29</ele>
        <time>2021-04-06T10:23:07Z</time>
      </trkpt>
      <trkpt lat="57.55941" lon="-5.60623">
        <ele>101.02</ele>
        <time>2021-04-06T10:23:10Z</time>
      </trkpt>
      <trkpt lat="57.55954" lon="-5.60535">
        <ele>104.66</ele>
        <time>2021-04-06T10:23:13Z</time>
      </trkpt>
      <trkpt lat="57.55965" lon="-5.60442">
        <ele>105.95</ele>
        <time>2021-04-06T10:23:16Z</time>
      </trkpt>
      <trkpt lat="57.55977" lon="-5.60374">
        <ele>107.93</ele>
        <time>2021-04-06T10:23:19Z</time>
      </trkpt>
      <trkpt lat="57.55992" lon="-5.60307">
        <ele>108.4</ele>
        <time>2021-04-06T10:23:22Z</time>
      </trkpt>
      <trkpt lat="57.55992" lon="-5.60262">
        <ele>106.08</ele>
        <time>2021-04-06T10:23:25Z</time>
      </trkpt>
      <trkpt lat="57.55975" lon="-5.60079">
        <ele>102.5</ele>
        <time>2021-04-06T10:23:27Z</time>
      </trkpt>
      <trkpt lat="57.55955" lon="-5.59922">
        <ele>98.39</ele>
        <time>2021-04-06T10:23:30Z</time>
      </trkpt>
      <trkpt lat="57.55954" lon="-5.59837">
        <ele>98.69</ele>
        <time>2021-04-06T10:23:33Z</time>
      </trkpt>
      <trkpt lat="57.55946" lon="-5.59774">
        <ele>94.56</ele>
        <time>2021-04-06T10:23:36Z</time>
      </trkpt>
      <trkpt lat="57.55947" lon="-5.59749">
        <ele>94.61</ele>
        <time>2021-04-06T10:23:39Z</time>
      </trkpt>
      <trkpt lat="57.55963" lon="-5.59621">
        <ele>91.1</ele>
        <time>2021-04-06T10:23:42Z</time>
      </trkpt>
      <trkpt lat="57.55966" lon="-5.59581">
        <ele>91.28</ele>
        <time>2021-04-06T10:23:45Z</time>
      </trkpt>
      <trkpt lat="57.55963" lon="-5.59536">
        <ele>90.58</ele>
        <time>2021-04-06T10:23:47Z</time>
      </trkpt>
      <trkpt lat="57.55966" lon="-5.59515">
        <ele>92.24</ele>
        <time>2021-04-06T10:23:50Z</time>
      </trkpt>
      <trkpt lat="57.55964" lon="-5.5947">
        <ele>92.5</ele>
        <time>2021-04-06T10:23:53Z</time>
      </trkpt>
      <trkpt lat="57.5595" lon="-5.59421">
        <ele>90.23</ele>
        <time>2021-04-06T10:23:56Z</time>
      </trkpt>
      <trkpt lat="57.55947" lon="-5.5937">
        <ele>92.39</ele>
        <time>2021-04-06T10:23:59Z</time>
      </trkpt>
      <trkpt lat="57.55932" lon="-5.59262">
        <ele>89.13</ele>
        <time>2021-04-06T10:24:02Z</time>
      </trkpt>
      <trkpt lat="57.55928" lon="-5.59213">
        <ele>89.54</ele>
        <time>2021-04-06T10:24:05Z</time>
      </trkpt>
      <trkpt lat="57.55935" lon="-5.59136">
        <ele>91.94</ele>
        <time>2021-04-06T10:24:07Z</time>
      </trkpt>
      <trkpt lat="57.55933" lon="-5.59057">
        <ele>93.51</ele>
        <time>2021-04-06T10:24:10Z</time>
      </trkpt>
      <trkpt lat="57.55936" lon="-5.58988">
        <ele>93.75</ele>
        <time>2021-04-06T10:24:13Z</time>
      </trkpt>
      <trkpt lat="57.55943" lon="-5.58937">
        <ele>93.34</ele>
        <time>2021-04-06T10:24:16Z</time>
      </trkpt>
      <trkpt lat="57.55952" lon="-5.58727">
        <ele>91.96</ele>
        <time>2021-04-06T10:24:19Z</time>
      </trkpt>
      <trkpt lat="57.55953" lon="-5.58653">
        <ele>92.38</ele>
        <time>2021-04-06T10:24:22Z</time>
      </trkpt>
      <trkpt lat="57.55943" lon="-5.58562">
        <ele>91.31</ele>
        <time>2021-04-06T10:24:24Z</time>
      </trkpt>
      <trkpt lat="57.5594" lon="-5.58514">
        <ele>90.84</ele>
        <time>2021-04-06T10:24:27Z</time>
      </trkpt>
      <trkpt lat="57.55939" lon="-5.58406">
        <ele>90.78</ele>
        <time>2021-04-06T10:24:30Z</time>
      </trkpt>
      <trkpt lat="57.55951" lon="-5.58028">
        <ele>85.49</ele>
        <time>2021-04-06T10:24:33Z</time>
      </trkpt>
      <trkpt lat="57.55956" lon="-5.57976">
        <ele>83.66</ele>
        <time>2021-04-06T10:24:36Z</time>
      </trkpt>
      <trkpt lat="57.55957" lon="-5.57923">
        <ele>82.61</ele>
        <time>2021-04-06T10:24:39Z</time>
      </trkpt>
      <trkpt lat="57.55946" lon="-5.57821">
        <ele>77.49</ele>
        <time>2021-04-06T10:24:42Z</time>
      </trkpt>
      <trkpt lat="57.55931" lon="-5.57691">
        <ele>73.76</ele>
        <time>2021-04-06T10:24:44Z</time>
      </trkpt>
      <trkpt lat="57.55913" lon="-5.57553">
        <ele>74.59</ele>
        <time>2021-04-06T10:24:47Z</time>
      </trkpt>
      <trkpt lat="57.55912" lon="-5.57399">
        <ele>75.69</ele>
        <time>2021-04-06T10:24:50Z</time>
      </trkpt>
      <trkpt lat="57.559" lon="-5.57259">
        <ele>72.91</ele>
        <time>2021-04-06T10:24:53Z</time>
      </trkpt>
      <trkpt lat="57.55907" lon="-5.57223">
        <ele>73.23</ele>
        <time>2021-04-06T10:24:56Z</time>
      </trkpt>
      <trkpt lat="57.55913" lon="-5.57176">
        <ele>72.15</ele>
        <time>2021-04-06T10:24:59Z</time>
      </trkpt>
      <trkpt lat="57.55911" lon="-5.57123">
        <ele>70.69</ele>
        <time>2021-04-06T10:25:02Z</time>
      </trkpt>
      <trkpt lat="57.55892" lon="-5.57059">
        <ele>66.51</ele>
        <time>2021-04-06T10:25:04Z</time>
      </trkpt>
      <trkpt lat="57.55884" lon="-5.57017">
        <ele>63.65</ele>
        <time>2021-04-06T10:25:07Z</time>
      </trkpt>
      <trkpt lat="57.55884" lon="-5.56963">
        <ele>61.17</ele>
        <time>2021-04-06T10:25:10Z</time>
      </trkpt>
      <trkpt lat="57.55896" lon="-5.56859">
        <ele>57.96</ele>
        <time>2021-04-06T10:25:13Z</time>
      </trkpt>
      <trkpt lat="57.55896" lon="-5.56786">
        <ele>56.96</ele>
        <time>2021-04-06T10:25:16Z</time>
      </trkpt>
      <trkpt lat="57.5588" lon="-5.56702">
        <ele>52.13</ele>
        <time>2021-04-06T10:25:19Z</time>
      </trkpt>
      <trkpt lat="57.55874" lon="-5.56604">
        <ele>49.67</ele>
        <time>2021-04-06T10:25:22Z</time>
      </trkpt>
      <trkpt lat="57.55869" lon="-5.56433">
        <ele>43.72</ele>
        <time>2021-04-06T10:25:24Z</time>
      </trkpt>
      <trkpt lat="57.55863" lon="-5.56366">
        <ele>42.13</ele>
        <time>2021-04-06T10:25:27Z</time>
      </trkpt>
      <trkpt lat="57.55863" lon="-5.56329">
        <ele>43.53</ele>
        <time>2021-04-06T10:25:30Z</time>
      </trkpt>
      <trkpt lat="57.5586" lon="-5.56309">
        <ele>45.51</ele>
        <time>2021-04-06T10:25:33Z</time>
      </trkpt>
      <trkpt lat="57.55843" lon="-5.56262">
        <ele>47.27</ele>
        <time>2021-04-06T10:25:36Z</time>
      </trkpt>
      <trkpt lat="57.55836" lon="-5.5623">
        <ele>49.49</ele>
        <time>2021-04-06T10:25:39Z</time>
      </trkpt>
      <trkpt lat="57.55834" lon="-5.56191">
        <ele>52.31</ele>
        <time>2021-04-06T10:25:42Z</time>
      </trkpt>
      <trkpt lat="57.55829" lon="-5.56151">
        <ele>53.8</ele>
        <time>2021-04-06T10:25:44Z</time>
      </trkpt>
      <trkpt lat="57.55819" lon="-5.56123">
        <ele>53.75</ele>
        <time>2021-04-06T10:25:47Z</time>
      </trkpt>
      <trkpt lat="57.55803" lon="-5.56114">
        <ele>52.64</ele>
        <time>2021-04-06T10:25:50Z</time>
      </trkpt>
      <trkpt lat="57.55773" lon="-5.56127">
        <ele>49.84</ele>
        <time>2021-04-06T10:25:53Z</time>
      </trkpt>
      <trkpt lat="57.55759" lon="-5.56122">
        <ele>50.24</ele>
        <time>2021-04-06T10:25:56Z</time>
      </trkpt>
      <trkpt lat="57.55742" lon="-5.56103">
        <ele>51.27</ele>
        <time>2021-04-06T10:25:59Z</time>
      </trkpt>
      <trkpt lat="57.55724" lon="-5.56088">
        <ele>51.71</ele>
        <time>2021-04-06T10:26:01Z</time>
      </trkpt>
      <trkpt lat="57.55693" lon="-5.5608">
        <ele>51.13</ele>
        <time>2021-04-06T10:26:04Z</time>
      </trkpt>
      <trkpt lat="57.55659" lon="-5.56065">
        <ele>50.44</ele>
        <time>2021-04-06T10:26:07Z</time>
      </trkpt>
      <trkpt lat="57.55615" lon="-5.56029">
        <ele>49.66</ele>
        <time>2021-04-06T10:26:10Z</time>
      </trkpt>
      <trkpt lat="57.55577" lon="-5.55981">
        <ele>45.64</ele>
        <time>2021-04-06T10:26:13Z</time>
      </trkpt>
      <trkpt lat="57.55557" lon="-5.55929">
        <ele>44.47</ele>
        <time>2021-04-06T10:26:16Z</time>
      </trkpt>
      <trkpt lat="57.5555" lon="-5.55873">
        <ele>46.42</ele>
        <time>2021-04-06T10:26:19Z</time>
      </trkpt>
      <trkpt lat="57.55544" lon="-5.55671">
        <ele>56.18</ele>
        <time>2021-04-06T10:26:21Z</time>
      </trkpt>
      <trkpt lat="57.55546" lon="-5.55586">
        <ele>62.21</ele>
        <time>2021-04-06T10:26:24Z</time>
      </trkpt>
      <trkpt lat="57.55524" lon="-5.55515">
        <ele>59.97</ele>
        <time>2021-04-06T10:26:27Z</time>
      </trkpt>
      <trkpt lat="57.55524" lon="-5.55482">
        <ele>62.4</ele>
        <time>2021-04-06T10:26:30Z</time>
      </trkpt>
      <trkpt lat="57.55532" lon="-5.55441">
        <ele>67.81</ele>
        <time>2021-04-06T10:26:33Z</time>
      </trkpt>
      <trkpt lat="57.55534" lon="-5.55409">
        <ele>70.12</ele>
        <time>2021-04-06T10:26:36Z</time>
      </trkpt>
      <trkpt lat="57.55521" lon="-5.55355">
        <ele>67.78</ele>
        <time>2021-04-06T10:26:39Z</time>
      </trkpt>
      <trkpt lat="57.55522" lon="-5.55335">
        <ele>69.43</ele>
        <time>2021-04-06T10:26:41Z</time>
      </trkpt>
      <trkpt lat="57.5553" lon="-5.55314">
        <ele>72.5</ele>
        <time>2021-04-06T10:26:44Z</time>
      </trkpt>
      <trkpt lat="57.55548" lon="-5.55283">
        <ele>75.78</ele>
        <time>2021-04-06T10:26:47Z</time>
      </trkpt>
      <trkpt lat="57.55556" lon="-5.55252">
        <ele>77.35</ele>
        <time>2021-04-06T10:26:50Z</time>
      </trkpt>
      <trkpt lat="57.5555" lon="-5.55204">
        <ele>74.59</ele>
        <time>2021-04-06T10:26:53Z</time>
      </trkpt>
      <trkpt lat="57.55556" lon="-5.54962">
        <ele>77.61</ele>
        <time>2021-04-06T10:26:56Z</time>
      </trkpt>
      <trkpt lat="57.55561" lon="-5.54887">
        <ele>79.28</ele>
        <time>2021-04-06T10:26:59Z</time>
      </trkpt>
      <trkpt lat="57.55569" lon="-5.54828">
        <ele>81.86</ele>
        <time>2021-04-06T10:27:01Z</time>
      </trkpt>
      <trkpt lat="57.55569" lon="-5.54801">
        <ele>82.05</ele>
        <time>2021-04-06T10:27:04Z</time>
      </trkpt>
      <trkpt lat="57.55557" lon="-5.54778">
        <ele>76.63</ele>
        <time>2021-04-06T10:27:07Z</time>
      </trkpt>
      <trkpt lat="57.55543" lon="-5.5476">
        <ele>70.87</ele>
        <time>2021-04-06T10:27:10Z</time>
      </trkpt>
      <trkpt lat="57.5553" lon="-5.54715">
        <ele>66.63</ele>
        <time>2021-04-06T10:27:13Z</time>
      </trkpt>
      <trkpt lat="57.55519" lon="-5.54615">
        <ele>63.63</ele>
        <time>2021-04-06T10:27:16Z</time>
      </trkpt>
      <trkpt lat="57.55507" lon="-5.54553">
        <ele>60.87</ele>
        <time>2021-04-06T10:27:19Z</time>
      </trkpt>
      <trkpt lat="57.55478" lon="-5.54454">
        <ele>58.51</ele>
        <time>2021-04-06T10:27:21Z</time>
      </trkpt>
      <trkpt lat="57.55471" lon="-5.54438">
        <ele>56.72</ele>
        <time>2021-04-06T10:27:24Z</time>
      </trkpt>
      <trkpt lat="57.55464" lon="-5.54437">
        <ele>52.07</ele>
        <time>2021-04-06T10:27:27Z</time>
      </trkpt>
      <trkpt lat="57.5546" lon="-5.54442">
        <ele>50.09</ele>
        <time>2021-04-06T10:27:30Z</time>
      </trkpt>
      <trkpt lat="57.55456" lon="-5.54461">
        <ele>46.99</ele>
        <time>2021-04-06T10:27:33Z</time>
      </trkpt>
      <trkpt lat="57.55457" lon="-5.54553">
        <ele>41.46</ele>
        <time>2021-04-06T10:27:36Z</time>
      </trkpt>
      <trkpt lat="57.55456" lon="-5.54573">
        <ele>40.25</ele>
        <time>2021-04-06T10:27:38Z</time>
      </trkpt>
      <trkpt lat="57.55453" lon="-5.54587">
        <ele>38.64</ele>
        <time>2021-04-06T10:27:41Z</time>
      </trkpt>
      <trkpt lat="57.55447" lon="-5.54594">
        <ele>36.01</ele>
        <time>2021-04-06T10:27:44Z</time>
      </trkpt>
      <trkpt lat="57.55439" lon="-5.54589">
        <ele>33.05</ele>
        <time>2021-04-06T10:27:47Z</time>
      </trkpt>
      <trkpt lat="57.55432" lon="-5.5458">
        <ele>30.74</ele>
        <time>2021-04-06T10:27:50Z</time>
      </trkpt>
      <trkpt lat="57.55424" lon="-5.54553">
        <ele>28.8</ele>
        <time>2021-04-06T10:27:53Z</time>
      </trkpt>
      <trkpt lat="57.55418" lon="-5.54524">
        <ele>26.63</ele>
        <time>2021-04-06T10:27:56Z</time>
      </trkpt>
      <trkpt lat="57.55416" lon="-5.54483">
        <ele>26.78</ele>
        <time>2021-04-06T10:27:58Z</time>
      </trkpt>
      <trkpt lat="57.55419" lon="-5.54392">
        <ele>26.38</ele>
        <time>2021-04-06T10:28:01Z</time>
      </trkpt>
      <trkpt lat="57.55418" lon="-5.54358">
        <ele>25.65</ele>
        <time>2021-04-06T10:28:04Z</time>
      </trkpt>
      <trkpt lat="57.55399" lon="-5.54266">
        <ele>23.42</ele>
        <time>2021-04-06T10:28:07Z</time>
      </trkpt>
      <trkpt lat="57.55377" lon="-5.54197">
        <ele>19.53</ele>
        <time>2021-04-06T10:28:10Z</time>
      </trkpt>
      <trkpt lat="57.55372" lon="-5.54165">
        <ele>20.12</ele>
        <time>2021-04-06T10:28:13Z</time>
      </trkpt>
      <trkpt lat="57.5537" lon="-5.54116">
        <ele>19.32</ele>
        <time>2021-04-06T10:28:16Z</time>
      </trkpt>
      <trkpt lat="57.55374" lon="-5.54071">
        <ele>20</ele>
        <time>2021-04-06T10:28:18Z</time>
      </trkpt>
      <trkpt lat="57.55373" lon="-5.54018">
        <ele>17.55</ele>
        <time>2021-04-06T10:28:21Z</time>
      </trkpt>
      <trkpt lat="57.55364" lon="-5.53983">
        <ele>14.7</ele>
        <time>2021-04-06T10:28:24Z</time>
      </trkpt>
      <trkpt lat="57.55346" lon="-5.5394">
        <ele>10.24</ele>
        <time>2021-04-06T10:28:27Z</time>
      </trkpt>
      <trkpt lat="57.55341" lon="-5.53911">
        <ele>8.59</ele>
        <time>2021-04-06T10:28:30Z</time>
      </trkpt>
      <trkpt lat="57.5533" lon="-5.53765">
        <ele>10.99</ele>
        <time>2021-04-06T10:28:33Z</time>
      </trkpt>
      <trkpt lat="57.55326" lon="-5.53726">
        <ele>11.59</ele>
        <time>2021-04-06T10:28:36Z</time>
      </trkpt>
      <trkpt lat="57.55319" lon="-5.53686">
        <ele>11.8</ele>
        <time>2021-04-06T10:28:38Z</time>
      </trkpt>
      <trkpt lat="57.55307" lon="-5.5366">
        <ele>10.77</ele>
        <time>2021-04-06T10:28:41Z</time>
      </trkpt>
      <trkpt lat="57.55278" lon="-5.53621">
        <ele>5.26</ele>
        <time>2021-04-06T10:28:44Z</time>
      </trkpt>
      <trkpt lat="57.55269" lon="-5.53597">
        <ele>5.07</ele>
        <time>2021-04-06T10:28:47Z</time>
      </trkpt>
      <trkpt lat="57.55262" lon="-5.53562">
        <ele>5.31</ele>
        <time>2021-04-06T10:28:50Z</time>
      </trkpt>
      <trkpt lat="57.55261" lon="-5.53523">
        <ele>5.3</ele>
        <time>2021-04-06T10:28:53Z</time>
      </trkpt>
      <trkpt lat="57.55262" lon="-5.53494">
        <ele>5.18</ele>
        <time>2021-04-06T10:28:56Z</time>
      </trkpt>
      <trkpt lat="57.55265" lon="-5.5347">
        <ele>5.61</ele>
        <time>2021-04-06T10:28:58Z</time>
      </trkpt>
      <trkpt lat="57.55273" lon="-5.53425">
        <ele>7.18</ele>
        <time>2021-04-06T10:29:01Z</time>
      </trkpt>
      <trkpt lat="57.55273" lon="-5.53397">
        <ele>7.82</ele>
        <time>2021-04-06T10:29:04Z</time>
      </trkpt>
      <trkpt lat="57.55271" lon="-5.53369">
        <ele>8.23</ele>
        <time>2021-04-06T10:29:07Z</time>
      </trkpt>
      <trkpt lat="57.55266" lon="-5.53341">
        <ele>8.17</ele>
        <time>2021-04-06T10:29:10Z</time>
      </trkpt>
      <trkpt lat="57.55255" lon="-5.53304">
        <ele>7.47</ele>
        <time>2021-04-06T10:29:13Z</time>
      </trkpt>
      <trkpt lat="57.55237" lon="-5.53254">
        <ele>7.41</ele>
        <time>2021-04-06T10:29:15Z</time>
      </trkpt>
      <trkpt lat="57.55221" lon="-5.53225">
        <ele>6.65</ele>
        <time>2021-04-06T10:29:18Z</time>
      </trkpt>
      <trkpt lat="57.55202" lon="-5.53202">
        <ele>6.47</ele>
        <time>2021-04-06T10:29:21Z</time>
      </trkpt>
      <trkpt lat="57.55157" lon="-5.53164">
        <ele>5.59</ele>
        <time>2021-04-06T10:29:24Z</time>
      </trkpt>
      <trkpt lat="57.55136" lon="-5.5315">
        <ele>4.93</ele>
        <time>2021-04-06T10:29:27Z</time>
      </trkpt>
      <trkpt lat="57.55106" lon="-5.53098">
        <ele>5.49</ele>
        <time>2021-04-06T10:29:30Z</time>
      </trkpt>
      <trkpt lat="57.55086" lon="-5.53042">
        <ele>5.81</ele>
        <time>2021-04-06T10:29:33Z</time>
      </trkpt>
      <trkpt lat="57.55066" lon="-5.52971">
        <ele>5.09</ele>
        <time>2021-04-06T10:29:35Z</time>
      </trkpt>
      <trkpt lat="57.55058" lon="-5.52925">
        <ele>4.37</ele>
        <time>2021-04-06T10:29:38Z</time>
      </trkpt>
      <trkpt lat="57.55057" lon="-5.5288">
        <ele>5.26</ele>
        <time>2021-04-06T10:29:41Z</time>
      </trkpt>
      <trkpt lat="57.55061" lon="-5.52843">
        <ele>6.02</ele>
        <time>2021-04-06T10:29:44Z</time>
      </trkpt>
      <trkpt lat="57.55076" lon="-5.5276">
        <ele>7.13</ele>
        <time>2021-04-06T10:29:47Z</time>
      </trkpt>
      <trkpt lat="57.55085" lon="-5.52631">
        <ele>6.16</ele>
        <time>2021-04-06T10:29:50Z</time>
      </trkpt>
      <trkpt lat="57.55085" lon="-5.52591">
        <ele>5.5</ele>
        <time>2021-04-06T10:29:53Z</time>
      </trkpt>
      <trkpt lat="57.55081" lon="-5.52556">
        <ele>5.72</ele>
        <time>2021-04-06T10:29:55Z</time>
      </trkpt>
      <trkpt lat="57.5507" lon="-5.52497">
        <ele>6.72</ele>
        <time>2021-04-06T10:29:58Z</time>
      </trkpt>
      <trkpt lat="57.55056" lon="-5.52432">
        <ele>5.61</ele>
        <time>2021-04-06T10:30:01Z</time>
      </trkpt>
      <trkpt lat="57.55052" lon="-5.52402">
        <ele>6.12</ele>
        <time>2021-04-06T10:30:04Z</time>
      </trkpt>
      <trkpt lat="57.55051" lon="-5.52356">
        <ele>7.64</ele>
        <time>2021-04-06T10:30:07Z</time>
      </trkpt>
      <trkpt lat="57.55047" lon="-5.52332">
        <ele>8.57</ele>
        <time>2021-04-06T10:30:10Z</time>
      </trkpt>
      <trkpt lat="57.55028" lon="-5.52276">
        <ele>5.99</ele>
        <time>2021-04-06T10:30:13Z</time>
      </trkpt>
      <trkpt lat="57.55016" lon="-5.52221">
        <ele>5.72</ele>
        <time>2021-04-06T10:30:15Z</time>
      </trkpt>
      <trkpt lat="57.55007" lon="-5.52141">
        <ele>5.01</ele>
        <time>2021-04-06T10:30:18Z</time>
      </trkpt>
      <trkpt lat="57.55009" lon="-5.52049">
        <ele>6.67</ele>
        <time>2021-04-06T10:30:21Z</time>
      </trkpt>
      <trkpt lat="57.55008" lon="-5.52035">
        <ele>6.58</ele>
        <time>2021-04-06T10:30:24Z</time>
      </trkpt>
      <trkpt lat="57.54998" lon="-5.51941">
        <ele>6.76</ele>
        <time>2021-04-06T10:30:27Z</time>
      </trkpt>
      <trkpt lat="57.54979" lon="-5.51802">
        <ele>5.48</ele>
        <time>2021-04-06T10:30:30Z</time>
      </trkpt>
      <trkpt lat="57.5497" lon="-5.51717">
        <ele>5.11</ele>
        <time>2021-04-06T10:30:33Z</time>
      </trkpt>
      <trkpt lat="57.54964" lon="-5.51675">
        <ele>6.39</ele>
        <time>2021-04-06T10:30:35Z</time>
      </trkpt>
      <trkpt lat="57.54955" lon="-5.5164">
        <ele>7.7</ele>
        <time>2021-04-06T10:30:38Z</time>
      </trkpt>
      <trkpt lat="57.54943" lon="-5.51609">
        <ele>9.12</ele>
        <time>2021-04-06T10:30:41Z</time>
      </trkpt>
      <trkpt lat="57.54926" lon="-5.51581">
        <ele>10.18</ele>
        <time>2021-04-06T10:30:44Z</time>
      </trkpt>
      <trkpt lat="57.54827" lon="-5.51463">
        <ele>11.65</ele>
        <time>2021-04-06T10:30:47Z</time>
      </trkpt>
      <trkpt lat="57.5478" lon="-5.51417">
        <ele>13.98</ele>
        <time>2021-04-06T10:30:50Z</time>
      </trkpt>
      <trkpt lat="57.54688" lon="-5.51336">
        <ele>18.82</ele>
        <time>2021-04-06T10:30:53Z</time>
      </trkpt>
      <trkpt lat="57.54575" lon="-5.5121">
        <ele>18.65</ele>
        <time>2021-04-06T10:30:55Z</time>
      </trkpt>
      <trkpt lat="57.5452" lon="-5.51144">
        <ele>20.24</ele>
        <time>2021-04-06T10:30:58Z</time>
      </trkpt>
      <trkpt lat="57.54491" lon="-5.51099">
        <ele>19.48</ele>
        <time>2021-04-06T10:31:01Z</time>
      </trkpt>
      <trkpt lat="57.54442" lon="-5.51003">
        <ele>19.62</ele>
        <time>2021-04-06T10:31:04Z</time>
      </trkpt>
      <trkpt lat="57.54422" lon="-5.50957">
        <ele>18.91</ele>
        <time>2021-04-06T10:31:07Z</time>
      </trkpt>
      <trkpt lat="57.54406" lon="-5.50916">
        <ele>18.3</ele>
        <time>2021-04-06T10:31:10Z</time>
      </trkpt>
      <trkpt lat="57.5439" lon="-5.50862">
        <ele>18.11</ele>
        <time>2021-04-06T10:31:12Z</time>
      </trkpt>
      <trkpt lat="57.5438" lon="-5.50816">
        <ele>18</ele>
        <time>2021-04-06T10:31:15Z</time>
      </trkpt>
      <trkpt lat="57.54371" lon="-5.50764">
        <ele>16.7</ele>
        <time>2021-04-06T10:31:18Z</time>
      </trkpt>
      <trkpt lat="57.54369" lon="-5.50736">
        <ele>16.58</ele>
        <time>2021-04-06T10:31:21Z</time>
      </trkpt>
      <trkpt lat="57.54369" lon="-5.50675">
        <ele>16.56</ele>
        <time>2021-04-06T10:31:24Z</time>
      </trkpt>
      <trkpt lat="57.54371" lon="-5.50583">
        <ele>16.69</ele>
        <time>2021-04-06T10:31:27Z</time>
      </trkpt>
      <trkpt lat="57.54376" lon="-5.50503">
        <ele>16.15</ele>
        <time>2021-04-06T10:31:30Z</time>
      </trkpt>
      <trkpt lat="57.54382" lon="-5.50464">
        <ele>16.48</ele>
        <time>2021-04-06T10:31:32Z</time>
      </trkpt>
      <trkpt lat="57.54386" lon="-5.50409">
        <ele>16.49</ele>
        <time>2021-04-06T10:31:35Z</time>
      </trkpt>
      <trkpt lat="57.54382" lon="-5.50358">
        <ele>15.49</ele>
        <time>2021-04-06T10:31:38Z</time>
      </trkpt>
      <trkpt lat="57.54376" lon="-5.50335">
        <ele>15.07</ele>
        <time>2021-04-06T10:31:41Z</time>
      </trkpt>
      <trkpt lat="57.54348" lon="-5.50247">
        <ele>14.52</ele>
        <time>2021-04-06T10:31:44Z</time>
      </trkpt>
      <trkpt lat="57.54309" lon="-5.50148">
        <ele>13</ele>
        <time>2021-04-06T10:31:47Z</time>
      </trkpt>
      <trkpt lat="57.54296" lon="-5.50111">
        <ele>13</ele>
        <time>2021-04-06T10:31:50Z</time>
      </trkpt>
      <trkpt lat="57.54278" lon="-5.50106">
        <ele>13</ele>
        <time>2021-04-06T10:31:52Z</time>
      </trkpt>
      <trkpt lat="57.54263" lon="-5.50024">
        <ele>13.58</ele>
        <time>2021-04-06T10:31:56Z</time>
      </trkpt>
      <trkpt lat="57.5419" lon="-5.49804">
        <ele>13.06</ele>
        <time>2021-04-06T10:32:01Z</time>
      </trkpt>
      <trkpt lat="57.5417" lon="-5.49722">
        <ele>15</ele>
        <time>2021-04-06T10:32:05Z</time>
      </trkpt>
      <trkpt lat="57.54149" lon="-5.49609">
        <ele>15.03</ele>
        <time>2021-04-06T10:32:09Z</time>
      </trkpt>
      <trkpt lat="57.54146" lon="-5.49587">
        <ele>15.21</ele>
        <time>2021-04-06T10:32:13Z</time>
      </trkpt>
      <trkpt lat="57.54114" lon="-5.49239">
        <ele>19.25</ele>
        <time>2021-04-06T10:32:17Z</time>
      </trkpt>
      <trkpt lat="57.54105" lon="-5.49187">
        <ele>20</ele>
        <time>2021-04-06T10:32:21Z</time>
      </trkpt>
      <trkpt lat="57.54076" lon="-5.49052">
        <ele>19.53</ele>
        <time>2021-04-06T10:32:25Z</time>
      </trkpt>
      <trkpt lat="57.54053" lon="-5.48904">
        <ele>22.65</ele>
        <time>2021-04-06T10:32:29Z</time>
      </trkpt>
      <trkpt lat="57.54043" lon="-5.48799">
        <ele>21.82</ele>
        <time>2021-04-06T10:32:33Z</time>
      </trkpt>
      <trkpt lat="57.54043" lon="-5.48799">
        <ele>21.82</ele>
        <time>2021-04-06T10:32:33Z</time>
      </trkpt>
      <trkpt lat="57.54048" lon="-5.48663">
        <ele>23.49</ele>
        <time>2021-04-06T10:32:36Z</time>
      </trkpt>
      <trkpt lat="57.54052" lon="-5.48629">
        <ele>23.75</ele>
        <time>2021-04-06T10:32:39Z</time>
      </trkpt>
      <trkpt lat="57.54065" lon="-5.48543">
        <ele>23.94</ele>
        <time>2021-04-06T10:32:43Z</time>
      </trkpt>
      <trkpt lat="57.54095" lon="-5.48394">
        <ele>28.15</ele>
        <time>2021-04-06T10:32:46Z</time>
      </trkpt>
      <trkpt lat="57.54148" lon="-5.4819">
        <ele>27.42</ele>
        <time>2021-04-06T10:32:49Z</time>
      </trkpt>
      <trkpt lat="57.54282" lon="-5.47859">
        <ele>31.07</ele>
        <time>2021-04-06T10:32:52Z</time>
      </trkpt>
      <trkpt lat="57.54304" lon="-5.4779">
        <ele>30.92</ele>
        <time>2021-04-06T10:32:56Z</time>
      </trkpt>
      <trkpt lat="57.54314" lon="-5.4771">
        <ele>32.58</ele>
        <time>2021-04-06T10:32:59Z</time>
      </trkpt>
      <trkpt lat="57.54318" lon="-5.47618">
        <ele>32.47</ele>
        <time>2021-04-06T10:33:02Z</time>
      </trkpt>
      <trkpt lat="57.54343" lon="-5.47554">
        <ele>34.66</ele>
        <time>2021-04-06T10:33:05Z</time>
      </trkpt>
      <trkpt lat="57.54385" lon="-5.47503">
        <ele>35.1</ele>
        <time>2021-04-06T10:33:09Z</time>
      </trkpt>
      <trkpt lat="57.54436" lon="-5.47455">
        <ele>35.73</ele>
        <time>2021-04-06T10:33:12Z</time>
      </trkpt>
      <trkpt lat="57.54471" lon="-5.47428">
        <ele>36.92</ele>
        <time>2021-04-06T10:33:15Z</time>
      </trkpt>
      <trkpt lat="57.54501" lon="-5.47387">
        <ele>38.06</ele>
        <time>2021-04-06T10:33:18Z</time>
      </trkpt>
      <trkpt lat="57.54545" lon="-5.47297">
        <ele>40.92</ele>
        <time>2021-04-06T10:33:21Z</time>
      </trkpt>
      <trkpt lat="57.54612" lon="-5.47142">
        <ele>43.21</ele>
        <time>2021-04-06T10:33:25Z</time>
      </trkpt>
      <trkpt lat="57.5468" lon="-5.46965">
        <ele>44.71</ele>
        <time>2021-04-06T10:33:28Z</time>
      </trkpt>
      <trkpt lat="57.5479" lon="-5.46611">
        <ele>51.85</ele>
        <time>2021-04-06T10:33:31Z</time>
      </trkpt>
      <trkpt lat="57.54851" lon="-5.46424">
        <ele>54.64</ele>
        <time>2021-04-06T10:33:34Z</time>
      </trkpt>
      <trkpt lat="57.54912" lon="-5.46271">
        <ele>56.85</ele>
        <time>2021-04-06T10:33:38Z</time>
      </trkpt>
      <trkpt lat="57.55011" lon="-5.46076">
        <ele>63.42</ele>
        <time>2021-04-06T10:33:41Z</time>
      </trkpt>
      <trkpt lat="57.55047" lon="-5.46014">
        <ele>61.63</ele>
        <time>2021-04-06T10:33:44Z</time>
      </trkpt>
      <trkpt lat="57.55066" lon="-5.45991">
        <ele>61.71</ele>
        <time>2021-04-06T10:33:47Z</time>
      </trkpt>
      <trkpt lat="57.55183" lon="-5.45896">
        <ele>62.88</ele>
        <time>2021-04-06T10:33:51Z</time>
      </trkpt>
      <trkpt lat="57.55206" lon="-5.45873">
        <ele>61.45</ele>
        <time>2021-04-06T10:33:54Z</time>
      </trkpt>
      <trkpt lat="57.55229" lon="-5.45832">
        <ele>58.14</ele>
        <time>2021-04-06T10:33:57Z</time>
      </trkpt>
      <trkpt lat="57.55242" lon="-5.45776">
        <ele>57.4</ele>
        <time>2021-04-06T10:34:00Z</time>
      </trkpt>
      <trkpt lat="57.55262" lon="-5.45623">
        <ele>57.28</ele>
        <time>2021-04-06T10:34:04Z</time>
      </trkpt>
      <trkpt lat="57.55297" lon="-5.4544">
        <ele>58.79</ele>
        <time>2021-04-06T10:34:07Z</time>
      </trkpt>
      <trkpt lat="57.55298" lon="-5.45405">
        <ele>58.44</ele>
        <time>2021-04-06T10:34:10Z</time>
      </trkpt>
      <trkpt lat="57.55293" lon="-5.45379">
        <ele>57.14</ele>
        <time>2021-04-06T10:34:13Z</time>
      </trkpt>
      <trkpt lat="57.55274" lon="-5.45318">
        <ele>55.69</ele>
        <time>2021-04-06T10:34:17Z</time>
      </trkpt>
      <trkpt lat="57.55268" lon="-5.45291">
        <ele>55.51</ele>
        <time>2021-04-06T10:34:20Z</time>
      </trkpt>
      <trkpt lat="57.55267" lon="-5.45259">
        <ele>55.99</ele>
        <time>2021-04-06T10:34:23Z</time>
      </trkpt>
      <trkpt lat="57.55267" lon="-5.44983">
        <ele>59.87</ele>
        <time>2021-04-06T10:34:26Z</time>
      </trkpt>
      <trkpt lat="57.55266" lon="-5.44846">
        <ele>60.24</ele>
        <time>2021-04-06T10:34:30Z</time>
      </trkpt>
      <trkpt lat="57.55259" lon="-5.44698">
        <ele>62.97</ele>
        <time>2021-04-06T10:34:33Z</time>
      </trkpt>
      <trkpt lat="57.55259" lon="-5.44612">
        <ele>64.31</ele>
        <time>2021-04-06T10:34:36Z</time>
      </trkpt>
      <trkpt lat="57.55271" lon="-5.44355">
        <ele>63.67</ele>
        <time>2021-04-06T10:34:39Z</time>
      </trkpt>
      <trkpt lat="57.55274" lon="-5.44229">
        <ele>65.51</ele>
        <time>2021-04-06T10:34:42Z</time>
      </trkpt>
      <trkpt lat="57.55283" lon="-5.44155">
        <ele>65.03</ele>
        <time>2021-04-06T10:34:46Z</time>
      </trkpt>
      <trkpt lat="57.55302" lon="-5.44056">
        <ele>67.34</ele>
        <time>2021-04-06T10:34:49Z</time>
      </trkpt>
      <trkpt lat="57.55319" lon="-5.43949">
        <ele>67.21</ele>
        <time>2021-04-06T10:34:52Z</time>
      </trkpt>
      <trkpt lat="57.55333" lon="-5.43877">
        <ele>67.99</ele>
        <time>2021-04-06T10:34:55Z</time>
      </trkpt>
      <trkpt lat="57.55335" lon="-5.4384">
        <ele>68.22</ele>
        <time>2021-04-06T10:34:59Z</time>
      </trkpt>
      <trkpt lat="57.55335" lon="-5.4381">
        <ele>68.16</ele>
        <time>2021-04-06T10:35:02Z</time>
      </trkpt>
      <trkpt lat="57.55317" lon="-5.43724">
        <ele>68.79</ele>
        <time>2021-04-06T10:35:05Z</time>
      </trkpt>
      <trkpt lat="57.55315" lon="-5.43672">
        <ele>69.48</ele>
        <time>2021-04-06T10:35:08Z</time>
      </trkpt>
      <trkpt lat="57.55329" lon="-5.43591">
        <ele>70.68</ele>
        <time>2021-04-06T10:35:12Z</time>
      </trkpt>
      <trkpt lat="57.55347" lon="-5.43513">
        <ele>71.42</ele>
        <time>2021-04-06T10:35:15Z</time>
      </trkpt>
      <trkpt lat="57.55355" lon="-5.43448">
        <ele>72.37</ele>
        <time>2021-04-06T10:35:18Z</time>
      </trkpt>
      <trkpt lat="57.55358" lon="-5.43389">
        <ele>73.74</ele>
        <time>2021-04-06T10:35:21Z</time>
      </trkpt>
      <trkpt lat="57.55356" lon="-5.43302">
        <ele>73.47</ele>
        <time>2021-04-06T10:35:25Z</time>
      </trkpt>
      <trkpt lat="57.55325" lon="-5.43109">
        <ele>69.37</ele>
        <time>2021-04-06T10:35:28Z</time>
      </trkpt>
      <trkpt lat="57.55314" lon="-5.43015">
        <ele>70.08</ele>
        <time>2021-04-06T10:35:31Z</time>
      </trkpt>
      <trkpt lat="57.55307" lon="-5.42848">
        <ele>72.64</ele>
        <time>2021-04-06T10:35:34Z</time>
      </trkpt>
      <trkpt lat="57.55307" lon="-5.4278">
        <ele>74.15</ele>
        <time>2021-04-06T10:35:38Z</time>
      </trkpt>
      <trkpt lat="57.55311" lon="-5.42727">
        <ele>76.02</ele>
        <time>2021-04-06T10:35:41Z</time>
      </trkpt>
      <trkpt lat="57.55327" lon="-5.42656">
        <ele>78.5</ele>
        <time>2021-04-06T10:35:44Z</time>
      </trkpt>
      <trkpt lat="57.55351" lon="-5.42433">
        <ele>78.62</ele>
        <time>2021-04-06T10:35:47Z</time>
      </trkpt>
      <trkpt lat="57.55349" lon="-5.42372">
        <ele>78.57</ele>
        <time>2021-04-06T10:35:50Z</time>
      </trkpt>
      <trkpt lat="57.55344" lon="-5.42323">
        <ele>78</ele>
        <time>2021-04-06T10:35:54Z</time>
      </trkpt>
      <trkpt lat="57.55327" lon="-5.42242">
        <ele>79.87</ele>
        <time>2021-04-06T10:35:57Z</time>
      </trkpt>
      <trkpt lat="57.55304" lon="-5.42162">
        <ele>80.86</ele>
        <time>2021-04-06T10:36:00Z</time>
      </trkpt>
      <trkpt lat="57.55304" lon="-5.42129">
        <ele>80.89</ele>
        <time>2021-04-06T10:36:03Z</time>
      </trkpt>
      <trkpt lat="57.55333" lon="-5.42025">
        <ele>82.1</ele>
        <time>2021-04-06T10:36:07Z</time>
      </trkpt>
      <trkpt lat="57.55344" lon="-5.41967">
        <ele>84.01</ele>
        <time>2021-04-06T10:36:10Z</time>
      </trkpt>
      <trkpt lat="57.55344" lon="-5.4194">
        <ele>83.27</ele>
        <time>2021-04-06T10:36:13Z</time>
      </trkpt>
      <trkpt lat="57.5536" lon="-5.41886">
        <ele>83.83</ele>
        <time>2021-04-06T10:36:16Z</time>
      </trkpt>
      <trkpt lat="57.55393" lon="-5.41801">
        <ele>85.93</ele>
        <time>2021-04-06T10:36:20Z</time>
      </trkpt>
      <trkpt lat="57.55427" lon="-5.41675">
        <ele>85</ele>
        <time>2021-04-06T10:36:23Z</time>
      </trkpt>
      <trkpt lat="57.55456" lon="-5.41536">
        <ele>85</ele>
        <time>2021-04-06T10:36:26Z</time>
      </trkpt>
      <trkpt lat="57.5547" lon="-5.41518">
        <ele>84.97</ele>
        <time>2021-04-06T10:36:29Z</time>
      </trkpt>
      <trkpt lat="57.55512" lon="-5.41449">
        <ele>85.62</ele>
        <time>2021-04-06T10:36:33Z</time>
      </trkpt>
      <trkpt lat="57.55522" lon="-5.41426">
        <ele>85.26</ele>
        <time>2021-04-06T10:36:36Z</time>
      </trkpt>
      <trkpt lat="57.55564" lon="-5.41285">
        <ele>85.54</ele>
        <time>2021-04-06T10:36:39Z</time>
      </trkpt>
      <trkpt lat="57.55622" lon="-5.40963">
        <ele>87.38</ele>
        <time>2021-04-06T10:36:42Z</time>
      </trkpt>
      <trkpt lat="57.55652" lon="-5.40835">
        <ele>88.46</ele>
        <time>2021-04-06T10:36:46Z</time>
      </trkpt>
      <trkpt lat="57.55666" lon="-5.40762">
        <ele>88</ele>
        <time>2021-04-06T10:36:49Z</time>
      </trkpt>
      <trkpt lat="57.55672" lon="-5.4071">
        <ele>89</ele>
        <time>2021-04-06T10:36:52Z</time>
      </trkpt>
      <trkpt lat="57.55672" lon="-5.40667">
        <ele>89</ele>
        <time>2021-04-06T10:36:55Z</time>
      </trkpt>
      <trkpt lat="57.5567" lon="-5.40616">
        <ele>89</ele>
        <time>2021-04-06T10:36:59Z</time>
      </trkpt>
      <trkpt lat="57.55653" lon="-5.40567">
        <ele>88.8</ele>
        <time>2021-04-06T10:37:02Z</time>
      </trkpt>
      <trkpt lat="57.55648" lon="-5.40514">
        <ele>89.16</ele>
        <time>2021-04-06T10:37:05Z</time>
      </trkpt>
      <trkpt lat="57.55655" lon="-5.4044">
        <ele>89.67</ele>
        <time>2021-04-06T10:37:08Z</time>
      </trkpt>
      <trkpt lat="57.55667" lon="-5.40373">
        <ele>92.01</ele>
        <time>2021-04-06T10:37:11Z</time>
      </trkpt>
      <trkpt lat="57.55675" lon="-5.40315">
        <ele>92.97</ele>
        <time>2021-04-06T10:37:15Z</time>
      </trkpt>
      <trkpt lat="57.55686" lon="-5.40247">
        <ele>93</ele>
        <time>2021-04-06T10:37:18Z</time>
      </trkpt>
      <trkpt lat="57.557" lon="-5.40195">
        <ele>92.84</ele>
        <time>2021-04-06T10:37:21Z</time>
      </trkpt>
      <trkpt lat="57.55725" lon="-5.4014">
        <ele>93.36</ele>
        <time>2021-04-06T10:37:24Z</time>
      </trkpt>
      <trkpt lat="57.55742" lon="-5.40084">
        <ele>94.08</ele>
        <time>2021-04-06T10:37:28Z</time>
      </trkpt>
      <trkpt lat="57.55762" lon="-5.40037">
        <ele>94.19</ele>
        <time>2021-04-06T10:37:31Z</time>
      </trkpt>
      <trkpt lat="57.55801" lon="-5.39989">
        <ele>94.37</ele>
        <time>2021-04-06T10:37:34Z</time>
      </trkpt>
      <trkpt lat="57.55836" lon="-5.39942">
        <ele>95.19</ele>
        <time>2021-04-06T10:37:37Z</time>
      </trkpt>
      <trkpt lat="57.5587" lon="-5.39886">
        <ele>95.91</ele>
        <time>2021-04-06T10:37:41Z</time>
      </trkpt>
      <trkpt lat="57.55905" lon="-5.39809">
        <ele>96.3</ele>
        <time>2021-04-06T10:37:44Z</time>
      </trkpt>
      <trkpt lat="57.55971" lon="-5.3962">
        <ele>97.29</ele>
        <time>2021-04-06T10:37:47Z</time>
      </trkpt>
      <trkpt lat="57.55991" lon="-5.39555">
        <ele>96.35</ele>
        <time>2021-04-06T10:37:50Z</time>
      </trkpt>
      <trkpt lat="57.56012" lon="-5.39501">
        <ele>96.44</ele>
        <time>2021-04-06T10:37:54Z</time>
      </trkpt>
      <trkpt lat="57.56023" lon="-5.39484">
        <ele>96.83</ele>
        <time>2021-04-06T10:37:57Z</time>
      </trkpt>
      <trkpt lat="57.56041" lon="-5.39477">
        <ele>98.01</ele>
        <time>2021-04-06T10:38:00Z</time>
      </trkpt>
      <trkpt lat="57.56082" lon="-5.39449">
        <ele>99.22</ele>
        <time>2021-04-06T10:38:03Z</time>
      </trkpt>
      <trkpt lat="57.5611" lon="-5.39406">
        <ele>99.11</ele>
        <time>2021-04-06T10:38:07Z</time>
      </trkpt>
      <trkpt lat="57.56147" lon="-5.39333">
        <ele>97.83</ele>
        <time>2021-04-06T10:38:10Z</time>
      </trkpt>
      <trkpt lat="57.56216" lon="-5.39174">
        <ele>101.76</ele>
        <time>2021-04-06T10:38:13Z</time>
      </trkpt>
      <trkpt lat="57.5626" lon="-5.39054">
        <ele>101.34</ele>
        <time>2021-04-06T10:38:16Z</time>
      </trkpt>
      <trkpt lat="57.56288" lon="-5.38967">
        <ele>101.72</ele>
        <time>2021-04-06T10:38:19Z</time>
      </trkpt>
      <trkpt lat="57.56377" lon="-5.38732">
        <ele>101.57</ele>
        <time>2021-04-06T10:38:23Z</time>
      </trkpt>
      <trkpt lat="57.56451" lon="-5.38529">
        <ele>106.23</ele>
        <time>2021-04-06T10:38:26Z</time>
      </trkpt>
      <trkpt lat="57.56469" lon="-5.38453">
        <ele>107.18</ele>
        <time>2021-04-06T10:38:29Z</time>
      </trkpt>
      <trkpt lat="57.56483" lon="-5.38376">
        <ele>106.28</ele>
        <time>2021-04-06T10:38:32Z</time>
      </trkpt>
      <trkpt lat="57.5649" lon="-5.38319">
        <ele>105.27</ele>
        <time>2021-04-06T10:38:36Z</time>
      </trkpt>
      <trkpt lat="57.56501" lon="-5.38024">
        <ele>108.28</ele>
        <time>2021-04-06T10:38:39Z</time>
      </trkpt>
      <trkpt lat="57.56504" lon="-5.37864">
        <ele>112.49</ele>
        <time>2021-04-06T10:38:42Z</time>
      </trkpt>
      <trkpt lat="57.56514" lon="-5.37809">
        <ele>115.06</ele>
        <time>2021-04-06T10:38:45Z</time>
      </trkpt>
      <trkpt lat="57.56532" lon="-5.37703">
        <ele>113.85</ele>
        <time>2021-04-06T10:38:49Z</time>
      </trkpt>
      <trkpt lat="57.56543" lon="-5.37612">
        <ele>110.69</ele>
        <time>2021-04-06T10:38:52Z</time>
      </trkpt>
      <trkpt lat="57.56538" lon="-5.37532">
        <ele>109.11</ele>
        <time>2021-04-06T10:38:55Z</time>
      </trkpt>
      <trkpt lat="57.56533" lon="-5.37477">
        <ele>108.43</ele>
        <time>2021-04-06T10:38:58Z</time>
      </trkpt>
      <trkpt lat="57.56517" lon="-5.37423">
        <ele>108.64</ele>
        <time>2021-04-06T10:39:02Z</time>
      </trkpt>
      <trkpt lat="57.5649" lon="-5.37384">
        <ele>108.04</ele>
        <time>2021-04-06T10:39:05Z</time>
      </trkpt>
      <trkpt lat="57.56416" lon="-5.37269">
        <ele>102.24</ele>
        <time>2021-04-06T10:39:08Z</time>
      </trkpt>
      <trkpt lat="57.56379" lon="-5.37191">
        <ele>100.79</ele>
        <time>2021-04-06T10:39:11Z</time>
      </trkpt>
      <trkpt lat="57.56363" lon="-5.37144">
        <ele>100.11</ele>
        <time>2021-04-06T10:39:15Z</time>
      </trkpt>
      <trkpt lat="57.56349" lon="-5.37063">
        <ele>100.18</ele>
        <time>2021-04-06T10:39:18Z</time>
      </trkpt>
      <trkpt lat="57.56352" lon="-5.36934">
        <ele>99.37</ele>
        <time>2021-04-06T10:39:21Z</time>
      </trkpt>
      <trkpt lat="57.56356" lon="-5.36796">
        <ele>98.27</ele>
        <time>2021-04-06T10:39:24Z</time>
      </trkpt>
      <trkpt lat="57.56363" lon="-5.36719">
        <ele>101.21</ele>
        <time>2021-04-06T10:39:28Z</time>
      </trkpt>
      <trkpt lat="57.56377" lon="-5.36655">
        <ele>102.7</ele>
        <time>2021-04-06T10:39:31Z</time>
      </trkpt>
      <trkpt lat="57.56411" lon="-5.36578">
        <ele>102.56</ele>
        <time>2021-04-06T10:39:34Z</time>
      </trkpt>
      <trkpt lat="57.56455" lon="-5.36496">
        <ele>104.01</ele>
        <time>2021-04-06T10:39:37Z</time>
      </trkpt>
      <trkpt lat="57.56487" lon="-5.36427">
        <ele>104.44</ele>
        <time>2021-04-06T10:39:40Z</time>
      </trkpt>
      <trkpt lat="57.56501" lon="-5.36372">
        <ele>103.49</ele>
        <time>2021-04-06T10:39:44Z</time>
      </trkpt>
      <trkpt lat="57.56517" lon="-5.36286">
        <ele>103.86</ele>
        <time>2021-04-06T10:39:47Z</time>
      </trkpt>
      <trkpt lat="57.56531" lon="-5.362">
        <ele>105.36</ele>
        <time>2021-04-06T10:39:50Z</time>
      </trkpt>
      <trkpt lat="57.56547" lon="-5.36118">
        <ele>105.36</ele>
        <time>2021-04-06T10:39:53Z</time>
      </trkpt>
      <trkpt lat="57.56568" lon="-5.36041">
        <ele>106.1</ele>
        <time>2021-04-06T10:39:57Z</time>
      </trkpt>
      <trkpt lat="57.56598" lon="-5.35955">
        <ele>108.47</ele>
        <time>2021-04-06T10:40:00Z</time>
      </trkpt>
      <trkpt lat="57.56625" lon="-5.35861">
        <ele>108.04</ele>
        <time>2021-04-06T10:40:03Z</time>
      </trkpt>
      <trkpt lat="57.56644" lon="-5.35771">
        <ele>105.67</ele>
        <time>2021-04-06T10:40:06Z</time>
      </trkpt>
      <trkpt lat="57.56659" lon="-5.35668">
        <ele>107.15</ele>
        <time>2021-04-06T10:40:10Z</time>
      </trkpt>
      <trkpt lat="57.56676" lon="-5.3553">
        <ele>108.36</ele>
        <time>2021-04-06T10:40:13Z</time>
      </trkpt>
      <trkpt lat="57.56688" lon="-5.35462">
        <ele>107.88</ele>
        <time>2021-04-06T10:40:16Z</time>
      </trkpt>
      <trkpt lat="57.56729" lon="-5.35367">
        <ele>111.28</ele>
        <time>2021-04-06T10:40:19Z</time>
      </trkpt>
      <trkpt lat="57.56738" lon="-5.3532">
        <ele>111.88</ele>
        <time>2021-04-06T10:40:23Z</time>
      </trkpt>
      <trkpt lat="57.56738" lon="-5.35273">
        <ele>113.06</ele>
        <time>2021-04-06T10:40:26Z</time>
      </trkpt>
      <trkpt lat="57.56722" lon="-5.35226">
        <ele>111.86</ele>
        <time>2021-04-06T10:40:29Z</time>
      </trkpt>
      <trkpt lat="57.56693" lon="-5.35162">
        <ele>110.79</ele>
        <time>2021-04-06T10:40:32Z</time>
      </trkpt>
      <trkpt lat="57.56676" lon="-5.3509">
        <ele>109.82</ele>
        <time>2021-04-06T10:40:36Z</time>
      </trkpt>
      <trkpt lat="57.56661" lon="-5.34992">
        <ele>110.39</ele>
        <time>2021-04-06T10:40:39Z</time>
      </trkpt>
      <trkpt lat="57.5666" lon="-5.349">
        <ele>110.13</ele>
        <time>2021-04-06T10:40:42Z</time>
      </trkpt>
      <trkpt lat="57.56674" lon="-5.34788">
        <ele>108.62</ele>
        <time>2021-04-06T10:40:45Z</time>
      </trkpt>
      <trkpt lat="57.567" lon="-5.34689">
        <ele>108.55</ele>
        <time>2021-04-06T10:40:48Z</time>
      </trkpt>
      <trkpt lat="57.56732" lon="-5.34619">
        <ele>109.07</ele>
        <time>2021-04-06T10:40:52Z</time>
      </trkpt>
      <trkpt lat="57.56766" lon="-5.34565">
        <ele>109.09</ele>
        <time>2021-04-06T10:40:55Z</time>
      </trkpt>
      <trkpt lat="57.56796" lon="-5.34509">
        <ele>107.94</ele>
        <time>2021-04-06T10:40:58Z</time>
      </trkpt>
      <trkpt lat="57.56865" lon="-5.34309">
        <ele>106.64</ele>
        <time>2021-04-06T10:41:01Z</time>
      </trkpt>
      <trkpt lat="57.56911" lon="-5.34188">
        <ele>104.66</ele>
        <time>2021-04-06T10:41:05Z</time>
      </trkpt>
      <trkpt lat="57.56957" lon="-5.34071">
        <ele>106.26</ele>
        <time>2021-04-06T10:41:08Z</time>
      </trkpt>
      <trkpt lat="57.57012" lon="-5.33943">
        <ele>104.37</ele>
        <time>2021-04-06T10:41:11Z</time>
      </trkpt>
      <trkpt lat="57.57061" lon="-5.33842">
        <ele>103.9</ele>
        <time>2021-04-06T10:41:14Z</time>
      </trkpt>
      <trkpt lat="57.57105" lon="-5.33727">
        <ele>104.44</ele>
        <time>2021-04-06T10:41:18Z</time>
      </trkpt>
      <trkpt lat="57.5714" lon="-5.33611">
        <ele>102.06</ele>
        <time>2021-04-06T10:41:21Z</time>
      </trkpt>
      <trkpt lat="57.57175" lon="-5.33459">
        <ele>99.42</ele>
        <time>2021-04-06T10:41:24Z</time>
      </trkpt>
      <trkpt lat="57.57191" lon="-5.33383">
        <ele>99.41</ele>
        <time>2021-04-06T10:41:27Z</time>
      </trkpt>
      <trkpt lat="57.572" lon="-5.33323">
        <ele>98.18</ele>
        <time>2021-04-06T10:41:31Z</time>
      </trkpt>
      <trkpt lat="57.57215" lon="-5.33264">
        <ele>96.21</ele>
        <time>2021-04-06T10:41:34Z</time>
      </trkpt>
      <trkpt lat="57.57246" lon="-5.33171">
        <ele>94.38</ele>
        <time>2021-04-06T10:41:37Z</time>
      </trkpt>
      <trkpt lat="57.57265" lon="-5.3308">
        <ele>95.57</ele>
        <time>2021-04-06T10:41:40Z</time>
      </trkpt>
      <trkpt lat="57.57275" lon="-5.33011">
        <ele>93.21</ele>
        <time>2021-04-06T10:41:44Z</time>
      </trkpt>
      <trkpt lat="57.57282" lon="-5.32927">
        <ele>91.05</ele>
        <time>2021-04-06T10:41:47Z</time>
      </trkpt>
      <trkpt lat="57.57285" lon="-5.32908">
        <ele>90.83</ele>
        <time>2021-04-06T10:41:50Z</time>
      </trkpt>
      <trkpt lat="57.57302" lon="-5.32856">
        <ele>90.12</ele>
        <time>2021-04-06T10:41:53Z</time>
      </trkpt>
      <trkpt lat="57.57314" lon="-5.32835">
        <ele>90.33</ele>
        <time>2021-04-06T10:41:56Z</time>
      </trkpt>
      <trkpt lat="57.57436" lon="-5.32681">
        <ele>90.6</ele>
        <time>2021-04-06T10:42:00Z</time>
      </trkpt>
      <trkpt lat="57.57478" lon="-5.32613">
        <ele>88.85</ele>
        <time>2021-04-06T10:42:03Z</time>
      </trkpt>
      <trkpt lat="57.57502" lon="-5.32562">
        <ele>87.81</ele>
        <time>2021-04-06T10:42:06Z</time>
      </trkpt>
      <trkpt lat="57.5752" lon="-5.32512">
        <ele>88.34</ele>
        <time>2021-04-06T10:42:09Z</time>
      </trkpt>
      <trkpt lat="57.57563" lon="-5.32366">
        <ele>83.43</ele>
        <time>2021-04-06T10:42:13Z</time>
      </trkpt>
      <trkpt lat="57.5759" lon="-5.32329">
        <ele>82.07</ele>
        <time>2021-04-06T10:42:16Z</time>
      </trkpt>
      <trkpt lat="57.57636" lon="-5.32252">
        <ele>81.89</ele>
        <time>2021-04-06T10:42:19Z</time>
      </trkpt>
      <trkpt lat="57.57686" lon="-5.32157">
        <ele>80.08</ele>
        <time>2021-04-06T10:42:22Z</time>
      </trkpt>
      <trkpt lat="57.57783" lon="-5.31949">
        <ele>81.36</ele>
        <time>2021-04-06T10:42:26Z</time>
      </trkpt>
      <trkpt lat="57.5786" lon="-5.31772">
        <ele>79.48</ele>
        <time>2021-04-06T10:42:29Z</time>
      </trkpt>
      <trkpt lat="57.57876" lon="-5.31742">
        <ele>77.96</ele>
        <time>2021-04-06T10:42:32Z</time>
      </trkpt>
      <trkpt lat="57.57951" lon="-5.31648">
        <ele>77.09</ele>
        <time>2021-04-06T10:42:35Z</time>
      </trkpt>
      <trkpt lat="57.58227" lon="-5.31325">
        <ele>72.72</ele>
        <time>2021-04-06T10:42:39Z</time>
      </trkpt>
      <trkpt lat="57.58341" lon="-5.31212">
        <ele>70.27</ele>
        <time>2021-04-06T10:42:42Z</time>
      </trkpt>
      <trkpt lat="57.58368" lon="-5.31192">
        <ele>69.67</ele>
        <time>2021-04-06T10:42:45Z</time>
      </trkpt>
      <trkpt lat="57.58368" lon="-5.31192">
        <ele>69.67</ele>
        <time>2021-04-06T10:42:45Z</time>
      </trkpt>
      <trkpt lat="57.58604" lon="-5.31089">
        <ele>68.53</ele>
        <time>2021-04-06T10:42:54Z</time>
      </trkpt>
      <trkpt lat="57.58761" lon="-5.31026">
        <ele>66.43</ele>
        <time>2021-04-06T10:43:03Z</time>
      </trkpt>
      <trkpt lat="57.59115" lon="-5.30908">
        <ele>60.31</ele>
        <time>2021-04-06T10:43:12Z</time>
      </trkpt>
      <trkpt lat="57.59245" lon="-5.30849">
        <ele>55.55</ele>
        <time>2021-04-06T10:43:21Z</time>
      </trkpt>
      <trkpt lat="57.5936" lon="-5.30774">
        <ele>50.84</ele>
        <time>2021-04-06T10:43:30Z</time>
      </trkpt>
      <trkpt lat="57.59485" lon="-5.30715">
        <ele>45.28</ele>
        <time>2021-04-06T10:43:39Z</time>
      </trkpt>
      <trkpt lat="57.59529" lon="-5.30691">
        <ele>43.71</ele>
        <time>2021-04-06T10:43:47Z</time>
      </trkpt>
      <trkpt lat="57.59608" lon="-5.30614">
        <ele>41.86</ele>
        <time>2021-04-06T10:43:56Z</time>
      </trkpt>
      <trkpt lat="57.59637" lon="-5.306">
        <ele>42.54</ele>
        <time>2021-04-06T10:44:05Z</time>
      </trkpt>
      <trkpt lat="57.60139" lon="-5.30548">
        <ele>35</ele>
        <time>2021-04-06T10:44:14Z</time>
      </trkpt>
      <trkpt lat="57.6017" lon="-5.30545">
        <ele>35</ele>
        <time>2021-04-06T10:44:23Z</time>
      </trkpt>
      <trkpt lat="57.60202" lon="-5.30537">
        <ele>34.74</ele>
        <time>2021-04-06T10:44:32Z</time>
      </trkpt>
      <trkpt lat="57.6022" lon="-5.30528">
        <ele>34.09</ele>
        <time>2021-04-06T10:44:41Z</time>
      </trkpt>
      <trkpt lat="57.6033" lon="-5.30438">
        <ele>32.13</ele>
        <time>2021-04-06T10:44:50Z</time>
      </trkpt>
      <trkpt lat="57.60404" lon="-5.30383">
        <ele>33</ele>
        <time>2021-04-06T10:44:59Z</time>
      </trkpt>
      <trkpt lat="57.60452" lon="-5.30336">
        <ele>32.38</ele>
        <time>2021-04-06T10:45:08Z</time>
      </trkpt>
      <trkpt lat="57.60452" lon="-5.30336">
        <ele>32.38</ele>
        <time>2021-04-06T10:45:08Z</time>
      </trkpt>
      <trkpt lat="57.60452" lon="-5.30336">
        <ele>31.76</ele>
        <time>2021-04-06T10:45:08Z</time>
      </trkpt>
      <trkpt lat="57.60468" lon="-5.30399">
        <ele>31.69</ele>
        <time>2021-04-06T10:45:12Z</time>
      </trkpt>
      <trkpt lat="57.60482" lon="-5.30431">
        <ele>31</ele>
        <time>2021-04-06T10:45:17Z</time>
      </trkpt>
      <trkpt lat="57.60541" lon="-5.30562">
        <ele>33.24</ele>
        <time>2021-04-06T10:45:21Z</time>
      </trkpt>
      <trkpt lat="57.60576" lon="-5.30628">
        <ele>32.84</ele>
        <time>2021-04-06T10:45:26Z</time>
      </trkpt>
      <trkpt lat="57.60592" lon="-5.30652">
        <ele>32.51</ele>
        <time>2021-04-06T10:45:30Z</time>
      </trkpt>
      <trkpt lat="57.60618" lon="-5.30682">
        <ele>31.35</ele>
        <time>2021-04-06T10:45:35Z</time>
      </trkpt>
      <trkpt lat="57.60649" lon="-5.307">
        <ele>30.64</ele>
        <time>2021-04-06T10:45:39Z</time>
      </trkpt>
      <trkpt lat="57.60739" lon="-5.30743">
        <ele>28.89</ele>
        <time>2021-04-06T10:45:44Z</time>
      </trkpt>
      <trkpt lat="57.60772" lon="-5.30764">
        <ele>29.79</ele>
        <time>2021-04-06T10:45:48Z</time>
      </trkpt>
      <trkpt lat="57.60822" lon="-5.30812">
        <ele>28.49</ele>
        <time>2021-04-06T10:45:53Z</time>
      </trkpt>
      <trkpt lat="57.60879" lon="-5.30885">
        <ele>27</ele>
        <time>2021-04-06T10:45:57Z</time>
      </trkpt>
      <trkpt lat="57.60941" lon="-5.30991">
        <ele>26</ele>
        <time>2021-04-06T10:46:02Z</time>
      </trkpt>
      <trkpt lat="57.61002" lon="-5.31102">
        <ele>25.92</ele>
        <time>2021-04-06T10:46:07Z</time>
      </trkpt>
      <trkpt lat="57.61189" lon="-5.31406">
        <ele>23.84</ele>
        <time>2021-04-06T10:46:11Z</time>
      </trkpt>
      <trkpt lat="57.61288" lon="-5.31549">
        <ele>21.65</ele>
        <time>2021-04-06T10:46:16Z</time>
      </trkpt>
      <trkpt lat="57.61603" lon="-5.32056">
        <ele>20.02</ele>
        <time>2021-04-06T10:46:20Z</time>
      </trkpt>
      <trkpt lat="57.6171" lon="-5.32244">
        <ele>20.18</ele>
        <time>2021-04-06T10:46:25Z</time>
      </trkpt>
      <trkpt lat="57.61769" lon="-5.32362">
        <ele>17.32</ele>
        <time>2021-04-06T10:46:29Z</time>
      </trkpt>
      <trkpt lat="57.618" lon="-5.3245">
        <ele>17.67</ele>
        <time>2021-04-06T10:46:34Z</time>
      </trkpt>
      <trkpt lat="57.61841" lon="-5.32656">
        <ele>27.09</ele>
        <time>2021-04-06T10:46:38Z</time>
      </trkpt>
      <trkpt lat="57.61864" lon="-5.32737">
        <ele>24.02</ele>
        <time>2021-04-06T10:46:43Z</time>
      </trkpt>
      <trkpt lat="57.61899" lon="-5.32808">
        <ele>21.06</ele>
        <time>2021-04-06T10:46:47Z</time>
      </trkpt>
      <trkpt lat="57.62213" lon="-5.33273">
        <ele>15.51</ele>
        <time>2021-04-06T10:46:52Z</time>
      </trkpt>
      <trkpt lat="57.62272" lon="-5.33368">
        <ele>16.45</ele>
        <time>2021-04-06T10:46:56Z</time>
      </trkpt>
      <trkpt lat="57.62307" lon="-5.33408">
        <ele>17.06</ele>
        <time>2021-04-06T10:47:01Z</time>
      </trkpt>
      <trkpt lat="57.62339" lon="-5.33441">
        <ele>18.53</ele>
        <time>2021-04-06T10:47:05Z</time>
      </trkpt>
      <trkpt lat="57.62377" lon="-5.33466">
        <ele>18.98</ele>
        <time>2021-04-06T10:47:10Z</time>
      </trkpt>
      <trkpt lat="57.62429" lon="-5.33506">
        <ele>18.31</ele>
        <time>2021-04-06T10:47:14Z</time>
      </trkpt>
      <trkpt lat="57.6245" lon="-5.33533">
        <ele>18.75</ele>
        <time>2021-04-06T10:47:19Z</time>
      </trkpt>
      <trkpt lat="57.62468" lon="-5.33565">
        <ele>18.15</ele>
        <time>2021-04-06T10:47:23Z</time>
      </trkpt>
      <trkpt lat="57.62503" lon="-5.33664">
        <ele>20.51</ele>
        <time>2021-04-06T10:47:28Z</time>
      </trkpt>
      <trkpt lat="57.6255" lon="-5.33822">
        <ele>19.34</ele>
        <time>2021-04-06T10:47:33Z</time>
      </trkpt>
      <trkpt lat="57.62586" lon="-5.33925">
        <ele>18.81</ele>
        <time>2021-04-06T10:47:37Z</time>
      </trkpt>
      <trkpt lat="57.62738" lon="-5.34282">
        <ele>17.43</ele>
        <time>2021-04-06T10:47:42Z</time>
      </trkpt>
      <trkpt lat="57.62766" lon="-5.34331">
        <ele>15.82</ele>
        <time>2021-04-06T10:47:46Z</time>
      </trkpt>
      <trkpt lat="57.62784" lon="-5.34351">
        <ele>16.26</ele>
        <time>2021-04-06T10:47:51Z</time>
      </trkpt>
      <trkpt lat="57.62807" lon="-5.34369">
        <ele>17.27</ele>
        <time>2021-04-06T10:47:55Z</time>
      </trkpt>
      <trkpt lat="57.62893" lon="-5.34425">
        <ele>18.31</ele>
        <time>2021-04-06T10:48:00Z</time>
      </trkpt>
      <trkpt lat="57.62917" lon="-5.34445">
        <ele>19.03</ele>
        <time>2021-04-06T10:48:04Z</time>
      </trkpt>
      <trkpt lat="57.62938" lon="-5.34469">
        <ele>19.98</ele>
        <time>2021-04-06T10:48:09Z</time>
      </trkpt>
      <trkpt lat="57.62957" lon="-5.34499">
        <ele>20</ele>
        <time>2021-04-06T10:48:13Z</time>
      </trkpt>
      <trkpt lat="57.62974" lon="-5.3454">
        <ele>19.86</ele>
        <time>2021-04-06T10:48:18Z</time>
      </trkpt>
      <trkpt lat="57.62991" lon="-5.34589">
        <ele>18.33</ele>
        <time>2021-04-06T10:48:22Z</time>
      </trkpt>
      <trkpt lat="57.6301" lon="-5.34688">
        <ele>18.22</ele>
        <time>2021-04-06T10:48:27Z</time>
      </trkpt>
      <trkpt lat="57.6303" lon="-5.34811">
        <ele>17.83</ele>
        <time>2021-04-06T10:48:31Z</time>
      </trkpt>
      <trkpt lat="57.63068" lon="-5.35059">
        <ele>18.52</ele>
        <time>2021-04-06T10:48:36Z</time>
      </trkpt>
      <trkpt lat="57.63076" lon="-5.35094">
        <ele>17.53</ele>
        <time>2021-04-06T10:48:40Z</time>
      </trkpt>
      <trkpt lat="57.63086" lon="-5.35127">
        <ele>17.33</ele>
        <time>2021-04-06T10:48:45Z</time>
      </trkpt>
      <trkpt lat="57.63103" lon="-5.35162">
        <ele>17.44</ele>
        <time>2021-04-06T10:48:49Z</time>
      </trkpt>
      <trkpt lat="57.63124" lon="-5.35196">
        <ele>18.61</ele>
        <time>2021-04-06T10:48:54Z</time>
      </trkpt>
      <trkpt lat="57.63139" lon="-5.35214">
        <ele>18.7</ele>
        <time>2021-04-06T10:48:58Z</time>
      </trkpt>
      <trkpt lat="57.63203" lon="-5.35268">
        <ele>18.64</ele>
        <time>2021-04-06T10:49:03Z</time>
      </trkpt>
      <trkpt lat="57.63218" lon="-5.35284">
        <ele>19.26</ele>
        <time>2021-04-06T10:49:08Z</time>
      </trkpt>
      <trkpt lat="57.63234" lon="-5.35307">
        <ele>20.02</ele>
        <time>2021-04-06T10:49:12Z</time>
      </trkpt>
      <trkpt lat="57.63249" lon="-5.35335">
        <ele>20.14</ele>
        <time>2021-04-06T10:49:17Z</time>
      </trkpt>
      <trkpt lat="57.63261" lon="-5.35366">
        <ele>21.83</ele>
        <time>2021-04-06T10:49:21Z</time>
      </trkpt>
      <trkpt lat="57.63327" lon="-5.35626">
        <ele>22.91</ele>
        <time>2021-04-06T10:49:26Z</time>
      </trkpt>
      <trkpt lat="57.63342" lon="-5.35672">
        <ele>20.48</ele>
        <time>2021-04-06T10:49:30Z</time>
      </trkpt>
      <trkpt lat="57.63377" lon="-5.35754">
        <ele>20.91</ele>
        <time>2021-04-06T10:49:35Z</time>
      </trkpt>
      <trkpt lat="57.63434" lon="-5.3584">
        <ele>18.04</ele>
        <time>2021-04-06T10:49:39Z</time>
      </trkpt>
      <trkpt lat="57.63475" lon="-5.35926">
        <ele>17.82</ele>
        <time>2021-04-06T10:49:44Z</time>
      </trkpt>
      <trkpt lat="57.63493" lon="-5.35971">
        <ele>18.45</ele>
        <time>2021-04-06T10:49:48Z</time>
      </trkpt>
      <trkpt lat="57.63521" lon="-5.36068">
        <ele>17.49</ele>
        <time>2021-04-06T10:49:53Z</time>
      </trkpt>
      <trkpt lat="57.63542" lon="-5.36178">
        <ele>17.58</ele>
        <time>2021-04-06T10:49:57Z</time>
      </trkpt>
      <trkpt lat="57.63556" lon="-5.36291">
        <ele>17.91</ele>
        <time>2021-04-06T10:50:02Z</time>
      </trkpt>
      <trkpt lat="57.63568" lon="-5.36353">
        <ele>18.1</ele>
        <time>2021-04-06T10:50:06Z</time>
      </trkpt>
      <trkpt lat="57.636" lon="-5.36427">
        <ele>20.43</ele>
        <time>2021-04-06T10:50:11Z</time>
      </trkpt>
      <trkpt lat="57.63638" lon="-5.36493">
        <ele>24.51</ele>
        <time>2021-04-06T10:50:15Z</time>
      </trkpt>
      <trkpt lat="57.63676" lon="-5.36535">
        <ele>22.37</ele>
        <time>2021-04-06T10:50:20Z</time>
      </trkpt>
      <trkpt lat="57.63742" lon="-5.36589">
        <ele>23.25</ele>
        <time>2021-04-06T10:50:24Z</time>
      </trkpt>
      <trkpt lat="57.64092" lon="-5.36836">
        <ele>24.14</ele>
        <time>2021-04-06T10:50:29Z</time>
      </trkpt>
      <trkpt lat="57.64135" lon="-5.36873">
        <ele>26.41</ele>
        <time>2021-04-06T10:50:34Z</time>
      </trkpt>
      <trkpt lat="57.64198" lon="-5.36951">
        <ele>25.16</ele>
        <time>2021-04-06T10:50:38Z</time>
      </trkpt>
      <trkpt lat="57.64248" lon="-5.37029">
        <ele>27.07</ele>
        <time>2021-04-06T10:50:43Z</time>
      </trkpt>
      <trkpt lat="57.64332" lon="-5.37196">
        <ele>26.38</ele>
        <time>2021-04-06T10:50:47Z</time>
      </trkpt>
      <trkpt lat="57.64397" lon="-5.37311">
        <ele>27.82</ele>
        <time>2021-04-06T10:50:52Z</time>
      </trkpt>
      <trkpt lat="57.64461" lon="-5.37453">
        <ele>26.87</ele>
        <time>2021-04-06T10:50:56Z</time>
      </trkpt>
      <trkpt lat="57.64521" lon="-5.37608">
        <ele>29.23</ele>
        <time>2021-04-06T10:51:01Z</time>
      </trkpt>
      <trkpt lat="57.64626" lon="-5.37912">
        <ele>40.65</ele>
        <time>2021-04-06T10:51:05Z</time>
      </trkpt>
      <trkpt lat="57.64688" lon="-5.38071">
        <ele>39.43</ele>
        <time>2021-04-06T10:51:10Z</time>
      </trkpt>
      <trkpt lat="57.64764" lon="-5.38247">
        <ele>32.22</ele>
        <time>2021-04-06T10:51:14Z</time>
      </trkpt>
      <trkpt lat="57.64865" lon="-5.38492">
        <ele>42.4</ele>
        <time>2021-04-06T10:51:19Z</time>
      </trkpt>
      <trkpt lat="57.64941" lon="-5.3866">
        <ele>39.91</ele>
        <time>2021-04-06T10:51:23Z</time>
      </trkpt>
      <trkpt lat="57.65013" lon="-5.3878">
        <ele>35.74</ele>
        <time>2021-04-06T10:51:28Z</time>
      </trkpt>
      <trkpt lat="57.65077" lon="-5.38873">
        <ele>29.08</ele>
        <time>2021-04-06T10:51:32Z</time>
      </trkpt>
      <trkpt lat="57.65274" lon="-5.39097">
        <ele>18.14</ele>
        <time>2021-04-06T10:51:37Z</time>
      </trkpt>
      <trkpt lat="57.65347" lon="-5.392">
        <ele>17.09</ele>
        <time>2021-04-06T10:51:41Z</time>
      </trkpt>
      <trkpt lat="57.65399" lon="-5.39275">
        <ele>16.65</ele>
        <time>2021-04-06T10:51:46Z</time>
      </trkpt>
      <trkpt lat="57.65432" lon="-5.39346">
        <ele>16.48</ele>
        <time>2021-04-06T10:51:51Z</time>
      </trkpt>
      <trkpt lat="57.65432" lon="-5.39346">
        <ele>16.48</ele>
        <time>2021-04-06T10:51:51Z</time>
      </trkpt>
      <trkpt lat="57.65458" lon="-5.39431">
        <ele>17.05</ele>
        <time>2021-04-06T10:51:55Z</time>
      </trkpt>
      <trkpt lat="57.65492" lon="-5.3957">
        <ele>15.36</ele>
        <time>2021-04-06T10:52:00Z</time>
      </trkpt>
      <trkpt lat="57.65534" lon="-5.39788">
        <ele>16</ele>
        <time>2021-04-06T10:52:04Z</time>
      </trkpt>
      <trkpt lat="57.65541" lon="-5.3989">
        <ele>17.02</ele>
        <time>2021-04-06T10:52:09Z</time>
      </trkpt>
      <trkpt lat="57.65538" lon="-5.40015">
        <ele>19.17</ele>
        <time>2021-04-06T10:52:13Z</time>
      </trkpt>
      <trkpt lat="57.65522" lon="-5.40156">
        <ele>21.22</ele>
        <time>2021-04-06T10:52:18Z</time>
      </trkpt>
      <trkpt lat="57.65499" lon="-5.4031">
        <ele>24.16</ele>
        <time>2021-04-06T10:52:22Z</time>
      </trkpt>
      <trkpt lat="57.65481" lon="-5.4046">
        <ele>26.26</ele>
        <time>2021-04-06T10:52:27Z</time>
      </trkpt>
      <trkpt lat="57.65468" lon="-5.40619">
        <ele>29</ele>
        <time>2021-04-06T10:52:32Z</time>
      </trkpt>
      <trkpt lat="57.65457" lon="-5.4074">
        <ele>29.64</ele>
        <time>2021-04-06T10:52:36Z</time>
      </trkpt>
      <trkpt lat="57.65443" lon="-5.40806">
        <ele>30.91</ele>
        <time>2021-04-06T10:52:41Z</time>
      </trkpt>
      <trkpt lat="57.6542" lon="-5.4086">
        <ele>31.08</ele>
        <time>2021-04-06T10:52:45Z</time>
      </trkpt>
      <trkpt lat="57.65384" lon="-5.40933">
        <ele>31.31</ele>
        <time>2021-04-06T10:52:50Z</time>
      </trkpt>
      <trkpt lat="57.65358" lon="-5.40993">
        <ele>30.88</ele>
        <time>2021-04-06T10:52:54Z</time>
      </trkpt>
      <trkpt lat="57.6534" lon="-5.41056">
        <ele>30.22</ele>
        <time>2021-04-06T10:52:59Z</time>
      </trkpt>
      <trkpt lat="57.65332" lon="-5.41102">
        <ele>30</ele>
        <time>2021-04-06T10:53:03Z</time>
      </trkpt>
      <trkpt lat="57.65327" lon="-5.41156">
        <ele>29.22</ele>
        <time>2021-04-06T10:53:08Z</time>
      </trkpt>
      <trkpt lat="57.65332" lon="-5.41219">
        <ele>27.2</ele>
        <time>2021-04-06T10:53:13Z</time>
      </trkpt>
      <trkpt lat="57.65339" lon="-5.41261">
        <ele>26</ele>
        <time>2021-04-06T10:53:17Z</time>
      </trkpt>
      <trkpt lat="57.6535" lon="-5.41301">
        <ele>26</ele>
        <time>2021-04-06T10:53:22Z</time>
      </trkpt>
      <trkpt lat="57.65374" lon="-5.4137">
        <ele>25.54</ele>
        <time>2021-04-06T10:53:26Z</time>
      </trkpt>
      <trkpt lat="57.65391" lon="-5.41408">
        <ele>25.64</ele>
        <time>2021-04-06T10:53:31Z</time>
      </trkpt>
      <trkpt lat="57.65419" lon="-5.4146">
        <ele>25.47</ele>
        <time>2021-04-06T10:53:35Z</time>
      </trkpt>
      <trkpt lat="57.6547" lon="-5.41535">
        <ele>23.15</ele>
        <time>2021-04-06T10:53:40Z</time>
      </trkpt>
      <trkpt lat="57.65758" lon="-5.41925">
        <ele>18.69</ele>
        <time>2021-04-06T10:53:44Z</time>
      </trkpt>
      <trkpt lat="57.65912" lon="-5.42127">
        <ele>15.55</ele>
        <time>2021-04-06T10:53:49Z</time>
      </trkpt>
      <trkpt lat="57.65971" lon="-5.42211">
        <ele>17.64</ele>
        <time>2021-04-06T10:53:54Z</time>
      </trkpt>
      <trkpt lat="57.66018" lon="-5.42301">
        <ele>21.05</ele>
        <time>2021-04-06T10:53:58Z</time>
      </trkpt>
      <trkpt lat="57.66061" lon="-5.42425">
        <ele>23.68</ele>
        <time>2021-04-06T10:54:03Z</time>
      </trkpt>
      <trkpt lat="57.66094" lon="-5.42534">
        <ele>21.74</ele>
        <time>2021-04-06T10:54:07Z</time>
      </trkpt>
      <trkpt lat="57.66358" lon="-5.43536">
        <ele>20.38</ele>
        <time>2021-04-06T10:54:12Z</time>
      </trkpt>
      <trkpt lat="57.66392" lon="-5.43678">
        <ele>23</ele>
        <time>2021-04-06T10:54:16Z</time>
      </trkpt>
      <trkpt lat="57.66415" lon="-5.43787">
        <ele>21.74</ele>
        <time>2021-04-06T10:54:21Z</time>
      </trkpt>
      <trkpt lat="57.66436" lon="-5.43923">
        <ele>21.45</ele>
        <time>2021-04-06T10:54:25Z</time>
      </trkpt>
      <trkpt lat="57.66452" lon="-5.43987">
        <ele>22.58</ele>
        <time>2021-04-06T10:54:30Z</time>
      </trkpt>
      <trkpt lat="57.66641" lon="-5.44574">
        <ele>25.21</ele>
        <time>2021-04-06T10:54:35Z</time>
      </trkpt>
      <trkpt lat="57.6667" lon="-5.44683">
        <ele>28.05</ele>
        <time>2021-04-06T10:54:39Z</time>
      </trkpt>
      <trkpt lat="57.66725" lon="-5.44935">
        <ele>25.74</ele>
        <time>2021-04-06T10:54:44Z</time>
      </trkpt>
      <trkpt lat="57.66759" lon="-5.45028">
        <ele>25.32</ele>
        <time>2021-04-06T10:54:48Z</time>
      </trkpt>
      <trkpt lat="57.66808" lon="-5.45118">
        <ele>29.55</ele>
        <time>2021-04-06T10:54:53Z</time>
      </trkpt>
      <trkpt lat="57.66957" lon="-5.45287">
        <ele>36.81</ele>
        <time>2021-04-06T10:54:57Z</time>
      </trkpt>
      <trkpt lat="57.6701" lon="-5.45368">
        <ele>39.03</ele>
        <time>2021-04-06T10:55:02Z</time>
      </trkpt>
      <trkpt lat="57.67053" lon="-5.45453">
        <ele>39.26</ele>
        <time>2021-04-06T10:55:06Z</time>
      </trkpt>
      <trkpt lat="57.67086" lon="-5.45537">
        <ele>34.19</ele>
        <time>2021-04-06T10:55:11Z</time>
      </trkpt>
      <trkpt lat="57.67124" lon="-5.45663">
        <ele>33.91</ele>
        <time>2021-04-06T10:55:16Z</time>
      </trkpt>
      <trkpt lat="57.67173" lon="-5.45835">
        <ele>36.6</ele>
        <time>2021-04-06T10:55:20Z</time>
      </trkpt>
      <trkpt lat="57.67204" lon="-5.45975">
        <ele>41.53</ele>
        <time>2021-04-06T10:55:25Z</time>
      </trkpt>
      <trkpt lat="57.67241" lon="-5.46215">
        <ele>47.23</ele>
        <time>2021-04-06T10:55:29Z</time>
      </trkpt>
      <trkpt lat="57.67263" lon="-5.46292">
        <ele>41.18</ele>
        <time>2021-04-06T10:55:34Z</time>
      </trkpt>
      <trkpt lat="57.67279" lon="-5.46332">
        <ele>40.83</ele>
        <time>2021-04-06T10:55:38Z</time>
      </trkpt>
      <trkpt lat="57.67308" lon="-5.46385">
        <ele>45.63</ele>
        <time>2021-04-06T10:55:43Z</time>
      </trkpt>
      <trkpt lat="57.6735" lon="-5.46435">
        <ele>50.68</ele>
        <time>2021-04-06T10:55:47Z</time>
      </trkpt>
      <trkpt lat="57.67475" lon="-5.46542">
        <ele>49</ele>
        <time>2021-04-06T10:55:52Z</time>
      </trkpt>
      <trkpt lat="57.67516" lon="-5.46597">
        <ele>48</ele>
        <time>2021-04-06T10:55:57Z</time>
      </trkpt>
      <trkpt lat="57.67549" lon="-5.4667">
        <ele>47.62</ele>
        <time>2021-04-06T10:56:01Z</time>
      </trkpt>
      <trkpt lat="57.67572" lon="-5.46761">
        <ele>45.25</ele>
        <time>2021-04-06T10:56:06Z</time>
      </trkpt>
      <trkpt lat="57.67585" lon="-5.46862">
        <ele>45.07</ele>
        <time>2021-04-06T10:56:10Z</time>
      </trkpt>
      <trkpt lat="57.67586" lon="-5.46936">
        <ele>46.19</ele>
        <time>2021-04-06T10:56:15Z</time>
      </trkpt>
      <trkpt lat="57.67573" lon="-5.47502">
        <ele>35.96</ele>
        <time>2021-04-06T10:56:19Z</time>
      </trkpt>
      <trkpt lat="57.6757" lon="-5.47757">
        <ele>31.98</ele>
        <time>2021-04-06T10:56:24Z</time>
      </trkpt>
      <trkpt lat="57.67581" lon="-5.48123">
        <ele>25.68</ele>
        <time>2021-04-06T10:56:28Z</time>
      </trkpt>
      <trkpt lat="57.67581" lon="-5.48266">
        <ele>21.44</ele>
        <time>2021-04-06T10:56:33Z</time>
      </trkpt>
      <trkpt lat="57.67572" lon="-5.48374">
        <ele>18.39</ele>
        <time>2021-04-06T10:56:37Z</time>
      </trkpt>
      <trkpt lat="57.67556" lon="-5.48457">
        <ele>14.55</ele>
        <time>2021-04-06T10:56:42Z</time>
      </trkpt>
      <trkpt lat="57.67524" lon="-5.48551">
        <ele>11.31</ele>
        <time>2021-04-06T10:56:47Z</time>
      </trkpt>
      <trkpt lat="57.67454" lon="-5.48721">
        <ele>13.33</ele>
        <time>2021-04-06T10:56:51Z</time>
      </trkpt>
      <trkpt lat="57.67432" lon="-5.48788">
        <ele>14.82</ele>
        <time>2021-04-06T10:56:56Z</time>
      </trkpt>
      <trkpt lat="57.67418" lon="-5.48873">
        <ele>17</ele>
        <time>2021-04-06T10:57:00Z</time>
      </trkpt>
      <trkpt lat="57.67411" lon="-5.48955">
        <ele>19.38</ele>
        <time>2021-04-06T10:57:05Z</time>
      </trkpt>
      <trkpt lat="57.6741" lon="-5.49073">
        <ele>18.76</ele>
        <time>2021-04-06T10:57:09Z</time>
      </trkpt>
      <trkpt lat="57.67404" lon="-5.49216">
        <ele>18.89</ele>
        <time>2021-04-06T10:57:14Z</time>
      </trkpt>
      <trkpt lat="57.67401" lon="-5.49368">
        <ele>21.45</ele>
        <time>2021-04-06T10:57:18Z</time>
      </trkpt>
      <trkpt lat="57.67402" lon="-5.49495">
        <ele>18.61</ele>
        <time>2021-04-06T10:57:23Z</time>
      </trkpt>
      <trkpt lat="57.67407" lon="-5.49566">
        <ele>17.72</ele>
        <time>2021-04-06T10:57:28Z</time>
      </trkpt>
      <trkpt lat="57.6742" lon="-5.49669">
        <ele>20.9</ele>
        <time>2021-04-06T10:57:32Z</time>
      </trkpt>
      <trkpt lat="57.67448" lon="-5.49787">
        <ele>22.58</ele>
        <time>2021-04-06T10:57:37Z</time>
      </trkpt>
      <trkpt lat="57.67479" lon="-5.49865">
        <ele>25.88</ele>
        <time>2021-04-06T10:57:41Z</time>
      </trkpt>
      <trkpt lat="57.67523" lon="-5.49947">
        <ele>32.05</ele>
        <time>2021-04-06T10:57:46Z</time>
      </trkpt>
      <trkpt lat="57.67572" lon="-5.50014">
        <ele>30</ele>
        <time>2021-04-06T10:57:50Z</time>
      </trkpt>
      <trkpt lat="57.67711" lon="-5.50175">
        <ele>33.44</ele>
        <time>2021-04-06T10:57:55Z</time>
      </trkpt>
      <trkpt lat="57.67747" lon="-5.50227">
        <ele>30.81</ele>
        <time>2021-04-06T10:57:59Z</time>
      </trkpt>
      <trkpt lat="57.67877" lon="-5.50453">
        <ele>30.64</ele>
        <time>2021-04-06T10:58:04Z</time>
      </trkpt>
      <trkpt lat="57.67968" lon="-5.5062">
        <ele>29.92</ele>
        <time>2021-04-06T10:58:09Z</time>
      </trkpt>
      <trkpt lat="57.68" lon="-5.50689">
        <ele>27.47</ele>
        <time>2021-04-06T10:58:13Z</time>
      </trkpt>
      <trkpt lat="57.68022" lon="-5.50763">
        <ele>26.92</ele>
        <time>2021-04-06T10:58:18Z</time>
      </trkpt>
      <trkpt lat="57.6803" lon="-5.50816">
        <ele>26.55</ele>
        <time>2021-04-06T10:58:22Z</time>
      </trkpt>
      <trkpt lat="57.68042" lon="-5.50967">
        <ele>25.26</ele>
        <time>2021-04-06T10:58:27Z</time>
      </trkpt>
      <trkpt lat="57.68052" lon="-5.51061">
        <ele>23.27</ele>
        <time>2021-04-06T10:58:31Z</time>
      </trkpt>
      <trkpt lat="57.68098" lon="-5.51263">
        <ele>23.35</ele>
        <time>2021-04-06T10:58:36Z</time>
      </trkpt>
      <trkpt lat="57.68108" lon="-5.5134">
        <ele>21.81</ele>
        <time>2021-04-06T10:58:40Z</time>
      </trkpt>
      <trkpt lat="57.68113" lon="-5.5139">
        <ele>22.7</ele>
        <time>2021-04-06T10:58:45Z</time>
      </trkpt>
      <trkpt lat="57.68109" lon="-5.51515">
        <ele>23.58</ele>
        <time>2021-04-06T10:58:50Z</time>
      </trkpt>
      <trkpt lat="57.68112" lon="-5.51575">
        <ele>24.35</ele>
        <time>2021-04-06T10:58:54Z</time>
      </trkpt>
      <trkpt lat="57.68121" lon="-5.51643">
        <ele>25.28</ele>
        <time>2021-04-06T10:58:59Z</time>
      </trkpt>
      <trkpt lat="57.68144" lon="-5.5175">
        <ele>26.44</ele>
        <time>2021-04-06T10:59:03Z</time>
      </trkpt>
      <trkpt lat="57.68171" lon="-5.51855">
        <ele>29.52</ele>
        <time>2021-04-06T10:59:08Z</time>
      </trkpt>
      <trkpt lat="57.68187" lon="-5.51943">
        <ele>37.51</ele>
        <time>2021-04-06T10:59:12Z</time>
      </trkpt>
      <trkpt lat="57.68195" lon="-5.52033">
        <ele>39.05</ele>
        <time>2021-04-06T10:59:17Z</time>
      </trkpt>
      <trkpt lat="57.68194" lon="-5.52147">
        <ele>40.51</ele>
        <time>2021-04-06T10:59:21Z</time>
      </trkpt>
      <trkpt lat="57.682" lon="-5.52261">
        <ele>37.59</ele>
        <time>2021-04-06T10:59:26Z</time>
      </trkpt>
      <trkpt lat="57.68211" lon="-5.5234">
        <ele>29.63</ele>
        <time>2021-04-06T10:59:31Z</time>
      </trkpt>
      <trkpt lat="57.6824" lon="-5.52496">
        <ele>29.94</ele>
        <time>2021-04-06T10:59:35Z</time>
      </trkpt>
      <trkpt lat="57.68254" lon="-5.52604">
        <ele>24.88</ele>
        <time>2021-04-06T10:59:40Z</time>
      </trkpt>
      <trkpt lat="57.6826" lon="-5.52705">
        <ele>25.37</ele>
        <time>2021-04-06T10:59:44Z</time>
      </trkpt>
      <trkpt lat="57.68258" lon="-5.52804">
        <ele>24.38</ele>
        <time>2021-04-06T10:59:49Z</time>
      </trkpt>
      <trkpt lat="57.68249" lon="-5.52881">
        <ele>22.8</ele>
        <time>2021-04-06T10:59:53Z</time>
      </trkpt>
      <trkpt lat="57.68233" lon="-5.5297">
        <ele>24.06</ele>
        <time>2021-04-06T10:59:58Z</time>
      </trkpt>
      <trkpt lat="57.68202" lon="-5.53119">
        <ele>20.45</ele>
        <time>2021-04-06T11:00:02Z</time>
      </trkpt>
      <trkpt lat="57.68188" lon="-5.53234">
        <ele>21.41</ele>
        <time>2021-04-06T11:00:07Z</time>
      </trkpt>
      <trkpt lat="57.68184" lon="-5.53323">
        <ele>22.59</ele>
        <time>2021-04-06T11:00:12Z</time>
      </trkpt>
      <trkpt lat="57.68187" lon="-5.53422">
        <ele>26.61</ele>
        <time>2021-04-06T11:00:16Z</time>
      </trkpt>
      <trkpt lat="57.68194" lon="-5.53495">
        <ele>26.1</ele>
        <time>2021-04-06T11:00:21Z</time>
      </trkpt>
      <trkpt lat="57.68357" lon="-5.54309">
        <ele>48.48</ele>
        <time>2021-04-06T11:00:25Z</time>
      </trkpt>
      <trkpt lat="57.68386" lon="-5.54447">
        <ele>50.14</ele>
        <time>2021-04-06T11:00:30Z</time>
      </trkpt>
      <trkpt lat="57.68409" lon="-5.54513">
        <ele>52.5</ele>
        <time>2021-04-06T11:00:34Z</time>
      </trkpt>
      <trkpt lat="57.6844" lon="-5.5457">
        <ele>51.62</ele>
        <time>2021-04-06T11:00:39Z</time>
      </trkpt>
      <trkpt lat="57.68502" lon="-5.54648">
        <ele>52.36</ele>
        <time>2021-04-06T11:00:43Z</time>
      </trkpt>
      <trkpt lat="57.68596" lon="-5.54727">
        <ele>54.03</ele>
        <time>2021-04-06T11:00:48Z</time>
      </trkpt>
      <trkpt lat="57.68737" lon="-5.54863">
        <ele>56.71</ele>
        <time>2021-04-06T11:00:53Z</time>
      </trkpt>
      <trkpt lat="57.68862" lon="-5.55">
        <ele>59</ele>
        <time>2021-04-06T11:00:57Z</time>
      </trkpt>
      <trkpt lat="57.6901" lon="-5.55186">
        <ele>65.14</ele>
        <time>2021-04-06T11:01:02Z</time>
      </trkpt>
      <trkpt lat="57.69105" lon="-5.55322">
        <ele>67.22</ele>
        <time>2021-04-06T11:01:06Z</time>
      </trkpt>
      <trkpt lat="57.69155" lon="-5.55428">
        <ele>72.4</ele>
        <time>2021-04-06T11:01:11Z</time>
      </trkpt>
      <trkpt lat="57.69193" lon="-5.55546">
        <ele>79.53</ele>
        <time>2021-04-06T11:01:15Z</time>
      </trkpt>
      <trkpt lat="57.69224" lon="-5.55679">
        <ele>84.1</ele>
        <time>2021-04-06T11:01:20Z</time>
      </trkpt>
      <trkpt lat="57.69224" lon="-5.55679">
        <ele>84.1</ele>
        <time>2021-04-06T11:01:20Z</time>
      </trkpt>
      <trkpt lat="57.69241" lon="-5.55803">
        <ele>85.89</ele>
        <time>2021-04-06T11:01:23Z</time>
      </trkpt>
      <trkpt lat="57.69249" lon="-5.55938">
        <ele>86.1</ele>
        <time>2021-04-06T11:01:26Z</time>
      </trkpt>
      <trkpt lat="57.69246" lon="-5.56068">
        <ele>88.65</ele>
        <time>2021-04-06T11:01:30Z</time>
      </trkpt>
      <trkpt lat="57.69215" lon="-5.5667">
        <ele>103.74</ele>
        <time>2021-04-06T11:01:33Z</time>
      </trkpt>
      <trkpt lat="57.69172" lon="-5.57447">
        <ele>120.2</ele>
        <time>2021-04-06T11:01:36Z</time>
      </trkpt>
      <trkpt lat="57.69139" lon="-5.58084">
        <ele>129.96</ele>
        <time>2021-04-06T11:01:39Z</time>
      </trkpt>
      <trkpt lat="57.69126" lon="-5.58195">
        <ele>131.56</ele>
        <time>2021-04-06T11:01:43Z</time>
      </trkpt>
      <trkpt lat="57.69089" lon="-5.58439">
        <ele>131.1</ele>
        <time>2021-04-06T11:01:46Z</time>
      </trkpt>
      <trkpt lat="57.69063" lon="-5.58528">
        <ele>131.74</ele>
        <time>2021-04-06T11:01:49Z</time>
      </trkpt>
      <trkpt lat="57.69019" lon="-5.58642">
        <ele>129.21</ele>
        <time>2021-04-06T11:01:52Z</time>
      </trkpt>
      <trkpt lat="57.68991" lon="-5.58698">
        <ele>126.54</ele>
        <time>2021-04-06T11:01:55Z</time>
      </trkpt>
      <trkpt lat="57.68932" lon="-5.58796">
        <ele>125.61</ele>
        <time>2021-04-06T11:01:59Z</time>
      </trkpt>
      <trkpt lat="57.68894" lon="-5.58888">
        <ele>125.33</ele>
        <time>2021-04-06T11:02:02Z</time>
      </trkpt>
      <trkpt lat="57.68805" lon="-5.59291">
        <ele>117.49</ele>
        <time>2021-04-06T11:02:05Z</time>
      </trkpt>
      <trkpt lat="57.68758" lon="-5.59462">
        <ele>117.65</ele>
        <time>2021-04-06T11:02:08Z</time>
      </trkpt>
      <trkpt lat="57.68743" lon="-5.59526">
        <ele>116.75</ele>
        <time>2021-04-06T11:02:12Z</time>
      </trkpt>
      <trkpt lat="57.68732" lon="-5.59593">
        <ele>117.36</ele>
        <time>2021-04-06T11:02:15Z</time>
      </trkpt>
      <trkpt lat="57.68703" lon="-5.59839">
        <ele>120.57</ele>
        <time>2021-04-06T11:02:18Z</time>
      </trkpt>
      <trkpt lat="57.68689" lon="-5.59906">
        <ele>122.08</ele>
        <time>2021-04-06T11:02:21Z</time>
      </trkpt>
      <trkpt lat="57.68649" lon="-5.60025">
        <ele>126.3</ele>
        <time>2021-04-06T11:02:24Z</time>
      </trkpt>
      <trkpt lat="57.68633" lon="-5.60091">
        <ele>127.15</ele>
        <time>2021-04-06T11:02:28Z</time>
      </trkpt>
      <trkpt lat="57.68612" lon="-5.60191">
        <ele>128.06</ele>
        <time>2021-04-06T11:02:31Z</time>
      </trkpt>
      <trkpt lat="57.68579" lon="-5.60315">
        <ele>122.51</ele>
        <time>2021-04-06T11:02:34Z</time>
      </trkpt>
      <trkpt lat="57.6857" lon="-5.60353">
        <ele>121.9</ele>
        <time>2021-04-06T11:02:37Z</time>
      </trkpt>
      <trkpt lat="57.68565" lon="-5.60387">
        <ele>121.57</ele>
        <time>2021-04-06T11:02:41Z</time>
      </trkpt>
      <trkpt lat="57.68557" lon="-5.6047">
        <ele>123.23</ele>
        <time>2021-04-06T11:02:44Z</time>
      </trkpt>
      <trkpt lat="57.68554" lon="-5.60615">
        <ele>123.75</ele>
        <time>2021-04-06T11:02:47Z</time>
      </trkpt>
      <trkpt lat="57.68562" lon="-5.60708">
        <ele>123.6</ele>
        <time>2021-04-06T11:02:50Z</time>
      </trkpt>
      <trkpt lat="57.6858" lon="-5.60797">
        <ele>122.18</ele>
        <time>2021-04-06T11:02:54Z</time>
      </trkpt>
      <trkpt lat="57.68591" lon="-5.60839">
        <ele>121.62</ele>
        <time>2021-04-06T11:02:57Z</time>
      </trkpt>
      <trkpt lat="57.68621" lon="-5.60888">
        <ele>122.42</ele>
        <time>2021-04-06T11:03:00Z</time>
      </trkpt>
      <trkpt lat="57.68642" lon="-5.60933">
        <ele>122.44</ele>
        <time>2021-04-06T11:03:03Z</time>
      </trkpt>
      <trkpt lat="57.68692" lon="-5.61076">
        <ele>120.74</ele>
        <time>2021-04-06T11:03:06Z</time>
      </trkpt>
      <trkpt lat="57.687" lon="-5.61109">
        <ele>117.66</ele>
        <time>2021-04-06T11:03:10Z</time>
      </trkpt>
      <trkpt lat="57.68707" lon="-5.61146">
        <ele>116.64</ele>
        <time>2021-04-06T11:03:13Z</time>
      </trkpt>
      <trkpt lat="57.68708" lon="-5.61191">
        <ele>115.96</ele>
        <time>2021-04-06T11:03:16Z</time>
      </trkpt>
      <trkpt lat="57.68707" lon="-5.61228">
        <ele>115.58</ele>
        <time>2021-04-06T11:03:19Z</time>
      </trkpt>
      <trkpt lat="57.68686" lon="-5.61319">
        <ele>110.07</ele>
        <time>2021-04-06T11:03:23Z</time>
      </trkpt>
      <trkpt lat="57.68681" lon="-5.61346">
        <ele>109.78</ele>
        <time>2021-04-06T11:03:26Z</time>
      </trkpt>
      <trkpt lat="57.68678" lon="-5.61375">
        <ele>109.85</ele>
        <time>2021-04-06T11:03:29Z</time>
      </trkpt>
      <trkpt lat="57.68681" lon="-5.61575">
        <ele>108.21</ele>
        <time>2021-04-06T11:03:32Z</time>
      </trkpt>
      <trkpt lat="57.68685" lon="-5.61684">
        <ele>108.31</ele>
        <time>2021-04-06T11:03:35Z</time>
      </trkpt>
      <trkpt lat="57.68688" lon="-5.61729">
        <ele>108.3</ele>
        <time>2021-04-06T11:03:39Z</time>
      </trkpt>
      <trkpt lat="57.68704" lon="-5.61819">
        <ele>107.7</ele>
        <time>2021-04-06T11:03:42Z</time>
      </trkpt>
      <trkpt lat="57.68717" lon="-5.61916">
        <ele>106.63</ele>
        <time>2021-04-06T11:03:45Z</time>
      </trkpt>
      <trkpt lat="57.6872" lon="-5.61968">
        <ele>106.01</ele>
        <time>2021-04-06T11:03:48Z</time>
      </trkpt>
      <trkpt lat="57.68721" lon="-5.62056">
        <ele>106.9</ele>
        <time>2021-04-06T11:03:52Z</time>
      </trkpt>
      <trkpt lat="57.68713" lon="-5.62262">
        <ele>109.3</ele>
        <time>2021-04-06T11:03:55Z</time>
      </trkpt>
      <trkpt lat="57.68708" lon="-5.6233">
        <ele>114.15</ele>
        <time>2021-04-06T11:03:58Z</time>
      </trkpt>
      <trkpt lat="57.68703" lon="-5.62362">
        <ele>116.6</ele>
        <time>2021-04-06T11:04:01Z</time>
      </trkpt>
      <trkpt lat="57.68689" lon="-5.62383">
        <ele>115.48</ele>
        <time>2021-04-06T11:04:05Z</time>
      </trkpt>
      <trkpt lat="57.68666" lon="-5.62394">
        <ele>111.47</ele>
        <time>2021-04-06T11:04:08Z</time>
      </trkpt>
      <trkpt lat="57.68629" lon="-5.62393">
        <ele>107.02</ele>
        <time>2021-04-06T11:04:11Z</time>
      </trkpt>
      <trkpt lat="57.68605" lon="-5.624">
        <ele>106.67</ele>
        <time>2021-04-06T11:04:14Z</time>
      </trkpt>
      <trkpt lat="57.68589" lon="-5.62417">
        <ele>107.21</ele>
        <time>2021-04-06T11:04:17Z</time>
      </trkpt>
      <trkpt lat="57.68581" lon="-5.62448">
        <ele>106.83</ele>
        <time>2021-04-06T11:04:21Z</time>
      </trkpt>
      <trkpt lat="57.6858" lon="-5.62479">
        <ele>106.78</ele>
        <time>2021-04-06T11:04:24Z</time>
      </trkpt>
      <trkpt lat="57.68608" lon="-5.62586">
        <ele>107.62</ele>
        <time>2021-04-06T11:04:27Z</time>
      </trkpt>
      <trkpt lat="57.68646" lon="-5.62685">
        <ele>110.05</ele>
        <time>2021-04-06T11:04:30Z</time>
      </trkpt>
      <trkpt lat="57.68667" lon="-5.62749">
        <ele>109.15</ele>
        <time>2021-04-06T11:04:34Z</time>
      </trkpt>
      <trkpt lat="57.68669" lon="-5.62771">
        <ele>108.2</ele>
        <time>2021-04-06T11:04:37Z</time>
      </trkpt>
      <trkpt lat="57.68662" lon="-5.6281">
        <ele>104.11</ele>
        <time>2021-04-06T11:04:40Z</time>
      </trkpt>
      <trkpt lat="57.68662" lon="-5.62837">
        <ele>103.21</ele>
        <time>2021-04-06T11:04:43Z</time>
      </trkpt>
      <trkpt lat="57.68667" lon="-5.62883">
        <ele>103.97</ele>
        <time>2021-04-06T11:04:46Z</time>
      </trkpt>
      <trkpt lat="57.68664" lon="-5.62913">
        <ele>102.33</ele>
        <time>2021-04-06T11:04:50Z</time>
      </trkpt>
      <trkpt lat="57.68658" lon="-5.62955">
        <ele>99.29</ele>
        <time>2021-04-06T11:04:53Z</time>
      </trkpt>
      <trkpt lat="57.6866" lon="-5.6298">
        <ele>98.44</ele>
        <time>2021-04-06T11:04:56Z</time>
      </trkpt>
      <trkpt lat="57.68682" lon="-5.6316">
        <ele>90.16</ele>
        <time>2021-04-06T11:04:59Z</time>
      </trkpt>
      <trkpt lat="57.68688" lon="-5.63202">
        <ele>89.37</ele>
        <time>2021-04-06T11:05:03Z</time>
      </trkpt>
      <trkpt lat="57.68727" lon="-5.63424">
        <ele>81.93</ele>
        <time>2021-04-06T11:05:06Z</time>
      </trkpt>
      <trkpt lat="57.6873" lon="-5.6346">
        <ele>82.06</ele>
        <time>2021-04-06T11:05:09Z</time>
      </trkpt>
      <trkpt lat="57.6873" lon="-5.63485">
        <ele>82.93</ele>
        <time>2021-04-06T11:05:12Z</time>
      </trkpt>
      <trkpt lat="57.68725" lon="-5.63507">
        <ele>82.44</ele>
        <time>2021-04-06T11:05:16Z</time>
      </trkpt>
      <trkpt lat="57.68689" lon="-5.63554">
        <ele>77.14</ele>
        <time>2021-04-06T11:05:19Z</time>
      </trkpt>
      <trkpt lat="57.68675" lon="-5.63588">
        <ele>76.61</ele>
        <time>2021-04-06T11:05:22Z</time>
      </trkpt>
      <trkpt lat="57.68669" lon="-5.63659">
        <ele>75.51</ele>
        <time>2021-04-06T11:05:25Z</time>
      </trkpt>
      <trkpt lat="57.68653" lon="-5.63739">
        <ele>72.97</ele>
        <time>2021-04-06T11:05:28Z</time>
      </trkpt>
      <trkpt lat="57.68623" lon="-5.63848">
        <ele>67.98</ele>
        <time>2021-04-06T11:05:32Z</time>
      </trkpt>
      <trkpt lat="57.68613" lon="-5.63949">
        <ele>70.82</ele>
        <time>2021-04-06T11:05:35Z</time>
      </trkpt>
      <trkpt lat="57.68602" lon="-5.64002">
        <ele>69.69</ele>
        <time>2021-04-06T11:05:38Z</time>
      </trkpt>
      <trkpt lat="57.6857" lon="-5.64077">
        <ele>64.59</ele>
        <time>2021-04-06T11:05:41Z</time>
      </trkpt>
      <trkpt lat="57.68538" lon="-5.6416">
        <ele>59.33</ele>
        <time>2021-04-06T11:05:45Z</time>
      </trkpt>
      <trkpt lat="57.68531" lon="-5.64198">
        <ele>56.91</ele>
        <time>2021-04-06T11:05:48Z</time>
      </trkpt>
      <trkpt lat="57.6853" lon="-5.64239">
        <ele>55.47</ele>
        <time>2021-04-06T11:05:51Z</time>
      </trkpt>
      <trkpt lat="57.68546" lon="-5.64385">
        <ele>53.97</ele>
        <time>2021-04-06T11:05:54Z</time>
      </trkpt>
      <trkpt lat="57.68601" lon="-5.64758">
        <ele>45.3</ele>
        <time>2021-04-06T11:05:57Z</time>
      </trkpt>
      <trkpt lat="57.68613" lon="-5.64876">
        <ele>43.73</ele>
        <time>2021-04-06T11:06:01Z</time>
      </trkpt>
      <trkpt lat="57.68621" lon="-5.64984">
        <ele>41.45</ele>
        <time>2021-04-06T11:06:04Z</time>
      </trkpt>
      <trkpt lat="57.68623" lon="-5.65073">
        <ele>39.83</ele>
        <time>2021-04-06T11:06:07Z</time>
      </trkpt>
      <trkpt lat="57.68629" lon="-5.65128">
        <ele>38.3</ele>
        <time>2021-04-06T11:06:10Z</time>
      </trkpt>
      <trkpt lat="57.68661" lon="-5.65259">
        <ele>38.1</ele>
        <time>2021-04-06T11:06:14Z</time>
      </trkpt>
      <trkpt lat="57.68678" lon="-5.65334">
        <ele>35.2</ele>
        <time>2021-04-06T11:06:17Z</time>
      </trkpt>
      <trkpt lat="57.68707" lon="-5.65437">
        <ele>34.44</ele>
        <time>2021-04-06T11:06:20Z</time>
      </trkpt>
      <trkpt lat="57.68731" lon="-5.65566">
        <ele>33.23</ele>
        <time>2021-04-06T11:06:23Z</time>
      </trkpt>
      <trkpt lat="57.68743" lon="-5.65659">
        <ele>31.22</ele>
        <time>2021-04-06T11:06:27Z</time>
      </trkpt>
      <trkpt lat="57.68765" lon="-5.65754">
        <ele>30.99</ele>
        <time>2021-04-06T11:06:30Z</time>
      </trkpt>
      <trkpt lat="57.68782" lon="-5.65809">
        <ele>30.01</ele>
        <time>2021-04-06T11:06:33Z</time>
      </trkpt>
      <trkpt lat="57.68805" lon="-5.65869">
        <ele>29</ele>
        <time>2021-04-06T11:06:36Z</time>
      </trkpt>
      <trkpt lat="57.68824" lon="-5.65898">
        <ele>29</ele>
        <time>2021-04-06T11:06:39Z</time>
      </trkpt>
      <trkpt lat="57.68848" lon="-5.65922">
        <ele>28.48</ele>
        <time>2021-04-06T11:06:43Z</time>
      </trkpt>
      <trkpt lat="57.68942" lon="-5.65974">
        <ele>28.14</ele>
        <time>2021-04-06T11:06:46Z</time>
      </trkpt>
      <trkpt lat="57.6898" lon="-5.65999">
        <ele>27.72</ele>
        <time>2021-04-06T11:06:49Z</time>
      </trkpt>
      <trkpt lat="57.69052" lon="-5.66063">
        <ele>25.73</ele>
        <time>2021-04-06T11:06:52Z</time>
      </trkpt>
      <trkpt lat="57.69079" lon="-5.66078">
        <ele>26.05</ele>
        <time>2021-04-06T11:06:56Z</time>
      </trkpt>
      <trkpt lat="57.69096" lon="-5.66071">
        <ele>25.98</ele>
        <time>2021-04-06T11:06:59Z</time>
      </trkpt>
      <trkpt lat="57.6911" lon="-5.66059">
        <ele>25.91</ele>
        <time>2021-04-06T11:07:02Z</time>
      </trkpt>
      <trkpt lat="57.69159" lon="-5.65994">
        <ele>24</ele>
        <time>2021-04-06T11:07:05Z</time>
      </trkpt>
      <trkpt lat="57.69239" lon="-5.6588">
        <ele>23.2</ele>
        <time>2021-04-06T11:07:08Z</time>
      </trkpt>
      <trkpt lat="57.69343" lon="-5.65742">
        <ele>23.27</ele>
        <time>2021-04-06T11:07:12Z</time>
      </trkpt>
      <trkpt lat="57.69367" lon="-5.65714">
        <ele>22.28</ele>
        <time>2021-04-06T11:07:15Z</time>
      </trkpt>
      <trkpt lat="57.69365" lon="-5.6573">
        <ele>21.76</ele>
        <time>2021-04-06T11:07:17Z</time>
      </trkpt>
      <trkpt lat="57.69365" lon="-5.65866">
        <ele>21</ele>
        <time>2021-04-06T11:07:20Z</time>
      </trkpt>
      <trkpt lat="57.6936" lon="-5.6591">
        <ele>21.79</ele>
        <time>2021-04-06T11:07:22Z</time>
      </trkpt>
      <trkpt lat="57.69335" lon="-5.66001">
        <ele>23.99</ele>
        <time>2021-04-06T11:07:24Z</time>
      </trkpt>
      <trkpt lat="57.69297" lon="-5.66094">
        <ele>27.08</ele>
        <time>2021-04-06T11:07:27Z</time>
      </trkpt>
      <trkpt lat="57.69267" lon="-5.6615">
        <ele>29.22</ele>
        <time>2021-04-06T11:07:29Z</time>
      </trkpt>
      <trkpt lat="57.6922" lon="-5.66184">
        <ele>29.74</ele>
        <time>2021-04-06T11:07:31Z</time>
      </trkpt>
      <trkpt lat="57.69198" lon="-5.66232">
        <ele>32.34</ele>
        <time>2021-04-06T11:07:33Z</time>
      </trkpt>
      <trkpt lat="57.69176" lon="-5.66275">
        <ele>33.26</ele>
        <time>2021-04-06T11:07:36Z</time>
      </trkpt>
      <trkpt lat="57.69148" lon="-5.66309">
        <ele>35.49</ele>
        <time>2021-04-06T11:07:38Z</time>
      </trkpt>
      <trkpt lat="57.69092" lon="-5.66316">
        <ele>36.87</ele>
        <time>2021-04-06T11:07:40Z</time>
      </trkpt>
      <trkpt lat="57.69081" lon="-5.66329">
        <ele>38.57</ele>
        <time>2021-04-06T11:07:43Z</time>
      </trkpt>
      <trkpt lat="57.69072" lon="-5.66357">
        <ele>41.57</ele>
        <time>2021-04-06T11:07:45Z</time>
      </trkpt>
      <trkpt lat="57.69065" lon="-5.66395">
        <ele>43.85</ele>
        <time>2021-04-06T11:07:47Z</time>
      </trkpt>
      <trkpt lat="57.69045" lon="-5.66438">
        <ele>46.15</ele>
        <time>2021-04-06T11:07:50Z</time>
      </trkpt>
      <trkpt lat="57.69019" lon="-5.66481">
        <ele>49.34</ele>
        <time>2021-04-06T11:07:52Z</time>
      </trkpt>
      <trkpt lat="57.6899" lon="-5.66536">
        <ele>50.5</ele>
        <time>2021-04-06T11:07:54Z</time>
      </trkpt>
      <trkpt lat="57.68971" lon="-5.66628">
        <ele>51</ele>
        <time>2021-04-06T11:07:57Z</time>
      </trkpt>
      <trkpt lat="57.68958" lon="-5.66713">
        <ele>53</ele>
        <time>2021-04-06T11:07:59Z</time>
      </trkpt>
      <trkpt lat="57.68935" lon="-5.66764">
        <ele>53.59</ele>
        <time>2021-04-06T11:08:01Z</time>
      </trkpt>
      <trkpt lat="57.68891" lon="-5.66829">
        <ele>52.19</ele>
        <time>2021-04-06T11:08:04Z</time>
      </trkpt>
      <trkpt lat="57.68855" lon="-5.66889">
        <ele>49.62</ele>
        <time>2021-04-06T11:08:06Z</time>
      </trkpt>
      <trkpt lat="57.68825" lon="-5.66963">
        <ele>51.13</ele>
        <time>2021-04-06T11:08:08Z</time>
      </trkpt>
      <trkpt lat="57.68797" lon="-5.67045">
        <ele>52.05</ele>
        <time>2021-04-06T11:08:10Z</time>
      </trkpt>
      <trkpt lat="57.68752" lon="-5.67157">
        <ele>48.94</ele>
        <time>2021-04-06T11:08:13Z</time>
      </trkpt>
      <trkpt lat="57.68708" lon="-5.67217">
        <ele>45.77</ele>
        <time>2021-04-06T11:08:15Z</time>
      </trkpt>
      <trkpt lat="57.68636" lon="-5.67275">
        <ele>44.71</ele>
        <time>2021-04-06T11:08:17Z</time>
      </trkpt>
      <trkpt lat="57.68582" lon="-5.67337">
        <ele>45.97</ele>
        <time>2021-04-06T11:08:20Z</time>
      </trkpt>
      <trkpt lat="57.6857" lon="-5.67366">
        <ele>45.7</ele>
        <time>2021-04-06T11:08:22Z</time>
      </trkpt>
      <trkpt lat="57.68563" lon="-5.67401">
        <ele>47.34</ele>
        <time>2021-04-06T11:08:24Z</time>
      </trkpt>
      <trkpt lat="57.68563" lon="-5.67401">
        <ele>47.34</ele>
        <time>2021-04-06T11:08:24Z</time>
      </trkpt>
      <trkpt lat="57.6857" lon="-5.67469">
        <ele>48.43</ele>
        <time>2021-04-06T11:08:27Z</time>
      </trkpt>
      <trkpt lat="57.68601" lon="-5.6757">
        <ele>50.29</ele>
        <time>2021-04-06T11:08:30Z</time>
      </trkpt>
      <trkpt lat="57.68678" lon="-5.67726">
        <ele>50.28</ele>
        <time>2021-04-06T11:08:33Z</time>
      </trkpt>
      <trkpt lat="57.68748" lon="-5.67896">
        <ele>25.33</ele>
        <time>2021-04-06T11:08:36Z</time>
      </trkpt>
      <trkpt lat="57.68768" lon="-5.67973">
        <ele>17.7</ele>
        <time>2021-04-06T11:08:39Z</time>
      </trkpt>
      <trkpt lat="57.68778" lon="-5.67997">
        <ele>16.09</ele>
        <time>2021-04-06T11:08:41Z</time>
      </trkpt>
      <trkpt lat="57.6883" lon="-5.68063">
        <ele>12.5</ele>
        <time>2021-04-06T11:08:44Z</time>
      </trkpt>
      <trkpt lat="57.68849" lon="-5.68092">
        <ele>12.42</ele>
        <time>2021-04-06T11:08:47Z</time>
      </trkpt>
      <trkpt lat="57.68879" lon="-5.68156">
        <ele>11.98</ele>
        <time>2021-04-06T11:08:50Z</time>
      </trkpt>
      <trkpt lat="57.68897" lon="-5.68221">
        <ele>9.51</ele>
        <time>2021-04-06T11:08:53Z</time>
      </trkpt>
      <trkpt lat="57.68901" lon="-5.68256">
        <ele>8.45</ele>
        <time>2021-04-06T11:08:56Z</time>
      </trkpt>
      <trkpt lat="57.68898" lon="-5.68335">
        <ele>9.51</ele>
        <time>2021-04-06T11:08:58Z</time>
      </trkpt>
      <trkpt lat="57.68899" lon="-5.68361">
        <ele>12.06</ele>
        <time>2021-04-06T11:09:01Z</time>
      </trkpt>
      <trkpt lat="57.6891" lon="-5.68408">
        <ele>12.79</ele>
        <time>2021-04-06T11:09:04Z</time>
      </trkpt>
      <trkpt lat="57.68928" lon="-5.68455">
        <ele>17.3</ele>
        <time>2021-04-06T11:09:07Z</time>
      </trkpt>
      <trkpt lat="57.68943" lon="-5.68525">
        <ele>13.21</ele>
        <time>2021-04-06T11:09:10Z</time>
      </trkpt>
      <trkpt lat="57.68961" lon="-5.68574">
        <ele>14.91</ele>
        <time>2021-04-06T11:09:13Z</time>
      </trkpt>
      <trkpt lat="57.68989" lon="-5.68634">
        <ele>14.98</ele>
        <time>2021-04-06T11:09:15Z</time>
      </trkpt>
      <trkpt lat="57.69012" lon="-5.6866">
        <ele>12.82</ele>
        <time>2021-04-06T11:09:18Z</time>
      </trkpt>
      <trkpt lat="57.69023" lon="-5.68688">
        <ele>11.95</ele>
        <time>2021-04-06T11:09:21Z</time>
      </trkpt>
      <trkpt lat="57.69025" lon="-5.68721">
        <ele>7.68</ele>
        <time>2021-04-06T11:09:24Z</time>
      </trkpt>
      <trkpt lat="57.6902" lon="-5.68822">
        <ele>10.93</ele>
        <time>2021-04-06T11:09:27Z</time>
      </trkpt>
      <trkpt lat="57.69025" lon="-5.68879">
        <ele>9.7</ele>
        <time>2021-04-06T11:09:30Z</time>
      </trkpt>
      <trkpt lat="57.69027" lon="-5.68959">
        <ele>10.83</ele>
        <time>2021-04-06T11:09:32Z</time>
      </trkpt>
      <trkpt lat="57.69043" lon="-5.69046">
        <ele>9.92</ele>
        <time>2021-04-06T11:09:35Z</time>
      </trkpt>
      <trkpt lat="57.69045" lon="-5.69084">
        <ele>11.41</ele>
        <time>2021-04-06T11:09:38Z</time>
      </trkpt>
      <trkpt lat="57.69039" lon="-5.69139">
        <ele>13.32</ele>
        <time>2021-04-06T11:09:41Z</time>
      </trkpt>
      <trkpt lat="57.69038" lon="-5.69185">
        <ele>13.49</ele>
        <time>2021-04-06T11:09:44Z</time>
      </trkpt>
      <trkpt lat="57.69052" lon="-5.69223">
        <ele>12.29</ele>
        <time>2021-04-06T11:09:47Z</time>
      </trkpt>
      <trkpt lat="57.69105" lon="-5.6924">
        <ele>13.9</ele>
        <time>2021-04-06T11:09:49Z</time>
      </trkpt>
      <trkpt lat="57.69133" lon="-5.69262">
        <ele>15.81</ele>
        <time>2021-04-06T11:09:52Z</time>
      </trkpt>
      <trkpt lat="57.69161" lon="-5.69313">
        <ele>20.26</ele>
        <time>2021-04-06T11:09:55Z</time>
      </trkpt>
      <trkpt lat="57.69173" lon="-5.69356">
        <ele>22.84</ele>
        <time>2021-04-06T11:09:58Z</time>
      </trkpt>
      <trkpt lat="57.69182" lon="-5.69399">
        <ele>23.23</ele>
        <time>2021-04-06T11:10:01Z</time>
      </trkpt>
      <trkpt lat="57.69161" lon="-5.69574">
        <ele>23.21</ele>
        <time>2021-04-06T11:10:04Z</time>
      </trkpt>
      <trkpt lat="57.69162" lon="-5.69617">
        <ele>23.45</ele>
        <time>2021-04-06T11:10:06Z</time>
      </trkpt>
      <trkpt lat="57.69171" lon="-5.69668">
        <ele>23.91</ele>
        <time>2021-04-06T11:10:09Z</time>
      </trkpt>
      <trkpt lat="57.69201" lon="-5.69757">
        <ele>26.63</ele>
        <time>2021-04-06T11:10:12Z</time>
      </trkpt>
      <trkpt lat="57.6923" lon="-5.69827">
        <ele>26.2</ele>
        <time>2021-04-06T11:10:15Z</time>
      </trkpt>
      <trkpt lat="57.69251" lon="-5.69896">
        <ele>28.47</ele>
        <time>2021-04-06T11:10:18Z</time>
      </trkpt>
      <trkpt lat="57.69307" lon="-5.70086">
        <ele>32.96</ele>
        <time>2021-04-06T11:10:21Z</time>
      </trkpt>
      <trkpt lat="57.69312" lon="-5.70124">
        <ele>33.1</ele>
        <time>2021-04-06T11:10:23Z</time>
      </trkpt>
      <trkpt lat="57.69309" lon="-5.70153">
        <ele>32.74</ele>
        <time>2021-04-06T11:10:26Z</time>
      </trkpt>
      <trkpt lat="57.69301" lon="-5.70173">
        <ele>33.06</ele>
        <time>2021-04-06T11:10:29Z</time>
      </trkpt>
      <trkpt lat="57.69269" lon="-5.70204">
        <ele>33.6</ele>
        <time>2021-04-06T11:10:32Z</time>
      </trkpt>
      <trkpt lat="57.69249" lon="-5.70231">
        <ele>35.1</ele>
        <time>2021-04-06T11:10:35Z</time>
      </trkpt>
      <trkpt lat="57.69238" lon="-5.70261">
        <ele>36.33</ele>
        <time>2021-04-06T11:10:38Z</time>
      </trkpt>
      <trkpt lat="57.69237" lon="-5.70291">
        <ele>37.16</ele>
        <time>2021-04-06T11:10:40Z</time>
      </trkpt>
      <trkpt lat="57.69246" lon="-5.70349">
        <ele>39.44</ele>
        <time>2021-04-06T11:10:43Z</time>
      </trkpt>
      <trkpt lat="57.69278" lon="-5.70489">
        <ele>41.98</ele>
        <time>2021-04-06T11:10:46Z</time>
      </trkpt>
      <trkpt lat="57.69284" lon="-5.70568">
        <ele>44.55</ele>
        <time>2021-04-06T11:10:49Z</time>
      </trkpt>
      <trkpt lat="57.69277" lon="-5.70674">
        <ele>47.48</ele>
        <time>2021-04-06T11:10:52Z</time>
      </trkpt>
      <trkpt lat="57.69261" lon="-5.70742">
        <ele>47.66</ele>
        <time>2021-04-06T11:10:55Z</time>
      </trkpt>
      <trkpt lat="57.69231" lon="-5.70832">
        <ele>44.65</ele>
        <time>2021-04-06T11:10:57Z</time>
      </trkpt>
      <trkpt lat="57.69212" lon="-5.70938">
        <ele>39.55</ele>
        <time>2021-04-06T11:11:00Z</time>
      </trkpt>
      <trkpt lat="57.69216" lon="-5.7098">
        <ele>37.03</ele>
        <time>2021-04-06T11:11:03Z</time>
      </trkpt>
      <trkpt lat="57.69265" lon="-5.71098">
        <ele>33.73</ele>
        <time>2021-04-06T11:11:06Z</time>
      </trkpt>
      <trkpt lat="57.69278" lon="-5.71152">
        <ele>33.99</ele>
        <time>2021-04-06T11:11:09Z</time>
      </trkpt>
      <trkpt lat="57.69276" lon="-5.7119">
        <ele>34.78</ele>
        <time>2021-04-06T11:11:12Z</time>
      </trkpt>
      <trkpt lat="57.69263" lon="-5.71221">
        <ele>35.42</ele>
        <time>2021-04-06T11:11:14Z</time>
      </trkpt>
      <trkpt lat="57.69238" lon="-5.71257">
        <ele>35.13</ele>
        <time>2021-04-06T11:11:17Z</time>
      </trkpt>
      <trkpt lat="57.69224" lon="-5.71319">
        <ele>33.09</ele>
        <time>2021-04-06T11:11:20Z</time>
      </trkpt>
      <trkpt lat="57.69219" lon="-5.71615">
        <ele>34.48</ele>
        <time>2021-04-06T11:11:23Z</time>
      </trkpt>
      <trkpt lat="57.69222" lon="-5.71682">
        <ele>34.03</ele>
        <time>2021-04-06T11:11:26Z</time>
      </trkpt>
      <trkpt lat="57.6923" lon="-5.71705">
        <ele>34.96</ele>
        <time>2021-04-06T11:11:29Z</time>
      </trkpt>
      <trkpt lat="57.69302" lon="-5.71807">
        <ele>37.64</ele>
        <time>2021-04-06T11:11:31Z</time>
      </trkpt>
      <trkpt lat="57.69305" lon="-5.7182">
        <ele>36.4</ele>
        <time>2021-04-06T11:11:34Z</time>
      </trkpt>
      <trkpt lat="57.69301" lon="-5.71855">
        <ele>34.15</ele>
        <time>2021-04-06T11:11:37Z</time>
      </trkpt>
      <trkpt lat="57.69301" lon="-5.71861">
        <ele>34</ele>
        <time>2021-04-06T11:11:40Z</time>
      </trkpt>
      <trkpt lat="57.69305" lon="-5.71872">
        <ele>34</ele>
        <time>2021-04-06T11:11:43Z</time>
      </trkpt>
      <trkpt lat="57.6931" lon="-5.71877">
        <ele>34.42</ele>
        <time>2021-04-06T11:11:46Z</time>
      </trkpt>
      <trkpt lat="57.69339" lon="-5.71889">
        <ele>36</ele>
        <time>2021-04-06T11:11:48Z</time>
      </trkpt>
      <trkpt lat="57.69376" lon="-5.71899">
        <ele>36.18</ele>
        <time>2021-04-06T11:11:51Z</time>
      </trkpt>
      <trkpt lat="57.69391" lon="-5.71916">
        <ele>35.76</ele>
        <time>2021-04-06T11:11:54Z</time>
      </trkpt>
      <trkpt lat="57.69399" lon="-5.7194">
        <ele>34.55</ele>
        <time>2021-04-06T11:11:57Z</time>
      </trkpt>
      <trkpt lat="57.69397" lon="-5.7197">
        <ele>34.16</ele>
        <time>2021-04-06T11:12:00Z</time>
      </trkpt>
      <trkpt lat="57.69366" lon="-5.72032">
        <ele>37.5</ele>
        <time>2021-04-06T11:12:03Z</time>
      </trkpt>
      <trkpt lat="57.69359" lon="-5.72065">
        <ele>38.58</ele>
        <time>2021-04-06T11:12:05Z</time>
      </trkpt>
      <trkpt lat="57.69361" lon="-5.72105">
        <ele>39.86</ele>
        <time>2021-04-06T11:12:08Z</time>
      </trkpt>
      <trkpt lat="57.69366" lon="-5.72148">
        <ele>40.69</ele>
        <time>2021-04-06T11:12:11Z</time>
      </trkpt>
      <trkpt lat="57.69395" lon="-5.72203">
        <ele>39.47</ele>
        <time>2021-04-06T11:12:14Z</time>
      </trkpt>
      <trkpt lat="57.69483" lon="-5.72344">
        <ele>34.01</ele>
        <time>2021-04-06T11:12:17Z</time>
      </trkpt>
      <trkpt lat="57.69497" lon="-5.72381">
        <ele>34.19</ele>
        <time>2021-04-06T11:12:20Z</time>
      </trkpt>
      <trkpt lat="57.69515" lon="-5.72396">
        <ele>33.61</ele>
        <time>2021-04-06T11:12:22Z</time>
      </trkpt>
      <trkpt lat="57.69543" lon="-5.72385">
        <ele>32.79</ele>
        <time>2021-04-06T11:12:25Z</time>
      </trkpt>
      <trkpt lat="57.69657" lon="-5.7232">
        <ele>24.96</ele>
        <time>2021-04-06T11:12:28Z</time>
      </trkpt>
      <trkpt lat="57.69674" lon="-5.72334">
        <ele>22.94</ele>
        <time>2021-04-06T11:12:31Z</time>
      </trkpt>
      <trkpt lat="57.69696" lon="-5.72397">
        <ele>23.04</ele>
        <time>2021-04-06T11:12:34Z</time>
      </trkpt>
      <trkpt lat="57.69727" lon="-5.72454">
        <ele>18.93</ele>
        <time>2021-04-06T11:12:37Z</time>
      </trkpt>
      <trkpt lat="57.69733" lon="-5.72491">
        <ele>17.67</ele>
        <time>2021-04-06T11:12:39Z</time>
      </trkpt>
      <trkpt lat="57.69745" lon="-5.72675">
        <ele>14.82</ele>
        <time>2021-04-06T11:12:42Z</time>
      </trkpt>
      <trkpt lat="57.69753" lon="-5.72738">
        <ele>14.46</ele>
        <time>2021-04-06T11:12:45Z</time>
      </trkpt>
      <trkpt lat="57.69798" lon="-5.72896">
        <ele>8.93</ele>
        <time>2021-04-06T11:12:48Z</time>
      </trkpt>
      <trkpt lat="57.69831" lon="-5.73097">
        <ele>10.33</ele>
        <time>2021-04-06T11:12:51Z</time>
      </trkpt>
      <trkpt lat="57.69835" lon="-5.73189">
        <ele>10.73</ele>
        <time>2021-04-06T11:12:54Z</time>
      </trkpt>
      <trkpt lat="57.69845" lon="-5.73289">
        <ele>12.4</ele>
        <time>2021-04-06T11:12:56Z</time>
      </trkpt>
      <trkpt lat="57.69849" lon="-5.73376">
        <ele>14.57</ele>
        <time>2021-04-06T11:12:59Z</time>
      </trkpt>
      <trkpt lat="57.69849" lon="-5.73411">
        <ele>14.91</ele>
        <time>2021-04-06T11:13:02Z</time>
      </trkpt>
      <trkpt lat="57.69847" lon="-5.73528">
        <ele>16.53</ele>
        <time>2021-04-06T11:13:05Z</time>
      </trkpt>
      <trkpt lat="57.69841" lon="-5.73626">
        <ele>17.07</ele>
        <time>2021-04-06T11:13:08Z</time>
      </trkpt>
      <trkpt lat="57.69844" lon="-5.7378">
        <ele>16.57</ele>
        <time>2021-04-06T11:13:11Z</time>
      </trkpt>
      <trkpt lat="57.69843" lon="-5.7385">
        <ele>17.09</ele>
        <time>2021-04-06T11:13:13Z</time>
      </trkpt>
      <trkpt lat="57.69836" lon="-5.73969">
        <ele>19.18</ele>
        <time>2021-04-06T11:13:16Z</time>
      </trkpt>
      <trkpt lat="57.69825" lon="-5.74039">
        <ele>19.06</ele>
        <time>2021-04-06T11:13:19Z</time>
      </trkpt>
      <trkpt lat="57.69811" lon="-5.7414">
        <ele>18.57</ele>
        <time>2021-04-06T11:13:22Z</time>
      </trkpt>
      <trkpt lat="57.6979" lon="-5.74263">
        <ele>18.45</ele>
        <time>2021-04-06T11:13:25Z</time>
      </trkpt>
      <trkpt lat="57.69779" lon="-5.74366">
        <ele>17.09</ele>
        <time>2021-04-06T11:13:28Z</time>
      </trkpt>
      <trkpt lat="57.69773" lon="-5.74445">
        <ele>17.45</ele>
        <time>2021-04-06T11:13:30Z</time>
      </trkpt>
      <trkpt lat="57.69773" lon="-5.74525">
        <ele>19.24</ele>
        <time>2021-04-06T11:13:33Z</time>
      </trkpt>
      <trkpt lat="57.69769" lon="-5.74717">
        <ele>17.7</ele>
        <time>2021-04-06T11:13:36Z</time>
      </trkpt>
      <trkpt lat="57.69775" lon="-5.74806">
        <ele>16</ele>
        <time>2021-04-06T11:13:39Z</time>
      </trkpt>
      <trkpt lat="57.69773" lon="-5.74898">
        <ele>16.27</ele>
        <time>2021-04-06T11:13:42Z</time>
      </trkpt>
      <trkpt lat="57.69748" lon="-5.75141">
        <ele>16.15</ele>
        <time>2021-04-06T11:13:45Z</time>
      </trkpt>
      <trkpt lat="57.69731" lon="-5.75313">
        <ele>18.32</ele>
        <time>2021-04-06T11:13:47Z</time>
      </trkpt>
      <trkpt lat="57.69728" lon="-5.75463">
        <ele>17.86</ele>
        <time>2021-04-06T11:13:50Z</time>
      </trkpt>
      <trkpt lat="57.69719" lon="-5.75566">
        <ele>18.08</ele>
        <time>2021-04-06T11:13:53Z</time>
      </trkpt>
      <trkpt lat="57.69713" lon="-5.7569">
        <ele>17.73</ele>
        <time>2021-04-06T11:13:56Z</time>
      </trkpt>
      <trkpt lat="57.6972" lon="-5.75804">
        <ele>17.99</ele>
        <time>2021-04-06T11:13:59Z</time>
      </trkpt>
      <trkpt lat="57.69728" lon="-5.75924">
        <ele>18.79</ele>
        <time>2021-04-06T11:14:02Z</time>
      </trkpt>
      <trkpt lat="57.69735" lon="-5.75986">
        <ele>19</ele>
        <time>2021-04-06T11:14:04Z</time>
      </trkpt>
      <trkpt lat="57.69765" lon="-5.76123">
        <ele>19.14</ele>
        <time>2021-04-06T11:14:07Z</time>
      </trkpt>
      <trkpt lat="57.69765" lon="-5.76206">
        <ele>17.32</ele>
        <time>2021-04-06T11:14:10Z</time>
      </trkpt>
      <trkpt lat="57.6976" lon="-5.76257">
        <ele>16.59</ele>
        <time>2021-04-06T11:14:13Z</time>
      </trkpt>
      <trkpt lat="57.6976" lon="-5.76257">
        <ele>16.59</ele>
        <time>2021-04-06T11:14:13Z</time>
      </trkpt>
      <trkpt lat="57.69688" lon="-5.76486">
        <ele>17.44</ele>
        <time>2021-04-06T11:14:17Z</time>
      </trkpt>
      <trkpt lat="57.6968" lon="-5.76539">
        <ele>19.03</ele>
        <time>2021-04-06T11:14:21Z</time>
      </trkpt>
      <trkpt lat="57.69661" lon="-5.76697">
        <ele>19.21</ele>
        <time>2021-04-06T11:14:24Z</time>
      </trkpt>
      <trkpt lat="57.69637" lon="-5.76877">
        <ele>19.2</ele>
        <time>2021-04-06T11:14:28Z</time>
      </trkpt>
      <trkpt lat="57.6963" lon="-5.77011">
        <ele>21.68</ele>
        <time>2021-04-06T11:14:32Z</time>
      </trkpt>
      <trkpt lat="57.69596" lon="-5.77184">
        <ele>25.45</ele>
        <time>2021-04-06T11:14:36Z</time>
      </trkpt>
      <trkpt lat="57.69565" lon="-5.7729">
        <ele>22.2</ele>
        <time>2021-04-06T11:14:40Z</time>
      </trkpt>
      <trkpt lat="57.69528" lon="-5.77392">
        <ele>21</ele>
        <time>2021-04-06T11:14:43Z</time>
      </trkpt>
      <trkpt lat="57.69518" lon="-5.77432">
        <ele>21.36</ele>
        <time>2021-04-06T11:14:47Z</time>
      </trkpt>
      <trkpt lat="57.69496" lon="-5.77476">
        <ele>21.43</ele>
        <time>2021-04-06T11:14:51Z</time>
      </trkpt>
      <trkpt lat="57.69438" lon="-5.7753">
        <ele>25.71</ele>
        <time>2021-04-06T11:14:55Z</time>
      </trkpt>
      <trkpt lat="57.69391" lon="-5.77594">
        <ele>29.42</ele>
        <time>2021-04-06T11:14:59Z</time>
      </trkpt>
      <trkpt lat="57.69327" lon="-5.77696">
        <ele>33.25</ele>
        <time>2021-04-06T11:15:02Z</time>
      </trkpt>
      <trkpt lat="57.69284" lon="-5.77717">
        <ele>35.59</ele>
        <time>2021-04-06T11:15:06Z</time>
      </trkpt>
      <trkpt lat="57.69253" lon="-5.77741">
        <ele>38.17</ele>
        <time>2021-04-06T11:15:10Z</time>
      </trkpt>
      <trkpt lat="57.69232" lon="-5.77766">
        <ele>39.57</ele>
        <time>2021-04-06T11:15:14Z</time>
      </trkpt>
      <trkpt lat="57.69216" lon="-5.77788">
        <ele>40.49</ele>
        <time>2021-04-06T11:15:18Z</time>
      </trkpt>
      <trkpt lat="57.6917" lon="-5.77864">
        <ele>41.22</ele>
        <time>2021-04-06T11:15:21Z</time>
      </trkpt>
      <trkpt lat="57.69154" lon="-5.77921">
        <ele>40.55</ele>
        <time>2021-04-06T11:15:25Z</time>
      </trkpt>
      <trkpt lat="57.69137" lon="-5.78054">
        <ele>37.76</ele>
        <time>2021-04-06T11:15:29Z</time>
      </trkpt>
      <trkpt lat="57.69124" lon="-5.78133">
        <ele>34.56</ele>
        <time>2021-04-06T11:15:33Z</time>
      </trkpt>
      <trkpt lat="57.69106" lon="-5.78189">
        <ele>34.81</ele>
        <time>2021-04-06T11:15:37Z</time>
      </trkpt>
      <trkpt lat="57.69059" lon="-5.78261">
        <ele>35.12</ele>
        <time>2021-04-06T11:15:41Z</time>
      </trkpt>
      <trkpt lat="57.69041" lon="-5.78293">
        <ele>35.04</ele>
        <time>2021-04-06T11:15:44Z</time>
      </trkpt>
      <trkpt lat="57.69031" lon="-5.78334">
        <ele>36.15</ele>
        <time>2021-04-06T11:15:48Z</time>
      </trkpt>
      <trkpt lat="57.69013" lon="-5.78367">
        <ele>36.66</ele>
        <time>2021-04-06T11:15:52Z</time>
      </trkpt>
      <trkpt lat="57.68986" lon="-5.78398">
        <ele>36.33</ele>
        <time>2021-04-06T11:15:56Z</time>
      </trkpt>
      <trkpt lat="57.68963" lon="-5.78436">
        <ele>34.73</ele>
        <time>2021-04-06T11:16:00Z</time>
      </trkpt>
      <trkpt lat="57.68942" lon="-5.78465">
        <ele>31.82</ele>
        <time>2021-04-06T11:16:03Z</time>
      </trkpt>
      <trkpt lat="57.68931" lon="-5.78501">
        <ele>30.98</ele>
        <time>2021-04-06T11:16:07Z</time>
      </trkpt>
      <trkpt lat="57.68933" lon="-5.78584">
        <ele>28.7</ele>
        <time>2021-04-06T11:16:11Z</time>
      </trkpt>
      <trkpt lat="57.68929" lon="-5.78608">
        <ele>26.21</ele>
        <time>2021-04-06T11:16:15Z</time>
      </trkpt>
      <trkpt lat="57.68929" lon="-5.78608">
        <ele>26.21</ele>
        <time>2021-04-06T11:16:15Z</time>
      </trkpt>
      <trkpt lat="57.68911" lon="-5.78622">
        <ele>25.03</ele>
        <time>2021-04-06T11:16:18Z</time>
      </trkpt>
      <trkpt lat="57.68889" lon="-5.78609">
        <ele>23.05</ele>
        <time>2021-04-06T11:16:22Z</time>
      </trkpt>
      <trkpt lat="57.68844" lon="-5.78564">
        <ele>19.64</ele>
        <time>2021-04-06T11:16:25Z</time>
      </trkpt>
      <trkpt lat="57.6878" lon="-5.78481">
        <ele>16.17</ele>
        <time>2021-04-06T11:16:28Z</time>
      </trkpt>
      <trkpt lat="57.68695" lon="-5.78316">
        <ele>8.03</ele>
        <time>2021-04-06T11:16:32Z</time>
      </trkpt>
      <trkpt lat="57.68665" lon="-5.78269">
        <ele>8.02</ele>
        <time>2021-04-06T11:16:35Z</time>
      </trkpt>
      <trkpt lat="57.68645" lon="-5.78258">
        <ele>8.55</ele>
        <time>2021-04-06T11:16:38Z</time>
      </trkpt>
      <trkpt lat="57.68606" lon="-5.78254">
        <ele>10.05</ele>
        <time>2021-04-06T11:16:42Z</time>
      </trkpt>
      <trkpt lat="57.68519" lon="-5.78253">
        <ele>13.62</ele>
        <time>2021-04-06T11:16:45Z</time>
      </trkpt>
      <trkpt lat="57.68509" lon="-5.78267">
        <ele>14.34</ele>
        <time>2021-04-06T11:16:49Z</time>
      </trkpt>
      <trkpt lat="57.68492" lon="-5.78367">
        <ele>16</ele>
        <time>2021-04-06T11:16:52Z</time>
      </trkpt>
      <trkpt lat="57.68457" lon="-5.78419">
        <ele>15</ele>
        <time>2021-04-06T11:16:55Z</time>
      </trkpt>
      <trkpt lat="57.68427" lon="-5.78445">
        <ele>14.99</ele>
        <time>2021-04-06T11:16:59Z</time>
      </trkpt>
      <trkpt lat="57.68408" lon="-5.7845">
        <ele>15.11</ele>
        <time>2021-04-06T11:17:02Z</time>
      </trkpt>
      <trkpt lat="57.68365" lon="-5.78451">
        <ele>15.77</ele>
        <time>2021-04-06T11:17:05Z</time>
      </trkpt>
      <trkpt lat="57.68172" lon="-5.78402">
        <ele>22.34</ele>
        <time>2021-04-06T11:17:09Z</time>
      </trkpt>
      <trkpt lat="57.68114" lon="-5.78392">
        <ele>23.99</ele>
        <time>2021-04-06T11:17:12Z</time>
      </trkpt>
      <trkpt lat="57.68086" lon="-5.78416">
        <ele>24</ele>
        <time>2021-04-06T11:17:16Z</time>
      </trkpt>
      <trkpt lat="57.68057" lon="-5.78437">
        <ele>24.97</ele>
        <time>2021-04-06T11:17:19Z</time>
      </trkpt>
      <trkpt lat="57.68005" lon="-5.78449">
        <ele>25.67</ele>
        <time>2021-04-06T11:17:22Z</time>
      </trkpt>
      <trkpt lat="57.67959" lon="-5.78464">
        <ele>23.98</ele>
        <time>2021-04-06T11:17:26Z</time>
      </trkpt>
      <trkpt lat="57.67938" lon="-5.78449">
        <ele>23.58</ele>
        <time>2021-04-06T11:17:29Z</time>
      </trkpt>
      <trkpt lat="57.67908" lon="-5.78404">
        <ele>25.64</ele>
        <time>2021-04-06T11:17:32Z</time>
      </trkpt>
      <trkpt lat="57.67767" lon="-5.78309">
        <ele>24.45</ele>
        <time>2021-04-06T11:17:36Z</time>
      </trkpt>
      <trkpt lat="57.67727" lon="-5.78311">
        <ele>22.97</ele>
        <time>2021-04-06T11:17:39Z</time>
      </trkpt>
      <trkpt lat="57.67671" lon="-5.78355">
        <ele>21.22</ele>
        <time>2021-04-06T11:17:43Z</time>
      </trkpt>
      <trkpt lat="57.67557" lon="-5.78455">
        <ele>17.66</ele>
        <time>2021-04-06T11:17:46Z</time>
      </trkpt>
      <trkpt lat="57.67464" lon="-5.78528">
        <ele>15.61</ele>
        <time>2021-04-06T11:17:49Z</time>
      </trkpt>
      <trkpt lat="57.67372" lon="-5.78614">
        <ele>20.94</ele>
        <time>2021-04-06T11:17:53Z</time>
      </trkpt>
      <trkpt lat="57.67351" lon="-5.7863">
        <ele>20.32</ele>
        <time>2021-04-06T11:17:56Z</time>
      </trkpt>
      <trkpt lat="57.67323" lon="-5.7868">
        <ele>20.18</ele>
        <time>2021-04-06T11:18:00Z</time>
      </trkpt>
      <trkpt lat="57.67307" lon="-5.78736">
        <ele>21.43</ele>
        <time>2021-04-06T11:18:03Z</time>
      </trkpt>
      <trkpt lat="57.67278" lon="-5.78887">
        <ele>22.99</ele>
        <time>2021-04-06T11:18:06Z</time>
      </trkpt>
      <trkpt lat="57.67217" lon="-5.79084">
        <ele>23.81</ele>
        <time>2021-04-06T11:18:10Z</time>
      </trkpt>
      <trkpt lat="57.67203" lon="-5.79192">
        <ele>23.91</ele>
        <time>2021-04-06T11:18:13Z</time>
      </trkpt>
      <trkpt lat="57.67197" lon="-5.79288">
        <ele>24.32</ele>
        <time>2021-04-06T11:18:16Z</time>
      </trkpt>
      <trkpt lat="57.67159" lon="-5.79589">
        <ele>23.41</ele>
        <time>2021-04-06T11:18:20Z</time>
      </trkpt>
      <trkpt lat="57.67146" lon="-5.79643">
        <ele>24.92</ele>
        <time>2021-04-06T11:18:23Z</time>
      </trkpt>
      <trkpt lat="57.67129" lon="-5.7968">
        <ele>26.11</ele>
        <time>2021-04-06T11:18:27Z</time>
      </trkpt>
      <trkpt lat="57.67105" lon="-5.79716">
        <ele>27.4</ele>
        <time>2021-04-06T11:18:30Z</time>
      </trkpt>
      <trkpt lat="57.67053" lon="-5.79768">
        <ele>31.1</ele>
        <time>2021-04-06T11:18:33Z</time>
      </trkpt>
      <trkpt lat="57.66991" lon="-5.79866">
        <ele>37.22</ele>
        <time>2021-04-06T11:18:37Z</time>
      </trkpt>
      <trkpt lat="57.66893" lon="-5.79987">
        <ele>47.4</ele>
        <time>2021-04-06T11:18:40Z</time>
      </trkpt>
      <trkpt lat="57.66814" lon="-5.80032">
        <ele>50.55</ele>
        <time>2021-04-06T11:18:43Z</time>
      </trkpt>
      <trkpt lat="57.66704" lon="-5.80077">
        <ele>54.6</ele>
        <time>2021-04-06T11:18:47Z</time>
      </trkpt>
      <trkpt lat="57.66694" lon="-5.80089">
        <ele>55</ele>
        <time>2021-04-06T11:18:50Z</time>
      </trkpt>
      <trkpt lat="57.66665" lon="-5.80142">
        <ele>56.06</ele>
        <time>2021-04-06T11:18:54Z</time>
      </trkpt>
      <trkpt lat="57.66585" lon="-5.80221">
        <ele>59.83</ele>
        <time>2021-04-06T11:18:57Z</time>
      </trkpt>
      <trkpt lat="57.66435" lon="-5.80347">
        <ele>62.67</ele>
        <time>2021-04-06T11:19:00Z</time>
      </trkpt>
      <trkpt lat="57.66316" lon="-5.80453">
        <ele>60.59</ele>
        <time>2021-04-06T11:19:04Z</time>
      </trkpt>
      <trkpt lat="57.66297" lon="-5.80453">
        <ele>59.57</ele>
        <time>2021-04-06T11:19:07Z</time>
      </trkpt>
      <trkpt lat="57.66252" lon="-5.80397">
        <ele>60.85</ele>
        <time>2021-04-06T11:19:10Z</time>
      </trkpt>
      <trkpt lat="57.66236" lon="-5.80385">
        <ele>60.62</ele>
        <time>2021-04-06T11:19:14Z</time>
      </trkpt>
      <trkpt lat="57.66222" lon="-5.80393">
        <ele>60.17</ele>
        <time>2021-04-06T11:19:17Z</time>
      </trkpt>
      <trkpt lat="57.66218" lon="-5.80417">
        <ele>61.33</ele>
        <time>2021-04-06T11:19:21Z</time>
      </trkpt>
      <trkpt lat="57.6623" lon="-5.80473">
        <ele>61.21</ele>
        <time>2021-04-06T11:19:24Z</time>
      </trkpt>
      <trkpt lat="57.6623" lon="-5.8051">
        <ele>60.91</ele>
        <time>2021-04-06T11:19:27Z</time>
      </trkpt>
      <trkpt lat="57.66222" lon="-5.80523">
        <ele>61.19</ele>
        <time>2021-04-06T11:19:31Z</time>
      </trkpt>
      <trkpt lat="57.66154" lon="-5.80531">
        <ele>60.49</ele>
        <time>2021-04-06T11:19:34Z</time>
      </trkpt>
      <trkpt lat="57.66034" lon="-5.80508">
        <ele>56.88</ele>
        <time>2021-04-06T11:19:37Z</time>
      </trkpt>
      <trkpt lat="57.65977" lon="-5.80493">
        <ele>54.81</ele>
        <time>2021-04-06T11:19:41Z</time>
      </trkpt>
      <trkpt lat="57.65952" lon="-5.80481">
        <ele>53.94</ele>
        <time>2021-04-06T11:19:44Z</time>
      </trkpt>
      <trkpt lat="57.65917" lon="-5.80447">
        <ele>52.9</ele>
        <time>2021-04-06T11:19:48Z</time>
      </trkpt>
      <trkpt lat="57.6587" lon="-5.80368">
        <ele>51.1</ele>
        <time>2021-04-06T11:19:51Z</time>
      </trkpt>
      <trkpt lat="57.65852" lon="-5.80329">
        <ele>50.96</ele>
        <time>2021-04-06T11:19:54Z</time>
      </trkpt>
      <trkpt lat="57.65834" lon="-5.8031">
        <ele>49.68</ele>
        <time>2021-04-06T11:19:58Z</time>
      </trkpt>
      <trkpt lat="57.65819" lon="-5.80307">
        <ele>48.38</ele>
        <time>2021-04-06T11:20:01Z</time>
      </trkpt>
      <trkpt lat="57.65807" lon="-5.80318">
        <ele>46.71</ele>
        <time>2021-04-06T11:20:05Z</time>
      </trkpt>
      <trkpt lat="57.65787" lon="-5.80353">
        <ele>45.3</ele>
        <time>2021-04-06T11:20:08Z</time>
      </trkpt>
      <trkpt lat="57.65769" lon="-5.8036">
        <ele>45.4</ele>
        <time>2021-04-06T11:20:11Z</time>
      </trkpt>
      <trkpt lat="57.65722" lon="-5.80347">
        <ele>47.5</ele>
        <time>2021-04-06T11:20:15Z</time>
      </trkpt>
      <trkpt lat="57.65578" lon="-5.80341">
        <ele>45.53</ele>
        <time>2021-04-06T11:20:18Z</time>
      </trkpt>
      <trkpt lat="57.65482" lon="-5.80351">
        <ele>40.08</ele>
        <time>2021-04-06T11:20:21Z</time>
      </trkpt>
      <trkpt lat="57.6547" lon="-5.8037">
        <ele>38.61</ele>
        <time>2021-04-06T11:20:25Z</time>
      </trkpt>
      <trkpt lat="57.65454" lon="-5.80409">
        <ele>35.85</ele>
        <time>2021-04-06T11:20:28Z</time>
      </trkpt>
      <trkpt lat="57.65439" lon="-5.80417">
        <ele>34.57</ele>
        <time>2021-04-06T11:20:32Z</time>
      </trkpt>
      <trkpt lat="57.65325" lon="-5.80344">
        <ele>29.2</ele>
        <time>2021-04-06T11:20:35Z</time>
      </trkpt>
      <trkpt lat="57.6531" lon="-5.8033">
        <ele>27.81</ele>
        <time>2021-04-06T11:20:38Z</time>
      </trkpt>
      <trkpt lat="57.65287" lon="-5.80326">
        <ele>26.59</ele>
        <time>2021-04-06T11:20:42Z</time>
      </trkpt>
      <trkpt lat="57.65193" lon="-5.80263">
        <ele>23.55</ele>
        <time>2021-04-06T11:20:45Z</time>
      </trkpt>
      <trkpt lat="57.65183" lon="-5.80272">
        <ele>23.22</ele>
        <time>2021-04-06T11:20:48Z</time>
      </trkpt>
      <trkpt lat="57.65075" lon="-5.80338">
        <ele>21</ele>
        <time>2021-04-06T11:20:52Z</time>
      </trkpt>
      <trkpt lat="57.65075" lon="-5.80338">
        <ele>21</ele>
        <time>2021-04-06T11:20:52Z</time>
      </trkpt>
      <trkpt lat="57.65183" lon="-5.80272">
        <ele>23.22</ele>
        <time>2021-04-06T11:20:56Z</time>
      </trkpt>
      <trkpt lat="57.65193" lon="-5.80263">
        <ele>23.55</ele>
        <time>2021-04-06T11:20:59Z</time>
      </trkpt>
      <trkpt lat="57.65287" lon="-5.80326">
        <ele>26.59</ele>
        <time>2021-04-06T11:21:03Z</time>
      </trkpt>
      <trkpt lat="57.6531" lon="-5.8033">
        <ele>27.81</ele>
        <time>2021-04-06T11:21:07Z</time>
      </trkpt>
      <trkpt lat="57.65325" lon="-5.80344">
        <ele>29.2</ele>
        <time>2021-04-06T11:21:10Z</time>
      </trkpt>
      <trkpt lat="57.65439" lon="-5.80417">
        <ele>34.57</ele>
        <time>2021-04-06T11:21:14Z</time>
      </trkpt>
      <trkpt lat="57.65454" lon="-5.80409">
        <ele>35.85</ele>
        <time>2021-04-06T11:21:18Z</time>
      </trkpt>
      <trkpt lat="57.6547" lon="-5.8037">
        <ele>38.61</ele>
        <time>2021-04-06T11:21:21Z</time>
      </trkpt>
      <trkpt lat="57.65482" lon="-5.80351">
        <ele>40.08</ele>
        <time>2021-04-06T11:21:25Z</time>
      </trkpt>
      <trkpt lat="57.65578" lon="-5.80341">
        <ele>45.53</ele>
        <time>2021-04-06T11:21:29Z</time>
      </trkpt>
      <trkpt lat="57.65722" lon="-5.80347">
        <ele>47.5</ele>
        <time>2021-04-06T11:21:32Z</time>
      </trkpt>
      <trkpt lat="57.65769" lon="-5.8036">
        <ele>45.4</ele>
        <time>2021-04-06T11:21:36Z</time>
      </trkpt>
      <trkpt lat="57.65787" lon="-5.80353">
        <ele>45.3</ele>
        <time>2021-04-06T11:21:40Z</time>
      </trkpt>
      <trkpt lat="57.65807" lon="-5.80318">
        <ele>46.71</ele>
        <time>2021-04-06T11:21:43Z</time>
      </trkpt>
      <trkpt lat="57.65819" lon="-5.80307">
        <ele>48.38</ele>
        <time>2021-04-06T11:21:47Z</time>
      </trkpt>
      <trkpt lat="57.65834" lon="-5.8031">
        <ele>49.68</ele>
        <time>2021-04-06T11:21:51Z</time>
      </trkpt>
      <trkpt lat="57.65852" lon="-5.80329">
        <ele>50.96</ele>
        <time>2021-04-06T11:21:55Z</time>
      </trkpt>
      <trkpt lat="57.6587" lon="-5.80368">
        <ele>51.1</ele>
        <time>2021-04-06T11:21:58Z</time>
      </trkpt>
      <trkpt lat="57.65917" lon="-5.80447">
        <ele>52.9</ele>
        <time>2021-04-06T11:22:02Z</time>
      </trkpt>
      <trkpt lat="57.65952" lon="-5.80481">
        <ele>53.94</ele>
        <time>2021-04-06T11:22:06Z</time>
      </trkpt>
      <trkpt lat="57.65977" lon="-5.80493">
        <ele>54.81</ele>
        <time>2021-04-06T11:22:09Z</time>
      </trkpt>
      <trkpt lat="57.66034" lon="-5.80508">
        <ele>56.88</ele>
        <time>2021-04-06T11:22:13Z</time>
      </trkpt>
      <trkpt lat="57.66154" lon="-5.80531">
        <ele>60.49</ele>
        <time>2021-04-06T11:22:17Z</time>
      </trkpt>
      <trkpt lat="57.66222" lon="-5.80523">
        <ele>60.84</ele>
        <time>2021-04-06T11:22:20Z</time>
      </trkpt>
      <trkpt lat="57.66222" lon="-5.80523">
        <ele>60.84</ele>
        <time>2021-04-06T11:22:20Z</time>
      </trkpt>
      <trkpt lat="57.6623" lon="-5.8051">
        <ele>60.91</ele>
        <time>2021-04-06T11:22:23Z</time>
      </trkpt>
      <trkpt lat="57.6623" lon="-5.80473">
        <ele>61.21</ele>
        <time>2021-04-06T11:22:26Z</time>
      </trkpt>
      <trkpt lat="57.66218" lon="-5.80417">
        <ele>61.33</ele>
        <time>2021-04-06T11:22:29Z</time>
      </trkpt>
      <trkpt lat="57.66222" lon="-5.80393">
        <ele>60.17</ele>
        <time>2021-04-06T11:22:32Z</time>
      </trkpt>
      <trkpt lat="57.66236" lon="-5.80385">
        <ele>60.62</ele>
        <time>2021-04-06T11:22:35Z</time>
      </trkpt>
      <trkpt lat="57.66252" lon="-5.80397">
        <ele>60.85</ele>
        <time>2021-04-06T11:22:38Z</time>
      </trkpt>
      <trkpt lat="57.66297" lon="-5.80453">
        <ele>59.57</ele>
        <time>2021-04-06T11:22:41Z</time>
      </trkpt>
      <trkpt lat="57.66316" lon="-5.80453">
        <ele>60.59</ele>
        <time>2021-04-06T11:22:44Z</time>
      </trkpt>
      <trkpt lat="57.66435" lon="-5.80347">
        <ele>62.67</ele>
        <time>2021-04-06T11:22:47Z</time>
      </trkpt>
      <trkpt lat="57.66585" lon="-5.80221">
        <ele>59.83</ele>
        <time>2021-04-06T11:22:50Z</time>
      </trkpt>
      <trkpt lat="57.66665" lon="-5.80142">
        <ele>56.06</ele>
        <time>2021-04-06T11:22:53Z</time>
      </trkpt>
      <trkpt lat="57.66694" lon="-5.80089">
        <ele>55</ele>
        <time>2021-04-06T11:22:56Z</time>
      </trkpt>
      <trkpt lat="57.66704" lon="-5.80077">
        <ele>54.6</ele>
        <time>2021-04-06T11:22:59Z</time>
      </trkpt>
      <trkpt lat="57.66814" lon="-5.80032">
        <ele>50.55</ele>
        <time>2021-04-06T11:23:02Z</time>
      </trkpt>
      <trkpt lat="57.66893" lon="-5.79987">
        <ele>47.4</ele>
        <time>2021-04-06T11:23:05Z</time>
      </trkpt>
      <trkpt lat="57.66991" lon="-5.79866">
        <ele>37.22</ele>
        <time>2021-04-06T11:23:08Z</time>
      </trkpt>
      <trkpt lat="57.67053" lon="-5.79768">
        <ele>31.1</ele>
        <time>2021-04-06T11:23:11Z</time>
      </trkpt>
      <trkpt lat="57.67105" lon="-5.79716">
        <ele>27.4</ele>
        <time>2021-04-06T11:23:14Z</time>
      </trkpt>
      <trkpt lat="57.67129" lon="-5.7968">
        <ele>26.11</ele>
        <time>2021-04-06T11:23:17Z</time>
      </trkpt>
      <trkpt lat="57.67146" lon="-5.79643">
        <ele>24.92</ele>
        <time>2021-04-06T11:23:21Z</time>
      </trkpt>
      <trkpt lat="57.67159" lon="-5.79589">
        <ele>23.41</ele>
        <time>2021-04-06T11:23:24Z</time>
      </trkpt>
      <trkpt lat="57.67197" lon="-5.79288">
        <ele>24.32</ele>
        <time>2021-04-06T11:23:27Z</time>
      </trkpt>
      <trkpt lat="57.67203" lon="-5.79192">
        <ele>23.91</ele>
        <time>2021-04-06T11:23:30Z</time>
      </trkpt>
      <trkpt lat="57.67217" lon="-5.79084">
        <ele>23.81</ele>
        <time>2021-04-06T11:23:33Z</time>
      </trkpt>
      <trkpt lat="57.67278" lon="-5.78887">
        <ele>22.99</ele>
        <time>2021-04-06T11:23:36Z</time>
      </trkpt>
      <trkpt lat="57.67307" lon="-5.78736">
        <ele>21.43</ele>
        <time>2021-04-06T11:23:39Z</time>
      </trkpt>
      <trkpt lat="57.67323" lon="-5.7868">
        <ele>20.18</ele>
        <time>2021-04-06T11:23:42Z</time>
      </trkpt>
      <trkpt lat="57.67351" lon="-5.7863">
        <ele>20.32</ele>
        <time>2021-04-06T11:23:45Z</time>
      </trkpt>
      <trkpt lat="57.67372" lon="-5.78614">
        <ele>20.94</ele>
        <time>2021-04-06T11:23:48Z</time>
      </trkpt>
      <trkpt lat="57.67464" lon="-5.78528">
        <ele>15.61</ele>
        <time>2021-04-06T11:23:51Z</time>
      </trkpt>
      <trkpt lat="57.67557" lon="-5.78455">
        <ele>17.66</ele>
        <time>2021-04-06T11:23:54Z</time>
      </trkpt>
      <trkpt lat="57.67671" lon="-5.78355">
        <ele>21.22</ele>
        <time>2021-04-06T11:23:57Z</time>
      </trkpt>
      <trkpt lat="57.67727" lon="-5.78311">
        <ele>22.97</ele>
        <time>2021-04-06T11:24:00Z</time>
      </trkpt>
      <trkpt lat="57.67767" lon="-5.78309">
        <ele>24.45</ele>
        <time>2021-04-06T11:24:03Z</time>
      </trkpt>
      <trkpt lat="57.67908" lon="-5.78404">
        <ele>25.64</ele>
        <time>2021-04-06T11:24:06Z</time>
      </trkpt>
      <trkpt lat="57.67938" lon="-5.78449">
        <ele>23.58</ele>
        <time>2021-04-06T11:24:09Z</time>
      </trkpt>
      <trkpt lat="57.67959" lon="-5.78464">
        <ele>23.98</ele>
        <time>2021-04-06T11:24:12Z</time>
      </trkpt>
      <trkpt lat="57.68005" lon="-5.78449">
        <ele>25.67</ele>
        <time>2021-04-06T11:24:15Z</time>
      </trkpt>
      <trkpt lat="57.68057" lon="-5.78437">
        <ele>24.97</ele>
        <time>2021-04-06T11:24:18Z</time>
      </trkpt>
      <trkpt lat="57.68086" lon="-5.78416">
        <ele>24</ele>
        <time>2021-04-06T11:24:21Z</time>
      </trkpt>
      <trkpt lat="57.68114" lon="-5.78392">
        <ele>23.99</ele>
        <time>2021-04-06T11:24:24Z</time>
      </trkpt>
      <trkpt lat="57.68172" lon="-5.78402">
        <ele>22.34</ele>
        <time>2021-04-06T11:24:27Z</time>
      </trkpt>
      <trkpt lat="57.68365" lon="-5.78451">
        <ele>15.77</ele>
        <time>2021-04-06T11:24:30Z</time>
      </trkpt>
      <trkpt lat="57.68408" lon="-5.7845">
        <ele>15.11</ele>
        <time>2021-04-06T11:24:33Z</time>
      </trkpt>
      <trkpt lat="57.68427" lon="-5.78445">
        <ele>14.99</ele>
        <time>2021-04-06T11:24:36Z</time>
      </trkpt>
      <trkpt lat="57.68457" lon="-5.78419">
        <ele>15</ele>
        <time>2021-04-06T11:24:39Z</time>
      </trkpt>
      <trkpt lat="57.68492" lon="-5.78367">
        <ele>16</ele>
        <time>2021-04-06T11:24:42Z</time>
      </trkpt>
      <trkpt lat="57.68509" lon="-5.78267">
        <ele>14.34</ele>
        <time>2021-04-06T11:24:45Z</time>
      </trkpt>
      <trkpt lat="57.68519" lon="-5.78253">
        <ele>13.62</ele>
        <time>2021-04-06T11:24:48Z</time>
      </trkpt>
      <trkpt lat="57.68606" lon="-5.78254">
        <ele>10.05</ele>
        <time>2021-04-06T11:24:51Z</time>
      </trkpt>
      <trkpt lat="57.68645" lon="-5.78258">
        <ele>8.55</ele>
        <time>2021-04-06T11:24:54Z</time>
      </trkpt>
      <trkpt lat="57.68665" lon="-5.78269">
        <ele>8.02</ele>
        <time>2021-04-06T11:24:57Z</time>
      </trkpt>
      <trkpt lat="57.68695" lon="-5.78316">
        <ele>8.03</ele>
        <time>2021-04-06T11:25:00Z</time>
      </trkpt>
      <trkpt lat="57.6878" lon="-5.78481">
        <ele>16.17</ele>
        <time>2021-04-06T11:25:03Z</time>
      </trkpt>
      <trkpt lat="57.68844" lon="-5.78564">
        <ele>19.64</ele>
        <time>2021-04-06T11:25:06Z</time>
      </trkpt>
      <trkpt lat="57.68889" lon="-5.78609">
        <ele>23.05</ele>
        <time>2021-04-06T11:25:09Z</time>
      </trkpt>
      <trkpt lat="57.68911" lon="-5.78622">
        <ele>25.03</ele>
        <time>2021-04-06T11:25:12Z</time>
      </trkpt>
      <trkpt lat="57.68929" lon="-5.78608">
        <ele>27.4</ele>
        <time>2021-04-06T11:25:15Z</time>
      </trkpt>
      <trkpt lat="57.68933" lon="-5.78584">
        <ele>28.7</ele>
        <time>2021-04-06T11:25:18Z</time>
      </trkpt>
      <trkpt lat="57.68931" lon="-5.78501">
        <ele>30.98</ele>
        <time>2021-04-06T11:25:21Z</time>
      </trkpt>
      <trkpt lat="57.68942" lon="-5.78465">
        <ele>31.82</ele>
        <time>2021-04-06T11:25:24Z</time>
      </trkpt>
      <trkpt lat="57.68963" lon="-5.78436">
        <ele>34.73</ele>
        <time>2021-04-06T11:25:27Z</time>
      </trkpt>
      <trkpt lat="57.68986" lon="-5.78398">
        <ele>36.33</ele>
        <time>2021-04-06T11:25:30Z</time>
      </trkpt>
      <trkpt lat="57.69013" lon="-5.78367">
        <ele>36.66</ele>
        <time>2021-04-06T11:25:33Z</time>
      </trkpt>
      <trkpt lat="57.69031" lon="-5.78334">
        <ele>36.15</ele>
        <time>2021-04-06T11:25:36Z</time>
      </trkpt>
      <trkpt lat="57.69041" lon="-5.78293">
        <ele>35.04</ele>
        <time>2021-04-06T11:25:39Z</time>
      </trkpt>
      <trkpt lat="57.69059" lon="-5.78261">
        <ele>35.12</ele>
        <time>2021-04-06T11:25:42Z</time>
      </trkpt>
      <trkpt lat="57.69106" lon="-5.78189">
        <ele>34.81</ele>
        <time>2021-04-06T11:25:45Z</time>
      </trkpt>
      <trkpt lat="57.69124" lon="-5.78133">
        <ele>34.56</ele>
        <time>2021-04-06T11:25:48Z</time>
      </trkpt>
      <trkpt lat="57.69137" lon="-5.78054">
        <ele>37.76</ele>
        <time>2021-04-06T11:25:51Z</time>
      </trkpt>
      <trkpt lat="57.69154" lon="-5.77921">
        <ele>40.55</ele>
        <time>2021-04-06T11:25:54Z</time>
      </trkpt>
      <trkpt lat="57.6917" lon="-5.77864">
        <ele>41.22</ele>
        <time>2021-04-06T11:25:57Z</time>
      </trkpt>
      <trkpt lat="57.69216" lon="-5.77788">
        <ele>40.49</ele>
        <time>2021-04-06T11:26:00Z</time>
      </trkpt>
      <trkpt lat="57.69232" lon="-5.77766">
        <ele>39.57</ele>
        <time>2021-04-06T11:26:03Z</time>
      </trkpt>
      <trkpt lat="57.69253" lon="-5.77741">
        <ele>38.17</ele>
        <time>2021-04-06T11:26:06Z</time>
      </trkpt>
      <trkpt lat="57.69284" lon="-5.77717">
        <ele>35.59</ele>
        <time>2021-04-06T11:26:09Z</time>
      </trkpt>
      <trkpt lat="57.69327" lon="-5.77696">
        <ele>33.25</ele>
        <time>2021-04-06T11:26:12Z</time>
      </trkpt>
      <trkpt lat="57.69391" lon="-5.77594">
        <ele>29.42</ele>
        <time>2021-04-06T11:26:15Z</time>
      </trkpt>
      <trkpt lat="57.69438" lon="-5.7753">
        <ele>25.71</ele>
        <time>2021-04-06T11:26:18Z</time>
      </trkpt>
      <trkpt lat="57.69496" lon="-5.77476">
        <ele>21.43</ele>
        <time>2021-04-06T11:26:21Z</time>
      </trkpt>
      <trkpt lat="57.69518" lon="-5.77432">
        <ele>21.36</ele>
        <time>2021-04-06T11:26:24Z</time>
      </trkpt>
      <trkpt lat="57.69528" lon="-5.77392">
        <ele>21</ele>
        <time>2021-04-06T11:26:27Z</time>
      </trkpt>
      <trkpt lat="57.69565" lon="-5.7729">
        <ele>21.6</ele>
        <time>2021-04-06T11:26:30Z</time>
      </trkpt>
      <trkpt lat="57.69565" lon="-5.7729">
        <ele>21.6</ele>
        <time>2021-04-06T11:26:30Z</time>
      </trkpt>
      <trkpt lat="57.69596" lon="-5.77184">
        <ele>25.45</ele>
        <time>2021-04-06T11:26:33Z</time>
      </trkpt>
      <trkpt lat="57.6963" lon="-5.77011">
        <ele>21.68</ele>
        <time>2021-04-06T11:26:37Z</time>
      </trkpt>
      <trkpt lat="57.69637" lon="-5.76877">
        <ele>19.2</ele>
        <time>2021-04-06T11:26:40Z</time>
      </trkpt>
      <trkpt lat="57.69661" lon="-5.76697">
        <ele>19.21</ele>
        <time>2021-04-06T11:26:43Z</time>
      </trkpt>
      <trkpt lat="57.6968" lon="-5.76539">
        <ele>19.03</ele>
        <time>2021-04-06T11:26:46Z</time>
      </trkpt>
      <trkpt lat="57.69688" lon="-5.76486">
        <ele>17.44</ele>
        <time>2021-04-06T11:26:49Z</time>
      </trkpt>
      <trkpt lat="57.6976" lon="-5.76257">
        <ele>15.74</ele>
        <time>2021-04-06T11:26:52Z</time>
      </trkpt>
      <trkpt lat="57.69765" lon="-5.76206">
        <ele>17.32</ele>
        <time>2021-04-06T11:26:55Z</time>
      </trkpt>
      <trkpt lat="57.69765" lon="-5.76123">
        <ele>19.14</ele>
        <time>2021-04-06T11:26:59Z</time>
      </trkpt>
      <trkpt lat="57.69735" lon="-5.75986">
        <ele>19</ele>
        <time>2021-04-06T11:27:02Z</time>
      </trkpt>
      <trkpt lat="57.69728" lon="-5.75924">
        <ele>18.79</ele>
        <time>2021-04-06T11:27:05Z</time>
      </trkpt>
      <trkpt lat="57.6972" lon="-5.75804">
        <ele>17.99</ele>
        <time>2021-04-06T11:27:08Z</time>
      </trkpt>
      <trkpt lat="57.69713" lon="-5.7569">
        <ele>17.73</ele>
        <time>2021-04-06T11:27:11Z</time>
      </trkpt>
      <trkpt lat="57.69719" lon="-5.75566">
        <ele>18.08</ele>
        <time>2021-04-06T11:27:14Z</time>
      </trkpt>
      <trkpt lat="57.69728" lon="-5.75463">
        <ele>17.86</ele>
        <time>2021-04-06T11:27:17Z</time>
      </trkpt>
      <trkpt lat="57.69731" lon="-5.75313">
        <ele>18.32</ele>
        <time>2021-04-06T11:27:21Z</time>
      </trkpt>
      <trkpt lat="57.69748" lon="-5.75141">
        <ele>16.15</ele>
        <time>2021-04-06T11:27:24Z</time>
      </trkpt>
      <trkpt lat="57.69773" lon="-5.74898">
        <ele>16.27</ele>
        <time>2021-04-06T11:27:27Z</time>
      </trkpt>
      <trkpt lat="57.69775" lon="-5.74806">
        <ele>16</ele>
        <time>2021-04-06T11:27:30Z</time>
      </trkpt>
      <trkpt lat="57.69769" lon="-5.74717">
        <ele>17.7</ele>
        <time>2021-04-06T11:27:33Z</time>
      </trkpt>
      <trkpt lat="57.69773" lon="-5.74525">
        <ele>19.24</ele>
        <time>2021-04-06T11:27:36Z</time>
      </trkpt>
      <trkpt lat="57.69773" lon="-5.74445">
        <ele>17.45</ele>
        <time>2021-04-06T11:27:39Z</time>
      </trkpt>
      <trkpt lat="57.69779" lon="-5.74366">
        <ele>17.09</ele>
        <time>2021-04-06T11:27:43Z</time>
      </trkpt>
      <trkpt lat="57.6979" lon="-5.74263">
        <ele>18.45</ele>
        <time>2021-04-06T11:27:46Z</time>
      </trkpt>
      <trkpt lat="57.69811" lon="-5.7414">
        <ele>18.57</ele>
        <time>2021-04-06T11:27:49Z</time>
      </trkpt>
      <trkpt lat="57.69825" lon="-5.74039">
        <ele>19.06</ele>
        <time>2021-04-06T11:27:52Z</time>
      </trkpt>
      <trkpt lat="57.69836" lon="-5.73969">
        <ele>19.18</ele>
        <time>2021-04-06T11:27:55Z</time>
      </trkpt>
      <trkpt lat="57.69843" lon="-5.7385">
        <ele>17.09</ele>
        <time>2021-04-06T11:27:58Z</time>
      </trkpt>
      <trkpt lat="57.69844" lon="-5.7378">
        <ele>16.57</ele>
        <time>2021-04-06T11:28:01Z</time>
      </trkpt>
      <trkpt lat="57.69841" lon="-5.73626">
        <ele>17.07</ele>
        <time>2021-04-06T11:28:05Z</time>
      </trkpt>
      <trkpt lat="57.69847" lon="-5.73528">
        <ele>16.53</ele>
        <time>2021-04-06T11:28:08Z</time>
      </trkpt>
      <trkpt lat="57.69849" lon="-5.73411">
        <ele>14.91</ele>
        <time>2021-04-06T11:28:11Z</time>
      </trkpt>
      <trkpt lat="57.69849" lon="-5.73376">
        <ele>14.57</ele>
        <time>2021-04-06T11:28:14Z</time>
      </trkpt>
      <trkpt lat="57.69845" lon="-5.73289">
        <ele>12.4</ele>
        <time>2021-04-06T11:28:17Z</time>
      </trkpt>
      <trkpt lat="57.69835" lon="-5.73189">
        <ele>10.73</ele>
        <time>2021-04-06T11:28:20Z</time>
      </trkpt>
      <trkpt lat="57.69831" lon="-5.73097">
        <ele>10.33</ele>
        <time>2021-04-06T11:28:24Z</time>
      </trkpt>
      <trkpt lat="57.69798" lon="-5.72896">
        <ele>8.93</ele>
        <time>2021-04-06T11:28:27Z</time>
      </trkpt>
      <trkpt lat="57.69753" lon="-5.72738">
        <ele>14.46</ele>
        <time>2021-04-06T11:28:30Z</time>
      </trkpt>
      <trkpt lat="57.69745" lon="-5.72675">
        <ele>14.82</ele>
        <time>2021-04-06T11:28:33Z</time>
      </trkpt>
      <trkpt lat="57.69733" lon="-5.72491">
        <ele>17.67</ele>
        <time>2021-04-06T11:28:36Z</time>
      </trkpt>
      <trkpt lat="57.69727" lon="-5.72454">
        <ele>18.93</ele>
        <time>2021-04-06T11:28:39Z</time>
      </trkpt>
      <trkpt lat="57.69696" lon="-5.72397">
        <ele>23.04</ele>
        <time>2021-04-06T11:28:42Z</time>
      </trkpt>
      <trkpt lat="57.69674" lon="-5.72334">
        <ele>22.94</ele>
        <time>2021-04-06T11:28:46Z</time>
      </trkpt>
      <trkpt lat="57.69657" lon="-5.7232">
        <ele>24.96</ele>
        <time>2021-04-06T11:28:49Z</time>
      </trkpt>
      <trkpt lat="57.69543" lon="-5.72385">
        <ele>32.79</ele>
        <time>2021-04-06T11:28:52Z</time>
      </trkpt>
      <trkpt lat="57.69515" lon="-5.72396">
        <ele>33.61</ele>
        <time>2021-04-06T11:28:55Z</time>
      </trkpt>
      <trkpt lat="57.69497" lon="-5.72381">
        <ele>34.19</ele>
        <time>2021-04-06T11:28:58Z</time>
      </trkpt>
      <trkpt lat="57.69483" lon="-5.72344">
        <ele>34.01</ele>
        <time>2021-04-06T11:29:01Z</time>
      </trkpt>
      <trkpt lat="57.69395" lon="-5.72203">
        <ele>39.47</ele>
        <time>2021-04-06T11:29:04Z</time>
      </trkpt>
      <trkpt lat="57.69366" lon="-5.72148">
        <ele>40.69</ele>
        <time>2021-04-06T11:29:08Z</time>
      </trkpt>
      <trkpt lat="57.69361" lon="-5.72105">
        <ele>39.86</ele>
        <time>2021-04-06T11:29:11Z</time>
      </trkpt>
      <trkpt lat="57.69359" lon="-5.72065">
        <ele>38.58</ele>
        <time>2021-04-06T11:29:14Z</time>
      </trkpt>
      <trkpt lat="57.69366" lon="-5.72032">
        <ele>37.5</ele>
        <time>2021-04-06T11:29:17Z</time>
      </trkpt>
      <trkpt lat="57.69397" lon="-5.7197">
        <ele>34.16</ele>
        <time>2021-04-06T11:29:20Z</time>
      </trkpt>
      <trkpt lat="57.69399" lon="-5.7194">
        <ele>34.55</ele>
        <time>2021-04-06T11:29:23Z</time>
      </trkpt>
      <trkpt lat="57.69391" lon="-5.71916">
        <ele>35.76</ele>
        <time>2021-04-06T11:29:26Z</time>
      </trkpt>
      <trkpt lat="57.69376" lon="-5.71899">
        <ele>36.18</ele>
        <time>2021-04-06T11:29:30Z</time>
      </trkpt>
      <trkpt lat="57.69339" lon="-5.71889">
        <ele>36</ele>
        <time>2021-04-06T11:29:33Z</time>
      </trkpt>
      <trkpt lat="57.6931" lon="-5.71877">
        <ele>34.42</ele>
        <time>2021-04-06T11:29:36Z</time>
      </trkpt>
      <trkpt lat="57.69305" lon="-5.71872">
        <ele>34</ele>
        <time>2021-04-06T11:29:39Z</time>
      </trkpt>
      <trkpt lat="57.69301" lon="-5.71861">
        <ele>34</ele>
        <time>2021-04-06T11:29:42Z</time>
      </trkpt>
      <trkpt lat="57.69301" lon="-5.71855">
        <ele>34.15</ele>
        <time>2021-04-06T11:29:45Z</time>
      </trkpt>
      <trkpt lat="57.69305" lon="-5.7182">
        <ele>36.4</ele>
        <time>2021-04-06T11:29:48Z</time>
      </trkpt>
      <trkpt lat="57.69302" lon="-5.71807">
        <ele>37.64</ele>
        <time>2021-04-06T11:29:52Z</time>
      </trkpt>
      <trkpt lat="57.6923" lon="-5.71705">
        <ele>34.96</ele>
        <time>2021-04-06T11:29:55Z</time>
      </trkpt>
      <trkpt lat="57.69222" lon="-5.71682">
        <ele>34.03</ele>
        <time>2021-04-06T11:29:58Z</time>
      </trkpt>
      <trkpt lat="57.69219" lon="-5.71615">
        <ele>34.48</ele>
        <time>2021-04-06T11:30:01Z</time>
      </trkpt>
      <trkpt lat="57.69224" lon="-5.71319">
        <ele>33.09</ele>
        <time>2021-04-06T11:30:04Z</time>
      </trkpt>
      <trkpt lat="57.69238" lon="-5.71257">
        <ele>35.13</ele>
        <time>2021-04-06T11:30:07Z</time>
      </trkpt>
      <trkpt lat="57.69263" lon="-5.71221">
        <ele>35.42</ele>
        <time>2021-04-06T11:30:11Z</time>
      </trkpt>
      <trkpt lat="57.69276" lon="-5.7119">
        <ele>34.78</ele>
        <time>2021-04-06T11:30:14Z</time>
      </trkpt>
      <trkpt lat="57.69278" lon="-5.71152">
        <ele>33.99</ele>
        <time>2021-04-06T11:30:17Z</time>
      </trkpt>
      <trkpt lat="57.69265" lon="-5.71098">
        <ele>33.73</ele>
        <time>2021-04-06T11:30:20Z</time>
      </trkpt>
      <trkpt lat="57.69216" lon="-5.7098">
        <ele>37.03</ele>
        <time>2021-04-06T11:30:23Z</time>
      </trkpt>
      <trkpt lat="57.69212" lon="-5.70938">
        <ele>39.55</ele>
        <time>2021-04-06T11:30:26Z</time>
      </trkpt>
      <trkpt lat="57.69231" lon="-5.70832">
        <ele>44.65</ele>
        <time>2021-04-06T11:30:29Z</time>
      </trkpt>
      <trkpt lat="57.69261" lon="-5.70742">
        <ele>47.66</ele>
        <time>2021-04-06T11:30:33Z</time>
      </trkpt>
      <trkpt lat="57.69277" lon="-5.70674">
        <ele>47.48</ele>
        <time>2021-04-06T11:30:36Z</time>
      </trkpt>
      <trkpt lat="57.69284" lon="-5.70568">
        <ele>44.55</ele>
        <time>2021-04-06T11:30:39Z</time>
      </trkpt>
      <trkpt lat="57.69278" lon="-5.70489">
        <ele>41.98</ele>
        <time>2021-04-06T11:30:42Z</time>
      </trkpt>
      <trkpt lat="57.69246" lon="-5.70349">
        <ele>39.44</ele>
        <time>2021-04-06T11:30:45Z</time>
      </trkpt>
      <trkpt lat="57.69237" lon="-5.70291">
        <ele>37.16</ele>
        <time>2021-04-06T11:30:48Z</time>
      </trkpt>
      <trkpt lat="57.69238" lon="-5.70261">
        <ele>36.33</ele>
        <time>2021-04-06T11:30:51Z</time>
      </trkpt>
      <trkpt lat="57.69249" lon="-5.70231">
        <ele>35.1</ele>
        <time>2021-04-06T11:30:55Z</time>
      </trkpt>
      <trkpt lat="57.69269" lon="-5.70204">
        <ele>33.6</ele>
        <time>2021-04-06T11:30:58Z</time>
      </trkpt>
      <trkpt lat="57.69301" lon="-5.70173">
        <ele>33.06</ele>
        <time>2021-04-06T11:31:01Z</time>
      </trkpt>
      <trkpt lat="57.69309" lon="-5.70153">
        <ele>32.74</ele>
        <time>2021-04-06T11:31:04Z</time>
      </trkpt>
      <trkpt lat="57.69312" lon="-5.70124">
        <ele>33.1</ele>
        <time>2021-04-06T11:31:07Z</time>
      </trkpt>
      <trkpt lat="57.69307" lon="-5.70086">
        <ele>32.96</ele>
        <time>2021-04-06T11:31:10Z</time>
      </trkpt>
      <trkpt lat="57.69251" lon="-5.69896">
        <ele>28.47</ele>
        <time>2021-04-06T11:31:13Z</time>
      </trkpt>
      <trkpt lat="57.6923" lon="-5.69827">
        <ele>26.2</ele>
        <time>2021-04-06T11:31:17Z</time>
      </trkpt>
      <trkpt lat="57.69201" lon="-5.69757">
        <ele>26.63</ele>
        <time>2021-04-06T11:31:20Z</time>
      </trkpt>
      <trkpt lat="57.69171" lon="-5.69668">
        <ele>23.91</ele>
        <time>2021-04-06T11:31:23Z</time>
      </trkpt>
      <trkpt lat="57.69162" lon="-5.69617">
        <ele>23.45</ele>
        <time>2021-04-06T11:31:26Z</time>
      </trkpt>
      <trkpt lat="57.69161" lon="-5.69574">
        <ele>23.21</ele>
        <time>2021-04-06T11:31:29Z</time>
      </trkpt>
      <trkpt lat="57.69182" lon="-5.69399">
        <ele>23.23</ele>
        <time>2021-04-06T11:31:32Z</time>
      </trkpt>
      <trkpt lat="57.69173" lon="-5.69356">
        <ele>22.84</ele>
        <time>2021-04-06T11:31:35Z</time>
      </trkpt>
      <trkpt lat="57.69161" lon="-5.69313">
        <ele>20.26</ele>
        <time>2021-04-06T11:31:39Z</time>
      </trkpt>
      <trkpt lat="57.69133" lon="-5.69262">
        <ele>15.81</ele>
        <time>2021-04-06T11:31:42Z</time>
      </trkpt>
      <trkpt lat="57.69105" lon="-5.6924">
        <ele>13.9</ele>
        <time>2021-04-06T11:31:45Z</time>
      </trkpt>
      <trkpt lat="57.69052" lon="-5.69223">
        <ele>12.29</ele>
        <time>2021-04-06T11:31:48Z</time>
      </trkpt>
      <trkpt lat="57.69038" lon="-5.69185">
        <ele>13.49</ele>
        <time>2021-04-06T11:31:51Z</time>
      </trkpt>
      <trkpt lat="57.69039" lon="-5.69139">
        <ele>13.32</ele>
        <time>2021-04-06T11:31:54Z</time>
      </trkpt>
      <trkpt lat="57.69045" lon="-5.69084">
        <ele>11.41</ele>
        <time>2021-04-06T11:31:58Z</time>
      </trkpt>
      <trkpt lat="57.69043" lon="-5.69046">
        <ele>9.92</ele>
        <time>2021-04-06T11:32:01Z</time>
      </trkpt>
      <trkpt lat="57.69027" lon="-5.68959">
        <ele>10.83</ele>
        <time>2021-04-06T11:32:04Z</time>
      </trkpt>
      <trkpt lat="57.69025" lon="-5.68879">
        <ele>9.7</ele>
        <time>2021-04-06T11:32:07Z</time>
      </trkpt>
      <trkpt lat="57.6902" lon="-5.68822">
        <ele>10.93</ele>
        <time>2021-04-06T11:32:10Z</time>
      </trkpt>
      <trkpt lat="57.69025" lon="-5.68721">
        <ele>7.68</ele>
        <time>2021-04-06T11:32:13Z</time>
      </trkpt>
      <trkpt lat="57.69023" lon="-5.68688">
        <ele>11.95</ele>
        <time>2021-04-06T11:32:16Z</time>
      </trkpt>
      <trkpt lat="57.69012" lon="-5.6866">
        <ele>12.82</ele>
        <time>2021-04-06T11:32:20Z</time>
      </trkpt>
      <trkpt lat="57.68989" lon="-5.68634">
        <ele>14.98</ele>
        <time>2021-04-06T11:32:23Z</time>
      </trkpt>
      <trkpt lat="57.68961" lon="-5.68574">
        <ele>14.91</ele>
        <time>2021-04-06T11:32:26Z</time>
      </trkpt>
      <trkpt lat="57.68943" lon="-5.68525">
        <ele>13.21</ele>
        <time>2021-04-06T11:32:29Z</time>
      </trkpt>
      <trkpt lat="57.68928" lon="-5.68455">
        <ele>17.3</ele>
        <time>2021-04-06T11:32:32Z</time>
      </trkpt>
      <trkpt lat="57.6891" lon="-5.68408">
        <ele>12.79</ele>
        <time>2021-04-06T11:32:35Z</time>
      </trkpt>
      <trkpt lat="57.68899" lon="-5.68361">
        <ele>12.06</ele>
        <time>2021-04-06T11:32:38Z</time>
      </trkpt>
      <trkpt lat="57.68898" lon="-5.68335">
        <ele>9.51</ele>
        <time>2021-04-06T11:32:42Z</time>
      </trkpt>
      <trkpt lat="57.68901" lon="-5.68256">
        <ele>8.45</ele>
        <time>2021-04-06T11:32:45Z</time>
      </trkpt>
      <trkpt lat="57.68897" lon="-5.68221">
        <ele>9.51</ele>
        <time>2021-04-06T11:32:48Z</time>
      </trkpt>
      <trkpt lat="57.68879" lon="-5.68156">
        <ele>11.98</ele>
        <time>2021-04-06T11:32:51Z</time>
      </trkpt>
      <trkpt lat="57.68849" lon="-5.68092">
        <ele>12.42</ele>
        <time>2021-04-06T11:32:54Z</time>
      </trkpt>
      <trkpt lat="57.6883" lon="-5.68063">
        <ele>12.5</ele>
        <time>2021-04-06T11:32:57Z</time>
      </trkpt>
      <trkpt lat="57.68778" lon="-5.67997">
        <ele>16.09</ele>
        <time>2021-04-06T11:33:00Z</time>
      </trkpt>
      <trkpt lat="57.68768" lon="-5.67973">
        <ele>17.7</ele>
        <time>2021-04-06T11:33:04Z</time>
      </trkpt>
      <trkpt lat="57.68748" lon="-5.67896">
        <ele>25.33</ele>
        <time>2021-04-06T11:33:07Z</time>
      </trkpt>
      <trkpt lat="57.68678" lon="-5.67726">
        <ele>50.28</ele>
        <time>2021-04-06T11:33:10Z</time>
      </trkpt>
      <trkpt lat="57.68601" lon="-5.6757">
        <ele>50.29</ele>
        <time>2021-04-06T11:33:13Z</time>
      </trkpt>
      <trkpt lat="57.6857" lon="-5.67469">
        <ele>48.43</ele>
        <time>2021-04-06T11:33:16Z</time>
      </trkpt>
      <trkpt lat="57.68563" lon="-5.67401">
        <ele>47.34</ele>
        <time>2021-04-06T11:33:19Z</time>
      </trkpt>
      <trkpt lat="57.68563" lon="-5.67401">
        <ele>47.34</ele>
        <time>2021-04-06T11:33:19Z</time>
      </trkpt>
      <trkpt lat="57.6857" lon="-5.67366">
        <ele>45.7</ele>
        <time>2021-04-06T11:33:22Z</time>
      </trkpt>
      <trkpt lat="57.68582" lon="-5.67337">
        <ele>45.97</ele>
        <time>2021-04-06T11:33:24Z</time>
      </trkpt>
      <trkpt lat="57.68636" lon="-5.67275">
        <ele>44.71</ele>
        <time>2021-04-06T11:33:26Z</time>
      </trkpt>
      <trkpt lat="57.68708" lon="-5.67217">
        <ele>45.77</ele>
        <time>2021-04-06T11:33:29Z</time>
      </trkpt>
      <trkpt lat="57.68752" lon="-5.67157">
        <ele>48.94</ele>
        <time>2021-04-06T11:33:31Z</time>
      </trkpt>
      <trkpt lat="57.68797" lon="-5.67045">
        <ele>52.05</ele>
        <time>2021-04-06T11:33:33Z</time>
      </trkpt>
      <trkpt lat="57.68825" lon="-5.66963">
        <ele>51.13</ele>
        <time>2021-04-06T11:33:36Z</time>
      </trkpt>
      <trkpt lat="57.68855" lon="-5.66889">
        <ele>49.62</ele>
        <time>2021-04-06T11:33:38Z</time>
      </trkpt>
      <trkpt lat="57.68891" lon="-5.66829">
        <ele>52.19</ele>
        <time>2021-04-06T11:33:40Z</time>
      </trkpt>
      <trkpt lat="57.68935" lon="-5.66764">
        <ele>53.59</ele>
        <time>2021-04-06T11:33:43Z</time>
      </trkpt>
      <trkpt lat="57.68958" lon="-5.66713">
        <ele>53</ele>
        <time>2021-04-06T11:33:45Z</time>
      </trkpt>
      <trkpt lat="57.68971" lon="-5.66628">
        <ele>51</ele>
        <time>2021-04-06T11:33:47Z</time>
      </trkpt>
      <trkpt lat="57.6899" lon="-5.66536">
        <ele>50.5</ele>
        <time>2021-04-06T11:33:50Z</time>
      </trkpt>
      <trkpt lat="57.69019" lon="-5.66481">
        <ele>49.34</ele>
        <time>2021-04-06T11:33:52Z</time>
      </trkpt>
      <trkpt lat="57.69045" lon="-5.66438">
        <ele>46.15</ele>
        <time>2021-04-06T11:33:54Z</time>
      </trkpt>
      <trkpt lat="57.69065" lon="-5.66395">
        <ele>43.85</ele>
        <time>2021-04-06T11:33:56Z</time>
      </trkpt>
      <trkpt lat="57.69072" lon="-5.66357">
        <ele>41.57</ele>
        <time>2021-04-06T11:33:59Z</time>
      </trkpt>
      <trkpt lat="57.69081" lon="-5.66329">
        <ele>38.57</ele>
        <time>2021-04-06T11:34:01Z</time>
      </trkpt>
      <trkpt lat="57.69092" lon="-5.66316">
        <ele>36.87</ele>
        <time>2021-04-06T11:34:03Z</time>
      </trkpt>
      <trkpt lat="57.69148" lon="-5.66309">
        <ele>35.49</ele>
        <time>2021-04-06T11:34:06Z</time>
      </trkpt>
      <trkpt lat="57.69176" lon="-5.66275">
        <ele>33.26</ele>
        <time>2021-04-06T11:34:08Z</time>
      </trkpt>
      <trkpt lat="57.69198" lon="-5.66232">
        <ele>32.34</ele>
        <time>2021-04-06T11:34:10Z</time>
      </trkpt>
      <trkpt lat="57.6922" lon="-5.66184">
        <ele>29.74</ele>
        <time>2021-04-06T11:34:13Z</time>
      </trkpt>
      <trkpt lat="57.69267" lon="-5.6615">
        <ele>29.22</ele>
        <time>2021-04-06T11:34:15Z</time>
      </trkpt>
      <trkpt lat="57.69297" lon="-5.66094">
        <ele>27.08</ele>
        <time>2021-04-06T11:34:17Z</time>
      </trkpt>
      <trkpt lat="57.69335" lon="-5.66001">
        <ele>23.99</ele>
        <time>2021-04-06T11:34:20Z</time>
      </trkpt>
      <trkpt lat="57.6936" lon="-5.6591">
        <ele>21.79</ele>
        <time>2021-04-06T11:34:22Z</time>
      </trkpt>
      <trkpt lat="57.69365" lon="-5.65866">
        <ele>21</ele>
        <time>2021-04-06T11:34:24Z</time>
      </trkpt>
      <trkpt lat="57.69365" lon="-5.6573">
        <ele>21.76</ele>
        <time>2021-04-06T11:34:27Z</time>
      </trkpt>
      <trkpt lat="57.69367" lon="-5.65714">
        <ele>22.28</ele>
        <time>2021-04-06T11:34:29Z</time>
      </trkpt>
      <trkpt lat="57.69367" lon="-5.65714">
        <ele>22.78</ele>
        <time>2021-04-06T11:34:29Z</time>
      </trkpt>
      <trkpt lat="57.69367" lon="-5.65714">
        <ele>22.78</ele>
        <time>2021-04-06T11:34:29Z</time>
      </trkpt>
      <trkpt lat="57.69386" lon="-5.65699">
        <ele>22.85</ele>
        <time>2021-04-06T11:34:33Z</time>
      </trkpt>
      <trkpt lat="57.69478" lon="-5.65691">
        <ele>21.19</ele>
        <time>2021-04-06T11:34:38Z</time>
      </trkpt>
      <trkpt lat="57.69622" lon="-5.65672">
        <ele>21.61</ele>
        <time>2021-04-06T11:34:42Z</time>
      </trkpt>
      <trkpt lat="57.69639" lon="-5.65673">
        <ele>21.01</ele>
        <time>2021-04-06T11:34:46Z</time>
      </trkpt>
      <trkpt lat="57.69656" lon="-5.65684">
        <ele>21.23</ele>
        <time>2021-04-06T11:34:51Z</time>
      </trkpt>
      <trkpt lat="57.69675" lon="-5.6571">
        <ele>21.44</ele>
        <time>2021-04-06T11:34:55Z</time>
      </trkpt>
      <trkpt lat="57.69721" lon="-5.65784">
        <ele>24.01</ele>
        <time>2021-04-06T11:34:59Z</time>
      </trkpt>
      <trkpt lat="57.69734" lon="-5.65816">
        <ele>24</ele>
        <time>2021-04-06T11:35:04Z</time>
      </trkpt>
      <trkpt lat="57.69751" lon="-5.65867">
        <ele>23.05</ele>
        <time>2021-04-06T11:35:08Z</time>
      </trkpt>
      <trkpt lat="57.69785" lon="-5.65957">
        <ele>25.86</ele>
        <time>2021-04-06T11:35:12Z</time>
      </trkpt>
      <trkpt lat="57.69859" lon="-5.66165">
        <ele>25.17</ele>
        <time>2021-04-06T11:35:17Z</time>
      </trkpt>
      <trkpt lat="57.69907" lon="-5.66265">
        <ele>24.35</ele>
        <time>2021-04-06T11:35:21Z</time>
      </trkpt>
      <trkpt lat="57.69954" lon="-5.66351">
        <ele>23.29</ele>
        <time>2021-04-06T11:35:26Z</time>
      </trkpt>
      <trkpt lat="57.69983" lon="-5.6639">
        <ele>22.13</ele>
        <time>2021-04-06T11:35:30Z</time>
      </trkpt>
      <trkpt lat="57.70016" lon="-5.66425">
        <ele>23.13</ele>
        <time>2021-04-06T11:35:34Z</time>
      </trkpt>
      <trkpt lat="57.70114" lon="-5.66482">
        <ele>24.43</ele>
        <time>2021-04-06T11:35:39Z</time>
      </trkpt>
      <trkpt lat="57.70133" lon="-5.66507">
        <ele>23.6</ele>
        <time>2021-04-06T11:35:43Z</time>
      </trkpt>
      <trkpt lat="57.70149" lon="-5.66535">
        <ele>23.79</ele>
        <time>2021-04-06T11:35:47Z</time>
      </trkpt>
      <trkpt lat="57.70173" lon="-5.6657">
        <ele>25.24</ele>
        <time>2021-04-06T11:35:52Z</time>
      </trkpt>
      <trkpt lat="57.70203" lon="-5.66598">
        <ele>29.1</ele>
        <time>2021-04-06T11:35:56Z</time>
      </trkpt>
      <trkpt lat="57.70247" lon="-5.66615">
        <ele>33.74</ele>
        <time>2021-04-06T11:36:00Z</time>
      </trkpt>
      <trkpt lat="57.70294" lon="-5.66649">
        <ele>35.81</ele>
        <time>2021-04-06T11:36:05Z</time>
      </trkpt>
      <trkpt lat="57.70327" lon="-5.6666">
        <ele>38.71</ele>
        <time>2021-04-06T11:36:09Z</time>
      </trkpt>
      <trkpt lat="57.70356" lon="-5.66675">
        <ele>39.18</ele>
        <time>2021-04-06T11:36:14Z</time>
      </trkpt>
      <trkpt lat="57.70374" lon="-5.66693">
        <ele>38.58</ele>
        <time>2021-04-06T11:36:18Z</time>
      </trkpt>
      <trkpt lat="57.70389" lon="-5.66715">
        <ele>37.54</ele>
        <time>2021-04-06T11:36:22Z</time>
      </trkpt>
      <trkpt lat="57.70403" lon="-5.66749">
        <ele>37.03</ele>
        <time>2021-04-06T11:36:27Z</time>
      </trkpt>
      <trkpt lat="57.70413" lon="-5.66787">
        <ele>37.48</ele>
        <time>2021-04-06T11:36:31Z</time>
      </trkpt>
      <trkpt lat="57.70418" lon="-5.66828">
        <ele>38.38</ele>
        <time>2021-04-06T11:36:35Z</time>
      </trkpt>
      <trkpt lat="57.70426" lon="-5.66951">
        <ele>42.34</ele>
        <time>2021-04-06T11:36:40Z</time>
      </trkpt>
      <trkpt lat="57.7043" lon="-5.66993">
        <ele>43.46</ele>
        <time>2021-04-06T11:36:44Z</time>
      </trkpt>
      <trkpt lat="57.7045" lon="-5.67053">
        <ele>46.73</ele>
        <time>2021-04-06T11:36:48Z</time>
      </trkpt>
      <trkpt lat="57.70467" lon="-5.67086">
        <ele>49.46</ele>
        <time>2021-04-06T11:36:53Z</time>
      </trkpt>
      <trkpt lat="57.70509" lon="-5.67147">
        <ele>50.9</ele>
        <time>2021-04-06T11:36:57Z</time>
      </trkpt>
      <trkpt lat="57.70597" lon="-5.67262">
        <ele>49.83</ele>
        <time>2021-04-06T11:37:01Z</time>
      </trkpt>
      <trkpt lat="57.70647" lon="-5.67319">
        <ele>48.24</ele>
        <time>2021-04-06T11:37:06Z</time>
      </trkpt>
      <trkpt lat="57.70684" lon="-5.67352">
        <ele>45.64</ele>
        <time>2021-04-06T11:37:10Z</time>
      </trkpt>
      <trkpt lat="57.70755" lon="-5.67434">
        <ele>40.84</ele>
        <time>2021-04-06T11:37:15Z</time>
      </trkpt>
      <trkpt lat="57.70798" lon="-5.67492">
        <ele>37.16</ele>
        <time>2021-04-06T11:37:19Z</time>
      </trkpt>
      <trkpt lat="57.70856" lon="-5.67577">
        <ele>34.38</ele>
        <time>2021-04-06T11:37:23Z</time>
      </trkpt>
      <trkpt lat="57.70885" lon="-5.67605">
        <ele>31.6</ele>
        <time>2021-04-06T11:37:28Z</time>
      </trkpt>
      <trkpt lat="57.70932" lon="-5.6763">
        <ele>25.67</ele>
        <time>2021-04-06T11:37:32Z</time>
      </trkpt>
      <trkpt lat="57.71" lon="-5.67663">
        <ele>24.25</ele>
        <time>2021-04-06T11:37:36Z</time>
      </trkpt>
      <trkpt lat="57.71072" lon="-5.67685">
        <ele>18.76</ele>
        <time>2021-04-06T11:37:41Z</time>
      </trkpt>
      <trkpt lat="57.71163" lon="-5.67698">
        <ele>11.44</ele>
        <time>2021-04-06T11:37:45Z</time>
      </trkpt>
      <trkpt lat="57.71176" lon="-5.67702">
        <ele>10.74</ele>
        <time>2021-04-06T11:37:49Z</time>
      </trkpt>
      <trkpt lat="57.71208" lon="-5.67719">
        <ele>7.51</ele>
        <time>2021-04-06T11:37:54Z</time>
      </trkpt>
      <trkpt lat="57.71243" lon="-5.67751">
        <ele>4.26</ele>
        <time>2021-04-06T11:37:58Z</time>
      </trkpt>
      <trkpt lat="57.7127" lon="-5.67798">
        <ele>6.3</ele>
        <time>2021-04-06T11:38:02Z</time>
      </trkpt>
      <trkpt lat="57.71289" lon="-5.67842">
        <ele>9.9</ele>
        <time>2021-04-06T11:38:07Z</time>
      </trkpt>
      <trkpt lat="57.71325" lon="-5.67941">
        <ele>16.13</ele>
        <time>2021-04-06T11:38:11Z</time>
      </trkpt>
      <trkpt lat="57.71348" lon="-5.67998">
        <ele>18.28</ele>
        <time>2021-04-06T11:38:16Z</time>
      </trkpt>
      <trkpt lat="57.71376" lon="-5.68037">
        <ele>20.89</ele>
        <time>2021-04-06T11:38:20Z</time>
      </trkpt>
      <trkpt lat="57.71442" lon="-5.68114">
        <ele>18.72</ele>
        <time>2021-04-06T11:38:24Z</time>
      </trkpt>
      <trkpt lat="57.71634" lon="-5.68321">
        <ele>14.06</ele>
        <time>2021-04-06T11:38:29Z</time>
      </trkpt>
      <trkpt lat="57.71644" lon="-5.68325">
        <ele>13.71</ele>
        <time>2021-04-06T11:38:33Z</time>
      </trkpt>
      <trkpt lat="57.71735" lon="-5.68312">
        <ele>16.69</ele>
        <time>2021-04-06T11:38:37Z</time>
      </trkpt>
      <trkpt lat="57.71746" lon="-5.68316">
        <ele>17.37</ele>
        <time>2021-04-06T11:38:42Z</time>
      </trkpt>
      <trkpt lat="57.71758" lon="-5.68323">
        <ele>18.6</ele>
        <time>2021-04-06T11:38:46Z</time>
      </trkpt>
      <trkpt lat="57.71781" lon="-5.68355">
        <ele>21.13</ele>
        <time>2021-04-06T11:38:50Z</time>
      </trkpt>
      <trkpt lat="57.71818" lon="-5.68416">
        <ele>25.07</ele>
        <time>2021-04-06T11:38:55Z</time>
      </trkpt>
      <trkpt lat="57.71843" lon="-5.68478">
        <ele>24.43</ele>
        <time>2021-04-06T11:38:59Z</time>
      </trkpt>
      <trkpt lat="57.71859" lon="-5.68564">
        <ele>21.56</ele>
        <time>2021-04-06T11:39:04Z</time>
      </trkpt>
      <trkpt lat="57.71865" lon="-5.68589">
        <ele>20.62</ele>
        <time>2021-04-06T11:39:08Z</time>
      </trkpt>
      <trkpt lat="57.71874" lon="-5.68606">
        <ele>21.22</ele>
        <time>2021-04-06T11:39:12Z</time>
      </trkpt>
      <trkpt lat="57.71894" lon="-5.68638">
        <ele>21.38</ele>
        <time>2021-04-06T11:39:17Z</time>
      </trkpt>
      <trkpt lat="57.7191" lon="-5.68653">
        <ele>23.52</ele>
        <time>2021-04-06T11:39:21Z</time>
      </trkpt>
      <trkpt lat="57.71931" lon="-5.68654">
        <ele>25.34</ele>
        <time>2021-04-06T11:39:25Z</time>
      </trkpt>
      <trkpt lat="57.71973" lon="-5.68644">
        <ele>27.2</ele>
        <time>2021-04-06T11:39:30Z</time>
      </trkpt>
      <trkpt lat="57.72032" lon="-5.68634">
        <ele>22.71</ele>
        <time>2021-04-06T11:39:34Z</time>
      </trkpt>
      <trkpt lat="57.7207" lon="-5.68647">
        <ele>16.37</ele>
        <time>2021-04-06T11:39:38Z</time>
      </trkpt>
      <trkpt lat="57.72166" lon="-5.68681">
        <ele>12.36</ele>
        <time>2021-04-06T11:39:43Z</time>
      </trkpt>
      <trkpt lat="57.72196" lon="-5.68695">
        <ele>13.1</ele>
        <time>2021-04-06T11:39:47Z</time>
      </trkpt>
      <trkpt lat="57.72208" lon="-5.68703">
        <ele>13.95</ele>
        <time>2021-04-06T11:39:51Z</time>
      </trkpt>
      <trkpt lat="57.72263" lon="-5.68754">
        <ele>13.88</ele>
        <time>2021-04-06T11:39:56Z</time>
      </trkpt>
      <trkpt lat="57.72363" lon="-5.68854">
        <ele>13.28</ele>
        <time>2021-04-06T11:40:00Z</time>
      </trkpt>
      <trkpt lat="57.72463" lon="-5.68919">
        <ele>12.93</ele>
        <time>2021-04-06T11:40:05Z</time>
      </trkpt>
      <trkpt lat="57.72607" lon="-5.69033">
        <ele>16.31</ele>
        <time>2021-04-06T11:40:09Z</time>
      </trkpt>
      <trkpt lat="57.72676" lon="-5.69081">
        <ele>16.83</ele>
        <time>2021-04-06T11:40:13Z</time>
      </trkpt>
      <trkpt lat="57.72698" lon="-5.69081">
        <ele>18.08</ele>
        <time>2021-04-06T11:40:18Z</time>
      </trkpt>
      <trkpt lat="57.7272" lon="-5.69075">
        <ele>18.3</ele>
        <time>2021-04-06T11:40:22Z</time>
      </trkpt>
      <trkpt lat="57.72757" lon="-5.69057">
        <ele>18.95</ele>
        <time>2021-04-06T11:40:26Z</time>
      </trkpt>
      <trkpt lat="57.72835" lon="-5.69012">
        <ele>22.73</ele>
        <time>2021-04-06T11:40:31Z</time>
      </trkpt>
      <trkpt lat="57.72856" lon="-5.6901">
        <ele>24.84</ele>
        <time>2021-04-06T11:40:35Z</time>
      </trkpt>
      <trkpt lat="57.72927" lon="-5.69029">
        <ele>28.91</ele>
        <time>2021-04-06T11:40:39Z</time>
      </trkpt>
      <trkpt lat="57.73031" lon="-5.69048">
        <ele>38.52</ele>
        <time>2021-04-06T11:40:44Z</time>
      </trkpt>
      <trkpt lat="57.73051" lon="-5.69045">
        <ele>41.79</ele>
        <time>2021-04-06T11:40:48Z</time>
      </trkpt>
      <trkpt lat="57.73119" lon="-5.69024">
        <ele>50.41</ele>
        <time>2021-04-06T11:40:52Z</time>
      </trkpt>
      <trkpt lat="57.73196" lon="-5.68989">
        <ele>58.22</ele>
        <time>2021-04-06T11:40:57Z</time>
      </trkpt>
      <trkpt lat="57.7325" lon="-5.68959">
        <ele>62.37</ele>
        <time>2021-04-06T11:41:01Z</time>
      </trkpt>
      <trkpt lat="57.7325" lon="-5.68959">
        <ele>62.37</ele>
        <time>2021-04-06T11:41:01Z</time>
      </trkpt>
      <trkpt lat="57.73262" lon="-5.68945">
        <ele>64.13</ele>
        <time>2021-04-06T11:41:05Z</time>
      </trkpt>
      <trkpt lat="57.73272" lon="-5.68928">
        <ele>65.08</ele>
        <time>2021-04-06T11:41:09Z</time>
      </trkpt>
      <trkpt lat="57.73281" lon="-5.68908">
        <ele>66.28</ele>
        <time>2021-04-06T11:41:12Z</time>
      </trkpt>
      <trkpt lat="57.73288" lon="-5.68884">
        <ele>67.27</ele>
        <time>2021-04-06T11:41:16Z</time>
      </trkpt>
      <trkpt lat="57.73311" lon="-5.68721">
        <ele>73.65</ele>
        <time>2021-04-06T11:41:20Z</time>
      </trkpt>
      <trkpt lat="57.73323" lon="-5.6866">
        <ele>75.86</ele>
        <time>2021-04-06T11:41:23Z</time>
      </trkpt>
      <trkpt lat="57.73335" lon="-5.68626">
        <ele>78.27</ele>
        <time>2021-04-06T11:41:27Z</time>
      </trkpt>
      <trkpt lat="57.73359" lon="-5.6858">
        <ele>80.61</ele>
        <time>2021-04-06T11:41:31Z</time>
      </trkpt>
      <trkpt lat="57.73419" lon="-5.68485">
        <ele>81.19</ele>
        <time>2021-04-06T11:41:34Z</time>
      </trkpt>
      <trkpt lat="57.7345" lon="-5.68416">
        <ele>78.18</ele>
        <time>2021-04-06T11:41:38Z</time>
      </trkpt>
      <trkpt lat="57.73474" lon="-5.68309">
        <ele>75.42</ele>
        <time>2021-04-06T11:41:42Z</time>
      </trkpt>
      <trkpt lat="57.73491" lon="-5.68256">
        <ele>74.68</ele>
        <time>2021-04-06T11:41:45Z</time>
      </trkpt>
      <trkpt lat="57.73573" lon="-5.68093">
        <ele>76.44</ele>
        <time>2021-04-06T11:41:49Z</time>
      </trkpt>
      <trkpt lat="57.73585" lon="-5.68046">
        <ele>77.96</ele>
        <time>2021-04-06T11:41:53Z</time>
      </trkpt>
      <trkpt lat="57.73594" lon="-5.67983">
        <ele>78.33</ele>
        <time>2021-04-06T11:41:56Z</time>
      </trkpt>
      <trkpt lat="57.73605" lon="-5.6793">
        <ele>76.96</ele>
        <time>2021-04-06T11:42:00Z</time>
      </trkpt>
      <trkpt lat="57.73618" lon="-5.679">
        <ele>76.26</ele>
        <time>2021-04-06T11:42:03Z</time>
      </trkpt>
      <trkpt lat="57.73636" lon="-5.67874">
        <ele>75.5</ele>
        <time>2021-04-06T11:42:07Z</time>
      </trkpt>
      <trkpt lat="57.73702" lon="-5.67798">
        <ele>78.33</ele>
        <time>2021-04-06T11:42:11Z</time>
      </trkpt>
      <trkpt lat="57.73734" lon="-5.67733">
        <ele>79.31</ele>
        <time>2021-04-06T11:42:14Z</time>
      </trkpt>
      <trkpt lat="57.73747" lon="-5.67667">
        <ele>79.53</ele>
        <time>2021-04-06T11:42:18Z</time>
      </trkpt>
      <trkpt lat="57.73755" lon="-5.67546">
        <ele>81.18</ele>
        <time>2021-04-06T11:42:22Z</time>
      </trkpt>
      <trkpt lat="57.73763" lon="-5.67172">
        <ele>82.76</ele>
        <time>2021-04-06T11:42:25Z</time>
      </trkpt>
      <trkpt lat="57.73763" lon="-5.6709">
        <ele>82.09</ele>
        <time>2021-04-06T11:42:29Z</time>
      </trkpt>
      <trkpt lat="57.73752" lon="-5.6693">
        <ele>81.83</ele>
        <time>2021-04-06T11:42:33Z</time>
      </trkpt>
      <trkpt lat="57.73759" lon="-5.66848">
        <ele>82.41</ele>
        <time>2021-04-06T11:42:36Z</time>
      </trkpt>
      <trkpt lat="57.73768" lon="-5.66783">
        <ele>83.18</ele>
        <time>2021-04-06T11:42:40Z</time>
      </trkpt>
      <trkpt lat="57.73777" lon="-5.66757">
        <ele>82.91</ele>
        <time>2021-04-06T11:42:44Z</time>
      </trkpt>
      <trkpt lat="57.73806" lon="-5.66627">
        <ele>85.43</ele>
        <time>2021-04-06T11:42:47Z</time>
      </trkpt>
      <trkpt lat="57.73861" lon="-5.6625">
        <ele>90.02</ele>
        <time>2021-04-06T11:42:51Z</time>
      </trkpt>
      <trkpt lat="57.73877" lon="-5.66193">
        <ele>88.94</ele>
        <time>2021-04-06T11:42:55Z</time>
      </trkpt>
      <trkpt lat="57.73913" lon="-5.66113">
        <ele>89.11</ele>
        <time>2021-04-06T11:42:58Z</time>
      </trkpt>
      <trkpt lat="57.7395" lon="-5.66024">
        <ele>91.15</ele>
        <time>2021-04-06T11:43:02Z</time>
      </trkpt>
      <trkpt lat="57.73963" lon="-5.65977">
        <ele>92.83</ele>
        <time>2021-04-06T11:43:06Z</time>
      </trkpt>
      <trkpt lat="57.7397" lon="-5.65928">
        <ele>94</ele>
        <time>2021-04-06T11:43:09Z</time>
      </trkpt>
      <trkpt lat="57.73977" lon="-5.65854">
        <ele>95.6</ele>
        <time>2021-04-06T11:43:13Z</time>
      </trkpt>
      <trkpt lat="57.73988" lon="-5.65631">
        <ele>106.13</ele>
        <time>2021-04-06T11:43:17Z</time>
      </trkpt>
      <trkpt lat="57.74012" lon="-5.6532">
        <ele>122.26</ele>
        <time>2021-04-06T11:43:20Z</time>
      </trkpt>
      <trkpt lat="57.74011" lon="-5.65276">
        <ele>123.31</ele>
        <time>2021-04-06T11:43:24Z</time>
      </trkpt>
      <trkpt lat="57.73993" lon="-5.65129">
        <ele>127</ele>
        <time>2021-04-06T11:43:28Z</time>
      </trkpt>
      <trkpt lat="57.73987" lon="-5.6505">
        <ele>131.39</ele>
        <time>2021-04-06T11:43:31Z</time>
      </trkpt>
      <trkpt lat="57.73991" lon="-5.64975">
        <ele>137.34</ele>
        <time>2021-04-06T11:43:35Z</time>
      </trkpt>
      <trkpt lat="57.74003" lon="-5.64903">
        <ele>141.18</ele>
        <time>2021-04-06T11:43:39Z</time>
      </trkpt>
      <trkpt lat="57.74055" lon="-5.64683">
        <ele>147.89</ele>
        <time>2021-04-06T11:43:42Z</time>
      </trkpt>
      <trkpt lat="57.74074" lon="-5.64627">
        <ele>148.17</ele>
        <time>2021-04-06T11:43:46Z</time>
      </trkpt>
      <trkpt lat="57.74108" lon="-5.64568">
        <ele>145.12</ele>
        <time>2021-04-06T11:43:50Z</time>
      </trkpt>
      <trkpt lat="57.74295" lon="-5.64333">
        <ele>140.6</ele>
        <time>2021-04-06T11:43:53Z</time>
      </trkpt>
      <trkpt lat="57.74359" lon="-5.6427">
        <ele>137.71</ele>
        <time>2021-04-06T11:43:57Z</time>
      </trkpt>
      <trkpt lat="57.74424" lon="-5.64192">
        <ele>137.35</ele>
        <time>2021-04-06T11:44:01Z</time>
      </trkpt>
      <trkpt lat="57.74463" lon="-5.64129">
        <ele>135.97</ele>
        <time>2021-04-06T11:44:04Z</time>
      </trkpt>
      <trkpt lat="57.74509" lon="-5.64043">
        <ele>134.46</ele>
        <time>2021-04-06T11:44:08Z</time>
      </trkpt>
      <trkpt lat="57.74541" lon="-5.63954">
        <ele>130.93</ele>
        <time>2021-04-06T11:44:12Z</time>
      </trkpt>
      <trkpt lat="57.74575" lon="-5.63849">
        <ele>132.05</ele>
        <time>2021-04-06T11:44:15Z</time>
      </trkpt>
      <trkpt lat="57.7463" lon="-5.63691">
        <ele>133.24</ele>
        <time>2021-04-06T11:44:19Z</time>
      </trkpt>
      <trkpt lat="57.74753" lon="-5.6339">
        <ele>126.15</ele>
        <time>2021-04-06T11:44:23Z</time>
      </trkpt>
      <trkpt lat="57.74768" lon="-5.6334">
        <ele>124.91</ele>
        <time>2021-04-06T11:44:26Z</time>
      </trkpt>
      <trkpt lat="57.74784" lon="-5.6327">
        <ele>124.46</ele>
        <time>2021-04-06T11:44:30Z</time>
      </trkpt>
      <trkpt lat="57.74788" lon="-5.63188">
        <ele>124.14</ele>
        <time>2021-04-06T11:44:34Z</time>
      </trkpt>
      <trkpt lat="57.74786" lon="-5.63121">
        <ele>122.36</ele>
        <time>2021-04-06T11:44:37Z</time>
      </trkpt>
      <trkpt lat="57.74774" lon="-5.63049">
        <ele>121.86</ele>
        <time>2021-04-06T11:44:41Z</time>
      </trkpt>
      <trkpt lat="57.74752" lon="-5.62963">
        <ele>121.14</ele>
        <time>2021-04-06T11:44:45Z</time>
      </trkpt>
      <trkpt lat="57.74741" lon="-5.62863">
        <ele>121.66</ele>
        <time>2021-04-06T11:44:48Z</time>
      </trkpt>
      <trkpt lat="57.74724" lon="-5.62596">
        <ele>123.12</ele>
        <time>2021-04-06T11:44:52Z</time>
      </trkpt>
      <trkpt lat="57.74717" lon="-5.62408">
        <ele>123.7</ele>
        <time>2021-04-06T11:44:56Z</time>
      </trkpt>
      <trkpt lat="57.74718" lon="-5.62265">
        <ele>124.85</ele>
        <time>2021-04-06T11:44:59Z</time>
      </trkpt>
      <trkpt lat="57.74724" lon="-5.62137">
        <ele>125.23</ele>
        <time>2021-04-06T11:45:03Z</time>
      </trkpt>
      <trkpt lat="57.7474" lon="-5.61914">
        <ele>125.91</ele>
        <time>2021-04-06T11:45:07Z</time>
      </trkpt>
      <trkpt lat="57.74747" lon="-5.61717">
        <ele>126.69</ele>
        <time>2021-04-06T11:45:10Z</time>
      </trkpt>
      <trkpt lat="57.74759" lon="-5.61518">
        <ele>125.26</ele>
        <time>2021-04-06T11:45:14Z</time>
      </trkpt>
      <trkpt lat="57.74774" lon="-5.61439">
        <ele>124.54</ele>
        <time>2021-04-06T11:45:18Z</time>
      </trkpt>
      <trkpt lat="57.74809" lon="-5.61332">
        <ele>122.19</ele>
        <time>2021-04-06T11:45:21Z</time>
      </trkpt>
      <trkpt lat="57.74923" lon="-5.60898">
        <ele>104.6</ele>
        <time>2021-04-06T11:45:25Z</time>
      </trkpt>
      <trkpt lat="57.74944" lon="-5.60795">
        <ele>101.22</ele>
        <time>2021-04-06T11:45:29Z</time>
      </trkpt>
      <trkpt lat="57.74951" lon="-5.60734">
        <ele>101.08</ele>
        <time>2021-04-06T11:45:32Z</time>
      </trkpt>
      <trkpt lat="57.74959" lon="-5.60531">
        <ele>98.22</ele>
        <time>2021-04-06T11:45:36Z</time>
      </trkpt>
      <trkpt lat="57.7496" lon="-5.60414">
        <ele>95.88</ele>
        <time>2021-04-06T11:45:40Z</time>
      </trkpt>
      <trkpt lat="57.74953" lon="-5.60213">
        <ele>91.83</ele>
        <time>2021-04-06T11:45:43Z</time>
      </trkpt>
      <trkpt lat="57.74943" lon="-5.60144">
        <ele>89.81</ele>
        <time>2021-04-06T11:45:47Z</time>
      </trkpt>
      <trkpt lat="57.74905" lon="-5.59971">
        <ele>85.43</ele>
        <time>2021-04-06T11:45:51Z</time>
      </trkpt>
      <trkpt lat="57.749" lon="-5.59938">
        <ele>82.54</ele>
        <time>2021-04-06T11:45:54Z</time>
      </trkpt>
      <trkpt lat="57.74899" lon="-5.59888">
        <ele>79.82</ele>
        <time>2021-04-06T11:45:58Z</time>
      </trkpt>
      <trkpt lat="57.74906" lon="-5.59829">
        <ele>77.56</ele>
        <time>2021-04-06T11:46:02Z</time>
      </trkpt>
      <trkpt lat="57.74924" lon="-5.59779">
        <ele>74.69</ele>
        <time>2021-04-06T11:46:05Z</time>
      </trkpt>
      <trkpt lat="57.74966" lon="-5.59687">
        <ele>71.24</ele>
        <time>2021-04-06T11:46:09Z</time>
      </trkpt>
      <trkpt lat="57.75002" lon="-5.59627">
        <ele>69.18</ele>
        <time>2021-04-06T11:46:13Z</time>
      </trkpt>
      <trkpt lat="57.75002" lon="-5.59627">
        <ele>69.18</ele>
        <time>2021-04-06T11:46:13Z</time>
      </trkpt>
      <trkpt lat="57.75026" lon="-5.59608">
        <ele>64.81</ele>
        <time>2021-04-06T11:46:16Z</time>
      </trkpt>
      <trkpt lat="57.75069" lon="-5.59601">
        <ele>61.55</ele>
        <time>2021-04-06T11:46:20Z</time>
      </trkpt>
      <trkpt lat="57.75165" lon="-5.5963">
        <ele>51.97</ele>
        <time>2021-04-06T11:46:24Z</time>
      </trkpt>
      <trkpt lat="57.75252" lon="-5.59652">
        <ele>42.35</ele>
        <time>2021-04-06T11:46:27Z</time>
      </trkpt>
      <trkpt lat="57.75289" lon="-5.59674">
        <ele>38.62</ele>
        <time>2021-04-06T11:46:31Z</time>
      </trkpt>
      <trkpt lat="57.75332" lon="-5.59694">
        <ele>35.17</ele>
        <time>2021-04-06T11:46:35Z</time>
      </trkpt>
      <trkpt lat="57.75364" lon="-5.59698">
        <ele>32.46</ele>
        <time>2021-04-06T11:46:38Z</time>
      </trkpt>
      <trkpt lat="57.75429" lon="-5.59679">
        <ele>26.41</ele>
        <time>2021-04-06T11:46:42Z</time>
      </trkpt>
      <trkpt lat="57.75461" lon="-5.59679">
        <ele>23.06</ele>
        <time>2021-04-06T11:46:46Z</time>
      </trkpt>
      <trkpt lat="57.75498" lon="-5.59692">
        <ele>20.03</ele>
        <time>2021-04-06T11:46:49Z</time>
      </trkpt>
      <trkpt lat="57.75528" lon="-5.5972">
        <ele>17.91</ele>
        <time>2021-04-06T11:46:53Z</time>
      </trkpt>
      <trkpt lat="57.75597" lon="-5.59805">
        <ele>13.94</ele>
        <time>2021-04-06T11:46:57Z</time>
      </trkpt>
      <trkpt lat="57.7563" lon="-5.59839">
        <ele>15.38</ele>
        <time>2021-04-06T11:47:00Z</time>
      </trkpt>
      <trkpt lat="57.75728" lon="-5.59888">
        <ele>20.74</ele>
        <time>2021-04-06T11:47:04Z</time>
      </trkpt>
      <trkpt lat="57.75802" lon="-5.59922">
        <ele>19.13</ele>
        <time>2021-04-06T11:47:08Z</time>
      </trkpt>
      <trkpt lat="57.75859" lon="-5.59945">
        <ele>18.1</ele>
        <time>2021-04-06T11:47:11Z</time>
      </trkpt>
      <trkpt lat="57.75936" lon="-5.59949">
        <ele>18.18</ele>
        <time>2021-04-06T11:47:15Z</time>
      </trkpt>
      <trkpt lat="57.7604" lon="-5.59946">
        <ele>21.95</ele>
        <time>2021-04-06T11:47:19Z</time>
      </trkpt>
      <trkpt lat="57.76066" lon="-5.59951">
        <ele>20.97</ele>
        <time>2021-04-06T11:47:22Z</time>
      </trkpt>
      <trkpt lat="57.76081" lon="-5.59959">
        <ele>19.61</ele>
        <time>2021-04-06T11:47:26Z</time>
      </trkpt>
      <trkpt lat="57.76098" lon="-5.59983">
        <ele>18.46</ele>
        <time>2021-04-06T11:47:30Z</time>
      </trkpt>
      <trkpt lat="57.76176" lon="-5.60161">
        <ele>14.08</ele>
        <time>2021-04-06T11:47:34Z</time>
      </trkpt>
      <trkpt lat="57.76231" lon="-5.60275">
        <ele>15.6</ele>
        <time>2021-04-06T11:47:37Z</time>
      </trkpt>
      <trkpt lat="57.76244" lon="-5.6029">
        <ele>15.23</ele>
        <time>2021-04-06T11:47:41Z</time>
      </trkpt>
      <trkpt lat="57.76301" lon="-5.60326">
        <ele>14.77</ele>
        <time>2021-04-06T11:47:45Z</time>
      </trkpt>
      <trkpt lat="57.76402" lon="-5.60375">
        <ele>14.05</ele>
        <time>2021-04-06T11:47:48Z</time>
      </trkpt>
      <trkpt lat="57.76462" lon="-5.6041">
        <ele>11.31</ele>
        <time>2021-04-06T11:47:52Z</time>
      </trkpt>
      <trkpt lat="57.76496" lon="-5.60418">
        <ele>9.36</ele>
        <time>2021-04-06T11:47:56Z</time>
      </trkpt>
      <trkpt lat="57.76511" lon="-5.60413">
        <ele>8.87</ele>
        <time>2021-04-06T11:47:59Z</time>
      </trkpt>
      <trkpt lat="57.76511" lon="-5.60413">
        <ele>8.87</ele>
        <time>2021-04-06T11:47:59Z</time>
      </trkpt>
      <trkpt lat="57.76532" lon="-5.60389">
        <ele>6</ele>
        <time>2021-04-06T11:48:03Z</time>
      </trkpt>
      <trkpt lat="57.76561" lon="-5.60348">
        <ele>5.72</ele>
        <time>2021-04-06T11:48:07Z</time>
      </trkpt>
      <trkpt lat="57.76659" lon="-5.6021">
        <ele>7.04</ele>
        <time>2021-04-06T11:48:11Z</time>
      </trkpt>
      <trkpt lat="57.76717" lon="-5.60122">
        <ele>4.16</ele>
        <time>2021-04-06T11:48:15Z</time>
      </trkpt>
      <trkpt lat="57.76747" lon="-5.6007">
        <ele>3.77</ele>
        <time>2021-04-06T11:48:19Z</time>
      </trkpt>
      <trkpt lat="57.76803" lon="-5.59951">
        <ele>3.79</ele>
        <time>2021-04-06T11:48:22Z</time>
      </trkpt>
      <trkpt lat="57.76857" lon="-5.59869">
        <ele>3.88</ele>
        <time>2021-04-06T11:48:26Z</time>
      </trkpt>
      <trkpt lat="57.76926" lon="-5.59788">
        <ele>3.44</ele>
        <time>2021-04-06T11:48:30Z</time>
      </trkpt>
      <trkpt lat="57.76969" lon="-5.59758">
        <ele>2.72</ele>
        <time>2021-04-06T11:48:34Z</time>
      </trkpt>
      <trkpt lat="57.77005" lon="-5.59727">
        <ele>4.37</ele>
        <time>2021-04-06T11:48:38Z</time>
      </trkpt>
      <trkpt lat="57.77095" lon="-5.59636">
        <ele>3.37</ele>
        <time>2021-04-06T11:48:42Z</time>
      </trkpt>
      <trkpt lat="57.77128" lon="-5.59616">
        <ele>3.05</ele>
        <time>2021-04-06T11:48:46Z</time>
      </trkpt>
      <trkpt lat="57.77199" lon="-5.59586">
        <ele>3</ele>
        <time>2021-04-06T11:48:49Z</time>
      </trkpt>
      <trkpt lat="57.77289" lon="-5.59591">
        <ele>3.67</ele>
        <time>2021-04-06T11:48:53Z</time>
      </trkpt>
      <trkpt lat="57.77387" lon="-5.59569">
        <ele>7.53</ele>
        <time>2021-04-06T11:48:57Z</time>
      </trkpt>
      <trkpt lat="57.77449" lon="-5.59544">
        <ele>12.18</ele>
        <time>2021-04-06T11:49:01Z</time>
      </trkpt>
      <trkpt lat="57.77496" lon="-5.59516">
        <ele>13.36</ele>
        <time>2021-04-06T11:49:05Z</time>
      </trkpt>
      <trkpt lat="57.77575" lon="-5.59465">
        <ele>26.12</ele>
        <time>2021-04-06T11:49:09Z</time>
      </trkpt>
      <trkpt lat="57.77677" lon="-5.59348">
        <ele>37.72</ele>
        <time>2021-04-06T11:49:13Z</time>
      </trkpt>
      <trkpt lat="57.77749" lon="-5.59234">
        <ele>39.76</ele>
        <time>2021-04-06T11:49:16Z</time>
      </trkpt>
      <trkpt lat="57.7779" lon="-5.59135">
        <ele>40.08</ele>
        <time>2021-04-06T11:49:20Z</time>
      </trkpt>
      <trkpt lat="57.77826" lon="-5.59054">
        <ele>40.22</ele>
        <time>2021-04-06T11:49:24Z</time>
      </trkpt>
      <trkpt lat="57.77857" lon="-5.58995">
        <ele>40.03</ele>
        <time>2021-04-06T11:49:28Z</time>
      </trkpt>
      <trkpt lat="57.77898" lon="-5.58962">
        <ele>38.91</ele>
        <time>2021-04-06T11:49:32Z</time>
      </trkpt>
      <trkpt lat="57.7803" lon="-5.58913">
        <ele>41.72</ele>
        <time>2021-04-06T11:49:36Z</time>
      </trkpt>
      <trkpt lat="57.78112" lon="-5.58857">
        <ele>43.68</ele>
        <time>2021-04-06T11:49:39Z</time>
      </trkpt>
      <trkpt lat="57.7816" lon="-5.58819">
        <ele>42.17</ele>
        <time>2021-04-06T11:49:43Z</time>
      </trkpt>
      <trkpt lat="57.78183" lon="-5.58779">
        <ele>37.76</ele>
        <time>2021-04-06T11:49:47Z</time>
      </trkpt>
      <trkpt lat="57.78215" lon="-5.586">
        <ele>28.18</ele>
        <time>2021-04-06T11:49:51Z</time>
      </trkpt>
      <trkpt lat="57.78243" lon="-5.58477">
        <ele>26.92</ele>
        <time>2021-04-06T11:49:55Z</time>
      </trkpt>
      <trkpt lat="57.78274" lon="-5.58353">
        <ele>23.73</ele>
        <time>2021-04-06T11:49:59Z</time>
      </trkpt>
      <trkpt lat="57.78284" lon="-5.58316">
        <ele>23.5</ele>
        <time>2021-04-06T11:50:03Z</time>
      </trkpt>
      <trkpt lat="57.78294" lon="-5.58289">
        <ele>23.68</ele>
        <time>2021-04-06T11:50:06Z</time>
      </trkpt>
      <trkpt lat="57.7833" lon="-5.58226">
        <ele>22.1</ele>
        <time>2021-04-06T11:50:10Z</time>
      </trkpt>
      <trkpt lat="57.78365" lon="-5.58172">
        <ele>21.02</ele>
        <time>2021-04-06T11:50:14Z</time>
      </trkpt>
      <trkpt lat="57.78386" lon="-5.58129">
        <ele>21.5</ele>
        <time>2021-04-06T11:50:18Z</time>
      </trkpt>
      <trkpt lat="57.78403" lon="-5.58084">
        <ele>22.44</ele>
        <time>2021-04-06T11:50:22Z</time>
      </trkpt>
      <trkpt lat="57.78449" lon="-5.58014">
        <ele>23.49</ele>
        <time>2021-04-06T11:50:26Z</time>
      </trkpt>
      <trkpt lat="57.78485" lon="-5.57972">
        <ele>25.03</ele>
        <time>2021-04-06T11:50:30Z</time>
      </trkpt>
      <trkpt lat="57.78509" lon="-5.57934">
        <ele>25.58</ele>
        <time>2021-04-06T11:50:33Z</time>
      </trkpt>
      <trkpt lat="57.78576" lon="-5.57796">
        <ele>23.69</ele>
        <time>2021-04-06T11:50:37Z</time>
      </trkpt>
      <trkpt lat="57.78608" lon="-5.57738">
        <ele>24.66</ele>
        <time>2021-04-06T11:50:41Z</time>
      </trkpt>
      <trkpt lat="57.78727" lon="-5.57552">
        <ele>19.36</ele>
        <time>2021-04-06T11:50:45Z</time>
      </trkpt>
      <trkpt lat="57.78754" lon="-5.57517">
        <ele>18.84</ele>
        <time>2021-04-06T11:50:49Z</time>
      </trkpt>
      <trkpt lat="57.78778" lon="-5.57495">
        <ele>16.64</ele>
        <time>2021-04-06T11:50:53Z</time>
      </trkpt>
      <trkpt lat="57.78808" lon="-5.57477">
        <ele>15.43</ele>
        <time>2021-04-06T11:50:57Z</time>
      </trkpt>
      <trkpt lat="57.78874" lon="-5.57456">
        <ele>17.77</ele>
        <time>2021-04-06T11:51:00Z</time>
      </trkpt>
      <trkpt lat="57.7891" lon="-5.57448">
        <ele>18.28</ele>
        <time>2021-04-06T11:51:04Z</time>
      </trkpt>
      <trkpt lat="57.78944" lon="-5.57452">
        <ele>18.01</ele>
        <time>2021-04-06T11:51:08Z</time>
      </trkpt>
      <trkpt lat="57.78992" lon="-5.57476">
        <ele>15.91</ele>
        <time>2021-04-06T11:51:12Z</time>
      </trkpt>
      <trkpt lat="57.79086" lon="-5.57498">
        <ele>15.99</ele>
        <time>2021-04-06T11:51:16Z</time>
      </trkpt>
      <trkpt lat="57.7919" lon="-5.57492">
        <ele>16.3</ele>
        <time>2021-04-06T11:51:20Z</time>
      </trkpt>
      <trkpt lat="57.79233" lon="-5.57501">
        <ele>14.59</ele>
        <time>2021-04-06T11:51:24Z</time>
      </trkpt>
      <trkpt lat="57.79412" lon="-5.57591">
        <ele>14.56</ele>
        <time>2021-04-06T11:51:27Z</time>
      </trkpt>
      <trkpt lat="57.79452" lon="-5.576">
        <ele>16.09</ele>
        <time>2021-04-06T11:51:31Z</time>
      </trkpt>
      <trkpt lat="57.7948" lon="-5.57599">
        <ele>17.06</ele>
        <time>2021-04-06T11:51:35Z</time>
      </trkpt>
      <trkpt lat="57.79511" lon="-5.57577">
        <ele>19.18</ele>
        <time>2021-04-06T11:51:39Z</time>
      </trkpt>
      <trkpt lat="57.79539" lon="-5.57545">
        <ele>21.62</ele>
        <time>2021-04-06T11:51:43Z</time>
      </trkpt>
      <trkpt lat="57.79557" lon="-5.57515">
        <ele>22.55</ele>
        <time>2021-04-06T11:51:47Z</time>
      </trkpt>
      <trkpt lat="57.79592" lon="-5.57435">
        <ele>25.63</ele>
        <time>2021-04-06T11:51:50Z</time>
      </trkpt>
      <trkpt lat="57.79693" lon="-5.57181">
        <ele>41.79</ele>
        <time>2021-04-06T11:51:54Z</time>
      </trkpt>
      <trkpt lat="57.79712" lon="-5.57146">
        <ele>43.87</ele>
        <time>2021-04-06T11:51:58Z</time>
      </trkpt>
      <trkpt lat="57.79733" lon="-5.57126">
        <ele>45.6</ele>
        <time>2021-04-06T11:52:02Z</time>
      </trkpt>
      <trkpt lat="57.79764" lon="-5.57117">
        <ele>46.29</ele>
        <time>2021-04-06T11:52:06Z</time>
      </trkpt>
      <trkpt lat="57.79764" lon="-5.57117">
        <ele>46.29</ele>
        <time>2021-04-06T11:52:06Z</time>
      </trkpt>
      <trkpt lat="57.79826" lon="-5.57119">
        <ele>50.21</ele>
        <time>2021-04-06T11:52:09Z</time>
      </trkpt>
      <trkpt lat="57.7987" lon="-5.57126">
        <ele>52.94</ele>
        <time>2021-04-06T11:52:13Z</time>
      </trkpt>
      <trkpt lat="57.79898" lon="-5.57148">
        <ele>54.32</ele>
        <time>2021-04-06T11:52:16Z</time>
      </trkpt>
      <trkpt lat="57.80086" lon="-5.57403">
        <ele>57.24</ele>
        <time>2021-04-06T11:52:19Z</time>
      </trkpt>
      <trkpt lat="57.80124" lon="-5.57457">
        <ele>58.92</ele>
        <time>2021-04-06T11:52:23Z</time>
      </trkpt>
      <trkpt lat="57.80159" lon="-5.57526">
        <ele>61.6</ele>
        <time>2021-04-06T11:52:26Z</time>
      </trkpt>
      <trkpt lat="57.80173" lon="-5.57593">
        <ele>62.1</ele>
        <time>2021-04-06T11:52:29Z</time>
      </trkpt>
      <trkpt lat="57.80184" lon="-5.57692">
        <ele>64.49</ele>
        <time>2021-04-06T11:52:33Z</time>
      </trkpt>
      <trkpt lat="57.80197" lon="-5.57875">
        <ele>68.5</ele>
        <time>2021-04-06T11:52:36Z</time>
      </trkpt>
      <trkpt lat="57.80212" lon="-5.5797">
        <ele>69.42</ele>
        <time>2021-04-06T11:52:39Z</time>
      </trkpt>
      <trkpt lat="57.80247" lon="-5.58173">
        <ele>70.64</ele>
        <time>2021-04-06T11:52:43Z</time>
      </trkpt>
      <trkpt lat="57.80271" lon="-5.58279">
        <ele>72.24</ele>
        <time>2021-04-06T11:52:46Z</time>
      </trkpt>
      <trkpt lat="57.80286" lon="-5.58323">
        <ele>72.56</ele>
        <time>2021-04-06T11:52:50Z</time>
      </trkpt>
      <trkpt lat="57.8032" lon="-5.58392">
        <ele>71.29</ele>
        <time>2021-04-06T11:52:53Z</time>
      </trkpt>
      <trkpt lat="57.80349" lon="-5.58435">
        <ele>69.19</ele>
        <time>2021-04-06T11:52:56Z</time>
      </trkpt>
      <trkpt lat="57.80379" lon="-5.58471">
        <ele>66.43</ele>
        <time>2021-04-06T11:53:00Z</time>
      </trkpt>
      <trkpt lat="57.80395" lon="-5.58477">
        <ele>66.28</ele>
        <time>2021-04-06T11:53:03Z</time>
      </trkpt>
      <trkpt lat="57.80395" lon="-5.58477">
        <ele>66.28</ele>
        <time>2021-04-06T11:53:03Z</time>
      </trkpt>
      <trkpt lat="57.80412" lon="-5.58477">
        <ele>65.46</ele>
        <time>2021-04-06T11:53:05Z</time>
      </trkpt>
      <trkpt lat="57.80432" lon="-5.58465">
        <ele>66.14</ele>
        <time>2021-04-06T11:53:07Z</time>
      </trkpt>
      <trkpt lat="57.80459" lon="-5.58436">
        <ele>67.63</ele>
        <time>2021-04-06T11:53:10Z</time>
      </trkpt>
      <trkpt lat="57.80499" lon="-5.58386">
        <ele>68.54</ele>
        <time>2021-04-06T11:53:12Z</time>
      </trkpt>
      <trkpt lat="57.8054" lon="-5.58316">
        <ele>71.56</ele>
        <time>2021-04-06T11:53:14Z</time>
      </trkpt>
      <trkpt lat="57.80633" lon="-5.58143">
        <ele>72.69</ele>
        <time>2021-04-06T11:53:16Z</time>
      </trkpt>
      <trkpt lat="57.80656" lon="-5.5811">
        <ele>73.76</ele>
        <time>2021-04-06T11:53:18Z</time>
      </trkpt>
      <trkpt lat="57.8068" lon="-5.58084">
        <ele>76.39</ele>
        <time>2021-04-06T11:53:21Z</time>
      </trkpt>
      <trkpt lat="57.80701" lon="-5.58079">
        <ele>78.24</ele>
        <time>2021-04-06T11:53:23Z</time>
      </trkpt>
      <trkpt lat="57.80728" lon="-5.5809">
        <ele>78.72</ele>
        <time>2021-04-06T11:53:25Z</time>
      </trkpt>
      <trkpt lat="57.80746" lon="-5.58114">
        <ele>78.18</ele>
        <time>2021-04-06T11:53:27Z</time>
      </trkpt>
      <trkpt lat="57.80766" lon="-5.58162">
        <ele>78.06</ele>
        <time>2021-04-06T11:53:29Z</time>
      </trkpt>
      <trkpt lat="57.80796" lon="-5.58271">
        <ele>78.23</ele>
        <time>2021-04-06T11:53:32Z</time>
      </trkpt>
      <trkpt lat="57.80813" lon="-5.58313">
        <ele>77.5</ele>
        <time>2021-04-06T11:53:34Z</time>
      </trkpt>
      <trkpt lat="57.80834" lon="-5.58338">
        <ele>78.52</ele>
        <time>2021-04-06T11:53:36Z</time>
      </trkpt>
      <trkpt lat="57.80853" lon="-5.58343">
        <ele>80.08</ele>
        <time>2021-04-06T11:53:38Z</time>
      </trkpt>
      <trkpt lat="57.80896" lon="-5.58345">
        <ele>82.01</ele>
        <time>2021-04-06T11:53:40Z</time>
      </trkpt>
      <trkpt lat="57.80971" lon="-5.58336">
        <ele>81.85</ele>
        <time>2021-04-06T11:53:43Z</time>
      </trkpt>
      <trkpt lat="57.81056" lon="-5.58332">
        <ele>86.12</ele>
        <time>2021-04-06T11:53:45Z</time>
      </trkpt>
      <trkpt lat="57.81087" lon="-5.58323">
        <ele>86.42</ele>
        <time>2021-04-06T11:53:47Z</time>
      </trkpt>
      <trkpt lat="57.81119" lon="-5.58294">
        <ele>85.54</ele>
        <time>2021-04-06T11:53:49Z</time>
      </trkpt>
      <trkpt lat="57.8118" lon="-5.58218">
        <ele>88.38</ele>
        <time>2021-04-06T11:53:52Z</time>
      </trkpt>
      <trkpt lat="57.81217" lon="-5.58142">
        <ele>87.92</ele>
        <time>2021-04-06T11:53:54Z</time>
      </trkpt>
      <trkpt lat="57.81248" lon="-5.58049">
        <ele>89.26</ele>
        <time>2021-04-06T11:53:56Z</time>
      </trkpt>
      <trkpt lat="57.81284" lon="-5.57965">
        <ele>92.31</ele>
        <time>2021-04-06T11:53:58Z</time>
      </trkpt>
      <trkpt lat="57.81308" lon="-5.5792">
        <ele>93.03</ele>
        <time>2021-04-06T11:54:00Z</time>
      </trkpt>
      <trkpt lat="57.81319" lon="-5.57884">
        <ele>94.39</ele>
        <time>2021-04-06T11:54:03Z</time>
      </trkpt>
      <trkpt lat="57.81336" lon="-5.57785">
        <ele>99.38</ele>
        <time>2021-04-06T11:54:05Z</time>
      </trkpt>
      <trkpt lat="57.81347" lon="-5.57748">
        <ele>101.68</ele>
        <time>2021-04-06T11:54:07Z</time>
      </trkpt>
      <trkpt lat="57.81363" lon="-5.57718">
        <ele>103.4</ele>
        <time>2021-04-06T11:54:09Z</time>
      </trkpt>
      <trkpt lat="57.81384" lon="-5.57712">
        <ele>104.55</ele>
        <time>2021-04-06T11:54:11Z</time>
      </trkpt>
      <trkpt lat="57.81396" lon="-5.57718">
        <ele>104.76</ele>
        <time>2021-04-06T11:54:14Z</time>
      </trkpt>
      <trkpt lat="57.8142" lon="-5.57747">
        <ele>105.32</ele>
        <time>2021-04-06T11:54:16Z</time>
      </trkpt>
      <trkpt lat="57.81477" lon="-5.57837">
        <ele>105.01</ele>
        <time>2021-04-06T11:54:18Z</time>
      </trkpt>
      <trkpt lat="57.81504" lon="-5.57872">
        <ele>104.62</ele>
        <time>2021-04-06T11:54:20Z</time>
      </trkpt>
      <trkpt lat="57.81569" lon="-5.57914">
        <ele>102.17</ele>
        <time>2021-04-06T11:54:22Z</time>
      </trkpt>
      <trkpt lat="57.81604" lon="-5.57949">
        <ele>100.83</ele>
        <time>2021-04-06T11:54:25Z</time>
      </trkpt>
      <trkpt lat="57.81633" lon="-5.57984">
        <ele>100.78</ele>
        <time>2021-04-06T11:54:27Z</time>
      </trkpt>
      <trkpt lat="57.81722" lon="-5.58101">
        <ele>98.04</ele>
        <time>2021-04-06T11:54:29Z</time>
      </trkpt>
      <trkpt lat="57.81739" lon="-5.58135">
        <ele>95.04</ele>
        <time>2021-04-06T11:54:31Z</time>
      </trkpt>
      <trkpt lat="57.81759" lon="-5.58181">
        <ele>91.8</ele>
        <time>2021-04-06T11:54:33Z</time>
      </trkpt>
      <trkpt lat="57.81774" lon="-5.58204">
        <ele>89.87</ele>
        <time>2021-04-06T11:54:36Z</time>
      </trkpt>
      <trkpt lat="57.81793" lon="-5.58219">
        <ele>88.39</ele>
        <time>2021-04-06T11:54:38Z</time>
      </trkpt>
      <trkpt lat="57.81867" lon="-5.58228">
        <ele>85.4</ele>
        <time>2021-04-06T11:54:40Z</time>
      </trkpt>
      <trkpt lat="57.81889" lon="-5.58212">
        <ele>85.75</ele>
        <time>2021-04-06T11:54:42Z</time>
      </trkpt>
      <trkpt lat="57.81911" lon="-5.58179">
        <ele>86.81</ele>
        <time>2021-04-06T11:54:44Z</time>
      </trkpt>
      <trkpt lat="57.81933" lon="-5.58138">
        <ele>89.68</ele>
        <time>2021-04-06T11:54:47Z</time>
      </trkpt>
      <trkpt lat="57.81956" lon="-5.58114">
        <ele>90.58</ele>
        <time>2021-04-06T11:54:49Z</time>
      </trkpt>
      <trkpt lat="57.82001" lon="-5.58083">
        <ele>86.77</ele>
        <time>2021-04-06T11:54:51Z</time>
      </trkpt>
      <trkpt lat="57.8203" lon="-5.5805">
        <ele>87.16</ele>
        <time>2021-04-06T11:54:53Z</time>
      </trkpt>
      <trkpt lat="57.82049" lon="-5.58018">
        <ele>87.19</ele>
        <time>2021-04-06T11:54:55Z</time>
      </trkpt>
      <trkpt lat="57.82074" lon="-5.5799">
        <ele>87.11</ele>
        <time>2021-04-06T11:54:58Z</time>
      </trkpt>
      <trkpt lat="57.82085" lon="-5.57985">
        <ele>86.06</ele>
        <time>2021-04-06T11:55:00Z</time>
      </trkpt>
      <trkpt lat="57.82102" lon="-5.57984">
        <ele>85.68</ele>
        <time>2021-04-06T11:55:02Z</time>
      </trkpt>
      <trkpt lat="57.82129" lon="-5.57998">
        <ele>83.95</ele>
        <time>2021-04-06T11:55:04Z</time>
      </trkpt>
      <trkpt lat="57.82165" lon="-5.5801">
        <ele>80.81</ele>
        <time>2021-04-06T11:55:07Z</time>
      </trkpt>
      <trkpt lat="57.82191" lon="-5.5801">
        <ele>81.43</ele>
        <time>2021-04-06T11:55:09Z</time>
      </trkpt>
      <trkpt lat="57.8222" lon="-5.58001">
        <ele>82.87</ele>
        <time>2021-04-06T11:55:11Z</time>
      </trkpt>
      <trkpt lat="57.82258" lon="-5.57971">
        <ele>83.79</ele>
        <time>2021-04-06T11:55:13Z</time>
      </trkpt>
      <trkpt lat="57.82324" lon="-5.57897">
        <ele>82.39</ele>
        <time>2021-04-06T11:55:15Z</time>
      </trkpt>
      <trkpt lat="57.82354" lon="-5.57853">
        <ele>81.42</ele>
        <time>2021-04-06T11:55:18Z</time>
      </trkpt>
      <trkpt lat="57.82414" lon="-5.57743">
        <ele>77.97</ele>
        <time>2021-04-06T11:55:20Z</time>
      </trkpt>
      <trkpt lat="57.82448" lon="-5.57695">
        <ele>78.96</ele>
        <time>2021-04-06T11:55:22Z</time>
      </trkpt>
      <trkpt lat="57.82464" lon="-5.57682">
        <ele>79.78</ele>
        <time>2021-04-06T11:55:24Z</time>
      </trkpt>
      <trkpt lat="57.82483" lon="-5.57674">
        <ele>80.63</ele>
        <time>2021-04-06T11:55:26Z</time>
      </trkpt>
      <trkpt lat="57.82504" lon="-5.57675">
        <ele>81.02</ele>
        <time>2021-04-06T11:55:29Z</time>
      </trkpt>
      <trkpt lat="57.82526" lon="-5.57684">
        <ele>80.26</ele>
        <time>2021-04-06T11:55:31Z</time>
      </trkpt>
      <trkpt lat="57.826" lon="-5.57749">
        <ele>69.93</ele>
        <time>2021-04-06T11:55:33Z</time>
      </trkpt>
      <trkpt lat="57.82644" lon="-5.57764">
        <ele>68.54</ele>
        <time>2021-04-06T11:55:35Z</time>
      </trkpt>
      <trkpt lat="57.82745" lon="-5.57774">
        <ele>65.03</ele>
        <time>2021-04-06T11:55:37Z</time>
      </trkpt>
      <trkpt lat="57.8289" lon="-5.57793">
        <ele>55.15</ele>
        <time>2021-04-06T11:55:40Z</time>
      </trkpt>
      <trkpt lat="57.82921" lon="-5.57813">
        <ele>50.28</ele>
        <time>2021-04-06T11:55:42Z</time>
      </trkpt>
      <trkpt lat="57.82955" lon="-5.57837">
        <ele>48.51</ele>
        <time>2021-04-06T11:55:44Z</time>
      </trkpt>
      <trkpt lat="57.8298" lon="-5.57842">
        <ele>47.94</ele>
        <time>2021-04-06T11:55:46Z</time>
      </trkpt>
      <trkpt lat="57.83004" lon="-5.5784">
        <ele>47.46</ele>
        <time>2021-04-06T11:55:48Z</time>
      </trkpt>
      <trkpt lat="57.83038" lon="-5.57827">
        <ele>45.69</ele>
        <time>2021-04-06T11:55:51Z</time>
      </trkpt>
      <trkpt lat="57.83057" lon="-5.57812">
        <ele>44.96</ele>
        <time>2021-04-06T11:55:53Z</time>
      </trkpt>
      <trkpt lat="57.8308" lon="-5.57778">
        <ele>45.58</ele>
        <time>2021-04-06T11:55:55Z</time>
      </trkpt>
      <trkpt lat="57.83149" lon="-5.57607">
        <ele>46.6</ele>
        <time>2021-04-06T11:55:57Z</time>
      </trkpt>
      <trkpt lat="57.83162" lon="-5.57578">
        <ele>45.98</ele>
        <time>2021-04-06T11:55:59Z</time>
      </trkpt>
      <trkpt lat="57.83174" lon="-5.57561">
        <ele>45.74</ele>
        <time>2021-04-06T11:56:02Z</time>
      </trkpt>
      <trkpt lat="57.83191" lon="-5.57555">
        <ele>42.89</ele>
        <time>2021-04-06T11:56:04Z</time>
      </trkpt>
      <trkpt lat="57.83209" lon="-5.57567">
        <ele>39.87</ele>
        <time>2021-04-06T11:56:06Z</time>
      </trkpt>
      <trkpt lat="57.8322" lon="-5.57585">
        <ele>38.01</ele>
        <time>2021-04-06T11:56:08Z</time>
      </trkpt>
      <trkpt lat="57.83222" lon="-5.57606">
        <ele>37.18</ele>
        <time>2021-04-06T11:56:10Z</time>
      </trkpt>
      <trkpt lat="57.83221" lon="-5.57628">
        <ele>36.87</ele>
        <time>2021-04-06T11:56:13Z</time>
      </trkpt>
      <trkpt lat="57.83217" lon="-5.57656">
        <ele>36.31</ele>
        <time>2021-04-06T11:56:15Z</time>
      </trkpt>
      <trkpt lat="57.83209" lon="-5.5769">
        <ele>34.29</ele>
        <time>2021-04-06T11:56:17Z</time>
      </trkpt>
      <trkpt lat="57.83167" lon="-5.57839">
        <ele>27.81</ele>
        <time>2021-04-06T11:56:19Z</time>
      </trkpt>
      <trkpt lat="57.83154" lon="-5.57895">
        <ele>25.68</ele>
        <time>2021-04-06T11:56:22Z</time>
      </trkpt>
      <trkpt lat="57.83153" lon="-5.57916">
        <ele>24.01</ele>
        <time>2021-04-06T11:56:24Z</time>
      </trkpt>
      <trkpt lat="57.83155" lon="-5.57944">
        <ele>22.64</ele>
        <time>2021-04-06T11:56:26Z</time>
      </trkpt>
      <trkpt lat="57.83161" lon="-5.57967">
        <ele>21.16</ele>
        <time>2021-04-06T11:56:28Z</time>
      </trkpt>
      <trkpt lat="57.83167" lon="-5.57982">
        <ele>20.31</ele>
        <time>2021-04-06T11:56:30Z</time>
      </trkpt>
      <trkpt lat="57.83174" lon="-5.57991">
        <ele>19.73</ele>
        <time>2021-04-06T11:56:33Z</time>
      </trkpt>
      <trkpt lat="57.83193" lon="-5.58007">
        <ele>18.21</ele>
        <time>2021-04-06T11:56:35Z</time>
      </trkpt>
      <trkpt lat="57.83205" lon="-5.58012">
        <ele>17.55</ele>
        <time>2021-04-06T11:56:37Z</time>
      </trkpt>
      <trkpt lat="57.83268" lon="-5.58011">
        <ele>16.19</ele>
        <time>2021-04-06T11:56:39Z</time>
      </trkpt>
      <trkpt lat="57.83405" lon="-5.58005">
        <ele>15.64</ele>
        <time>2021-04-06T11:56:41Z</time>
      </trkpt>
      <trkpt lat="57.83453" lon="-5.57996">
        <ele>17.31</ele>
        <time>2021-04-06T11:56:44Z</time>
      </trkpt>
      <trkpt lat="57.83499" lon="-5.57981">
        <ele>16.42</ele>
        <time>2021-04-06T11:56:46Z</time>
      </trkpt>
      <trkpt lat="57.83681" lon="-5.57907">
        <ele>15.04</ele>
        <time>2021-04-06T11:56:48Z</time>
      </trkpt>
      <trkpt lat="57.83681" lon="-5.57907">
        <ele>15.04</ele>
        <time>2021-04-06T11:56:48Z</time>
      </trkpt>
      <trkpt lat="57.83717" lon="-5.57889">
        <ele>16.02</ele>
        <time>2021-04-06T11:56:52Z</time>
      </trkpt>
      <trkpt lat="57.83742" lon="-5.57871">
        <ele>17.47</ele>
        <time>2021-04-06T11:56:56Z</time>
      </trkpt>
      <trkpt lat="57.83753" lon="-5.57857">
        <ele>18.43</ele>
        <time>2021-04-06T11:57:01Z</time>
      </trkpt>
      <trkpt lat="57.83763" lon="-5.5784">
        <ele>19.95</ele>
        <time>2021-04-06T11:57:05Z</time>
      </trkpt>
      <trkpt lat="57.83778" lon="-5.57787">
        <ele>22.28</ele>
        <time>2021-04-06T11:57:09Z</time>
      </trkpt>
      <trkpt lat="57.83791" lon="-5.57708">
        <ele>24.4</ele>
        <time>2021-04-06T11:57:13Z</time>
      </trkpt>
      <trkpt lat="57.83802" lon="-5.57652">
        <ele>24.38</ele>
        <time>2021-04-06T11:57:18Z</time>
      </trkpt>
      <trkpt lat="57.83818" lon="-5.57607">
        <ele>25</ele>
        <time>2021-04-06T11:57:22Z</time>
      </trkpt>
      <trkpt lat="57.8386" lon="-5.57535">
        <ele>26</ele>
        <time>2021-04-06T11:57:26Z</time>
      </trkpt>
      <trkpt lat="57.83884" lon="-5.57497">
        <ele>25.92</ele>
        <time>2021-04-06T11:57:30Z</time>
      </trkpt>
      <trkpt lat="57.83922" lon="-5.57426">
        <ele>22.79</ele>
        <time>2021-04-06T11:57:34Z</time>
      </trkpt>
      <trkpt lat="57.83938" lon="-5.57383">
        <ele>22.75</ele>
        <time>2021-04-06T11:57:39Z</time>
      </trkpt>
      <trkpt lat="57.83948" lon="-5.57335">
        <ele>24.31</ele>
        <time>2021-04-06T11:57:43Z</time>
      </trkpt>
      <trkpt lat="57.83954" lon="-5.57283">
        <ele>26.8</ele>
        <time>2021-04-06T11:57:47Z</time>
      </trkpt>
      <trkpt lat="57.83965" lon="-5.57059">
        <ele>37.56</ele>
        <time>2021-04-06T11:57:51Z</time>
      </trkpt>
      <trkpt lat="57.83973" lon="-5.56975">
        <ele>40.12</ele>
        <time>2021-04-06T11:57:56Z</time>
      </trkpt>
      <trkpt lat="57.83995" lon="-5.56876">
        <ele>43.77</ele>
        <time>2021-04-06T11:58:00Z</time>
      </trkpt>
      <trkpt lat="57.8402" lon="-5.56807">
        <ele>45.13</ele>
        <time>2021-04-06T11:58:04Z</time>
      </trkpt>
      <trkpt lat="57.84062" lon="-5.56733">
        <ele>47.12</ele>
        <time>2021-04-06T11:58:08Z</time>
      </trkpt>
      <trkpt lat="57.84113" lon="-5.56675">
        <ele>49.36</ele>
        <time>2021-04-06T11:58:13Z</time>
      </trkpt>
      <trkpt lat="57.84294" lon="-5.56511">
        <ele>51.69</ele>
        <time>2021-04-06T11:58:17Z</time>
      </trkpt>
      <trkpt lat="57.84327" lon="-5.56457">
        <ele>53.42</ele>
        <time>2021-04-06T11:58:21Z</time>
      </trkpt>
      <trkpt lat="57.84363" lon="-5.56374">
        <ele>55.12</ele>
        <time>2021-04-06T11:58:25Z</time>
      </trkpt>
      <trkpt lat="57.84395" lon="-5.56317">
        <ele>56.44</ele>
        <time>2021-04-06T11:58:29Z</time>
      </trkpt>
      <trkpt lat="57.84446" lon="-5.56256">
        <ele>60.07</ele>
        <time>2021-04-06T11:58:34Z</time>
      </trkpt>
      <trkpt lat="57.84589" lon="-5.56121">
        <ele>62.71</ele>
        <time>2021-04-06T11:58:38Z</time>
      </trkpt>
      <trkpt lat="57.84723" lon="-5.55953">
        <ele>67.34</ele>
        <time>2021-04-06T11:58:42Z</time>
      </trkpt>
      <trkpt lat="57.84773" lon="-5.55909">
        <ele>67.55</ele>
        <time>2021-04-06T11:58:46Z</time>
      </trkpt>
      <trkpt lat="57.84965" lon="-5.55833">
        <ele>71.72</ele>
        <time>2021-04-06T11:58:51Z</time>
      </trkpt>
      <trkpt lat="57.84994" lon="-5.55818">
        <ele>71.21</ele>
        <time>2021-04-06T11:58:55Z</time>
      </trkpt>
      <trkpt lat="57.85022" lon="-5.55797">
        <ele>68.84</ele>
        <time>2021-04-06T11:58:59Z</time>
      </trkpt>
      <trkpt lat="57.85077" lon="-5.55734">
        <ele>64.75</ele>
        <time>2021-04-06T11:59:03Z</time>
      </trkpt>
      <trkpt lat="57.853" lon="-5.55441">
        <ele>60</ele>
        <time>2021-04-06T11:59:07Z</time>
      </trkpt>
      <trkpt lat="57.85325" lon="-5.55417">
        <ele>59.29</ele>
        <time>2021-04-06T11:59:12Z</time>
      </trkpt>
      <trkpt lat="57.85355" lon="-5.554">
        <ele>58.35</ele>
        <time>2021-04-06T11:59:16Z</time>
      </trkpt>
      <trkpt lat="57.85455" lon="-5.55372">
        <ele>54.97</ele>
        <time>2021-04-06T11:59:20Z</time>
      </trkpt>
      <trkpt lat="57.85486" lon="-5.55358">
        <ele>53.6</ele>
        <time>2021-04-06T11:59:24Z</time>
      </trkpt>
      <trkpt lat="57.8552" lon="-5.55332">
        <ele>53.28</ele>
        <time>2021-04-06T11:59:29Z</time>
      </trkpt>
      <trkpt lat="57.85551" lon="-5.55299">
        <ele>53</ele>
        <time>2021-04-06T11:59:33Z</time>
      </trkpt>
      <trkpt lat="57.85643" lon="-5.55191">
        <ele>49.87</ele>
        <time>2021-04-06T11:59:37Z</time>
      </trkpt>
      <trkpt lat="57.85713" lon="-5.5514">
        <ele>49</ele>
        <time>2021-04-06T11:59:41Z</time>
      </trkpt>
      <trkpt lat="57.85936" lon="-5.55003">
        <ele>42.8</ele>
        <time>2021-04-06T11:59:46Z</time>
      </trkpt>
      <trkpt lat="57.85972" lon="-5.54967">
        <ele>43</ele>
        <time>2021-04-06T11:59:50Z</time>
      </trkpt>
      <trkpt lat="57.86012" lon="-5.54905">
        <ele>43.49</ele>
        <time>2021-04-06T11:59:54Z</time>
      </trkpt>
      <trkpt lat="57.86044" lon="-5.54843">
        <ele>43.28</ele>
        <time>2021-04-06T11:59:58Z</time>
      </trkpt>
      <trkpt lat="57.86093" lon="-5.54733">
        <ele>42.4</ele>
        <time>2021-04-06T12:00:02Z</time>
      </trkpt>
      <trkpt lat="57.86148" lon="-5.54638">
        <ele>38.6</ele>
        <time>2021-04-06T12:00:07Z</time>
      </trkpt>
      <trkpt lat="57.86259" lon="-5.54486">
        <ele>34.16</ele>
        <time>2021-04-06T12:00:11Z</time>
      </trkpt>
      <trkpt lat="57.86351" lon="-5.54368">
        <ele>29.61</ele>
        <time>2021-04-06T12:00:15Z</time>
      </trkpt>
      <trkpt lat="57.86484" lon="-5.54189">
        <ele>20.3</ele>
        <time>2021-04-06T12:00:19Z</time>
      </trkpt>
      <trkpt lat="57.86543" lon="-5.54072">
        <ele>15.6</ele>
        <time>2021-04-06T12:00:24Z</time>
      </trkpt>
      <trkpt lat="57.86578" lon="-5.53997">
        <ele>13.9</ele>
        <time>2021-04-06T12:00:28Z</time>
      </trkpt>
      <trkpt lat="57.86602" lon="-5.53938">
        <ele>11.98</ele>
        <time>2021-04-06T12:00:32Z</time>
      </trkpt>
      <trkpt lat="57.86602" lon="-5.53938">
        <ele>11.98</ele>
        <time>2021-04-06T12:00:32Z</time>
      </trkpt>
      <trkpt lat="57.86623" lon="-5.53874">
        <ele>8</ele>
        <time>2021-04-06T12:00:35Z</time>
      </trkpt>
      <trkpt lat="57.86636" lon="-5.53816">
        <ele>7</ele>
        <time>2021-04-06T12:00:39Z</time>
      </trkpt>
      <trkpt lat="57.86663" lon="-5.53601">
        <ele>7.91</ele>
        <time>2021-04-06T12:00:42Z</time>
      </trkpt>
      <trkpt lat="57.8667" lon="-5.53515">
        <ele>9.04</ele>
        <time>2021-04-06T12:00:46Z</time>
      </trkpt>
      <trkpt lat="57.8667" lon="-5.53457">
        <ele>9.46</ele>
        <time>2021-04-06T12:00:49Z</time>
      </trkpt>
      <trkpt lat="57.86663" lon="-5.53397">
        <ele>8.87</ele>
        <time>2021-04-06T12:00:53Z</time>
      </trkpt>
      <trkpt lat="57.86626" lon="-5.53251">
        <ele>10.27</ele>
        <time>2021-04-06T12:00:56Z</time>
      </trkpt>
      <trkpt lat="57.86605" lon="-5.53156">
        <ele>10.44</ele>
        <time>2021-04-06T12:01:00Z</time>
      </trkpt>
      <trkpt lat="57.86504" lon="-5.52537">
        <ele>22.69</ele>
        <time>2021-04-06T12:01:03Z</time>
      </trkpt>
      <trkpt lat="57.86482" lon="-5.52451">
        <ele>23.8</ele>
        <time>2021-04-06T12:01:06Z</time>
      </trkpt>
      <trkpt lat="57.86403" lon="-5.52281">
        <ele>23.54</ele>
        <time>2021-04-06T12:01:10Z</time>
      </trkpt>
      <trkpt lat="57.86393" lon="-5.52228">
        <ele>25.08</ele>
        <time>2021-04-06T12:01:13Z</time>
      </trkpt>
      <trkpt lat="57.86394" lon="-5.52188">
        <ele>25.28</ele>
        <time>2021-04-06T12:01:17Z</time>
      </trkpt>
      <trkpt lat="57.86415" lon="-5.52031">
        <ele>29.16</ele>
        <time>2021-04-06T12:01:20Z</time>
      </trkpt>
      <trkpt lat="57.8642" lon="-5.51975">
        <ele>29.29</ele>
        <time>2021-04-06T12:01:24Z</time>
      </trkpt>
      <trkpt lat="57.86418" lon="-5.51917">
        <ele>30.47</ele>
        <time>2021-04-06T12:01:27Z</time>
      </trkpt>
      <trkpt lat="57.86405" lon="-5.51798">
        <ele>34.4</ele>
        <time>2021-04-06T12:01:30Z</time>
      </trkpt>
      <trkpt lat="57.86381" lon="-5.51648">
        <ele>32.02</ele>
        <time>2021-04-06T12:01:34Z</time>
      </trkpt>
      <trkpt lat="57.8631" lon="-5.51397">
        <ele>31.52</ele>
        <time>2021-04-06T12:01:37Z</time>
      </trkpt>
      <trkpt lat="57.86264" lon="-5.51286">
        <ele>31.02</ele>
        <time>2021-04-06T12:01:41Z</time>
      </trkpt>
      <trkpt lat="57.86239" lon="-5.51243">
        <ele>30.43</ele>
        <time>2021-04-06T12:01:44Z</time>
      </trkpt>
      <trkpt lat="57.8621" lon="-5.51201">
        <ele>30.71</ele>
        <time>2021-04-06T12:01:48Z</time>
      </trkpt>
      <trkpt lat="57.86161" lon="-5.51113">
        <ele>32.86</ele>
        <time>2021-04-06T12:01:51Z</time>
      </trkpt>
      <trkpt lat="57.86132" lon="-5.51028">
        <ele>31.25</ele>
        <time>2021-04-06T12:01:54Z</time>
      </trkpt>
      <trkpt lat="57.86082" lon="-5.50822">
        <ele>30.94</ele>
        <time>2021-04-06T12:01:58Z</time>
      </trkpt>
      <trkpt lat="57.86067" lon="-5.50726">
        <ele>28.81</ele>
        <time>2021-04-06T12:02:01Z</time>
      </trkpt>
      <trkpt lat="57.86063" lon="-5.50599">
        <ele>22.78</ele>
        <time>2021-04-06T12:02:05Z</time>
      </trkpt>
      <trkpt lat="57.86064" lon="-5.50383">
        <ele>20.85</ele>
        <time>2021-04-06T12:02:08Z</time>
      </trkpt>
      <trkpt lat="57.86034" lon="-5.50059">
        <ele>19.99</ele>
        <time>2021-04-06T12:02:12Z</time>
      </trkpt>
      <trkpt lat="57.85938" lon="-5.49611">
        <ele>42.93</ele>
        <time>2021-04-06T12:02:15Z</time>
      </trkpt>
      <trkpt lat="57.8591" lon="-5.49497">
        <ele>48.54</ele>
        <time>2021-04-06T12:02:18Z</time>
      </trkpt>
      <trkpt lat="57.85866" lon="-5.4936">
        <ele>56.49</ele>
        <time>2021-04-06T12:02:22Z</time>
      </trkpt>
      <trkpt lat="57.85833" lon="-5.49301">
        <ele>58.85</ele>
        <time>2021-04-06T12:02:25Z</time>
      </trkpt>
      <trkpt lat="57.85793" lon="-5.49244">
        <ele>57.77</ele>
        <time>2021-04-06T12:02:29Z</time>
      </trkpt>
      <trkpt lat="57.85587" lon="-5.49056">
        <ele>47.96</ele>
        <time>2021-04-06T12:02:32Z</time>
      </trkpt>
      <trkpt lat="57.85531" lon="-5.4902">
        <ele>47.81</ele>
        <time>2021-04-06T12:02:36Z</time>
      </trkpt>
      <trkpt lat="57.8544" lon="-5.48982">
        <ele>44.67</ele>
        <time>2021-04-06T12:02:39Z</time>
      </trkpt>
      <trkpt lat="57.85424" lon="-5.48969">
        <ele>43.72</ele>
        <time>2021-04-06T12:02:42Z</time>
      </trkpt>
      <trkpt lat="57.85404" lon="-5.4894">
        <ele>42.84</ele>
        <time>2021-04-06T12:02:46Z</time>
      </trkpt>
      <trkpt lat="57.85389" lon="-5.48909">
        <ele>42.68</ele>
        <time>2021-04-06T12:02:49Z</time>
      </trkpt>
      <trkpt lat="57.85366" lon="-5.4885">
        <ele>44.92</ele>
        <time>2021-04-06T12:02:53Z</time>
      </trkpt>
      <trkpt lat="57.85353" lon="-5.48807">
        <ele>46.51</ele>
        <time>2021-04-06T12:02:56Z</time>
      </trkpt>
      <trkpt lat="57.85343" lon="-5.48763">
        <ele>48.87</ele>
        <time>2021-04-06T12:03:00Z</time>
      </trkpt>
      <trkpt lat="57.8534" lon="-5.48733">
        <ele>51.13</ele>
        <time>2021-04-06T12:03:03Z</time>
      </trkpt>
      <trkpt lat="57.85339" lon="-5.48704">
        <ele>53.24</ele>
        <time>2021-04-06T12:03:06Z</time>
      </trkpt>
      <trkpt lat="57.85347" lon="-5.48643">
        <ele>55.4</ele>
        <time>2021-04-06T12:03:10Z</time>
      </trkpt>
      <trkpt lat="57.85396" lon="-5.48478">
        <ele>56.55</ele>
        <time>2021-04-06T12:03:13Z</time>
      </trkpt>
      <trkpt lat="57.854" lon="-5.48435">
        <ele>58.88</ele>
        <time>2021-04-06T12:03:17Z</time>
      </trkpt>
      <trkpt lat="57.85399" lon="-5.48372">
        <ele>61.52</ele>
        <time>2021-04-06T12:03:20Z</time>
      </trkpt>
      <trkpt lat="57.85387" lon="-5.48273">
        <ele>64.35</ele>
        <time>2021-04-06T12:03:24Z</time>
      </trkpt>
      <trkpt lat="57.85373" lon="-5.48182">
        <ele>67.01</ele>
        <time>2021-04-06T12:03:27Z</time>
      </trkpt>
      <trkpt lat="57.85363" lon="-5.48146">
        <ele>68.71</ele>
        <time>2021-04-06T12:03:30Z</time>
      </trkpt>
      <trkpt lat="57.8535" lon="-5.48116">
        <ele>71.03</ele>
        <time>2021-04-06T12:03:34Z</time>
      </trkpt>
      <trkpt lat="57.85328" lon="-5.48087">
        <ele>73.54</ele>
        <time>2021-04-06T12:03:37Z</time>
      </trkpt>
      <trkpt lat="57.8529" lon="-5.48069">
        <ele>77.37</ele>
        <time>2021-04-06T12:03:41Z</time>
      </trkpt>
      <trkpt lat="57.85257" lon="-5.4806">
        <ele>79.19</ele>
        <time>2021-04-06T12:03:44Z</time>
      </trkpt>
      <trkpt lat="57.85213" lon="-5.48055">
        <ele>80.94</ele>
        <time>2021-04-06T12:03:48Z</time>
      </trkpt>
      <trkpt lat="57.85181" lon="-5.48043">
        <ele>82.81</ele>
        <time>2021-04-06T12:03:51Z</time>
      </trkpt>
      <trkpt lat="57.85166" lon="-5.48026">
        <ele>82.97</ele>
        <time>2021-04-06T12:03:54Z</time>
      </trkpt>
      <trkpt lat="57.8515" lon="-5.48002">
        <ele>82.65</ele>
        <time>2021-04-06T12:03:58Z</time>
      </trkpt>
      <trkpt lat="57.8514" lon="-5.4797">
        <ele>82.89</ele>
        <time>2021-04-06T12:04:01Z</time>
      </trkpt>
      <trkpt lat="57.85134" lon="-5.47939">
        <ele>82.76</ele>
        <time>2021-04-06T12:04:05Z</time>
      </trkpt>
      <trkpt lat="57.85132" lon="-5.47895">
        <ele>85.74</ele>
        <time>2021-04-06T12:04:08Z</time>
      </trkpt>
      <trkpt lat="57.85144" lon="-5.47847">
        <ele>89.21</ele>
        <time>2021-04-06T12:04:12Z</time>
      </trkpt>
      <trkpt lat="57.85157" lon="-5.47806">
        <ele>91.97</ele>
        <time>2021-04-06T12:04:15Z</time>
      </trkpt>
      <trkpt lat="57.85249" lon="-5.47635">
        <ele>100.32</ele>
        <time>2021-04-06T12:04:19Z</time>
      </trkpt>
      <trkpt lat="57.85275" lon="-5.47564">
        <ele>99.89</ele>
        <time>2021-04-06T12:04:22Z</time>
      </trkpt>
      <trkpt lat="57.85308" lon="-5.4737">
        <ele>109.55</ele>
        <time>2021-04-06T12:04:25Z</time>
      </trkpt>
      <trkpt lat="57.85308" lon="-5.47329">
        <ele>106.49</ele>
        <time>2021-04-06T12:04:29Z</time>
      </trkpt>
      <trkpt lat="57.85303" lon="-5.47296">
        <ele>101.77</ele>
        <time>2021-04-06T12:04:32Z</time>
      </trkpt>
      <trkpt lat="57.85286" lon="-5.47257">
        <ele>94.6</ele>
        <time>2021-04-06T12:04:36Z</time>
      </trkpt>
      <trkpt lat="57.85155" lon="-5.47109">
        <ele>77.76</ele>
        <time>2021-04-06T12:04:39Z</time>
      </trkpt>
      <trkpt lat="57.85132" lon="-5.47068">
        <ele>70</ele>
        <time>2021-04-06T12:04:43Z</time>
      </trkpt>
      <trkpt lat="57.85096" lon="-5.46992">
        <ele>59.47</ele>
        <time>2021-04-06T12:04:46Z</time>
      </trkpt>
      <trkpt lat="57.85002" lon="-5.46865">
        <ele>42.65</ele>
        <time>2021-04-06T12:04:49Z</time>
      </trkpt>
      <trkpt lat="57.84958" lon="-5.46799">
        <ele>35.66</ele>
        <time>2021-04-06T12:04:53Z</time>
      </trkpt>
      <trkpt lat="57.8494" lon="-5.46754">
        <ele>33.59</ele>
        <time>2021-04-06T12:04:56Z</time>
      </trkpt>
      <trkpt lat="57.84937" lon="-5.46713">
        <ele>33.21</ele>
        <time>2021-04-06T12:05:00Z</time>
      </trkpt>
      <trkpt lat="57.84937" lon="-5.46713">
        <ele>33.21</ele>
        <time>2021-04-06T12:05:00Z</time>
      </trkpt>
      <trkpt lat="57.84942" lon="-5.46657">
        <ele>31.38</ele>
        <time>2021-04-06T12:05:03Z</time>
      </trkpt>
      <trkpt lat="57.84981" lon="-5.46518">
        <ele>27.75</ele>
        <time>2021-04-06T12:05:06Z</time>
      </trkpt>
      <trkpt lat="57.85" lon="-5.46437">
        <ele>27.99</ele>
        <time>2021-04-06T12:05:10Z</time>
      </trkpt>
      <trkpt lat="57.85012" lon="-5.46372">
        <ele>26.11</ele>
        <time>2021-04-06T12:05:13Z</time>
      </trkpt>
      <trkpt lat="57.85015" lon="-5.46241">
        <ele>24.75</ele>
        <time>2021-04-06T12:05:17Z</time>
      </trkpt>
      <trkpt lat="57.85023" lon="-5.46139">
        <ele>24.55</ele>
        <time>2021-04-06T12:05:20Z</time>
      </trkpt>
      <trkpt lat="57.85036" lon="-5.46071">
        <ele>21.69</ele>
        <time>2021-04-06T12:05:23Z</time>
      </trkpt>
      <trkpt lat="57.85084" lon="-5.45785">
        <ele>16.73</ele>
        <time>2021-04-06T12:05:27Z</time>
      </trkpt>
      <trkpt lat="57.85094" lon="-5.45705">
        <ele>14.33</ele>
        <time>2021-04-06T12:05:30Z</time>
      </trkpt>
      <trkpt lat="57.85091" lon="-5.45622">
        <ele>14.97</ele>
        <time>2021-04-06T12:05:33Z</time>
      </trkpt>
      <trkpt lat="57.85083" lon="-5.45527">
        <ele>11.12</ele>
        <time>2021-04-06T12:05:37Z</time>
      </trkpt>
      <trkpt lat="57.85088" lon="-5.45465">
        <ele>6.37</ele>
        <time>2021-04-06T12:05:40Z</time>
      </trkpt>
      <trkpt lat="57.85095" lon="-5.45436">
        <ele>5.31</ele>
        <time>2021-04-06T12:05:43Z</time>
      </trkpt>
      <trkpt lat="57.85118" lon="-5.4538">
        <ele>8</ele>
        <time>2021-04-06T12:05:47Z</time>
      </trkpt>
      <trkpt lat="57.85195" lon="-5.45233">
        <ele>10.58</ele>
        <time>2021-04-06T12:05:50Z</time>
      </trkpt>
      <trkpt lat="57.85219" lon="-5.4521">
        <ele>10.51</ele>
        <time>2021-04-06T12:05:53Z</time>
      </trkpt>
      <trkpt lat="57.85249" lon="-5.45193">
        <ele>13.13</ele>
        <time>2021-04-06T12:05:57Z</time>
      </trkpt>
      <trkpt lat="57.85333" lon="-5.45185">
        <ele>12.33</ele>
        <time>2021-04-06T12:06:00Z</time>
      </trkpt>
      <trkpt lat="57.85386" lon="-5.45165">
        <ele>10.37</ele>
        <time>2021-04-06T12:06:04Z</time>
      </trkpt>
      <trkpt lat="57.85405" lon="-5.45145">
        <ele>11.12</ele>
        <time>2021-04-06T12:06:07Z</time>
      </trkpt>
      <trkpt lat="57.85432" lon="-5.45098">
        <ele>14.6</ele>
        <time>2021-04-06T12:06:10Z</time>
      </trkpt>
      <trkpt lat="57.85483" lon="-5.44939">
        <ele>23.4</ele>
        <time>2021-04-06T12:06:14Z</time>
      </trkpt>
      <trkpt lat="57.85509" lon="-5.44888">
        <ele>27.41</ele>
        <time>2021-04-06T12:06:17Z</time>
      </trkpt>
      <trkpt lat="57.8553" lon="-5.44868">
        <ele>30.55</ele>
        <time>2021-04-06T12:06:20Z</time>
      </trkpt>
      <trkpt lat="57.85599" lon="-5.44848">
        <ele>40.59</ele>
        <time>2021-04-06T12:06:24Z</time>
      </trkpt>
      <trkpt lat="57.85719" lon="-5.44823">
        <ele>40.13</ele>
        <time>2021-04-06T12:06:27Z</time>
      </trkpt>
      <trkpt lat="57.85742" lon="-5.44814">
        <ele>42.92</ele>
        <time>2021-04-06T12:06:30Z</time>
      </trkpt>
      <trkpt lat="57.85797" lon="-5.44783">
        <ele>48.83</ele>
        <time>2021-04-06T12:06:34Z</time>
      </trkpt>
      <trkpt lat="57.8583" lon="-5.44755">
        <ele>47.07</ele>
        <time>2021-04-06T12:06:37Z</time>
      </trkpt>
      <trkpt lat="57.85866" lon="-5.44719">
        <ele>44.7</ele>
        <time>2021-04-06T12:06:40Z</time>
      </trkpt>
      <trkpt lat="57.85932" lon="-5.44625">
        <ele>41.44</ele>
        <time>2021-04-06T12:06:44Z</time>
      </trkpt>
      <trkpt lat="57.86033" lon="-5.44466">
        <ele>41.67</ele>
        <time>2021-04-06T12:06:47Z</time>
      </trkpt>
      <trkpt lat="57.86069" lon="-5.44404">
        <ele>40.09</ele>
        <time>2021-04-06T12:06:51Z</time>
      </trkpt>
      <trkpt lat="57.86207" lon="-5.44078">
        <ele>34.51</ele>
        <time>2021-04-06T12:06:54Z</time>
      </trkpt>
      <trkpt lat="57.86263" lon="-5.43964">
        <ele>35.16</ele>
        <time>2021-04-06T12:06:57Z</time>
      </trkpt>
      <trkpt lat="57.8636" lon="-5.4379">
        <ele>34.77</ele>
        <time>2021-04-06T12:07:01Z</time>
      </trkpt>
      <trkpt lat="57.86394" lon="-5.43737">
        <ele>36.44</ele>
        <time>2021-04-06T12:07:04Z</time>
      </trkpt>
      <trkpt lat="57.86415" lon="-5.43696">
        <ele>35.04</ele>
        <time>2021-04-06T12:07:07Z</time>
      </trkpt>
      <trkpt lat="57.86429" lon="-5.43674">
        <ele>34.6</ele>
        <time>2021-04-06T12:07:11Z</time>
      </trkpt>
      <trkpt lat="57.86429" lon="-5.43674">
        <ele>34.6</ele>
        <time>2021-04-06T12:07:11Z</time>
      </trkpt>
      <trkpt lat="57.86449" lon="-5.43666">
        <ele>34.19</ele>
        <time>2021-04-06T12:07:14Z</time>
      </trkpt>
      <trkpt lat="57.86574" lon="-5.43703">
        <ele>32.67</ele>
        <time>2021-04-06T12:07:17Z</time>
      </trkpt>
      <trkpt lat="57.86612" lon="-5.43724">
        <ele>38.03</ele>
        <time>2021-04-06T12:07:20Z</time>
      </trkpt>
      <trkpt lat="57.86641" lon="-5.43748">
        <ele>40.69</ele>
        <time>2021-04-06T12:07:23Z</time>
      </trkpt>
      <trkpt lat="57.86666" lon="-5.43783">
        <ele>41.9</ele>
        <time>2021-04-06T12:07:26Z</time>
      </trkpt>
      <trkpt lat="57.86796" lon="-5.44024">
        <ele>25.81</ele>
        <time>2021-04-06T12:07:29Z</time>
      </trkpt>
      <trkpt lat="57.8682" lon="-5.44054">
        <ele>21.25</ele>
        <time>2021-04-06T12:07:32Z</time>
      </trkpt>
      <trkpt lat="57.86841" lon="-5.4407">
        <ele>20.12</ele>
        <time>2021-04-06T12:07:35Z</time>
      </trkpt>
      <trkpt lat="57.86879" lon="-5.44076">
        <ele>19.78</ele>
        <time>2021-04-06T12:07:38Z</time>
      </trkpt>
      <trkpt lat="57.86931" lon="-5.44073">
        <ele>19.24</ele>
        <time>2021-04-06T12:07:41Z</time>
      </trkpt>
      <trkpt lat="57.8697" lon="-5.44061">
        <ele>19.39</ele>
        <time>2021-04-06T12:07:44Z</time>
      </trkpt>
      <trkpt lat="57.86995" lon="-5.44037">
        <ele>18.37</ele>
        <time>2021-04-06T12:07:47Z</time>
      </trkpt>
      <trkpt lat="57.87052" lon="-5.43974">
        <ele>18.79</ele>
        <time>2021-04-06T12:07:50Z</time>
      </trkpt>
      <trkpt lat="57.87074" lon="-5.43959">
        <ele>20.88</ele>
        <time>2021-04-06T12:07:53Z</time>
      </trkpt>
      <trkpt lat="57.871" lon="-5.43953">
        <ele>22.08</ele>
        <time>2021-04-06T12:07:56Z</time>
      </trkpt>
      <trkpt lat="57.87209" lon="-5.43972">
        <ele>18</ele>
        <time>2021-04-06T12:07:59Z</time>
      </trkpt>
      <trkpt lat="57.87309" lon="-5.43948">
        <ele>15.23</ele>
        <time>2021-04-06T12:08:02Z</time>
      </trkpt>
      <trkpt lat="57.8733" lon="-5.43947">
        <ele>13.01</ele>
        <time>2021-04-06T12:08:05Z</time>
      </trkpt>
      <trkpt lat="57.87356" lon="-5.43952">
        <ele>12.2</ele>
        <time>2021-04-06T12:08:08Z</time>
      </trkpt>
      <trkpt lat="57.87408" lon="-5.43973">
        <ele>12.21</ele>
        <time>2021-04-06T12:08:11Z</time>
      </trkpt>
      <trkpt lat="57.87543" lon="-5.44023">
        <ele>14.85</ele>
        <time>2021-04-06T12:08:14Z</time>
      </trkpt>
      <trkpt lat="57.87586" lon="-5.44048">
        <ele>15.43</ele>
        <time>2021-04-06T12:08:17Z</time>
      </trkpt>
      <trkpt lat="57.87706" lon="-5.44154">
        <ele>15.05</ele>
        <time>2021-04-06T12:08:20Z</time>
      </trkpt>
      <trkpt lat="57.87745" lon="-5.44173">
        <ele>14.11</ele>
        <time>2021-04-06T12:08:23Z</time>
      </trkpt>
      <trkpt lat="57.8777" lon="-5.44175">
        <ele>13.1</ele>
        <time>2021-04-06T12:08:26Z</time>
      </trkpt>
      <trkpt lat="57.87807" lon="-5.44164">
        <ele>13.47</ele>
        <time>2021-04-06T12:08:29Z</time>
      </trkpt>
      <trkpt lat="57.87829" lon="-5.44148">
        <ele>15.87</ele>
        <time>2021-04-06T12:08:32Z</time>
      </trkpt>
      <trkpt lat="57.87861" lon="-5.44111">
        <ele>16.94</ele>
        <time>2021-04-06T12:08:35Z</time>
      </trkpt>
      <trkpt lat="57.87948" lon="-5.43976">
        <ele>12.39</ele>
        <time>2021-04-06T12:08:38Z</time>
      </trkpt>
      <trkpt lat="57.87975" lon="-5.43926">
        <ele>13.89</ele>
        <time>2021-04-06T12:08:41Z</time>
      </trkpt>
      <trkpt lat="57.8799" lon="-5.43895">
        <ele>14.08</ele>
        <time>2021-04-06T12:08:44Z</time>
      </trkpt>
      <trkpt lat="57.8799" lon="-5.43895">
        <ele>14.08</ele>
        <time>2021-04-06T12:08:44Z</time>
      </trkpt>
      <trkpt lat="57.88001" lon="-5.43857">
        <ele>13.02</ele>
        <time>2021-04-06T12:08:49Z</time>
      </trkpt>
      <trkpt lat="57.88011" lon="-5.43802">
        <ele>11.64</ele>
        <time>2021-04-06T12:08:54Z</time>
      </trkpt>
      <trkpt lat="57.88022" lon="-5.43671">
        <ele>10.95</ele>
        <time>2021-04-06T12:08:59Z</time>
      </trkpt>
      <trkpt lat="57.88038" lon="-5.43582">
        <ele>10.96</ele>
        <time>2021-04-06T12:09:04Z</time>
      </trkpt>
      <trkpt lat="57.88099" lon="-5.43331">
        <ele>8.84</ele>
        <time>2021-04-06T12:09:09Z</time>
      </trkpt>
      <trkpt lat="57.8811" lon="-5.43252">
        <ele>9.1</ele>
        <time>2021-04-06T12:09:14Z</time>
      </trkpt>
      <trkpt lat="57.88107" lon="-5.43123">
        <ele>9.4</ele>
        <time>2021-04-06T12:09:19Z</time>
      </trkpt>
      <trkpt lat="57.88081" lon="-5.42546">
        <ele>15.62</ele>
        <time>2021-04-06T12:09:24Z</time>
      </trkpt>
      <trkpt lat="57.88083" lon="-5.42467">
        <ele>20.18</ele>
        <time>2021-04-06T12:09:29Z</time>
      </trkpt>
      <trkpt lat="57.8809" lon="-5.42416">
        <ele>19.47</ele>
        <time>2021-04-06T12:09:34Z</time>
      </trkpt>
      <trkpt lat="57.88104" lon="-5.42368">
        <ele>17.62</ele>
        <time>2021-04-06T12:09:39Z</time>
      </trkpt>
      <trkpt lat="57.88148" lon="-5.42253">
        <ele>17.48</ele>
        <time>2021-04-06T12:09:44Z</time>
      </trkpt>
      <trkpt lat="57.88195" lon="-5.42144">
        <ele>21.36</ele>
        <time>2021-04-06T12:09:49Z</time>
      </trkpt>
      <trkpt lat="57.88214" lon="-5.42084">
        <ele>25.79</ele>
        <time>2021-04-06T12:09:54Z</time>
      </trkpt>
      <trkpt lat="57.88224" lon="-5.42027">
        <ele>28.91</ele>
        <time>2021-04-06T12:09:59Z</time>
      </trkpt>
      <trkpt lat="57.88233" lon="-5.41947">
        <ele>32.33</ele>
        <time>2021-04-06T12:10:05Z</time>
      </trkpt>
      <trkpt lat="57.88248" lon="-5.41884">
        <ele>34.75</ele>
        <time>2021-04-06T12:10:10Z</time>
      </trkpt>
      <trkpt lat="57.88301" lon="-5.41719">
        <ele>43.8</ele>
        <time>2021-04-06T12:10:15Z</time>
      </trkpt>
      <trkpt lat="57.88324" lon="-5.41623">
        <ele>49.87</ele>
        <time>2021-04-06T12:10:20Z</time>
      </trkpt>
      <trkpt lat="57.88415" lon="-5.41104">
        <ele>78.12</ele>
        <time>2021-04-06T12:10:25Z</time>
      </trkpt>
      <trkpt lat="57.8844" lon="-5.40896">
        <ele>91.07</ele>
        <time>2021-04-06T12:10:30Z</time>
      </trkpt>
      <trkpt lat="57.88446" lon="-5.40808">
        <ele>94.06</ele>
        <time>2021-04-06T12:10:35Z</time>
      </trkpt>
      <trkpt lat="57.88449" lon="-5.40444">
        <ele>107.34</ele>
        <time>2021-04-06T12:10:40Z</time>
      </trkpt>
      <trkpt lat="57.88466" lon="-5.40112">
        <ele>119.28</ele>
        <time>2021-04-06T12:10:45Z</time>
      </trkpt>
      <trkpt lat="57.88468" lon="-5.40019">
        <ele>123.76</ele>
        <time>2021-04-06T12:10:50Z</time>
      </trkpt>
      <trkpt lat="57.88464" lon="-5.39898">
        <ele>127.56</ele>
        <time>2021-04-06T12:10:55Z</time>
      </trkpt>
      <trkpt lat="57.88455" lon="-5.39789">
        <ele>131.66</ele>
        <time>2021-04-06T12:11:00Z</time>
      </trkpt>
      <trkpt lat="57.88408" lon="-5.39438">
        <ele>143.35</ele>
        <time>2021-04-06T12:11:05Z</time>
      </trkpt>
      <trkpt lat="57.88366" lon="-5.39086">
        <ele>155.25</ele>
        <time>2021-04-06T12:11:10Z</time>
      </trkpt>
      <trkpt lat="57.88334" lon="-5.38866">
        <ele>162.94</ele>
        <time>2021-04-06T12:11:15Z</time>
      </trkpt>
      <trkpt lat="57.88311" lon="-5.38761">
        <ele>166.23</ele>
        <time>2021-04-06T12:11:20Z</time>
      </trkpt>
      <trkpt lat="57.88277" lon="-5.38645">
        <ele>165.76</ele>
        <time>2021-04-06T12:11:25Z</time>
      </trkpt>
      <trkpt lat="57.88108" lon="-5.38191">
        <ele>167.84</ele>
        <time>2021-04-06T12:11:30Z</time>
      </trkpt>
      <trkpt lat="57.88063" lon="-5.38046">
        <ele>167.19</ele>
        <time>2021-04-06T12:11:35Z</time>
      </trkpt>
      <trkpt lat="57.8796" lon="-5.3768">
        <ele>169.61</ele>
        <time>2021-04-06T12:11:40Z</time>
      </trkpt>
      <trkpt lat="57.87941" lon="-5.37578">
        <ele>170.86</ele>
        <time>2021-04-06T12:11:45Z</time>
      </trkpt>
      <trkpt lat="57.87924" lon="-5.37364">
        <ele>175.93</ele>
        <time>2021-04-06T12:11:50Z</time>
      </trkpt>
      <trkpt lat="57.87927" lon="-5.37302">
        <ele>177.13</ele>
        <time>2021-04-06T12:11:55Z</time>
      </trkpt>
      <trkpt lat="57.87949" lon="-5.37139">
        <ele>174.53</ele>
        <time>2021-04-06T12:12:00Z</time>
      </trkpt>
      <trkpt lat="57.87952" lon="-5.3709">
        <ele>173.22</ele>
        <time>2021-04-06T12:12:05Z</time>
      </trkpt>
      <trkpt lat="57.87952" lon="-5.37047">
        <ele>171.9</ele>
        <time>2021-04-06T12:12:11Z</time>
      </trkpt>
      <trkpt lat="57.87946" lon="-5.37001">
        <ele>169.79</ele>
        <time>2021-04-06T12:12:16Z</time>
      </trkpt>
      <trkpt lat="57.87946" lon="-5.37001">
        <ele>169.79</ele>
        <time>2021-04-06T12:12:16Z</time>
      </trkpt>
      <trkpt lat="57.87917" lon="-5.36873">
        <ele>168.76</ele>
        <time>2021-04-06T12:12:22Z</time>
      </trkpt>
      <trkpt lat="57.87714" lon="-5.36072">
        <ele>151.21</ele>
        <time>2021-04-06T12:12:28Z</time>
      </trkpt>
      <trkpt lat="57.87686" lon="-5.35977">
        <ele>149.78</ele>
        <time>2021-04-06T12:12:35Z</time>
      </trkpt>
      <trkpt lat="57.87445" lon="-5.35366">
        <ele>128.26</ele>
        <time>2021-04-06T12:12:41Z</time>
      </trkpt>
      <trkpt lat="57.87327" lon="-5.35034">
        <ele>115.75</ele>
        <time>2021-04-06T12:12:47Z</time>
      </trkpt>
      <trkpt lat="57.87171" lon="-5.34566">
        <ele>103.64</ele>
        <time>2021-04-06T12:12:54Z</time>
      </trkpt>
      <trkpt lat="57.86974" lon="-5.34062">
        <ele>78.52</ele>
        <time>2021-04-06T12:13:00Z</time>
      </trkpt>
      <trkpt lat="57.86938" lon="-5.33961">
        <ele>73.44</ele>
        <time>2021-04-06T12:13:07Z</time>
      </trkpt>
      <trkpt lat="57.86922" lon="-5.33903">
        <ele>69.99</ele>
        <time>2021-04-06T12:13:13Z</time>
      </trkpt>
      <trkpt lat="57.86884" lon="-5.33686">
        <ele>60.88</ele>
        <time>2021-04-06T12:13:19Z</time>
      </trkpt>
      <trkpt lat="57.86863" lon="-5.33606">
        <ele>56.54</ele>
        <time>2021-04-06T12:13:26Z</time>
      </trkpt>
      <trkpt lat="57.8684" lon="-5.33559">
        <ele>53.82</ele>
        <time>2021-04-06T12:13:32Z</time>
      </trkpt>
      <trkpt lat="57.86744" lon="-5.3344">
        <ele>53.4</ele>
        <time>2021-04-06T12:13:38Z</time>
      </trkpt>
      <trkpt lat="57.86718" lon="-5.33399">
        <ele>53.79</ele>
        <time>2021-04-06T12:13:45Z</time>
      </trkpt>
      <trkpt lat="57.8666" lon="-5.33291">
        <ele>52.51</ele>
        <time>2021-04-06T12:13:51Z</time>
      </trkpt>
      <trkpt lat="57.86599" lon="-5.33153">
        <ele>54.47</ele>
        <time>2021-04-06T12:13:58Z</time>
      </trkpt>
      <trkpt lat="57.86564" lon="-5.33068">
        <ele>56.66</ele>
        <time>2021-04-06T12:14:04Z</time>
      </trkpt>
      <trkpt lat="57.86505" lon="-5.32877">
        <ele>55.49</ele>
        <time>2021-04-06T12:14:10Z</time>
      </trkpt>
      <trkpt lat="57.86473" lon="-5.3281">
        <ele>51.51</ele>
        <time>2021-04-06T12:14:17Z</time>
      </trkpt>
      <trkpt lat="57.8635" lon="-5.32664">
        <ele>48.36</ele>
        <time>2021-04-06T12:14:23Z</time>
      </trkpt>
      <trkpt lat="57.86323" lon="-5.32616">
        <ele>47.43</ele>
        <time>2021-04-06T12:14:29Z</time>
      </trkpt>
      <trkpt lat="57.86301" lon="-5.32536">
        <ele>45.19</ele>
        <time>2021-04-06T12:14:36Z</time>
      </trkpt>
      <trkpt lat="57.86167" lon="-5.31788">
        <ele>39.74</ele>
        <time>2021-04-06T12:14:42Z</time>
      </trkpt>
      <trkpt lat="57.86149" lon="-5.31666">
        <ele>38.95</ele>
        <time>2021-04-06T12:14:49Z</time>
      </trkpt>
      <trkpt lat="57.86138" lon="-5.31452">
        <ele>33.76</ele>
        <time>2021-04-06T12:14:55Z</time>
      </trkpt>
      <trkpt lat="57.86128" lon="-5.31386">
        <ele>34.06</ele>
        <time>2021-04-06T12:15:01Z</time>
      </trkpt>
      <trkpt lat="57.86063" lon="-5.31119">
        <ele>26.35</ele>
        <time>2021-04-06T12:15:08Z</time>
      </trkpt>
      <trkpt lat="57.86056" lon="-5.31044">
        <ele>23.23</ele>
        <time>2021-04-06T12:15:14Z</time>
      </trkpt>
      <trkpt lat="57.86054" lon="-5.30895">
        <ele>17.23</ele>
        <time>2021-04-06T12:15:20Z</time>
      </trkpt>
      <trkpt lat="57.86047" lon="-5.30811">
        <ele>25.58</ele>
        <time>2021-04-06T12:15:27Z</time>
      </trkpt>
      <trkpt lat="57.86025" lon="-5.30699">
        <ele>15.28</ele>
        <time>2021-04-06T12:15:33Z</time>
      </trkpt>
      <trkpt lat="57.85939" lon="-5.30353">
        <ele>11.71</ele>
        <time>2021-04-06T12:15:40Z</time>
      </trkpt>
      <trkpt lat="57.85916" lon="-5.30279">
        <ele>12.35</ele>
        <time>2021-04-06T12:15:46Z</time>
      </trkpt>
      <trkpt lat="57.85753" lon="-5.2991">
        <ele>19.99</ele>
        <time>2021-04-06T12:15:52Z</time>
      </trkpt>
      <trkpt lat="57.85715" lon="-5.29793">
        <ele>22.16</ele>
        <time>2021-04-06T12:15:59Z</time>
      </trkpt>
      <trkpt lat="57.8565" lon="-5.2953">
        <ele>15.77</ele>
        <time>2021-04-06T12:16:05Z</time>
      </trkpt>
      <trkpt lat="57.85573" lon="-5.29318">
        <ele>14.71</ele>
        <time>2021-04-06T12:16:11Z</time>
      </trkpt>
      <trkpt lat="57.8555" lon="-5.29242">
        <ele>14.87</ele>
        <time>2021-04-06T12:16:18Z</time>
      </trkpt>
      <trkpt lat="57.855" lon="-5.29017">
        <ele>20.32</ele>
        <time>2021-04-06T12:16:24Z</time>
      </trkpt>
      <trkpt lat="57.85479" lon="-5.2893">
        <ele>22.42</ele>
        <time>2021-04-06T12:16:31Z</time>
      </trkpt>
      <trkpt lat="57.85454" lon="-5.28844">
        <ele>23.34</ele>
        <time>2021-04-06T12:16:37Z</time>
      </trkpt>
      <trkpt lat="57.85415" lon="-5.28753">
        <ele>22.65</ele>
        <time>2021-04-06T12:16:43Z</time>
      </trkpt>
      <trkpt lat="57.85384" lon="-5.28644">
        <ele>21.18</ele>
        <time>2021-04-06T12:16:50Z</time>
      </trkpt>
      <trkpt lat="57.85337" lon="-5.28423">
        <ele>21.18</ele>
        <time>2021-04-06T12:16:56Z</time>
      </trkpt>
      <trkpt lat="57.85327" lon="-5.28373">
        <ele>22.61</ele>
        <time>2021-04-06T12:17:02Z</time>
      </trkpt>
      <trkpt lat="57.85316" lon="-5.28299">
        <ele>23.14</ele>
        <time>2021-04-06T12:17:09Z</time>
      </trkpt>
      <trkpt lat="57.85312" lon="-5.28222">
        <ele>24.41</ele>
        <time>2021-04-06T12:17:15Z</time>
      </trkpt>
      <trkpt lat="57.85315" lon="-5.28115">
        <ele>22.03</ele>
        <time>2021-04-06T12:17:22Z</time>
      </trkpt>
      <trkpt lat="57.85323" lon="-5.2793">
        <ele>20.68</ele>
        <time>2021-04-06T12:17:28Z</time>
      </trkpt>
      <trkpt lat="57.85323" lon="-5.27816">
        <ele>23.19</ele>
        <time>2021-04-06T12:17:34Z</time>
      </trkpt>
      <trkpt lat="57.85301" lon="-5.27458">
        <ele>21.32</ele>
        <time>2021-04-06T12:17:41Z</time>
      </trkpt>
      <trkpt lat="57.85285" lon="-5.27303">
        <ele>22.6</ele>
        <time>2021-04-06T12:17:47Z</time>
      </trkpt>
      <trkpt lat="57.85182" lon="-5.26604">
        <ele>18.78</ele>
        <time>2021-04-06T12:17:53Z</time>
      </trkpt>
      <trkpt lat="57.85167" lon="-5.26464">
        <ele>16.67</ele>
        <time>2021-04-06T12:18:00Z</time>
      </trkpt>
      <trkpt lat="57.85155" lon="-5.26393">
        <ele>16.85</ele>
        <time>2021-04-06T12:18:06Z</time>
      </trkpt>
      <trkpt lat="57.85144" lon="-5.26359">
        <ele>16.73</ele>
        <time>2021-04-06T12:18:13Z</time>
      </trkpt>
      <trkpt lat="57.85123" lon="-5.26316">
        <ele>16.56</ele>
        <time>2021-04-06T12:18:19Z</time>
      </trkpt>
      <trkpt lat="57.85111" lon="-5.26299">
        <ele>16.75</ele>
        <time>2021-04-06T12:18:25Z</time>
      </trkpt>
      <trkpt lat="57.84997" lon="-5.26167">
        <ele>13.11</ele>
        <time>2021-04-06T12:18:32Z</time>
      </trkpt>
      <trkpt lat="57.84966" lon="-5.26109">
        <ele>12.76</ele>
        <time>2021-04-06T12:18:38Z</time>
      </trkpt>
      <trkpt lat="57.84897" lon="-5.2584">
        <ele>14.11</ele>
        <time>2021-04-06T12:18:44Z</time>
      </trkpt>
      <trkpt lat="57.84774" lon="-5.25148">
        <ele>14.85</ele>
        <time>2021-04-06T12:18:51Z</time>
      </trkpt>
      <trkpt lat="57.84604" lon="-5.24412">
        <ele>15.46</ele>
        <time>2021-04-06T12:18:57Z</time>
      </trkpt>
      <trkpt lat="57.84579" lon="-5.24284">
        <ele>18.23</ele>
        <time>2021-04-06T12:19:04Z</time>
      </trkpt>
      <trkpt lat="57.84561" lon="-5.24147">
        <ele>20.06</ele>
        <time>2021-04-06T12:19:10Z</time>
      </trkpt>
      <trkpt lat="57.84534" lon="-5.24038">
        <ele>12.55</ele>
        <time>2021-04-06T12:19:16Z</time>
      </trkpt>
      <trkpt lat="57.84503" lon="-5.23822">
        <ele>10.85</ele>
        <time>2021-04-06T12:19:23Z</time>
      </trkpt>
      <trkpt lat="57.84447" lon="-5.23646">
        <ele>9.13</ele>
        <time>2021-04-06T12:19:29Z</time>
      </trkpt>
      <trkpt lat="57.84433" lon="-5.23581">
        <ele>11.88</ele>
        <time>2021-04-06T12:19:35Z</time>
      </trkpt>
      <trkpt lat="57.84398" lon="-5.23194">
        <ele>3.99</ele>
        <time>2021-04-06T12:19:42Z</time>
      </trkpt>
      <trkpt lat="57.84349" lon="-5.22935">
        <ele>5.86</ele>
        <time>2021-04-06T12:19:48Z</time>
      </trkpt>
      <trkpt lat="57.84296" lon="-5.22708">
        <ele>6.21</ele>
        <time>2021-04-06T12:19:55Z</time>
      </trkpt>
      <trkpt lat="57.84248" lon="-5.22488">
        <ele>6.71</ele>
        <time>2021-04-06T12:20:01Z</time>
      </trkpt>
      <trkpt lat="57.84231" lon="-5.2239">
        <ele>8.44</ele>
        <time>2021-04-06T12:20:07Z</time>
      </trkpt>
      <trkpt lat="57.84217" lon="-5.22262">
        <ele>7.3</ele>
        <time>2021-04-06T12:20:14Z</time>
      </trkpt>
      <trkpt lat="57.84208" lon="-5.22207">
        <ele>7.05</ele>
        <time>2021-04-06T12:20:20Z</time>
      </trkpt>
      <trkpt lat="57.84098" lon="-5.21813">
        <ele>7.1</ele>
        <time>2021-04-06T12:20:26Z</time>
      </trkpt>
      <trkpt lat="57.84042" lon="-5.21622">
        <ele>8.07</ele>
        <time>2021-04-06T12:20:33Z</time>
      </trkpt>
      <trkpt lat="57.84023" lon="-5.21574">
        <ele>9.61</ele>
        <time>2021-04-06T12:20:39Z</time>
      </trkpt>
      <trkpt lat="57.83986" lon="-5.21494">
        <ele>11.35</ele>
        <time>2021-04-06T12:20:45Z</time>
      </trkpt>
      <trkpt lat="57.83946" lon="-5.21414">
        <ele>12.79</ele>
        <time>2021-04-06T12:20:52Z</time>
      </trkpt>
      <trkpt lat="57.8391" lon="-5.21323">
        <ele>14.52</ele>
        <time>2021-04-06T12:20:58Z</time>
      </trkpt>
      <trkpt lat="57.83893" lon="-5.21241">
        <ele>16.27</ele>
        <time>2021-04-06T12:21:05Z</time>
      </trkpt>
      <trkpt lat="57.83759" lon="-5.20376">
        <ele>22.38</ele>
        <time>2021-04-06T12:21:11Z</time>
      </trkpt>
      <trkpt lat="57.83665" lon="-5.19999">
        <ele>29.02</ele>
        <time>2021-04-06T12:21:17Z</time>
      </trkpt>
      <trkpt lat="57.83628" lon="-5.199">
        <ele>31.93</ele>
        <time>2021-04-06T12:21:24Z</time>
      </trkpt>
      <trkpt lat="57.83584" lon="-5.19818">
        <ele>31.44</ele>
        <time>2021-04-06T12:21:30Z</time>
      </trkpt>
      <trkpt lat="57.83487" lon="-5.19666">
        <ele>30.53</ele>
        <time>2021-04-06T12:21:36Z</time>
      </trkpt>
      <trkpt lat="57.83328" lon="-5.1943">
        <ele>25.2</ele>
        <time>2021-04-06T12:21:43Z</time>
      </trkpt>
      <trkpt lat="57.83285" lon="-5.19352">
        <ele>26.73</ele>
        <time>2021-04-06T12:21:49Z</time>
      </trkpt>
      <trkpt lat="57.83181" lon="-5.19091">
        <ele>28.77</ele>
        <time>2021-04-06T12:21:56Z</time>
      </trkpt>
      <trkpt lat="57.83155" lon="-5.19022">
        <ele>29.58</ele>
        <time>2021-04-06T12:22:02Z</time>
      </trkpt>
      <trkpt lat="57.83123" lon="-5.18874">
        <ele>34.74</ele>
        <time>2021-04-06T12:22:08Z</time>
      </trkpt>
      <trkpt lat="57.8309" lon="-5.18708">
        <ele>38.6</ele>
        <time>2021-04-06T12:22:15Z</time>
      </trkpt>
      <trkpt lat="57.83075" lon="-5.18656">
        <ele>38.91</ele>
        <time>2021-04-06T12:22:21Z</time>
      </trkpt>
      <trkpt lat="57.83075" lon="-5.18656">
        <ele>38.91</ele>
        <time>2021-04-06T12:22:21Z</time>
      </trkpt>
      <trkpt lat="57.83049" lon="-5.18613">
        <ele>38.29</ele>
        <time>2021-04-06T12:22:26Z</time>
      </trkpt>
      <trkpt lat="57.83029" lon="-5.18593">
        <ele>37.58</ele>
        <time>2021-04-06T12:22:31Z</time>
      </trkpt>
      <trkpt lat="57.8301" lon="-5.1858">
        <ele>36.65</ele>
        <time>2021-04-06T12:22:36Z</time>
      </trkpt>
      <trkpt lat="57.82956" lon="-5.18568">
        <ele>33.83</ele>
        <time>2021-04-06T12:22:41Z</time>
      </trkpt>
      <trkpt lat="57.82676" lon="-5.18541">
        <ele>39.96</ele>
        <time>2021-04-06T12:22:46Z</time>
      </trkpt>
      <trkpt lat="57.82617" lon="-5.18524">
        <ele>39.32</ele>
        <time>2021-04-06T12:22:51Z</time>
      </trkpt>
      <trkpt lat="57.82429" lon="-5.18439">
        <ele>40.62</ele>
        <time>2021-04-06T12:22:56Z</time>
      </trkpt>
      <trkpt lat="57.82369" lon="-5.18389">
        <ele>40.1</ele>
        <time>2021-04-06T12:23:01Z</time>
      </trkpt>
      <trkpt lat="57.82216" lon="-5.18174">
        <ele>39.89</ele>
        <time>2021-04-06T12:23:06Z</time>
      </trkpt>
      <trkpt lat="57.82179" lon="-5.18095">
        <ele>42.3</ele>
        <time>2021-04-06T12:23:11Z</time>
      </trkpt>
      <trkpt lat="57.82125" lon="-5.17947">
        <ele>50.43</ele>
        <time>2021-04-06T12:23:16Z</time>
      </trkpt>
      <trkpt lat="57.82096" lon="-5.179">
        <ele>52.27</ele>
        <time>2021-04-06T12:23:21Z</time>
      </trkpt>
      <trkpt lat="57.82002" lon="-5.17818">
        <ele>55.76</ele>
        <time>2021-04-06T12:23:26Z</time>
      </trkpt>
      <trkpt lat="57.81927" lon="-5.17769">
        <ele>57.46</ele>
        <time>2021-04-06T12:23:31Z</time>
      </trkpt>
      <trkpt lat="57.81481" lon="-5.17599">
        <ele>56.98</ele>
        <time>2021-04-06T12:23:36Z</time>
      </trkpt>
      <trkpt lat="57.81436" lon="-5.17578">
        <ele>59.4</ele>
        <time>2021-04-06T12:23:41Z</time>
      </trkpt>
      <trkpt lat="57.81396" lon="-5.17549">
        <ele>60.53</ele>
        <time>2021-04-06T12:23:45Z</time>
      </trkpt>
      <trkpt lat="57.81339" lon="-5.17488">
        <ele>63.85</ele>
        <time>2021-04-06T12:23:50Z</time>
      </trkpt>
      <trkpt lat="57.81257" lon="-5.1737">
        <ele>69.29</ele>
        <time>2021-04-06T12:23:55Z</time>
      </trkpt>
      <trkpt lat="57.81227" lon="-5.17315">
        <ele>73.23</ele>
        <time>2021-04-06T12:24:00Z</time>
      </trkpt>
      <trkpt lat="57.81207" lon="-5.17246">
        <ele>77.43</ele>
        <time>2021-04-06T12:24:05Z</time>
      </trkpt>
      <trkpt lat="57.81197" lon="-5.17181">
        <ele>80.3</ele>
        <time>2021-04-06T12:24:10Z</time>
      </trkpt>
      <trkpt lat="57.81191" lon="-5.17103">
        <ele>83</ele>
        <time>2021-04-06T12:24:15Z</time>
      </trkpt>
      <trkpt lat="57.81186" lon="-5.17002">
        <ele>87.1</ele>
        <time>2021-04-06T12:24:20Z</time>
      </trkpt>
      <trkpt lat="57.81201" lon="-5.16595">
        <ele>109.14</ele>
        <time>2021-04-06T12:24:25Z</time>
      </trkpt>
      <trkpt lat="57.81171" lon="-5.16306">
        <ele>132.82</ele>
        <time>2021-04-06T12:24:30Z</time>
      </trkpt>
      <trkpt lat="57.81164" lon="-5.16086">
        <ele>139.53</ele>
        <time>2021-04-06T12:24:35Z</time>
      </trkpt>
      <trkpt lat="57.81157" lon="-5.16019">
        <ele>138.76</ele>
        <time>2021-04-06T12:24:40Z</time>
      </trkpt>
      <trkpt lat="57.81141" lon="-5.15959">
        <ele>139.62</ele>
        <time>2021-04-06T12:24:45Z</time>
      </trkpt>
      <trkpt lat="57.81119" lon="-5.15904">
        <ele>139.24</ele>
        <time>2021-04-06T12:24:50Z</time>
      </trkpt>
      <trkpt lat="57.80931" lon="-5.15619">
        <ele>150.6</ele>
        <time>2021-04-06T12:24:55Z</time>
      </trkpt>
      <trkpt lat="57.80897" lon="-5.15556">
        <ele>149.9</ele>
        <time>2021-04-06T12:25:00Z</time>
      </trkpt>
      <trkpt lat="57.80873" lon="-5.15498">
        <ele>145.82</ele>
        <time>2021-04-06T12:25:05Z</time>
      </trkpt>
      <trkpt lat="57.80822" lon="-5.15308">
        <ele>146.41</ele>
        <time>2021-04-06T12:25:10Z</time>
      </trkpt>
      <trkpt lat="57.80789" lon="-5.15229">
        <ele>150.4</ele>
        <time>2021-04-06T12:25:15Z</time>
      </trkpt>
      <trkpt lat="57.80762" lon="-5.1518">
        <ele>152.25</ele>
        <time>2021-04-06T12:25:20Z</time>
      </trkpt>
      <trkpt lat="57.80721" lon="-5.15136">
        <ele>153.71</ele>
        <time>2021-04-06T12:25:25Z</time>
      </trkpt>
      <trkpt lat="57.80654" lon="-5.151">
        <ele>161.4</ele>
        <time>2021-04-06T12:25:30Z</time>
      </trkpt>
      <trkpt lat="57.80654" lon="-5.151">
        <ele>161.4</ele>
        <time>2021-04-06T12:25:30Z</time>
      </trkpt>
      <trkpt lat="57.80607" lon="-5.15084">
        <ele>163.66</ele>
        <time>2021-04-06T12:25:35Z</time>
      </trkpt>
      <trkpt lat="57.80476" lon="-5.15073">
        <ele>165.4</ele>
        <time>2021-04-06T12:25:41Z</time>
      </trkpt>
      <trkpt lat="57.80412" lon="-5.15084">
        <ele>169.27</ele>
        <time>2021-04-06T12:25:47Z</time>
      </trkpt>
      <trkpt lat="57.80353" lon="-5.151">
        <ele>170.18</ele>
        <time>2021-04-06T12:25:52Z</time>
      </trkpt>
      <trkpt lat="57.80306" lon="-5.15129">
        <ele>170.88</ele>
        <time>2021-04-06T12:25:58Z</time>
      </trkpt>
      <trkpt lat="57.80177" lon="-5.15251">
        <ele>180.98</ele>
        <time>2021-04-06T12:26:04Z</time>
      </trkpt>
      <trkpt lat="57.80116" lon="-5.15321">
        <ele>183.9</ele>
        <time>2021-04-06T12:26:09Z</time>
      </trkpt>
      <trkpt lat="57.80054" lon="-5.15415">
        <ele>195.49</ele>
        <time>2021-04-06T12:26:15Z</time>
      </trkpt>
      <trkpt lat="57.79922" lon="-5.15624">
        <ele>202.84</ele>
        <time>2021-04-06T12:26:20Z</time>
      </trkpt>
      <trkpt lat="57.79782" lon="-5.15827">
        <ele>208.27</ele>
        <time>2021-04-06T12:26:26Z</time>
      </trkpt>
      <trkpt lat="57.79617" lon="-5.16059">
        <ele>210.35</ele>
        <time>2021-04-06T12:26:32Z</time>
      </trkpt>
      <trkpt lat="57.79568" lon="-5.16119">
        <ele>216.25</ele>
        <time>2021-04-06T12:26:37Z</time>
      </trkpt>
      <trkpt lat="57.79363" lon="-5.16307">
        <ele>226.4</ele>
        <time>2021-04-06T12:26:43Z</time>
      </trkpt>
      <trkpt lat="57.79212" lon="-5.16354">
        <ele>224.62</ele>
        <time>2021-04-06T12:26:49Z</time>
      </trkpt>
      <trkpt lat="57.79088" lon="-5.16438">
        <ele>230.89</ele>
        <time>2021-04-06T12:26:54Z</time>
      </trkpt>
      <trkpt lat="57.78899" lon="-5.1644">
        <ele>243.79</ele>
        <time>2021-04-06T12:27:00Z</time>
      </trkpt>
      <trkpt lat="57.78782" lon="-5.16439">
        <ele>250.16</ele>
        <time>2021-04-06T12:27:06Z</time>
      </trkpt>
      <trkpt lat="57.78744" lon="-5.16454">
        <ele>251.43</ele>
        <time>2021-04-06T12:27:11Z</time>
      </trkpt>
      <trkpt lat="57.78662" lon="-5.16526">
        <ele>261.64</ele>
        <time>2021-04-06T12:27:17Z</time>
      </trkpt>
      <trkpt lat="57.78632" lon="-5.16536">
        <ele>266.04</ele>
        <time>2021-04-06T12:27:23Z</time>
      </trkpt>
      <trkpt lat="57.78592" lon="-5.16529">
        <ele>266.99</ele>
        <time>2021-04-06T12:27:28Z</time>
      </trkpt>
      <trkpt lat="57.78513" lon="-5.16486">
        <ele>265.6</ele>
        <time>2021-04-06T12:27:34Z</time>
      </trkpt>
      <trkpt lat="57.78485" lon="-5.16467">
        <ele>270.21</ele>
        <time>2021-04-06T12:27:40Z</time>
      </trkpt>
      <trkpt lat="57.78485" lon="-5.16467">
        <ele>270.21</ele>
        <time>2021-04-06T12:27:40Z</time>
      </trkpt>
      <trkpt lat="57.78462" lon="-5.16438">
        <ele>271.52</ele>
        <time>2021-04-06T12:27:51Z</time>
      </trkpt>
      <trkpt lat="57.78301" lon="-5.16174">
        <ele>278.72</ele>
        <time>2021-04-06T12:28:03Z</time>
      </trkpt>
      <trkpt lat="57.7824" lon="-5.16081">
        <ele>281.56</ele>
        <time>2021-04-06T12:28:15Z</time>
      </trkpt>
      <trkpt lat="57.78211" lon="-5.1605">
        <ele>280.33</ele>
        <time>2021-04-06T12:28:27Z</time>
      </trkpt>
      <trkpt lat="57.78135" lon="-5.15982">
        <ele>279.03</ele>
        <time>2021-04-06T12:28:39Z</time>
      </trkpt>
      <trkpt lat="57.77894" lon="-5.157">
        <ele>277.15</ele>
        <time>2021-04-06T12:28:51Z</time>
      </trkpt>
      <trkpt lat="57.7697" lon="-5.14549">
        <ele>290.92</ele>
        <time>2021-04-06T12:29:03Z</time>
      </trkpt>
      <trkpt lat="57.76784" lon="-5.14145">
        <ele>302.76</ele>
        <time>2021-04-06T12:29:15Z</time>
      </trkpt>
      <trkpt lat="57.76756" lon="-5.14068">
        <ele>304.75</ele>
        <time>2021-04-06T12:29:26Z</time>
      </trkpt>
      <trkpt lat="57.76623" lon="-5.13581">
        <ele>314.99</ele>
        <time>2021-04-06T12:29:38Z</time>
      </trkpt>
      <trkpt lat="57.76496" lon="-5.13242">
        <ele>322.14</ele>
        <time>2021-04-06T12:29:50Z</time>
      </trkpt>
      <trkpt lat="57.76327" lon="-5.12959">
        <ele>326.98</ele>
        <time>2021-04-06T12:30:02Z</time>
      </trkpt>
      <trkpt lat="57.76207" lon="-5.12742">
        <ele>327.73</ele>
        <time>2021-04-06T12:30:14Z</time>
      </trkpt>
      <trkpt lat="57.76143" lon="-5.12593">
        <ele>326.22</ele>
        <time>2021-04-06T12:30:26Z</time>
      </trkpt>
      <trkpt lat="57.76075" lon="-5.12368">
        <ele>325.6</ele>
        <time>2021-04-06T12:30:38Z</time>
      </trkpt>
      <trkpt lat="57.76054" lon="-5.12322">
        <ele>326.33</ele>
        <time>2021-04-06T12:30:49Z</time>
      </trkpt>
      <trkpt lat="57.75791" lon="-5.11989">
        <ele>331.05</ele>
        <time>2021-04-06T12:31:01Z</time>
      </trkpt>
      <trkpt lat="57.75756" lon="-5.11921">
        <ele>329.88</ele>
        <time>2021-04-06T12:31:13Z</time>
      </trkpt>
      <trkpt lat="57.75586" lon="-5.11462">
        <ele>337.8</ele>
        <time>2021-04-06T12:31:25Z</time>
      </trkpt>
      <trkpt lat="57.75342" lon="-5.11118">
        <ele>334</ele>
        <time>2021-04-06T12:31:37Z</time>
      </trkpt>
      <trkpt lat="57.75218" lon="-5.10954">
        <ele>333.35</ele>
        <time>2021-04-06T12:31:49Z</time>
      </trkpt>
      <trkpt lat="57.75107" lon="-5.10819">
        <ele>331.49</ele>
        <time>2021-04-06T12:32:01Z</time>
      </trkpt>
      <trkpt lat="57.74795" lon="-5.10518">
        <ele>321.37</ele>
        <time>2021-04-06T12:32:13Z</time>
      </trkpt>
      <trkpt lat="57.74262" lon="-5.09526">
        <ele>298.9</ele>
        <time>2021-04-06T12:32:24Z</time>
      </trkpt>
      <trkpt lat="57.74224" lon="-5.09475">
        <ele>298.91</ele>
        <time>2021-04-06T12:32:36Z</time>
      </trkpt>
      <trkpt lat="57.73962" lon="-5.09233">
        <ele>288.23</ele>
        <time>2021-04-06T12:32:48Z</time>
      </trkpt>
      <trkpt lat="57.73739" lon="-5.09008">
        <ele>282.75</ele>
        <time>2021-04-06T12:33:00Z</time>
      </trkpt>
      <trkpt lat="57.73719" lon="-5.08969">
        <ele>280.86</ele>
        <time>2021-04-06T12:33:12Z</time>
      </trkpt>
      <trkpt lat="57.73699" lon="-5.08919">
        <ele>280.08</ele>
        <time>2021-04-06T12:33:24Z</time>
      </trkpt>
      <trkpt lat="57.73699" lon="-5.08919">
        <ele>280.08</ele>
        <time>2021-04-06T12:33:24Z</time>
      </trkpt>
      <trkpt lat="57.73644" lon="-5.08719">
        <ele>277.39</ele>
        <time>2021-04-06T12:33:29Z</time>
      </trkpt>
      <trkpt lat="57.73609" lon="-5.08516">
        <ele>274.97</ele>
        <time>2021-04-06T12:33:35Z</time>
      </trkpt>
      <trkpt lat="57.73598" lon="-5.08402">
        <ele>273.01</ele>
        <time>2021-04-06T12:33:40Z</time>
      </trkpt>
      <trkpt lat="57.73594" lon="-5.0834">
        <ele>271.6</ele>
        <time>2021-04-06T12:33:46Z</time>
      </trkpt>
      <trkpt lat="57.73592" lon="-5.08269">
        <ele>270.33</ele>
        <time>2021-04-06T12:33:51Z</time>
      </trkpt>
      <trkpt lat="57.73596" lon="-5.08191">
        <ele>267.79</ele>
        <time>2021-04-06T12:33:57Z</time>
      </trkpt>
      <trkpt lat="57.73606" lon="-5.08116">
        <ele>266.14</ele>
        <time>2021-04-06T12:34:02Z</time>
      </trkpt>
      <trkpt lat="57.7362" lon="-5.08036">
        <ele>264.61</ele>
        <time>2021-04-06T12:34:08Z</time>
      </trkpt>
      <trkpt lat="57.73663" lon="-5.07881">
        <ele>260.55</ele>
        <time>2021-04-06T12:34:13Z</time>
      </trkpt>
      <trkpt lat="57.73688" lon="-5.07817">
        <ele>260.1</ele>
        <time>2021-04-06T12:34:18Z</time>
      </trkpt>
      <trkpt lat="57.73719" lon="-5.07754">
        <ele>258.01</ele>
        <time>2021-04-06T12:34:24Z</time>
      </trkpt>
      <trkpt lat="57.7398" lon="-5.07371">
        <ele>246.37</ele>
        <time>2021-04-06T12:34:29Z</time>
      </trkpt>
      <trkpt lat="57.74028" lon="-5.07258">
        <ele>243.33</ele>
        <time>2021-04-06T12:34:35Z</time>
      </trkpt>
      <trkpt lat="57.74073" lon="-5.07125">
        <ele>236.64</ele>
        <time>2021-04-06T12:34:40Z</time>
      </trkpt>
      <trkpt lat="57.74242" lon="-5.06599">
        <ele>221.51</ele>
        <time>2021-04-06T12:34:46Z</time>
      </trkpt>
      <trkpt lat="57.74271" lon="-5.06498">
        <ele>216.92</ele>
        <time>2021-04-06T12:34:51Z</time>
      </trkpt>
      <trkpt lat="57.74323" lon="-5.0637">
        <ele>212.48</ele>
        <time>2021-04-06T12:34:57Z</time>
      </trkpt>
      <trkpt lat="57.7437" lon="-5.06258">
        <ele>209.71</ele>
        <time>2021-04-06T12:35:02Z</time>
      </trkpt>
      <trkpt lat="57.74391" lon="-5.06201">
        <ele>209.58</ele>
        <time>2021-04-06T12:35:08Z</time>
      </trkpt>
      <trkpt lat="57.74476" lon="-5.05897">
        <ele>200.07</ele>
        <time>2021-04-06T12:35:13Z</time>
      </trkpt>
      <trkpt lat="57.74491" lon="-5.05845">
        <ele>202.13</ele>
        <time>2021-04-06T12:35:19Z</time>
      </trkpt>
      <trkpt lat="57.74502" lon="-5.05815">
        <ele>203.26</ele>
        <time>2021-04-06T12:35:24Z</time>
      </trkpt>
      <trkpt lat="57.74513" lon="-5.05791">
        <ele>203.86</ele>
        <time>2021-04-06T12:35:29Z</time>
      </trkpt>
      <trkpt lat="57.74532" lon="-5.05765">
        <ele>203.55</ele>
        <time>2021-04-06T12:35:35Z</time>
      </trkpt>
      <trkpt lat="57.74563" lon="-5.05732">
        <ele>202.74</ele>
        <time>2021-04-06T12:35:40Z</time>
      </trkpt>
      <trkpt lat="57.7469" lon="-5.05656">
        <ele>199.79</ele>
        <time>2021-04-06T12:35:46Z</time>
      </trkpt>
      <trkpt lat="57.74736" lon="-5.05619">
        <ele>197.98</ele>
        <time>2021-04-06T12:35:51Z</time>
      </trkpt>
      <trkpt lat="57.74802" lon="-5.05523">
        <ele>199.56</ele>
        <time>2021-04-06T12:35:57Z</time>
      </trkpt>
      <trkpt lat="57.74947" lon="-5.05244">
        <ele>196.16</ele>
        <time>2021-04-06T12:36:02Z</time>
      </trkpt>
      <trkpt lat="57.75092" lon="-5.0503">
        <ele>196.18</ele>
        <time>2021-04-06T12:36:08Z</time>
      </trkpt>
      <trkpt lat="57.75172" lon="-5.0488">
        <ele>196.96</ele>
        <time>2021-04-06T12:36:13Z</time>
      </trkpt>
      <trkpt lat="57.75474" lon="-5.04547">
        <ele>197.95</ele>
        <time>2021-04-06T12:36:19Z</time>
      </trkpt>
      <trkpt lat="57.75596" lon="-5.04456">
        <ele>194.97</ele>
        <time>2021-04-06T12:36:24Z</time>
      </trkpt>
      <trkpt lat="57.75707" lon="-5.04327">
        <ele>189.08</ele>
        <time>2021-04-06T12:36:30Z</time>
      </trkpt>
      <trkpt lat="57.75798" lon="-5.04123">
        <ele>184.41</ele>
        <time>2021-04-06T12:36:35Z</time>
      </trkpt>
      <trkpt lat="57.75837" lon="-5.04006">
        <ele>179.38</ele>
        <time>2021-04-06T12:36:40Z</time>
      </trkpt>
      <trkpt lat="57.75862" lon="-5.03902">
        <ele>180.41</ele>
        <time>2021-04-06T12:36:46Z</time>
      </trkpt>
      <trkpt lat="57.75862" lon="-5.03902">
        <ele>180.41</ele>
        <time>2021-04-06T12:36:46Z</time>
      </trkpt>
      <trkpt lat="57.75883" lon="-5.03686">
        <ele>177.03</ele>
        <time>2021-04-06T12:36:50Z</time>
      </trkpt>
      <trkpt lat="57.75898" lon="-5.03494">
        <ele>178.47</ele>
        <time>2021-04-06T12:36:54Z</time>
      </trkpt>
      <trkpt lat="57.759" lon="-5.03426">
        <ele>178.82</ele>
        <time>2021-04-06T12:36:58Z</time>
      </trkpt>
      <trkpt lat="57.75894" lon="-5.03375">
        <ele>177.06</ele>
        <time>2021-04-06T12:37:03Z</time>
      </trkpt>
      <trkpt lat="57.75874" lon="-5.03291">
        <ele>174.94</ele>
        <time>2021-04-06T12:37:07Z</time>
      </trkpt>
      <trkpt lat="57.75845" lon="-5.03185">
        <ele>180.7</ele>
        <time>2021-04-06T12:37:11Z</time>
      </trkpt>
      <trkpt lat="57.75764" lon="-5.02871">
        <ele>182.01</ele>
        <time>2021-04-06T12:37:15Z</time>
      </trkpt>
      <trkpt lat="57.75697" lon="-5.02678">
        <ele>183.1</ele>
        <time>2021-04-06T12:37:19Z</time>
      </trkpt>
      <trkpt lat="57.75645" lon="-5.02548">
        <ele>182.7</ele>
        <time>2021-04-06T12:37:23Z</time>
      </trkpt>
      <trkpt lat="57.75585" lon="-5.0242">
        <ele>183.01</ele>
        <time>2021-04-06T12:37:28Z</time>
      </trkpt>
      <trkpt lat="57.75529" lon="-5.02341">
        <ele>180.78</ele>
        <time>2021-04-06T12:37:32Z</time>
      </trkpt>
      <trkpt lat="57.7547" lon="-5.02281">
        <ele>179.84</ele>
        <time>2021-04-06T12:37:36Z</time>
      </trkpt>
      <trkpt lat="57.75438" lon="-5.02225">
        <ele>181.71</ele>
        <time>2021-04-06T12:37:40Z</time>
      </trkpt>
      <trkpt lat="57.75383" lon="-5.02057">
        <ele>179.32</ele>
        <time>2021-04-06T12:37:44Z</time>
      </trkpt>
      <trkpt lat="57.75291" lon="-5.0184">
        <ele>176.33</ele>
        <time>2021-04-06T12:37:48Z</time>
      </trkpt>
      <trkpt lat="57.75242" lon="-5.01721">
        <ele>177.79</ele>
        <time>2021-04-06T12:37:53Z</time>
      </trkpt>
      <trkpt lat="57.75219" lon="-5.01623">
        <ele>179.95</ele>
        <time>2021-04-06T12:37:57Z</time>
      </trkpt>
      <trkpt lat="57.75211" lon="-5.01559">
        <ele>179.2</ele>
        <time>2021-04-06T12:38:01Z</time>
      </trkpt>
      <trkpt lat="57.75209" lon="-5.01424">
        <ele>177.85</ele>
        <time>2021-04-06T12:38:05Z</time>
      </trkpt>
      <trkpt lat="57.75219" lon="-5.01178">
        <ele>180.92</ele>
        <time>2021-04-06T12:38:09Z</time>
      </trkpt>
      <trkpt lat="57.75227" lon="-5.01123">
        <ele>181.56</ele>
        <time>2021-04-06T12:38:13Z</time>
      </trkpt>
      <trkpt lat="57.75242" lon="-5.01089">
        <ele>182</ele>
        <time>2021-04-06T12:38:18Z</time>
      </trkpt>
      <trkpt lat="57.75259" lon="-5.01068">
        <ele>182.78</ele>
        <time>2021-04-06T12:38:22Z</time>
      </trkpt>
      <trkpt lat="57.75259" lon="-5.01068">
        <ele>182.78</ele>
        <time>2021-04-06T12:38:22Z</time>
      </trkpt>
      <trkpt lat="57.75275" lon="-5.01054">
        <ele>185.73</ele>
        <time>2021-04-06T12:38:23Z</time>
      </trkpt>
      <trkpt lat="57.75307" lon="-5.01248">
        <ele>185.52</ele>
        <time>2021-04-06T12:38:28Z</time>
      </trkpt>
      <trkpt lat="57.75385" lon="-5.0148">
        <ele>172.94</ele>
        <time>2021-04-06T12:38:34Z</time>
      </trkpt>
      <trkpt lat="57.75487" lon="-5.01747">
        <ele>172.38</ele>
        <time>2021-04-06T12:38:39Z</time>
      </trkpt>
      <trkpt lat="57.75593" lon="-5.01994">
        <ele>171.2</ele>
        <time>2021-04-06T12:38:44Z</time>
      </trkpt>
      <trkpt lat="57.75712" lon="-5.02245">
        <ele>153.83</ele>
        <time>2021-04-06T12:38:50Z</time>
      </trkpt>
      <trkpt lat="57.7575" lon="-5.02316">
        <ele>151.41</ele>
        <time>2021-04-06T12:38:55Z</time>
      </trkpt>
      <trkpt lat="57.75808" lon="-5.02407">
        <ele>151.2</ele>
        <time>2021-04-06T12:39:00Z</time>
      </trkpt>
      <trkpt lat="57.75842" lon="-5.02444">
        <ele>150.46</ele>
        <time>2021-04-06T12:39:06Z</time>
      </trkpt>
      <trkpt lat="57.75897" lon="-5.02495">
        <ele>145.2</ele>
        <time>2021-04-06T12:39:11Z</time>
      </trkpt>
      <trkpt lat="57.75939" lon="-5.02554">
        <ele>137.81</ele>
        <time>2021-04-06T12:39:16Z</time>
      </trkpt>
      <trkpt lat="57.76019" lon="-5.02749">
        <ele>128.46</ele>
        <time>2021-04-06T12:39:22Z</time>
      </trkpt>
      <trkpt lat="57.76072" lon="-5.02868">
        <ele>125.06</ele>
        <time>2021-04-06T12:39:27Z</time>
      </trkpt>
      <trkpt lat="57.76132" lon="-5.02971">
        <ele>117.9</ele>
        <time>2021-04-06T12:39:32Z</time>
      </trkpt>
      <trkpt lat="57.76219" lon="-5.03071">
        <ele>106.39</ele>
        <time>2021-04-06T12:39:38Z</time>
      </trkpt>
      <trkpt lat="57.76252" lon="-5.03125">
        <ele>107.06</ele>
        <time>2021-04-06T12:39:43Z</time>
      </trkpt>
      <trkpt lat="57.76353" lon="-5.03273">
        <ele>102.34</ele>
        <time>2021-04-06T12:39:49Z</time>
      </trkpt>
      <trkpt lat="57.7644" lon="-5.03384">
        <ele>93.03</ele>
        <time>2021-04-06T12:39:54Z</time>
      </trkpt>
      <trkpt lat="57.76516" lon="-5.0347">
        <ele>84.34</ele>
        <time>2021-04-06T12:39:59Z</time>
      </trkpt>
      <trkpt lat="57.76565" lon="-5.03513">
        <ele>78.55</ele>
        <time>2021-04-06T12:40:05Z</time>
      </trkpt>
      <trkpt lat="57.76565" lon="-5.03513">
        <ele>78.55</ele>
        <time>2021-04-06T12:40:05Z</time>
      </trkpt>
      <trkpt lat="57.76614" lon="-5.03538">
        <ele>75.78</ele>
        <time>2021-04-06T12:40:11Z</time>
      </trkpt>
      <trkpt lat="57.76723" lon="-5.03577">
        <ele>69.98</ele>
        <time>2021-04-06T12:40:17Z</time>
      </trkpt>
      <trkpt lat="57.76901" lon="-5.03655">
        <ele>61.3</ele>
        <time>2021-04-06T12:40:23Z</time>
      </trkpt>
      <trkpt lat="57.77113" lon="-5.03643">
        <ele>59.54</ele>
        <time>2021-04-06T12:40:29Z</time>
      </trkpt>
      <trkpt lat="57.77399" lon="-5.0362">
        <ele>48.01</ele>
        <time>2021-04-06T12:40:35Z</time>
      </trkpt>
      <trkpt lat="57.77623" lon="-5.03582">
        <ele>45.72</ele>
        <time>2021-04-06T12:40:41Z</time>
      </trkpt>
      <trkpt lat="57.77784" lon="-5.03583">
        <ele>47.46</ele>
        <time>2021-04-06T12:40:47Z</time>
      </trkpt>
      <trkpt lat="57.77863" lon="-5.0361">
        <ele>35.34</ele>
        <time>2021-04-06T12:40:53Z</time>
      </trkpt>
      <trkpt lat="57.77983" lon="-5.03642">
        <ele>40.08</ele>
        <time>2021-04-06T12:40:59Z</time>
      </trkpt>
      <trkpt lat="57.78115" lon="-5.03685">
        <ele>40.39</ele>
        <time>2021-04-06T12:41:05Z</time>
      </trkpt>
      <trkpt lat="57.78198" lon="-5.03714">
        <ele>40.89</ele>
        <time>2021-04-06T12:41:11Z</time>
      </trkpt>
      <trkpt lat="57.78282" lon="-5.03752">
        <ele>44.44</ele>
        <time>2021-04-06T12:41:17Z</time>
      </trkpt>
      <trkpt lat="57.78382" lon="-5.03827">
        <ele>38.52</ele>
        <time>2021-04-06T12:41:23Z</time>
      </trkpt>
      <trkpt lat="57.78454" lon="-5.03895">
        <ele>39.31</ele>
        <time>2021-04-06T12:41:29Z</time>
      </trkpt>
      <trkpt lat="57.78525" lon="-5.0395">
        <ele>42.13</ele>
        <time>2021-04-06T12:41:35Z</time>
      </trkpt>
      <trkpt lat="57.78655" lon="-5.04044">
        <ele>47.36</ele>
        <time>2021-04-06T12:41:41Z</time>
      </trkpt>
      <trkpt lat="57.78913" lon="-5.04251">
        <ele>42.28</ele>
        <time>2021-04-06T12:41:47Z</time>
      </trkpt>
      <trkpt lat="57.7904" lon="-5.04339">
        <ele>40.81</ele>
        <time>2021-04-06T12:41:53Z</time>
      </trkpt>
      <trkpt lat="57.79134" lon="-5.0442">
        <ele>35.29</ele>
        <time>2021-04-06T12:41:59Z</time>
      </trkpt>
      <trkpt lat="57.79198" lon="-5.04497">
        <ele>32.79</ele>
        <time>2021-04-06T12:42:05Z</time>
      </trkpt>
      <trkpt lat="57.79252" lon="-5.04579">
        <ele>31.7</ele>
        <time>2021-04-06T12:42:11Z</time>
      </trkpt>
      <trkpt lat="57.79302" lon="-5.0469">
        <ele>26.65</ele>
        <time>2021-04-06T12:42:17Z</time>
      </trkpt>
      <trkpt lat="57.79361" lon="-5.04845">
        <ele>26.57</ele>
        <time>2021-04-06T12:42:23Z</time>
      </trkpt>
      <trkpt lat="57.79495" lon="-5.05007">
        <ele>24.61</ele>
        <time>2021-04-06T12:42:29Z</time>
      </trkpt>
      <trkpt lat="57.79595" lon="-5.05114">
        <ele>24.85</ele>
        <time>2021-04-06T12:42:35Z</time>
      </trkpt>
      <trkpt lat="57.79746" lon="-5.05256">
        <ele>18.82</ele>
        <time>2021-04-06T12:42:41Z</time>
      </trkpt>
      <trkpt lat="57.79965" lon="-5.05453">
        <ele>17</ele>
        <time>2021-04-06T12:42:47Z</time>
      </trkpt>
      <trkpt lat="57.80072" lon="-5.0554">
        <ele>19.35</ele>
        <time>2021-04-06T12:42:53Z</time>
      </trkpt>
      <trkpt lat="57.80146" lon="-5.05576">
        <ele>18.76</ele>
        <time>2021-04-06T12:42:59Z</time>
      </trkpt>
      <trkpt lat="57.80211" lon="-5.05602">
        <ele>17.89</ele>
        <time>2021-04-06T12:43:05Z</time>
      </trkpt>
      <trkpt lat="57.80278" lon="-5.05625">
        <ele>17</ele>
        <time>2021-04-06T12:43:11Z</time>
      </trkpt>
      <trkpt lat="57.80344" lon="-5.05633">
        <ele>16.44</ele>
        <time>2021-04-06T12:43:17Z</time>
      </trkpt>
      <trkpt lat="57.80479" lon="-5.05591">
        <ele>17.32</ele>
        <time>2021-04-06T12:43:23Z</time>
      </trkpt>
      <trkpt lat="57.8057" lon="-5.05602">
        <ele>21.93</ele>
        <time>2021-04-06T12:43:29Z</time>
      </trkpt>
      <trkpt lat="57.80725" lon="-5.05656">
        <ele>20.9</ele>
        <time>2021-04-06T12:43:35Z</time>
      </trkpt>
      <trkpt lat="57.80821" lon="-5.05682">
        <ele>26.2</ele>
        <time>2021-04-06T12:43:41Z</time>
      </trkpt>
      <trkpt lat="57.80999" lon="-5.0574">
        <ele>16.07</ele>
        <time>2021-04-06T12:43:47Z</time>
      </trkpt>
      <trkpt lat="57.81129" lon="-5.05778">
        <ele>14.35</ele>
        <time>2021-04-06T12:43:53Z</time>
      </trkpt>
      <trkpt lat="57.81215" lon="-5.05808">
        <ele>17.83</ele>
        <time>2021-04-06T12:43:59Z</time>
      </trkpt>
      <trkpt lat="57.81304" lon="-5.0586">
        <ele>12.15</ele>
        <time>2021-04-06T12:44:05Z</time>
      </trkpt>
      <trkpt lat="57.81351" lon="-5.05895">
        <ele>11.01</ele>
        <time>2021-04-06T12:44:11Z</time>
      </trkpt>
      <trkpt lat="57.8141" lon="-5.05921">
        <ele>9.52</ele>
        <time>2021-04-06T12:44:17Z</time>
      </trkpt>
      <trkpt lat="57.81462" lon="-5.05922">
        <ele>8.22</ele>
        <time>2021-04-06T12:44:23Z</time>
      </trkpt>
      <trkpt lat="57.81593" lon="-5.05899">
        <ele>9.77</ele>
        <time>2021-04-06T12:44:29Z</time>
      </trkpt>
      <trkpt lat="57.81662" lon="-5.05926">
        <ele>9.18</ele>
        <time>2021-04-06T12:44:35Z</time>
      </trkpt>
      <trkpt lat="57.81715" lon="-5.05985">
        <ele>7</ele>
        <time>2021-04-06T12:44:41Z</time>
      </trkpt>
      <trkpt lat="57.81856" lon="-5.06195">
        <ele>12.74</ele>
        <time>2021-04-06T12:44:47Z</time>
      </trkpt>
      <trkpt lat="57.81891" lon="-5.06226">
        <ele>11.85</ele>
        <time>2021-04-06T12:44:53Z</time>
      </trkpt>
      <trkpt lat="57.81935" lon="-5.06253">
        <ele>11</ele>
        <time>2021-04-06T12:44:59Z</time>
      </trkpt>
      <trkpt lat="57.81972" lon="-5.06266">
        <ele>11</ele>
        <time>2021-04-06T12:45:05Z</time>
      </trkpt>
      <trkpt lat="57.82331" lon="-5.06359">
        <ele>10.17</ele>
        <time>2021-04-06T12:45:11Z</time>
      </trkpt>
      <trkpt lat="57.82518" lon="-5.06437">
        <ele>7</ele>
        <time>2021-04-06T12:45:17Z</time>
      </trkpt>
      <trkpt lat="57.82606" lon="-5.06467">
        <ele>9.01</ele>
        <time>2021-04-06T12:45:23Z</time>
      </trkpt>
      <trkpt lat="57.82787" lon="-5.06545">
        <ele>11.9</ele>
        <time>2021-04-06T12:45:29Z</time>
      </trkpt>
      <trkpt lat="57.82865" lon="-5.06591">
        <ele>20.87</ele>
        <time>2021-04-06T12:45:35Z</time>
      </trkpt>
      <trkpt lat="57.82961" lon="-5.0666">
        <ele>27.12</ele>
        <time>2021-04-06T12:45:41Z</time>
      </trkpt>
      <trkpt lat="57.83052" lon="-5.06747">
        <ele>28.83</ele>
        <time>2021-04-06T12:45:47Z</time>
      </trkpt>
      <trkpt lat="57.8311" lon="-5.06817">
        <ele>22.77</ele>
        <time>2021-04-06T12:45:53Z</time>
      </trkpt>
      <trkpt lat="57.83179" lon="-5.06887">
        <ele>24.16</ele>
        <time>2021-04-06T12:45:59Z</time>
      </trkpt>
      <trkpt lat="57.83252" lon="-5.06967">
        <ele>21.27</ele>
        <time>2021-04-06T12:46:05Z</time>
      </trkpt>
      <trkpt lat="57.83334" lon="-5.07047">
        <ele>18.59</ele>
        <time>2021-04-06T12:46:11Z</time>
      </trkpt>
      <trkpt lat="57.83383" lon="-5.07092">
        <ele>16.91</ele>
        <time>2021-04-06T12:46:17Z</time>
      </trkpt>
      <trkpt lat="57.83424" lon="-5.07123">
        <ele>15.82</ele>
        <time>2021-04-06T12:46:23Z</time>
      </trkpt>
      <trkpt lat="57.83794" lon="-5.07359">
        <ele>19.78</ele>
        <time>2021-04-06T12:46:29Z</time>
      </trkpt>
      <trkpt lat="57.83884" lon="-5.07407">
        <ele>21.4</ele>
        <time>2021-04-06T12:46:35Z</time>
      </trkpt>
      <trkpt lat="57.83975" lon="-5.07476">
        <ele>20.96</ele>
        <time>2021-04-06T12:46:41Z</time>
      </trkpt>
      <trkpt lat="57.84146" lon="-5.07592">
        <ele>23.67</ele>
        <time>2021-04-06T12:46:47Z</time>
      </trkpt>
      <trkpt lat="57.84234" lon="-5.07649">
        <ele>24.2</ele>
        <time>2021-04-06T12:46:53Z</time>
      </trkpt>
      <trkpt lat="57.84292" lon="-5.07673">
        <ele>26.34</ele>
        <time>2021-04-06T12:46:59Z</time>
      </trkpt>
      <trkpt lat="57.84334" lon="-5.07682">
        <ele>26.2</ele>
        <time>2021-04-06T12:47:05Z</time>
      </trkpt>
      <trkpt lat="57.84464" lon="-5.07699">
        <ele>26.25</ele>
        <time>2021-04-06T12:47:11Z</time>
      </trkpt>
      <trkpt lat="57.84528" lon="-5.07716">
        <ele>25.46</ele>
        <time>2021-04-06T12:47:17Z</time>
      </trkpt>
      <trkpt lat="57.8467" lon="-5.07732">
        <ele>23.37</ele>
        <time>2021-04-06T12:47:23Z</time>
      </trkpt>
      <trkpt lat="57.84741" lon="-5.07745">
        <ele>25.01</ele>
        <time>2021-04-06T12:47:30Z</time>
      </trkpt>
      <trkpt lat="57.84793" lon="-5.07758">
        <ele>28.03</ele>
        <time>2021-04-06T12:47:36Z</time>
      </trkpt>
      <trkpt lat="57.84898" lon="-5.07802">
        <ele>29.07</ele>
        <time>2021-04-06T12:47:42Z</time>
      </trkpt>
      <trkpt lat="57.85031" lon="-5.07873">
        <ele>29.9</ele>
        <time>2021-04-06T12:47:48Z</time>
      </trkpt>
      <trkpt lat="57.85101" lon="-5.07918">
        <ele>31.26</ele>
        <time>2021-04-06T12:47:54Z</time>
      </trkpt>
      <trkpt lat="57.8519" lon="-5.08012">
        <ele>35.52</ele>
        <time>2021-04-06T12:48:00Z</time>
      </trkpt>
      <trkpt lat="57.8525" lon="-5.08082">
        <ele>37.41</ele>
        <time>2021-04-06T12:48:06Z</time>
      </trkpt>
      <trkpt lat="57.85317" lon="-5.08153">
        <ele>38.69</ele>
        <time>2021-04-06T12:48:12Z</time>
      </trkpt>
      <trkpt lat="57.85436" lon="-5.08314">
        <ele>50.26</ele>
        <time>2021-04-06T12:48:18Z</time>
      </trkpt>
      <trkpt lat="57.85538" lon="-5.08466">
        <ele>63.09</ele>
        <time>2021-04-06T12:48:24Z</time>
      </trkpt>
      <trkpt lat="57.85576" lon="-5.08531">
        <ele>63.58</ele>
        <time>2021-04-06T12:48:30Z</time>
      </trkpt>
      <trkpt lat="57.85627" lon="-5.08662">
        <ele>52.45</ele>
        <time>2021-04-06T12:48:36Z</time>
      </trkpt>
      <trkpt lat="57.8566" lon="-5.087">
        <ele>54.24</ele>
        <time>2021-04-06T12:48:42Z</time>
      </trkpt>
      <trkpt lat="57.85689" lon="-5.08716">
        <ele>58.31</ele>
        <time>2021-04-06T12:48:48Z</time>
      </trkpt>
      <trkpt lat="57.85753" lon="-5.08724">
        <ele>57.64</ele>
        <time>2021-04-06T12:48:54Z</time>
      </trkpt>
      <trkpt lat="57.85802" lon="-5.08725">
        <ele>58.29</ele>
        <time>2021-04-06T12:49:00Z</time>
      </trkpt>
      <trkpt lat="57.85932" lon="-5.08711">
        <ele>43.6</ele>
        <time>2021-04-06T12:49:06Z</time>
      </trkpt>
      <trkpt lat="57.8601" lon="-5.08693">
        <ele>37.19</ele>
        <time>2021-04-06T12:49:12Z</time>
      </trkpt>
      <trkpt lat="57.86092" lon="-5.08701">
        <ele>37.89</ele>
        <time>2021-04-06T12:49:18Z</time>
      </trkpt>
      <trkpt lat="57.86142" lon="-5.08726">
        <ele>37.77</ele>
        <time>2021-04-06T12:49:24Z</time>
      </trkpt>
      <trkpt lat="57.86323" lon="-5.089">
        <ele>30.18</ele>
        <time>2021-04-06T12:49:30Z</time>
      </trkpt>
      <trkpt lat="57.86419" lon="-5.09012">
        <ele>29.35</ele>
        <time>2021-04-06T12:49:36Z</time>
      </trkpt>
      <trkpt lat="57.86555" lon="-5.09196">
        <ele>27.87</ele>
        <time>2021-04-06T12:49:42Z</time>
      </trkpt>
      <trkpt lat="57.86728" lon="-5.09473">
        <ele>19.36</ele>
        <time>2021-04-06T12:49:48Z</time>
      </trkpt>
      <trkpt lat="57.86781" lon="-5.09532">
        <ele>18.98</ele>
        <time>2021-04-06T12:49:54Z</time>
      </trkpt>
      <trkpt lat="57.86825" lon="-5.09551">
        <ele>21.32</ele>
        <time>2021-04-06T12:50:00Z</time>
      </trkpt>
      <trkpt lat="57.86915" lon="-5.09564">
        <ele>29.48</ele>
        <time>2021-04-06T12:50:06Z</time>
      </trkpt>
      <trkpt lat="57.87012" lon="-5.09587">
        <ele>38.62</ele>
        <time>2021-04-06T12:50:12Z</time>
      </trkpt>
      <trkpt lat="57.87075" lon="-5.09647">
        <ele>41.9</ele>
        <time>2021-04-06T12:50:18Z</time>
      </trkpt>
      <trkpt lat="57.87075" lon="-5.09647">
        <ele>41.9</ele>
        <time>2021-04-06T12:50:18Z</time>
      </trkpt>
      <trkpt lat="57.87106" lon="-5.09689">
        <ele>45.79</ele>
        <time>2021-04-06T12:50:23Z</time>
      </trkpt>
      <trkpt lat="57.8713" lon="-5.09732">
        <ele>45.58</ele>
        <time>2021-04-06T12:50:29Z</time>
      </trkpt>
      <trkpt lat="57.87225" lon="-5.09951">
        <ele>42.4</ele>
        <time>2021-04-06T12:50:35Z</time>
      </trkpt>
      <trkpt lat="57.87324" lon="-5.10187">
        <ele>42.88</ele>
        <time>2021-04-06T12:50:40Z</time>
      </trkpt>
      <trkpt lat="57.87443" lon="-5.10534">
        <ele>37.61</ele>
        <time>2021-04-06T12:50:46Z</time>
      </trkpt>
      <trkpt lat="57.8752" lon="-5.10764">
        <ele>32.69</ele>
        <time>2021-04-06T12:50:52Z</time>
      </trkpt>
      <trkpt lat="57.87587" lon="-5.1096">
        <ele>26.72</ele>
        <time>2021-04-06T12:50:57Z</time>
      </trkpt>
      <trkpt lat="57.87721" lon="-5.1138">
        <ele>25.68</ele>
        <time>2021-04-06T12:51:03Z</time>
      </trkpt>
      <trkpt lat="57.87858" lon="-5.11767">
        <ele>27.98</ele>
        <time>2021-04-06T12:51:09Z</time>
      </trkpt>
      <trkpt lat="57.87924" lon="-5.11947">
        <ele>28.69</ele>
        <time>2021-04-06T12:51:14Z</time>
      </trkpt>
      <trkpt lat="57.8802" lon="-5.12215">
        <ele>38.31</ele>
        <time>2021-04-06T12:51:20Z</time>
      </trkpt>
      <trkpt lat="57.8807" lon="-5.12336">
        <ele>42.78</ele>
        <time>2021-04-06T12:51:26Z</time>
      </trkpt>
      <trkpt lat="57.88166" lon="-5.12493">
        <ele>46.64</ele>
        <time>2021-04-06T12:51:31Z</time>
      </trkpt>
      <trkpt lat="57.88201" lon="-5.12544">
        <ele>46.16</ele>
        <time>2021-04-06T12:51:37Z</time>
      </trkpt>
      <trkpt lat="57.88232" lon="-5.12603">
        <ele>45.82</ele>
        <time>2021-04-06T12:51:43Z</time>
      </trkpt>
      <trkpt lat="57.88322" lon="-5.1278">
        <ele>43.47</ele>
        <time>2021-04-06T12:51:48Z</time>
      </trkpt>
      <trkpt lat="57.88429" lon="-5.12934">
        <ele>37.64</ele>
        <time>2021-04-06T12:51:54Z</time>
      </trkpt>
      <trkpt lat="57.88485" lon="-5.12997">
        <ele>39.87</ele>
        <time>2021-04-06T12:52:00Z</time>
      </trkpt>
      <trkpt lat="57.88535" lon="-5.13074">
        <ele>41.44</ele>
        <time>2021-04-06T12:52:05Z</time>
      </trkpt>
      <trkpt lat="57.88565" lon="-5.13149">
        <ele>38.3</ele>
        <time>2021-04-06T12:52:11Z</time>
      </trkpt>
      <trkpt lat="57.88619" lon="-5.13338">
        <ele>31.22</ele>
        <time>2021-04-06T12:52:17Z</time>
      </trkpt>
      <trkpt lat="57.88661" lon="-5.13424">
        <ele>28.67</ele>
        <time>2021-04-06T12:52:22Z</time>
      </trkpt>
      <trkpt lat="57.88722" lon="-5.13495">
        <ele>29.51</ele>
        <time>2021-04-06T12:52:28Z</time>
      </trkpt>
      <trkpt lat="57.88784" lon="-5.13536">
        <ele>31.31</ele>
        <time>2021-04-06T12:52:34Z</time>
      </trkpt>
      <trkpt lat="57.88814" lon="-5.1356">
        <ele>30.97</ele>
        <time>2021-04-06T12:52:39Z</time>
      </trkpt>
      <trkpt lat="57.88835" lon="-5.13582">
        <ele>32.55</ele>
        <time>2021-04-06T12:52:45Z</time>
      </trkpt>
      <trkpt lat="57.88858" lon="-5.13625">
        <ele>32.86</ele>
        <time>2021-04-06T12:52:51Z</time>
      </trkpt>
      <trkpt lat="57.88888" lon="-5.13696">
        <ele>31.56</ele>
        <time>2021-04-06T12:52:56Z</time>
      </trkpt>
      <trkpt lat="57.88928" lon="-5.13785">
        <ele>30.96</ele>
        <time>2021-04-06T12:53:02Z</time>
      </trkpt>
      <trkpt lat="57.88965" lon="-5.13836">
        <ele>34.28</ele>
        <time>2021-04-06T12:53:08Z</time>
      </trkpt>
      <trkpt lat="57.88997" lon="-5.13861">
        <ele>38.15</ele>
        <time>2021-04-06T12:53:13Z</time>
      </trkpt>
      <trkpt lat="57.89049" lon="-5.13916">
        <ele>40.72</ele>
        <time>2021-04-06T12:53:19Z</time>
      </trkpt>
      <trkpt lat="57.89062" lon="-5.13932">
        <ele>39.57</ele>
        <time>2021-04-06T12:53:25Z</time>
      </trkpt>
      <trkpt lat="57.8909" lon="-5.13978">
        <ele>38.91</ele>
        <time>2021-04-06T12:53:30Z</time>
      </trkpt>
      <trkpt lat="57.89125" lon="-5.14059">
        <ele>37.65</ele>
        <time>2021-04-06T12:53:36Z</time>
      </trkpt>
      <trkpt lat="57.89166" lon="-5.14129">
        <ele>39.43</ele>
        <time>2021-04-06T12:53:42Z</time>
      </trkpt>
      <trkpt lat="57.89192" lon="-5.14167">
        <ele>39.26</ele>
        <time>2021-04-06T12:53:47Z</time>
      </trkpt>
      <trkpt lat="57.8923" lon="-5.14197">
        <ele>37.22</ele>
        <time>2021-04-06T12:53:53Z</time>
      </trkpt>
      <trkpt lat="57.89371" lon="-5.14269">
        <ele>41.4</ele>
        <time>2021-04-06T12:53:59Z</time>
      </trkpt>
      <trkpt lat="57.89426" lon="-5.14328">
        <ele>35.79</ele>
        <time>2021-04-06T12:54:04Z</time>
      </trkpt>
      <trkpt lat="57.89463" lon="-5.14385">
        <ele>36.44</ele>
        <time>2021-04-06T12:54:10Z</time>
      </trkpt>
      <trkpt lat="57.89495" lon="-5.14454">
        <ele>34.1</ele>
        <time>2021-04-06T12:54:16Z</time>
      </trkpt>
      <trkpt lat="57.89503" lon="-5.14476">
        <ele>32.47</ele>
        <time>2021-04-06T12:54:21Z</time>
      </trkpt>
      <trkpt lat="57.89518" lon="-5.14531">
        <ele>29.63</ele>
        <time>2021-04-06T12:54:27Z</time>
      </trkpt>
      <trkpt lat="57.896" lon="-5.14922">
        <ele>20.05</ele>
        <time>2021-04-06T12:54:33Z</time>
      </trkpt>
      <trkpt lat="57.89617" lon="-5.14978">
        <ele>17.73</ele>
        <time>2021-04-06T12:54:38Z</time>
      </trkpt>
      <trkpt lat="57.89657" lon="-5.1506">
        <ele>14.84</ele>
        <time>2021-04-06T12:54:44Z</time>
      </trkpt>
      <trkpt lat="57.89671" lon="-5.15104">
        <ele>12.11</ele>
        <time>2021-04-06T12:54:50Z</time>
      </trkpt>
      <trkpt lat="57.89681" lon="-5.15149">
        <ele>11.81</ele>
        <time>2021-04-06T12:54:55Z</time>
      </trkpt>
      <trkpt lat="57.89683" lon="-5.15185">
        <ele>11.09</ele>
        <time>2021-04-06T12:55:01Z</time>
      </trkpt>
      <trkpt lat="57.89684" lon="-5.1523">
        <ele>10.59</ele>
        <time>2021-04-06T12:55:06Z</time>
      </trkpt>
      <trkpt lat="57.89664" lon="-5.15478">
        <ele>8.77</ele>
        <time>2021-04-06T12:55:12Z</time>
      </trkpt>
      <trkpt lat="57.89629" lon="-5.15654">
        <ele>7.61</ele>
        <time>2021-04-06T12:55:18Z</time>
      </trkpt>
    </trkseg>
  </trk>
</gpx>